<?xml version="1.0" encoding="utf-8"?>
<gpx xmlns:xsi="http://www.w3.org/2001/XMLSchema-instance" xmlns:xsd="http://www.w3.org/2001/XMLSchema" version="1.1" creator="Shapelink.com" xmlns="http://www.topografix.com/GPX/1/1" xmlns:gpxtpx="http://www.garmin.com/xmlschemas/TrackPointExtension/v1">
  <metadata>
    <name>Kører 50.01 km, 2011-06-17</name>
    <desc></desc>
    <author><name>Jojje Borssén</name></author> 
    <time>2011-06-17T10:12:50Z</time>
  </metadata>
  <trk>
    <name>Kører 50.01 km, 2011-06-17</name>
    <trkseg>
      <trkpt lat="59.2948218245" lon="18.1066413164">
        <ele>45.4</ele>
        <time>2011-06-17T10:12:50Z</time>
      </trkpt>
      <trkpt lat="59.2948010374" lon="18.1066336889">
        <ele>45.4</ele>
        <time>2011-06-17T10:12:51Z</time>
      </trkpt>
      <trkpt lat="59.2947245945" lon="18.1066564038">
        <ele>45.4</ele>
        <time>2011-06-17T10:12:55Z</time>
      </trkpt>
      <trkpt lat="59.2946380932" lon="18.1066560686">
        <ele>45.4</ele>
        <time>2011-06-17T10:12:58Z</time>
      </trkpt>
      <trkpt lat="59.2945169748" lon="18.1066403944">
        <ele>45.4</ele>
        <time>2011-06-17T10:13:03Z</time>
      </trkpt>
      <trkpt lat="59.2943909948" lon="18.106647519">
        <ele>45.4</ele>
        <time>2011-06-17T10:13:08Z</time>
      </trkpt>
      <trkpt lat="59.2942226863" lon="18.1065754347">
        <ele>45.4</ele>
        <time>2011-06-17T10:13:14Z</time>
      </trkpt>
      <trkpt lat="59.29410425" lon="18.1065741774">
        <ele>45.4</ele>
        <time>2011-06-17T10:13:18Z</time>
      </trkpt>
      <trkpt lat="59.2939399648" lon="18.1065795418">
        <ele>45.4</ele>
        <time>2011-06-17T10:13:24Z</time>
      </trkpt>
      <trkpt lat="59.2937886715" lon="18.1065902706">
        <ele>45.4</ele>
        <time>2011-06-17T10:13:29Z</time>
      </trkpt>
      <trkpt lat="59.2936518789" lon="18.1065971438">
        <ele>45.4</ele>
        <time>2011-06-17T10:13:34Z</time>
      </trkpt>
      <trkpt lat="59.2935133261" lon="18.1066114768">
        <ele>45.4</ele>
        <time>2011-06-17T10:13:40Z</time>
      </trkpt>
      <trkpt lat="59.2934127433" lon="18.1066222895">
        <ele>45.4</ele>
        <time>2011-06-17T10:13:45Z</time>
      </trkpt>
      <trkpt lat="59.2932897808" lon="18.1066682223">
        <ele>45.4</ele>
        <time>2011-06-17T10:13:50Z</time>
      </trkpt>
      <trkpt lat="59.2932073029" lon="18.1066990677">
        <ele>45.4</ele>
        <time>2011-06-17T10:13:54Z</time>
      </trkpt>
      <trkpt lat="59.2930864359" lon="18.1067286558">
        <ele>45.4</ele>
        <time>2011-06-17T10:14:00Z</time>
      </trkpt>
      <trkpt lat="59.293065565" lon="18.1067426536">
        <ele>45.4</ele>
        <time>2011-06-17T10:14:01Z</time>
      </trkpt>
      <trkpt lat="59.2929135173" lon="18.1067721579">
        <ele>45.4</ele>
        <time>2011-06-17T10:14:07Z</time>
      </trkpt>
      <trkpt lat="59.2927442868" lon="18.1068481817">
        <ele>45</ele>
        <time>2011-06-17T10:14:13Z</time>
      </trkpt>
      <trkpt lat="59.2926224978" lon="18.1069001495">
        <ele>44.4</ele>
        <time>2011-06-17T10:14:18Z</time>
      </trkpt>
      <trkpt lat="59.2924732999" lon="18.106962427">
        <ele>43.8</ele>
        <time>2011-06-17T10:14:25Z</time>
      </trkpt>
      <trkpt lat="59.2923451407" lon="18.1070162388">
        <ele>43.8</ele>
        <time>2011-06-17T10:14:29Z</time>
      </trkpt>
      <trkpt lat="59.2922441388" lon="18.1070666978">
        <ele>43.6</ele>
        <time>2011-06-17T10:14:33Z</time>
      </trkpt>
      <trkpt lat="59.2922266206" lon="18.1070857248">
        <ele>43.6</ele>
        <time>2011-06-17T10:14:34Z</time>
      </trkpt>
      <trkpt lat="59.2920875649" lon="18.1071457392">
        <ele>43.4</ele>
        <time>2011-06-17T10:14:40Z</time>
      </trkpt>
      <trkpt lat="59.2919650215" lon="18.1072143869">
        <ele>43.4</ele>
        <time>2011-06-17T10:14:45Z</time>
      </trkpt>
      <trkpt lat="59.291907857" lon="18.1072318213">
        <ele>43.4</ele>
        <time>2011-06-17T10:14:48Z</time>
      </trkpt>
      <trkpt lat="59.2918037538" lon="18.1071846312">
        <ele>43.4</ele>
        <time>2011-06-17T10:14:52Z</time>
      </trkpt>
      <trkpt lat="59.2917210244" lon="18.1072312345">
        <ele>43.4</ele>
        <time>2011-06-17T10:14:56Z</time>
      </trkpt>
      <trkpt lat="59.2916068629" lon="18.1072758262">
        <ele>43.4</ele>
        <time>2011-06-17T10:15:01Z</time>
      </trkpt>
      <trkpt lat="59.2914613531" lon="18.1073210885">
        <ele>44.4</ele>
        <time>2011-06-17T10:15:07Z</time>
      </trkpt>
      <trkpt lat="59.2913286677" lon="18.1073556219">
        <ele>44.8</ele>
        <time>2011-06-17T10:15:12Z</time>
      </trkpt>
      <trkpt lat="59.2911597724" lon="18.1073809353">
        <ele>45</ele>
        <time>2011-06-17T10:15:18Z</time>
      </trkpt>
      <trkpt lat="59.290995068" lon="18.1074174804">
        <ele>45.2</ele>
        <time>2011-06-17T10:15:25Z</time>
      </trkpt>
      <trkpt lat="59.2908757936" lon="18.1074500859">
        <ele>45.4</ele>
        <time>2011-06-17T10:15:30Z</time>
      </trkpt>
      <trkpt lat="59.2907310382" lon="18.1075100165">
        <ele>45.4</ele>
        <time>2011-06-17T10:15:36Z</time>
      </trkpt>
      <trkpt lat="59.2905909766" lon="18.1075276185">
        <ele>45.4</ele>
        <time>2011-06-17T10:15:41Z</time>
      </trkpt>
      <trkpt lat="59.2905054813" lon="18.1072303963">
        <ele>45.4</ele>
        <time>2011-06-17T10:15:48Z</time>
      </trkpt>
      <trkpt lat="59.2904732948" lon="18.1069019935">
        <ele>45.4</ele>
        <time>2011-06-17T10:15:55Z</time>
      </trkpt>
      <trkpt lat="59.290421327" lon="18.1066261452">
        <ele>45.4</ele>
        <time>2011-06-17T10:16:01Z</time>
      </trkpt>
      <trkpt lat="59.2903649168" lon="18.1064128258">
        <ele>45.4</ele>
        <time>2011-06-17T10:16:06Z</time>
      </trkpt>
      <trkpt lat="59.2903119432" lon="18.1061882747">
        <ele>45.4</ele>
        <time>2011-06-17T10:16:11Z</time>
      </trkpt>
      <trkpt lat="59.2902153837" lon="18.1059120911">
        <ele>45.4</ele>
        <time>2011-06-17T10:16:18Z</time>
      </trkpt>
      <trkpt lat="59.290158303" lon="18.1057043876">
        <ele>45.4</ele>
        <time>2011-06-17T10:16:24Z</time>
      </trkpt>
      <trkpt lat="59.2901334925" lon="18.105460642">
        <ele>45.4</ele>
        <time>2011-06-17T10:16:30Z</time>
      </trkpt>
      <trkpt lat="59.2901227637" lon="18.1052290501">
        <ele>45.4</ele>
        <time>2011-06-17T10:16:34Z</time>
      </trkpt>
      <trkpt lat="59.2901290501" lon="18.105092928">
        <ele>45.4</ele>
        <time>2011-06-17T10:16:37Z</time>
      </trkpt>
      <trkpt lat="59.2901179022" lon="18.1047645252">
        <ele>45.4</ele>
        <time>2011-06-17T10:16:44Z</time>
      </trkpt>
      <trkpt lat="59.2901271223" lon="18.1044983999">
        <ele>45.4</ele>
        <time>2011-06-17T10:16:50Z</time>
      </trkpt>
      <trkpt lat="59.2901403657" lon="18.1043667202">
        <ele>45.4</ele>
        <time>2011-06-17T10:16:54Z</time>
      </trkpt>
      <trkpt lat="59.2901482447" lon="18.104352471">
        <ele>44.6</ele>
        <time>2011-06-17T10:17:00Z</time>
      </trkpt>
      <trkpt lat="59.2901344146" lon="18.1042577555">
        <ele>42.6</ele>
        <time>2011-06-17T10:17:23Z</time>
      </trkpt>
      <trkpt lat="59.290124021" lon="18.1041642973">
        <ele>42</ele>
        <time>2011-06-17T10:17:28Z</time>
      </trkpt>
      <trkpt lat="59.2901184889" lon="18.1040857589">
        <ele>41.8</ele>
        <time>2011-06-17T10:17:32Z</time>
      </trkpt>
      <trkpt lat="59.2901131245" lon="18.104057009">
        <ele>41.6</ele>
        <time>2011-06-17T10:17:34Z</time>
      </trkpt>
      <trkpt lat="59.2901239372" lon="18.1039218928">
        <ele>41.6</ele>
        <time>2011-06-17T10:17:40Z</time>
      </trkpt>
      <trkpt lat="59.2901496696" lon="18.1037058912">
        <ele>41.4</ele>
        <time>2011-06-17T10:17:45Z</time>
      </trkpt>
      <trkpt lat="59.290182359" lon="18.1034064059">
        <ele>41.4</ele>
        <time>2011-06-17T10:17:52Z</time>
      </trkpt>
      <trkpt lat="59.2902096002" lon="18.1031019753">
        <ele>41.4</ele>
        <time>2011-06-17T10:17:58Z</time>
      </trkpt>
      <trkpt lat="59.2902566227" lon="18.1028382807">
        <ele>41.4</ele>
        <time>2011-06-17T10:18:04Z</time>
      </trkpt>
      <trkpt lat="59.2902992027" lon="18.1024697286">
        <ele>41.4</ele>
        <time>2011-06-17T10:18:11Z</time>
      </trkpt>
      <trkpt lat="59.2903345743" lon="18.1021709977">
        <ele>41.4</ele>
        <time>2011-06-17T10:18:17Z</time>
      </trkpt>
      <trkpt lat="59.2903522601" lon="18.101867992">
        <ele>41.4</ele>
        <time>2011-06-17T10:18:23Z</time>
      </trkpt>
      <trkpt lat="59.2903209957" lon="18.1015555986">
        <ele>41.4</ele>
        <time>2011-06-17T10:18:29Z</time>
      </trkpt>
      <trkpt lat="59.2903007115" lon="18.1012486534">
        <ele>41.4</ele>
        <time>2011-06-17T10:18:35Z</time>
      </trkpt>
      <trkpt lat="59.2902537728" lon="18.1007319931">
        <ele>41.8</ele>
        <time>2011-06-17T10:18:46Z</time>
      </trkpt>
      <trkpt lat="59.2902246876" lon="18.1004661192">
        <ele>42.4</ele>
        <time>2011-06-17T10:18:51Z</time>
      </trkpt>
      <trkpt lat="59.2901913277" lon="18.1001452601">
        <ele>42.8</ele>
        <time>2011-06-17T10:18:58Z</time>
      </trkpt>
      <trkpt lat="59.2901512622" lon="18.0997983333">
        <ele>43.2</ele>
        <time>2011-06-17T10:19:05Z</time>
      </trkpt>
      <trkpt lat="59.2901151362" lon="18.0994115086">
        <ele>43.2</ele>
        <time>2011-06-17T10:19:13Z</time>
      </trkpt>
      <trkpt lat="59.2900804351" lon="18.0990483208">
        <ele>43.2</ele>
        <time>2011-06-17T10:19:21Z</time>
      </trkpt>
      <trkpt lat="59.290070293" lon="18.0989430442">
        <ele>43.2</ele>
        <time>2011-06-17T10:19:23Z</time>
      </trkpt>
      <trkpt lat="59.2900563791" lon="18.0988043237">
        <ele>43.4</ele>
        <time>2011-06-17T10:19:26Z</time>
      </trkpt>
      <trkpt lat="59.2900282997" lon="18.0985645176">
        <ele>43.4</ele>
        <time>2011-06-17T10:19:31Z</time>
      </trkpt>
      <trkpt lat="59.2899606578" lon="18.0982764317">
        <ele>43.4</ele>
        <time>2011-06-17T10:19:37Z</time>
      </trkpt>
      <trkpt lat="59.2899422176" lon="18.0979756053">
        <ele>43.4</ele>
        <time>2011-06-17T10:19:43Z</time>
      </trkpt>
      <trkpt lat="59.2899447322" lon="18.097923889">
        <ele>43.4</ele>
        <time>2011-06-17T10:19:44Z</time>
      </trkpt>
      <trkpt lat="59.2899594843" lon="18.0976264991">
        <ele>43.4</ele>
        <time>2011-06-17T10:19:50Z</time>
      </trkpt>
      <trkpt lat="59.2899491746" lon="18.0972958332">
        <ele>43.4</ele>
        <time>2011-06-17T10:19:57Z</time>
      </trkpt>
      <trkpt lat="59.2899404574" lon="18.0972316278">
        <ele>43.4</ele>
        <time>2011-06-17T10:19:58Z</time>
      </trkpt>
      <trkpt lat="59.2898964524" lon="18.0969053205">
        <ele>43.4</ele>
        <time>2011-06-17T10:20:05Z</time>
      </trkpt>
      <trkpt lat="59.2898740727" lon="18.0966855471">
        <ele>43.4</ele>
        <time>2011-06-17T10:20:10Z</time>
      </trkpt>
      <trkpt lat="59.2898282237" lon="18.0964069327">
        <ele>43.4</ele>
        <time>2011-06-17T10:20:16Z</time>
      </trkpt>
      <trkpt lat="59.289767455" lon="18.0961509495">
        <ele>43.4</ele>
        <time>2011-06-17T10:20:22Z</time>
      </trkpt>
      <trkpt lat="59.2897186723" lon="18.0959062818">
        <ele>43.4</ele>
        <time>2011-06-17T10:20:27Z</time>
      </trkpt>
      <trkpt lat="59.2896798641" lon="18.0956615303">
        <ele>43.4</ele>
        <time>2011-06-17T10:20:32Z</time>
      </trkpt>
      <trkpt lat="59.2896305785" lon="18.0953758752">
        <ele>43.4</ele>
        <time>2011-06-17T10:20:38Z</time>
      </trkpt>
      <trkpt lat="59.2895734978" lon="18.0950958359">
        <ele>43.4</ele>
        <time>2011-06-17T10:20:44Z</time>
      </trkpt>
      <trkpt lat="59.289527565" lon="18.0947712049">
        <ele>43.4</ele>
        <time>2011-06-17T10:20:51Z</time>
      </trkpt>
      <trkpt lat="59.2894908523" lon="18.0945210052">
        <ele>43.4</ele>
        <time>2011-06-17T10:20:56Z</time>
      </trkpt>
      <trkpt lat="59.2894351965" lon="18.0941610026">
        <ele>43.4</ele>
        <time>2011-06-17T10:21:04Z</time>
      </trkpt>
      <trkpt lat="59.2894015012" lon="18.093925555">
        <ele>43.4</ele>
        <time>2011-06-17T10:21:09Z</time>
      </trkpt>
      <trkpt lat="59.2893517966" lon="18.0935825677">
        <ele>43.4</ele>
        <time>2011-06-17T10:21:16Z</time>
      </trkpt>
      <trkpt lat="59.289315922" lon="18.0933083119">
        <ele>43.8</ele>
        <time>2011-06-17T10:21:22Z</time>
      </trkpt>
      <trkpt lat="59.2892626131" lon="18.0929625585">
        <ele>44.6</ele>
        <time>2011-06-17T10:21:29Z</time>
      </trkpt>
      <trkpt lat="59.2892229668" lon="18.0926813458">
        <ele>45</ele>
        <time>2011-06-17T10:21:35Z</time>
      </trkpt>
      <trkpt lat="59.2891810573" lon="18.0923935113">
        <ele>45.2</ele>
        <time>2011-06-17T10:21:41Z</time>
      </trkpt>
      <trkpt lat="59.2891312688" lon="18.0920676231">
        <ele>45.2</ele>
        <time>2011-06-17T10:21:48Z</time>
      </trkpt>
      <trkpt lat="59.2890886049" lon="18.0917206124">
        <ele>46.4</ele>
        <time>2011-06-17T10:21:55Z</time>
      </trkpt>
      <trkpt lat="59.2890634592" lon="18.0914782079">
        <ele>47</ele>
        <time>2011-06-17T10:22:00Z</time>
      </trkpt>
      <trkpt lat="59.2890393193" lon="18.0911898705">
        <ele>47.6</ele>
        <time>2011-06-17T10:22:06Z</time>
      </trkpt>
      <trkpt lat="59.2890340387" lon="18.0909919738">
        <ele>48.2</ele>
        <time>2011-06-17T10:22:10Z</time>
      </trkpt>
      <trkpt lat="59.2890069652" lon="18.0908210669">
        <ele>48.8</ele>
        <time>2011-06-17T10:22:14Z</time>
      </trkpt>
      <trkpt lat="59.2889653071" lon="18.0904027263">
        <ele>49.2</ele>
        <time>2011-06-17T10:22:23Z</time>
      </trkpt>
      <trkpt lat="59.2889561709" lon="18.0903883932">
        <ele>49.2</ele>
        <time>2011-06-17T10:22:24Z</time>
      </trkpt>
      <trkpt lat="59.2888749503" lon="18.0904155506">
        <ele>50</ele>
        <time>2011-06-17T10:22:28Z</time>
      </trkpt>
      <trkpt lat="59.2887842581" lon="18.0904532691">
        <ele>50.6</ele>
        <time>2011-06-17T10:22:32Z</time>
      </trkpt>
      <trkpt lat="59.2887268421" lon="18.0904273691">
        <ele>50.8</ele>
        <time>2011-06-17T10:22:34Z</time>
      </trkpt>
      <trkpt lat="59.2886992656" lon="18.090220839">
        <ele>51.2</ele>
        <time>2011-06-17T10:22:38Z</time>
      </trkpt>
      <trkpt lat="59.2886947394" lon="18.0901749062">
        <ele>51.2</ele>
        <time>2011-06-17T10:22:39Z</time>
      </trkpt>
      <trkpt lat="59.2886521594" lon="18.0898237884">
        <ele>51.4</ele>
        <time>2011-06-17T10:22:47Z</time>
      </trkpt>
      <trkpt lat="59.2886167039" lon="18.0894896021">
        <ele>51.6</ele>
        <time>2011-06-17T10:22:54Z</time>
      </trkpt>
      <trkpt lat="59.2885908877" lon="18.0892352114">
        <ele>51.6</ele>
        <time>2011-06-17T10:23:00Z</time>
      </trkpt>
      <trkpt lat="59.2885591203" lon="18.0889168669">
        <ele>51.6</ele>
        <time>2011-06-17T10:23:07Z</time>
      </trkpt>
      <trkpt lat="59.2885216532" lon="18.0886418567">
        <ele>51.6</ele>
        <time>2011-06-17T10:23:13Z</time>
      </trkpt>
      <trkpt lat="59.2884462999" lon="18.0883950936">
        <ele>51.6</ele>
        <time>2011-06-17T10:23:19Z</time>
      </trkpt>
      <trkpt lat="59.2883836033" lon="18.088331475">
        <ele>51.6</ele>
        <time>2011-06-17T10:23:23Z</time>
      </trkpt>
      <trkpt lat="59.288376311" lon="18.0883268649">
        <ele>51.6</ele>
        <time>2011-06-17T10:23:29Z</time>
      </trkpt>
      <trkpt lat="59.2883754728" lon="18.0883090953">
        <ele>51.6</ele>
        <time>2011-06-17T10:23:30Z</time>
      </trkpt>
      <trkpt lat="59.2883555239" lon="18.0881999629">
        <ele>51.6</ele>
        <time>2011-06-17T10:23:33Z</time>
      </trkpt>
      <trkpt lat="59.2882718726" lon="18.0879128829">
        <ele>51.6</ele>
        <time>2011-06-17T10:23:40Z</time>
      </trkpt>
      <trkpt lat="59.2882027219" lon="18.0876648625">
        <ele>51.6</ele>
        <time>2011-06-17T10:23:45Z</time>
      </trkpt>
      <trkpt lat="59.2881620697" lon="18.0874915248">
        <ele>51.6</ele>
        <time>2011-06-17T10:23:50Z</time>
      </trkpt>
      <trkpt lat="59.2880949306" lon="18.0872031036">
        <ele>51.6</ele>
        <time>2011-06-17T10:23:56Z</time>
      </trkpt>
      <trkpt lat="59.2880400292" lon="18.0869141795">
        <ele>51.6</ele>
        <time>2011-06-17T10:24:02Z</time>
      </trkpt>
      <trkpt lat="59.2879939288" lon="18.086547639">
        <ele>51</ele>
        <time>2011-06-17T10:24:10Z</time>
      </trkpt>
      <trkpt lat="59.2879593953" lon="18.0863558611">
        <ele>50.6</ele>
        <time>2011-06-17T10:24:14Z</time>
      </trkpt>
      <trkpt lat="59.2879006382" lon="18.0860186573">
        <ele>50</ele>
        <time>2011-06-17T10:24:21Z</time>
      </trkpt>
      <trkpt lat="59.287884042" lon="18.0857647695">
        <ele>49.8</ele>
        <time>2011-06-17T10:24:26Z</time>
      </trkpt>
      <trkpt lat="59.2878826171" lon="18.0853688924">
        <ele>49</ele>
        <time>2011-06-17T10:24:34Z</time>
      </trkpt>
      <trkpt lat="59.2878878139" lon="18.0853237978">
        <ele>49</ele>
        <time>2011-06-17T10:24:35Z</time>
      </trkpt>
      <trkpt lat="59.2880009695" lon="18.0851430002">
        <ele>48.2</ele>
        <time>2011-06-17T10:24:41Z</time>
      </trkpt>
      <trkpt lat="59.2881059948" lon="18.0849830735">
        <ele>48</ele>
        <time>2011-06-17T10:24:46Z</time>
      </trkpt>
      <trkpt lat="59.2880515962" lon="18.0846365658">
        <ele>47.8</ele>
        <time>2011-06-17T10:24:53Z</time>
      </trkpt>
      <trkpt lat="59.28797113" lon="18.0843125215">
        <ele>47.8</ele>
        <time>2011-06-17T10:25:00Z</time>
      </trkpt>
      <trkpt lat="59.2878985427" lon="18.0840389363">
        <ele>47.6</ele>
        <time>2011-06-17T10:25:06Z</time>
      </trkpt>
      <trkpt lat="59.2878251173" lon="18.0837808576">
        <ele>47.6</ele>
        <time>2011-06-17T10:25:12Z</time>
      </trkpt>
      <trkpt lat="59.2877482553" lon="18.0834580707">
        <ele>47.6</ele>
        <time>2011-06-17T10:25:19Z</time>
      </trkpt>
      <trkpt lat="59.2876760871" lon="18.0832084577">
        <ele>47.6</ele>
        <time>2011-06-17T10:25:25Z</time>
      </trkpt>
      <trkpt lat="59.2876280588" lon="18.0830183562">
        <ele>47.6</ele>
        <time>2011-06-17T10:25:29Z</time>
      </trkpt>
      <trkpt lat="59.2875983869" lon="18.0829334475">
        <ele>47.6</ele>
        <time>2011-06-17T10:25:31Z</time>
      </trkpt>
      <trkpt lat="59.2875354388" lon="18.0827087288">
        <ele>47.6</ele>
        <time>2011-06-17T10:25:36Z</time>
      </trkpt>
      <trkpt lat="59.2874817947" lon="18.0825367322">
        <ele>47.6</ele>
        <time>2011-06-17T10:25:40Z</time>
      </trkpt>
      <trkpt lat="59.2874092912" lon="18.0822851076">
        <ele>47.6</ele>
        <time>2011-06-17T10:25:46Z</time>
      </trkpt>
      <trkpt lat="59.2873140728" lon="18.0819577106">
        <ele>46.6</ele>
        <time>2011-06-17T10:25:53Z</time>
      </trkpt>
      <trkpt lat="59.2872721633" lon="18.0817711295">
        <ele>46.2</ele>
        <time>2011-06-17T10:25:57Z</time>
      </trkpt>
      <trkpt lat="59.2872004981" lon="18.0815951934">
        <ele>46</ele>
        <time>2011-06-17T10:26:02Z</time>
      </trkpt>
      <trkpt lat="59.2871833152" lon="18.0815532839">
        <ele>46</ele>
        <time>2011-06-17T10:26:03Z</time>
      </trkpt>
      <trkpt lat="59.2871144998" lon="18.0812694728">
        <ele>45.8</ele>
        <time>2011-06-17T10:26:09Z</time>
      </trkpt>
      <trkpt lat="59.2870499592" lon="18.0810318459">
        <ele>45.6</ele>
        <time>2011-06-17T10:26:15Z</time>
      </trkpt>
      <trkpt lat="59.2869795512" lon="18.0807988291">
        <ele>45.6</ele>
        <time>2011-06-17T10:26:20Z</time>
      </trkpt>
      <trkpt lat="59.2869023539" lon="18.0805208014">
        <ele>45.6</ele>
        <time>2011-06-17T10:26:26Z</time>
      </trkpt>
      <trkpt lat="59.2868182835" lon="18.080201032">
        <ele>45.6</ele>
        <time>2011-06-17T10:26:33Z</time>
      </trkpt>
      <trkpt lat="59.2867244062" lon="18.0798654207">
        <ele>45.6</ele>
        <time>2011-06-17T10:26:40Z</time>
      </trkpt>
      <trkpt lat="59.2866669902" lon="18.0796183223">
        <ele>45.6</ele>
        <time>2011-06-17T10:26:45Z</time>
      </trkpt>
      <trkpt lat="59.2866073949" lon="18.0793972916">
        <ele>45.6</ele>
        <time>2011-06-17T10:26:50Z</time>
      </trkpt>
      <trkpt lat="59.2864761343" lon="18.0789712396">
        <ele>45.6</ele>
        <time>2011-06-17T10:27:00Z</time>
      </trkpt>
      <trkpt lat="59.2863934888" lon="18.0786555772">
        <ele>45.6</ele>
        <time>2011-06-17T10:27:07Z</time>
      </trkpt>
      <trkpt lat="59.2863539262" lon="18.0784674036">
        <ele>45.6</ele>
        <time>2011-06-17T10:27:11Z</time>
      </trkpt>
      <trkpt lat="59.2862599651" lon="18.07814118">
        <ele>45.6</ele>
        <time>2011-06-17T10:27:18Z</time>
      </trkpt>
      <trkpt lat="59.2861821811" lon="18.0778846939">
        <ele>44.8</ele>
        <time>2011-06-17T10:27:24Z</time>
      </trkpt>
      <trkpt lat="59.286090064" lon="18.0775676904">
        <ele>44.2</ele>
        <time>2011-06-17T10:27:31Z</time>
      </trkpt>
      <trkpt lat="59.286030301" lon="18.0773577238">
        <ele>43.2</ele>
        <time>2011-06-17T10:27:36Z</time>
      </trkpt>
      <trkpt lat="59.2859583005" lon="18.0771537922">
        <ele>42.4</ele>
        <time>2011-06-17T10:27:41Z</time>
      </trkpt>
      <trkpt lat="59.2858886469" lon="18.0768692267">
        <ele>41.2</ele>
        <time>2011-06-17T10:27:47Z</time>
      </trkpt>
      <trkpt lat="59.285797871" lon="18.0765306818">
        <ele>40.2</ele>
        <time>2011-06-17T10:27:54Z</time>
      </trkpt>
      <trkpt lat="59.2857289717" lon="18.0762778837">
        <ele>39.8</ele>
        <time>2011-06-17T10:27:59Z</time>
      </trkpt>
      <trkpt lat="59.285659402" lon="18.0759997722">
        <ele>39.4</ele>
        <time>2011-06-17T10:28:05Z</time>
      </trkpt>
      <trkpt lat="59.2855719787" lon="18.0756790807">
        <ele>38.2</ele>
        <time>2011-06-17T10:28:12Z</time>
      </trkpt>
      <trkpt lat="59.2854765927" lon="18.0753527734">
        <ele>37.8</ele>
        <time>2011-06-17T10:28:19Z</time>
      </trkpt>
      <trkpt lat="59.2853853977" lon="18.0750314113">
        <ele>36.6</ele>
        <time>2011-06-17T10:28:26Z</time>
      </trkpt>
      <trkpt lat="59.285319935" lon="18.07478381">
        <ele>36</ele>
        <time>2011-06-17T10:28:31Z</time>
      </trkpt>
      <trkpt lat="59.2852576575" lon="18.0745751845">
        <ele>35.6</ele>
        <time>2011-06-17T10:28:36Z</time>
      </trkpt>
      <trkpt lat="59.2851450048" lon="18.0742921277">
        <ele>35.4</ele>
        <time>2011-06-17T10:28:43Z</time>
      </trkpt>
      <trkpt lat="59.2850174322" lon="18.0741156049">
        <ele>35.4</ele>
        <time>2011-06-17T10:28:49Z</time>
      </trkpt>
      <trkpt lat="59.284886507" lon="18.0739470449">
        <ele>34.4</ele>
        <time>2011-06-17T10:28:55Z</time>
      </trkpt>
      <trkpt lat="59.2847696633" lon="18.0738278543">
        <ele>34</ele>
        <time>2011-06-17T10:29:00Z</time>
      </trkpt>
      <trkpt lat="59.2847518098" lon="18.0738041335">
        <ele>33.8</ele>
        <time>2011-06-17T10:29:01Z</time>
      </trkpt>
      <trkpt lat="59.2846847546" lon="18.0737273553">
        <ele>33.6</ele>
        <time>2011-06-17T10:29:04Z</time>
      </trkpt>
      <trkpt lat="59.2846636322" lon="18.0737007009">
        <ele>33.6</ele>
        <time>2011-06-17T10:29:05Z</time>
      </trkpt>
      <trkpt lat="59.2846023606" lon="18.0736296224">
        <ele>33.4</ele>
        <time>2011-06-17T10:29:08Z</time>
      </trkpt>
      <trkpt lat="59.2844900431" lon="18.0735131978">
        <ele>33.4</ele>
        <time>2011-06-17T10:29:13Z</time>
      </trkpt>
      <trkpt lat="59.2844413443" lon="18.0734703663">
        <ele>33.4</ele>
        <time>2011-06-17T10:29:15Z</time>
      </trkpt>
      <trkpt lat="59.2843014503" lon="18.0733137924">
        <ele>33.2</ele>
        <time>2011-06-17T10:29:21Z</time>
      </trkpt>
      <trkpt lat="59.2841587904" lon="18.0731676958">
        <ele>33.2</ele>
        <time>2011-06-17T10:29:27Z</time>
      </trkpt>
      <trkpt lat="59.284054771" lon="18.0730794344">
        <ele>33.2</ele>
        <time>2011-06-17T10:29:31Z</time>
      </trkpt>
      <trkpt lat="59.2839279529" lon="18.0729760018">
        <ele>33.2</ele>
        <time>2011-06-17T10:29:36Z</time>
      </trkpt>
      <trkpt lat="59.2838034817" lon="18.0728221101">
        <ele>33.2</ele>
        <time>2011-06-17T10:29:42Z</time>
      </trkpt>
      <trkpt lat="59.2836785914" lon="18.0726919392">
        <ele>33.2</ele>
        <time>2011-06-17T10:29:48Z</time>
      </trkpt>
      <trkpt lat="59.2835541201" lon="18.0725136562">
        <ele>33.2</ele>
        <time>2011-06-17T10:29:54Z</time>
      </trkpt>
      <trkpt lat="59.2835117915" lon="18.0722960621">
        <ele>33.2</ele>
        <time>2011-06-17T10:29:59Z</time>
      </trkpt>
      <trkpt lat="59.2834362706" lon="18.0721114088">
        <ele>33.2</ele>
        <time>2011-06-17T10:30:04Z</time>
      </trkpt>
      <trkpt lat="59.2834150644" lon="18.0720873528">
        <ele>33.2</ele>
        <time>2011-06-17T10:30:05Z</time>
      </trkpt>
      <trkpt lat="59.2832782718" lon="18.0721106544">
        <ele>32.4</ele>
        <time>2011-06-17T10:30:11Z</time>
      </trkpt>
      <trkpt lat="59.2831899266" lon="18.0720561721">
        <ele>31.8</ele>
        <time>2011-06-17T10:30:15Z</time>
      </trkpt>
      <trkpt lat="59.2831683851" lon="18.0720342115">
        <ele>31.8</ele>
        <time>2011-06-17T10:30:16Z</time>
      </trkpt>
      <trkpt lat="59.2830553971" lon="18.0719159429">
        <ele>31.6</ele>
        <time>2011-06-17T10:30:21Z</time>
      </trkpt>
      <trkpt lat="59.2829556525" lon="18.0717912202">
        <ele>31.4</ele>
        <time>2011-06-17T10:30:26Z</time>
      </trkpt>
      <trkpt lat="59.2828395632" lon="18.071685273">
        <ele>31.2</ele>
        <time>2011-06-17T10:30:31Z</time>
      </trkpt>
      <trkpt lat="59.2826986634" lon="18.0715570299">
        <ele>31.2</ele>
        <time>2011-06-17T10:30:37Z</time>
      </trkpt>
      <trkpt lat="59.282617359" lon="18.0715031343">
        <ele>31.2</ele>
        <time>2011-06-17T10:30:41Z</time>
      </trkpt>
      <trkpt lat="59.2824855117" lon="18.0714138671">
        <ele>31.2</ele>
        <time>2011-06-17T10:30:46Z</time>
      </trkpt>
      <trkpt lat="59.282398759" lon="18.071313871">
        <ele>31.6</ele>
        <time>2011-06-17T10:30:50Z</time>
      </trkpt>
      <trkpt lat="59.2822858549" lon="18.0712076724">
        <ele>32.2</ele>
        <time>2011-06-17T10:30:55Z</time>
      </trkpt>
      <trkpt lat="59.282177896" lon="18.0710911639">
        <ele>33.2</ele>
        <time>2011-06-17T10:31:00Z</time>
      </trkpt>
      <trkpt lat="59.282043115" lon="18.0709511024">
        <ele>34.6</ele>
        <time>2011-06-17T10:31:06Z</time>
      </trkpt>
      <trkpt lat="59.2819323901" lon="18.0708242842">
        <ele>35.6</ele>
        <time>2011-06-17T10:31:11Z</time>
      </trkpt>
      <trkpt lat="59.2818593" lon="18.070765108">
        <ele>36.2</ele>
        <time>2011-06-17T10:31:14Z</time>
      </trkpt>
      <trkpt lat="59.2818148759" lon="18.0707270542">
        <ele>36.4</ele>
        <time>2011-06-17T10:31:16Z</time>
      </trkpt>
      <trkpt lat="59.281658302" lon="18.0705470948">
        <ele>37.8</ele>
        <time>2011-06-17T10:31:23Z</time>
      </trkpt>
      <trkpt lat="59.2815234372" lon="18.0703763555">
        <ele>38.6</ele>
        <time>2011-06-17T10:31:29Z</time>
      </trkpt>
      <trkpt lat="59.2813930987" lon="18.0702252299">
        <ele>39</ele>
        <time>2011-06-17T10:31:35Z</time>
      </trkpt>
      <trkpt lat="59.2812979641" lon="18.0701120742">
        <ele>39.2</ele>
        <time>2011-06-17T10:31:39Z</time>
      </trkpt>
      <trkpt lat="59.2811561424" lon="18.069967235">
        <ele>39.4</ele>
        <time>2011-06-17T10:31:45Z</time>
      </trkpt>
      <trkpt lat="59.2810423162" lon="18.0698377346">
        <ele>39.4</ele>
        <time>2011-06-17T10:31:50Z</time>
      </trkpt>
      <trkpt lat="59.2808886759" lon="18.069675461">
        <ele>38.4</ele>
        <time>2011-06-17T10:31:57Z</time>
      </trkpt>
      <trkpt lat="59.2807523024" lon="18.0695520795">
        <ele>38</ele>
        <time>2011-06-17T10:32:03Z</time>
      </trkpt>
      <trkpt lat="59.2806380571" lon="18.0694690987">
        <ele>37.8</ele>
        <time>2011-06-17T10:32:08Z</time>
      </trkpt>
      <trkpt lat="59.2804763703" lon="18.0694394267">
        <ele>37.6</ele>
        <time>2011-06-17T10:32:14Z</time>
      </trkpt>
      <trkpt lat="59.2803503903" lon="18.0694213218">
        <ele>37.6</ele>
        <time>2011-06-17T10:32:19Z</time>
      </trkpt>
      <trkpt lat="59.2802343848" lon="18.0693834356">
        <ele>37.6</ele>
        <time>2011-06-17T10:32:24Z</time>
      </trkpt>
      <trkpt lat="59.2801138531" lon="18.0693862017">
        <ele>37.6</ele>
        <time>2011-06-17T10:32:29Z</time>
      </trkpt>
      <trkpt lat="59.2799950816" lon="18.0693711142">
        <ele>37.6</ele>
        <time>2011-06-17T10:32:34Z</time>
      </trkpt>
      <trkpt lat="59.2798480631" lon="18.0693829327">
        <ele>38</ele>
        <time>2011-06-17T10:32:40Z</time>
      </trkpt>
      <trkpt lat="59.2795908225" lon="18.069373545">
        <ele>39.2</ele>
        <time>2011-06-17T10:32:51Z</time>
      </trkpt>
      <trkpt lat="59.2794855459" lon="18.0693797476">
        <ele>39.4</ele>
        <time>2011-06-17T10:32:55Z</time>
      </trkpt>
      <trkpt lat="59.2793574705" lon="18.0693846929">
        <ele>40</ele>
        <time>2011-06-17T10:33:00Z</time>
      </trkpt>
      <trkpt lat="59.279260911" lon="18.069406905">
        <ele>40.6</ele>
        <time>2011-06-17T10:33:04Z</time>
      </trkpt>
      <trkpt lat="59.2791397925" lon="18.0694195616">
        <ele>41.6</ele>
        <time>2011-06-17T10:33:09Z</time>
      </trkpt>
      <trkpt lat="59.2789790277" lon="18.0694338947">
        <ele>43.4</ele>
        <time>2011-06-17T10:33:15Z</time>
      </trkpt>
      <trkpt lat="59.2788363677" lon="18.069448563">
        <ele>45.6</ele>
        <time>2011-06-17T10:33:21Z</time>
      </trkpt>
      <trkpt lat="59.278673675" lon="18.0694871197">
        <ele>48.4</ele>
        <time>2011-06-17T10:33:28Z</time>
      </trkpt>
      <trkpt lat="59.2785873415" lon="18.0695242516">
        <ele>49.8</ele>
        <time>2011-06-17T10:33:32Z</time>
      </trkpt>
      <trkpt lat="59.2784387304" lon="18.0694453779">
        <ele>51.4</ele>
        <time>2011-06-17T10:33:38Z</time>
      </trkpt>
      <trkpt lat="59.2783201265" lon="18.0692074996">
        <ele>52.4</ele>
        <time>2011-06-17T10:33:44Z</time>
      </trkpt>
      <trkpt lat="59.2782222259" lon="18.0690230139">
        <ele>52.8</ele>
        <time>2011-06-17T10:33:49Z</time>
      </trkpt>
      <trkpt lat="59.2780738663" lon="18.0689958566">
        <ele>52.4</ele>
        <time>2011-06-17T10:33:55Z</time>
      </trkpt>
      <trkpt lat="59.278002704" lon="18.0690263667">
        <ele>51.8</ele>
        <time>2011-06-17T10:33:58Z</time>
      </trkpt>
      <trkpt lat="59.2779044681" lon="18.0692464754">
        <ele>50.6</ele>
        <time>2011-06-17T10:34:04Z</time>
      </trkpt>
      <trkpt lat="59.2778447051" lon="18.0693946674">
        <ele>50</ele>
        <time>2011-06-17T10:34:08Z</time>
      </trkpt>
      <trkpt lat="59.2778219064" lon="18.0694154545">
        <ele>49.8</ele>
        <time>2011-06-17T10:34:09Z</time>
      </trkpt>
      <trkpt lat="59.2777007041" lon="18.0694171309">
        <ele>48.6</ele>
        <time>2011-06-17T10:34:14Z</time>
      </trkpt>
      <trkpt lat="59.2776776539" lon="18.0694218247">
        <ele>48.4</ele>
        <time>2011-06-17T10:34:15Z</time>
      </trkpt>
      <trkpt lat="59.2775177272" lon="18.0694229144">
        <ele>46.8</ele>
        <time>2011-06-17T10:34:21Z</time>
      </trkpt>
      <trkpt lat="59.2773824434" lon="18.0694261833">
        <ele>45.8</ele>
        <time>2011-06-17T10:34:26Z</time>
      </trkpt>
      <trkpt lat="59.2772398672" lon="18.0694605491">
        <ele>44.6</ele>
        <time>2011-06-17T10:34:31Z</time>
      </trkpt>
      <trkpt lat="59.277103829" lon="18.0694726191">
        <ele>43.6</ele>
        <time>2011-06-17T10:34:36Z</time>
      </trkpt>
      <trkpt lat="59.2769887455" lon="18.0694596271">
        <ele>42.4</ele>
        <time>2011-06-17T10:34:41Z</time>
      </trkpt>
      <trkpt lat="59.2768464208" lon="18.0694608006">
        <ele>41.6</ele>
        <time>2011-06-17T10:34:47Z</time>
      </trkpt>
      <trkpt lat="59.2766903499" lon="18.0694558553">
        <ele>41.2</ele>
        <time>2011-06-17T10:34:53Z</time>
      </trkpt>
      <trkpt lat="59.2765899347" lon="18.0694897181">
        <ele>41</ele>
        <time>2011-06-17T10:34:57Z</time>
      </trkpt>
      <trkpt lat="59.2764777849" lon="18.0694882094">
        <ele>40.8</ele>
        <time>2011-06-17T10:35:01Z</time>
      </trkpt>
      <trkpt lat="59.2763456861" lon="18.0694901372">
        <ele>40.8</ele>
        <time>2011-06-17T10:35:06Z</time>
      </trkpt>
      <trkpt lat="59.2762145094" lon="18.0694869521">
        <ele>40.8</ele>
        <time>2011-06-17T10:35:11Z</time>
      </trkpt>
      <trkpt lat="59.276091966" lon="18.0694934062">
        <ele>40.6</ele>
        <time>2011-06-17T10:35:16Z</time>
      </trkpt>
      <trkpt lat="59.2759714343" lon="18.069505979">
        <ele>40.6</ele>
        <time>2011-06-17T10:35:21Z</time>
      </trkpt>
      <trkpt lat="59.2759469592" lon="18.069511092">
        <ele>40.6</ele>
        <time>2011-06-17T10:35:22Z</time>
      </trkpt>
      <trkpt lat="59.2757911396" lon="18.0695057276">
        <ele>40.6</ele>
        <time>2011-06-17T10:35:28Z</time>
      </trkpt>
      <trkpt lat="59.2756564425" lon="18.0694906401">
        <ele>40.6</ele>
        <time>2011-06-17T10:35:33Z</time>
      </trkpt>
      <trkpt lat="59.275504311" lon="18.0694812524">
        <ele>40.6</ele>
        <time>2011-06-17T10:35:39Z</time>
      </trkpt>
      <trkpt lat="59.2753455578" lon="18.06949349">
        <ele>40.6</ele>
        <time>2011-06-17T10:35:45Z</time>
      </trkpt>
      <trkpt lat="59.2751837872" lon="18.0694983515">
        <ele>40.6</ele>
        <time>2011-06-17T10:35:51Z</time>
      </trkpt>
      <trkpt lat="59.2750520237" lon="18.0694812524">
        <ele>40.6</ele>
        <time>2011-06-17T10:35:56Z</time>
      </trkpt>
      <trkpt lat="59.274915734" lon="18.0694760556">
        <ele>40.6</ele>
        <time>2011-06-17T10:36:01Z</time>
      </trkpt>
      <trkpt lat="59.2747819589" lon="18.0694898019">
        <ele>40.6</ele>
        <time>2011-06-17T10:36:06Z</time>
      </trkpt>
      <trkpt lat="59.2746342698" lon="18.0694945796">
        <ele>40.6</ele>
        <time>2011-06-17T10:36:12Z</time>
      </trkpt>
      <trkpt lat="59.274482725" lon="18.0694804142">
        <ele>40.6</ele>
        <time>2011-06-17T10:36:18Z</time>
      </trkpt>
      <trkpt lat="59.2744113951" lon="18.0694623093">
        <ele>40.6</ele>
        <time>2011-06-17T10:36:22Z</time>
      </trkpt>
      <trkpt lat="59.2742899413" lon="18.0694190587">
        <ele>41.2</ele>
        <time>2011-06-17T10:36:27Z</time>
      </trkpt>
      <trkpt lat="59.2741802223" lon="18.0693612236">
        <ele>41.8</ele>
        <time>2011-06-17T10:36:32Z</time>
      </trkpt>
      <trkpt lat="59.2740893625" lon="18.0693250976">
        <ele>42.8</ele>
        <time>2011-06-17T10:36:36Z</time>
      </trkpt>
      <trkpt lat="59.2739373148" lon="18.069212864">
        <ele>44</ele>
        <time>2011-06-17T10:36:43Z</time>
      </trkpt>
      <trkpt lat="59.2738261708" lon="18.0691206631">
        <ele>45.4</ele>
        <time>2011-06-17T10:36:48Z</time>
      </trkpt>
      <trkpt lat="59.2737312039" lon="18.0689830323">
        <ele>46</ele>
        <time>2011-06-17T10:36:53Z</time>
      </trkpt>
      <trkpt lat="59.2736262625" lon="18.0688798511">
        <ele>46.8</ele>
        <time>2011-06-17T10:36:58Z</time>
      </trkpt>
      <trkpt lat="59.2735208182" lon="18.0687893266">
        <ele>47.8</ele>
        <time>2011-06-17T10:37:03Z</time>
      </trkpt>
      <trkpt lat="59.2734053156" lon="18.0686341776">
        <ele>48.4</ele>
        <time>2011-06-17T10:37:09Z</time>
      </trkpt>
      <trkpt lat="59.2733472291" lon="18.0685561421">
        <ele>48.6</ele>
        <time>2011-06-17T10:37:12Z</time>
      </trkpt>
      <trkpt lat="59.2732914056" lon="18.068460337">
        <ele>48.8</ele>
        <time>2011-06-17T10:37:15Z</time>
      </trkpt>
      <trkpt lat="59.2732187345" lon="18.0682419047">
        <ele>49</ele>
        <time>2011-06-17T10:37:20Z</time>
      </trkpt>
      <trkpt lat="59.2731609832" lon="18.0679428385">
        <ele>49</ele>
        <time>2011-06-17T10:37:26Z</time>
      </trkpt>
      <trkpt lat="59.2731391903" lon="18.0676976679">
        <ele>49</ele>
        <time>2011-06-17T10:37:31Z</time>
      </trkpt>
      <trkpt lat="59.2730104443" lon="18.0674703508">
        <ele>49.2</ele>
        <time>2011-06-17T10:37:38Z</time>
      </trkpt>
      <trkpt lat="59.2728863922" lon="18.0674041338">
        <ele>49.2</ele>
        <time>2011-06-17T10:37:43Z</time>
      </trkpt>
      <trkpt lat="59.2727749129" lon="18.0672416087">
        <ele>49.2</ele>
        <time>2011-06-17T10:37:49Z</time>
      </trkpt>
      <trkpt lat="59.2726576501" lon="18.067004401">
        <ele>49.2</ele>
        <time>2011-06-17T10:37:56Z</time>
      </trkpt>
      <trkpt lat="59.2725781059" lon="18.0667999664">
        <ele>49.2</ele>
        <time>2011-06-17T10:38:01Z</time>
      </trkpt>
      <trkpt lat="59.2724964662" lon="18.0665904189">
        <ele>50.2</ele>
        <time>2011-06-17T10:38:07Z</time>
      </trkpt>
      <trkpt lat="59.2723879206" lon="18.0664104595">
        <ele>50.6</ele>
        <time>2011-06-17T10:38:13Z</time>
      </trkpt>
      <trkpt lat="59.2722983181" lon="18.0662284047">
        <ele>51</ele>
        <time>2011-06-17T10:38:18Z</time>
      </trkpt>
      <trkpt lat="59.2721814744" lon="18.0659843237">
        <ele>52.2</ele>
        <time>2011-06-17T10:38:25Z</time>
      </trkpt>
      <trkpt lat="59.2721191969" lon="18.0658861717">
        <ele>52.6</ele>
        <time>2011-06-17T10:38:28Z</time>
      </trkpt>
      <trkpt lat="59.2720166862" lon="18.065654496">
        <ele>53</ele>
        <time>2011-06-17T10:38:34Z</time>
      </trkpt>
      <trkpt lat="59.2719938037" lon="18.0655713475">
        <ele>53</ele>
        <time>2011-06-17T10:38:36Z</time>
      </trkpt>
      <trkpt lat="59.2718772953" lon="18.0652658273">
        <ele>54.2</ele>
        <time>2011-06-17T10:38:44Z</time>
      </trkpt>
      <trkpt lat="59.2717945659" lon="18.0650339839">
        <ele>54.8</ele>
        <time>2011-06-17T10:38:50Z</time>
      </trkpt>
      <trkpt lat="59.2717103278" lon="18.0648232629">
        <ele>55</ele>
        <time>2011-06-17T10:38:55Z</time>
      </trkpt>
      <trkpt lat="59.2716184622" lon="18.0645628373">
        <ele>55.2</ele>
        <time>2011-06-17T10:39:01Z</time>
      </trkpt>
      <trkpt lat="59.2715459587" lon="18.0643524516">
        <ele>55.2</ele>
        <time>2011-06-17T10:39:06Z</time>
      </trkpt>
      <trkpt lat="59.2714721142" lon="18.0640903496">
        <ele>55.4</ele>
        <time>2011-06-17T10:39:12Z</time>
      </trkpt>
      <trkpt lat="59.2714229125" lon="18.0638079634">
        <ele>55</ele>
        <time>2011-06-17T10:39:18Z</time>
      </trkpt>
      <trkpt lat="59.2713788237" lon="18.0635653912">
        <ele>54.4</ele>
        <time>2011-06-17T10:39:23Z</time>
      </trkpt>
      <trkpt lat="59.2713440388" lon="18.0632708512">
        <ele>53.8</ele>
        <time>2011-06-17T10:39:29Z</time>
      </trkpt>
      <trkpt lat="59.2713079966" lon="18.0629714498">
        <ele>52.8</ele>
        <time>2011-06-17T10:39:35Z</time>
      </trkpt>
      <trkpt lat="59.2712640754" lon="18.0626853755">
        <ele>52.2</ele>
        <time>2011-06-17T10:39:41Z</time>
      </trkpt>
      <trkpt lat="59.2712080005" lon="18.0623513568">
        <ele>51.6</ele>
        <time>2011-06-17T10:39:48Z</time>
      </trkpt>
      <trkpt lat="59.2711667616" lon="18.062058158">
        <ele>51.4</ele>
        <time>2011-06-17T10:39:54Z</time>
      </trkpt>
      <trkpt lat="59.2711210802" lon="18.0617846566">
        <ele>51.4</ele>
        <time>2011-06-17T10:40:00Z</time>
      </trkpt>
      <trkpt lat="59.2710950125" lon="18.0616015959">
        <ele>51.4</ele>
        <time>2011-06-17T10:40:04Z</time>
      </trkpt>
      <trkpt lat="59.2710588027" lon="18.0613708422">
        <ele>51.4</ele>
        <time>2011-06-17T10:40:09Z</time>
      </trkpt>
      <trkpt lat="59.2710085113" lon="18.0611499791">
        <ele>51.2</ele>
        <time>2011-06-17T10:40:14Z</time>
      </trkpt>
      <trkpt lat="59.2709722177" lon="18.0609400963">
        <ele>51.2</ele>
        <time>2011-06-17T10:40:19Z</time>
      </trkpt>
      <trkpt lat="59.2709075932" lon="18.0606261103">
        <ele>50.8</ele>
        <time>2011-06-17T10:40:26Z</time>
      </trkpt>
      <trkpt lat="59.2708486685" lon="18.0603279662">
        <ele>50</ele>
        <time>2011-06-17T10:40:33Z</time>
      </trkpt>
      <trkpt lat="59.2708128778" lon="18.0601328355">
        <ele>49.8</ele>
        <time>2011-06-17T10:40:37Z</time>
      </trkpt>
      <trkpt lat="59.2707379436" lon="18.0598164188">
        <ele>49.4</ele>
        <time>2011-06-17T10:40:44Z</time>
      </trkpt>
      <trkpt lat="59.2706597405" lon="18.0595097251">
        <ele>49.4</ele>
        <time>2011-06-17T10:40:51Z</time>
      </trkpt>
      <trkpt lat="59.2705940264" lon="18.0593129181">
        <ele>49.4</ele>
        <time>2011-06-17T10:40:56Z</time>
      </trkpt>
      <trkpt lat="59.2705072737" lon="18.0591329587">
        <ele>49.2</ele>
        <time>2011-06-17T10:41:01Z</time>
      </trkpt>
      <trkpt lat="59.2704289868" lon="18.0589256743">
        <ele>49.2</ele>
        <time>2011-06-17T10:41:06Z</time>
      </trkpt>
      <trkpt lat="59.27031449" lon="18.0586512509">
        <ele>49.2</ele>
        <time>2011-06-17T10:41:13Z</time>
      </trkpt>
      <trkpt lat="59.2702151645" lon="18.0584272027">
        <ele>49.2</ele>
        <time>2011-06-17T10:41:19Z</time>
      </trkpt>
      <trkpt lat="59.2701363746" lon="18.058234419">
        <ele>49.2</ele>
        <time>2011-06-17T10:41:24Z</time>
      </trkpt>
      <trkpt lat="59.270052388" lon="18.0580335887">
        <ele>49.2</ele>
        <time>2011-06-17T10:41:29Z</time>
      </trkpt>
      <trkpt lat="59.2699785434" lon="18.0578264719">
        <ele>49.2</ele>
        <time>2011-06-17T10:41:34Z</time>
      </trkpt>
      <trkpt lat="59.2698976581" lon="18.0575558204">
        <ele>49.2</ele>
        <time>2011-06-17T10:41:40Z</time>
      </trkpt>
      <trkpt lat="59.2698275016" lon="18.0574037727">
        <ele>49.2</ele>
        <time>2011-06-17T10:41:44Z</time>
      </trkpt>
      <trkpt lat="59.269704623" lon="18.0570846738">
        <ele>49</ele>
        <time>2011-06-17T10:41:52Z</time>
      </trkpt>
      <trkpt lat="59.2695912997" lon="18.0567957497">
        <ele>48</ele>
        <time>2011-06-17T10:41:59Z</time>
      </trkpt>
      <trkpt lat="59.2695003561" lon="18.0565541833">
        <ele>47.6</ele>
        <time>2011-06-17T10:42:05Z</time>
      </trkpt>
      <trkpt lat="59.269392481" lon="18.0562742279">
        <ele>47.4</ele>
        <time>2011-06-17T10:42:12Z</time>
      </trkpt>
      <trkpt lat="59.269361468" lon="18.0561419615">
        <ele>47</ele>
        <time>2011-06-17T10:42:15Z</time>
      </trkpt>
      <trkpt lat="59.2693770583" lon="18.056013886">
        <ele>46.4</ele>
        <time>2011-06-17T10:42:18Z</time>
      </trkpt>
      <trkpt lat="59.2693205643" lon="18.0558366927">
        <ele>46</ele>
        <time>2011-06-17T10:42:23Z</time>
      </trkpt>
      <trkpt lat="59.269192908" lon="18.0556253012">
        <ele>45.6</ele>
        <time>2011-06-17T10:42:29Z</time>
      </trkpt>
      <trkpt lat="59.2690852844" lon="18.0555131513">
        <ele>45.4</ele>
        <time>2011-06-17T10:42:34Z</time>
      </trkpt>
      <trkpt lat="59.2690068298" lon="18.0552829005">
        <ele>45.4</ele>
        <time>2011-06-17T10:42:40Z</time>
      </trkpt>
      <trkpt lat="59.2689152994" lon="18.0550559187">
        <ele>45.2</ele>
        <time>2011-06-17T10:42:46Z</time>
      </trkpt>
      <trkpt lat="59.2688609847" lon="18.0548948186">
        <ele>45.2</ele>
        <time>2011-06-17T10:42:50Z</time>
      </trkpt>
      <trkpt lat="59.2687913311" lon="18.0546994365">
        <ele>45.2</ele>
        <time>2011-06-17T10:42:55Z</time>
      </trkpt>
      <trkpt lat="59.2687326578" lon="18.0545076586">
        <ele>45.2</ele>
        <time>2011-06-17T10:43:00Z</time>
      </trkpt>
      <trkpt lat="59.268728886" lon="18.0544816747">
        <ele>45.2</ele>
        <time>2011-06-17T10:43:01Z</time>
      </trkpt>
      <trkpt lat="59.2687060034" lon="18.0543614783">
        <ele>41.2</ele>
        <time>2011-06-17T10:44:29Z</time>
      </trkpt>
      <trkpt lat="59.2686774211" lon="18.054273636">
        <ele>41.2</ele>
        <time>2011-06-17T10:44:32Z</time>
      </trkpt>
      <trkpt lat="59.2686140539" lon="18.0540595622">
        <ele>41.2</ele>
        <time>2011-06-17T10:44:38Z</time>
      </trkpt>
      <trkpt lat="59.2685965358" lon="18.0537751644">
        <ele>41</ele>
        <time>2011-06-17T10:44:43Z</time>
      </trkpt>
      <trkpt lat="59.2687057519" lon="18.0532745973">
        <ele>41</ele>
        <time>2011-06-17T10:44:54Z</time>
      </trkpt>
      <trkpt lat="59.2687593123" lon="18.0530767845">
        <ele>41</ele>
        <time>2011-06-17T10:44:58Z</time>
      </trkpt>
      <trkpt lat="59.2688410358" lon="18.0528938914">
        <ele>41</ele>
        <time>2011-06-17T10:45:03Z</time>
      </trkpt>
      <trkpt lat="59.2689209153" lon="18.0527095734">
        <ele>41</ele>
        <time>2011-06-17T10:45:08Z</time>
      </trkpt>
      <trkpt lat="59.2690161337" lon="18.0524902191">
        <ele>41</ele>
        <time>2011-06-17T10:45:14Z</time>
      </trkpt>
      <trkpt lat="59.2690295447" lon="18.0523712799">
        <ele>41</ele>
        <time>2011-06-17T10:45:18Z</time>
      </trkpt>
      <trkpt lat="59.2690841947" lon="18.0521821005">
        <ele>41.4</ele>
        <time>2011-06-17T10:45:23Z</time>
      </trkpt>
      <trkpt lat="59.2690992821" lon="18.0521479861">
        <ele>41.6</ele>
        <time>2011-06-17T10:45:24Z</time>
      </trkpt>
      <trkpt lat="59.2691317201" lon="18.0520713756">
        <ele>42</ele>
        <time>2011-06-17T10:45:26Z</time>
      </trkpt>
      <trkpt lat="59.2691810895" lon="18.0518566313">
        <ele>42.4</ele>
        <time>2011-06-17T10:45:31Z</time>
      </trkpt>
      <trkpt lat="59.269229453" lon="18.0517775061">
        <ele>42.8</ele>
        <time>2011-06-17T10:45:34Z</time>
      </trkpt>
      <trkpt lat="59.2692408524" lon="18.0517112053">
        <ele>43.4</ele>
        <time>2011-06-17T10:45:36Z</time>
      </trkpt>
      <trkpt lat="59.2692522518" lon="18.0516348462">
        <ele>43.8</ele>
        <time>2011-06-17T10:45:38Z</time>
      </trkpt>
      <trkpt lat="59.2693372443" lon="18.0513983928">
        <ele>44.4</ele>
        <time>2011-06-17T10:45:44Z</time>
      </trkpt>
      <trkpt lat="59.2694291099" lon="18.051219104">
        <ele>45.8</ele>
        <time>2011-06-17T10:45:49Z</time>
      </trkpt>
      <trkpt lat="59.2694337199" lon="18.0511906893">
        <ele>45.8</ele>
        <time>2011-06-17T10:45:50Z</time>
      </trkpt>
      <trkpt lat="59.2694566864" lon="18.0509895237">
        <ele>46.6</ele>
        <time>2011-06-17T10:45:55Z</time>
      </trkpt>
      <trkpt lat="59.2694250866" lon="18.0508343748">
        <ele>46.8</ele>
        <time>2011-06-17T10:45:59Z</time>
      </trkpt>
      <trkpt lat="59.2694126814" lon="18.0508026912">
        <ele>47</ele>
        <time>2011-06-17T10:46:00Z</time>
      </trkpt>
      <trkpt lat="59.2693844344" lon="18.0507468677">
        <ele>47</ele>
        <time>2011-06-17T10:46:02Z</time>
      </trkpt>
      <trkpt lat="59.2693183012" lon="18.0506021961">
        <ele>47.2</ele>
        <time>2011-06-17T10:46:07Z</time>
      </trkpt>
      <trkpt lat="59.2692265194" lon="18.0504010305">
        <ele>48</ele>
        <time>2011-06-17T10:46:13Z</time>
      </trkpt>
      <trkpt lat="59.269133145" lon="18.0501897228">
        <ele>48.8</ele>
        <time>2011-06-17T10:46:19Z</time>
      </trkpt>
      <trkpt lat="59.2690913193" lon="18.0500675147">
        <ele>49</ele>
        <time>2011-06-17T10:46:22Z</time>
      </trkpt>
      <trkpt lat="59.2689697818" lon="18.0499352483">
        <ele>49.2</ele>
        <time>2011-06-17T10:46:28Z</time>
      </trkpt>
      <trkpt lat="59.2688546145" lon="18.0498645051">
        <ele>49.4</ele>
        <time>2011-06-17T10:46:33Z</time>
      </trkpt>
      <trkpt lat="59.2687845418" lon="18.0497800156">
        <ele>49.4</ele>
        <time>2011-06-17T10:46:36Z</time>
      </trkpt>
      <trkpt lat="59.2686853839" lon="18.0496377747">
        <ele>49.6</ele>
        <time>2011-06-17T10:46:41Z</time>
      </trkpt>
      <trkpt lat="59.2686616631" lon="18.0496189154">
        <ele>49.6</ele>
        <time>2011-06-17T10:46:42Z</time>
      </trkpt>
      <trkpt lat="59.2685532852" lon="18.0495204281">
        <ele>49.6</ele>
        <time>2011-06-17T10:46:47Z</time>
      </trkpt>
      <trkpt lat="59.2684626768" lon="18.0494293169">
        <ele>49.6</ele>
        <time>2011-06-17T10:46:52Z</time>
      </trkpt>
      <trkpt lat="59.2684512774" lon="18.0494072725">
        <ele>49.6</ele>
        <time>2011-06-17T10:46:53Z</time>
      </trkpt>
      <trkpt lat="59.2684399619" lon="18.0493798636">
        <ele>49.6</ele>
        <time>2011-06-17T10:46:54Z</time>
      </trkpt>
      <trkpt lat="59.2683022473" lon="18.0494034168">
        <ele>49.6</ele>
        <time>2011-06-17T10:47:00Z</time>
      </trkpt>
      <trkpt lat="59.2682211105" lon="18.0493929394">
        <ele>49.6</ele>
        <time>2011-06-17T10:47:03Z</time>
      </trkpt>
      <trkpt lat="59.2680582502" lon="18.0493890837">
        <ele>49.6</ele>
        <time>2011-06-17T10:47:10Z</time>
      </trkpt>
      <trkpt lat="59.2679450945" lon="18.0493836355">
        <ele>49.6</ele>
        <time>2011-06-17T10:47:15Z</time>
      </trkpt>
      <trkpt lat="59.2677966511" lon="18.0493786064">
        <ele>49.6</ele>
        <time>2011-06-17T10:47:21Z</time>
      </trkpt>
      <trkpt lat="59.2676482076" lon="18.0492512853">
        <ele>49.6</ele>
        <time>2011-06-17T10:47:28Z</time>
      </trkpt>
      <trkpt lat="59.2674955732" lon="18.0490849046">
        <ele>48.8</ele>
        <time>2011-06-17T10:47:35Z</time>
      </trkpt>
      <trkpt lat="59.2673396699" lon="18.0489186915">
        <ele>48.2</ele>
        <time>2011-06-17T10:47:43Z</time>
      </trkpt>
      <trkpt lat="59.267247469" lon="18.0487734332">
        <ele>47.8</ele>
        <time>2011-06-17T10:47:48Z</time>
      </trkpt>
      <trkpt lat="59.2670996123" lon="18.048515103">
        <ele>46.8</ele>
        <time>2011-06-17T10:47:56Z</time>
      </trkpt>
      <trkpt lat="59.2669818466" lon="18.0482383327">
        <ele>46</ele>
        <time>2011-06-17T10:48:03Z</time>
      </trkpt>
      <trkpt lat="59.2668988657" lon="18.0480022146">
        <ele>45.8</ele>
        <time>2011-06-17T10:48:09Z</time>
      </trkpt>
      <trkpt lat="59.2667942596" lon="18.0477273721">
        <ele>45.6</ele>
        <time>2011-06-17T10:48:16Z</time>
      </trkpt>
      <trkpt lat="59.2666986222" lon="18.0474891585">
        <ele>44.6</ele>
        <time>2011-06-17T10:48:22Z</time>
      </trkpt>
      <trkpt lat="59.266626454" lon="18.0472785213">
        <ele>44</ele>
        <time>2011-06-17T10:48:27Z</time>
      </trkpt>
      <trkpt lat="59.2665205906" lon="18.0470301656">
        <ele>43.6</ele>
        <time>2011-06-17T10:48:34Z</time>
      </trkpt>
      <trkpt lat="59.2664438962" lon="18.0468505415">
        <ele>43.6</ele>
        <time>2011-06-17T10:48:39Z</time>
      </trkpt>
      <trkpt lat="59.2664345923" lon="18.046809554">
        <ele>43.6</ele>
        <time>2011-06-17T10:48:40Z</time>
      </trkpt>
      <trkpt lat="59.2664144757" lon="18.0465422552">
        <ele>42.8</ele>
        <time>2011-06-17T10:48:45Z</time>
      </trkpt>
      <trkpt lat="59.2664529487" lon="18.0463213083">
        <ele>42.2</ele>
        <time>2011-06-17T10:48:50Z</time>
      </trkpt>
      <trkpt lat="59.2664581454" lon="18.0462776386">
        <ele>42</ele>
        <time>2011-06-17T10:48:52Z</time>
      </trkpt>
      <trkpt lat="59.266532912" lon="18.0460347312">
        <ele>41.8</ele>
        <time>2011-06-17T10:48:57Z</time>
      </trkpt>
      <trkpt lat="59.2665967821" lon="18.0458970166">
        <ele>41.6</ele>
        <time>2011-06-17T10:49:01Z</time>
      </trkpt>
      <trkpt lat="59.2666297229" lon="18.0457279536">
        <ele>41.6</ele>
        <time>2011-06-17T10:49:05Z</time>
      </trkpt>
      <trkpt lat="59.2666253644" lon="18.0456733875">
        <ele>41.6</ele>
        <time>2011-06-17T10:49:06Z</time>
      </trkpt>
      <trkpt lat="59.2666366799" lon="18.045445316">
        <ele>41.4</ele>
        <time>2011-06-17T10:49:11Z</time>
      </trkpt>
      <trkpt lat="59.2666354226" lon="18.0452953638">
        <ele>41.4</ele>
        <time>2011-06-17T10:49:14Z</time>
      </trkpt>
      <trkpt lat="59.2666101093" lon="18.0452148975">
        <ele>41.4</ele>
        <time>2011-06-17T10:49:16Z</time>
      </trkpt>
      <trkpt lat="59.2664937685" lon="18.0451413883">
        <ele>41.4</ele>
        <time>2011-06-17T10:49:21Z</time>
      </trkpt>
      <trkpt lat="59.2663545452" lon="18.0450786917">
        <ele>42.2</ele>
        <time>2011-06-17T10:49:26Z</time>
      </trkpt>
      <trkpt lat="59.2662158247" lon="18.0450278135">
        <ele>42.6</ele>
        <time>2011-06-17T10:49:31Z</time>
      </trkpt>
      <trkpt lat="59.2660975561" lon="18.0450076132">
        <ele>43.4</ele>
        <time>2011-06-17T10:49:35Z</time>
      </trkpt>
      <trkpt lat="59.2659599253" lon="18.0449459224">
        <ele>44.2</ele>
        <time>2011-06-17T10:49:40Z</time>
      </trkpt>
      <trkpt lat="59.2657716678" lon="18.0448447528">
        <ele>45.8</ele>
        <time>2011-06-17T10:49:47Z</time>
      </trkpt>
      <trkpt lat="59.2656197878" lon="18.0446641229">
        <ele>47.2</ele>
        <time>2011-06-17T10:49:54Z</time>
      </trkpt>
      <trkpt lat="59.265527084" lon="18.044426496">
        <ele>48.4</ele>
        <time>2011-06-17T10:50:00Z</time>
      </trkpt>
      <trkpt lat="59.2654819056" lon="18.0442109974">
        <ele>49</ele>
        <time>2011-06-17T10:50:05Z</time>
      </trkpt>
      <trkpt lat="59.2653643913" lon="18.0440758811">
        <ele>49.4</ele>
        <time>2011-06-17T10:50:11Z</time>
      </trkpt>
      <trkpt lat="59.2652583603" lon="18.0439567743">
        <ele>49.4</ele>
        <time>2011-06-17T10:50:16Z</time>
      </trkpt>
      <trkpt lat="59.2651523292" lon="18.0437533456">
        <ele>49.6</ele>
        <time>2011-06-17T10:50:22Z</time>
      </trkpt>
      <trkpt lat="59.2650623915" lon="18.0435985319">
        <ele>49.6</ele>
        <time>2011-06-17T10:50:27Z</time>
      </trkpt>
      <trkpt lat="59.2649421112" lon="18.043562825">
        <ele>49.6</ele>
        <time>2011-06-17T10:50:32Z</time>
      </trkpt>
      <trkpt lat="59.2648116888" lon="18.0434944287">
        <ele>49.8</ele>
        <time>2011-06-17T10:50:37Z</time>
      </trkpt>
      <trkpt lat="59.2647071665" lon="18.0434164771">
        <ele>49.8</ele>
        <time>2011-06-17T10:50:42Z</time>
      </trkpt>
      <trkpt lat="59.2646361718" lon="18.043395187">
        <ele>49.8</ele>
        <time>2011-06-17T10:50:45Z</time>
      </trkpt>
      <trkpt lat="59.2645714636" lon="18.04335772">
        <ele>49.8</ele>
        <time>2011-06-17T10:50:48Z</time>
      </trkpt>
      <trkpt lat="59.2644803523" lon="18.0433034891">
        <ele>49.8</ele>
        <time>2011-06-17T10:50:52Z</time>
      </trkpt>
      <trkpt lat="59.2643542885" lon="18.0431157345">
        <ele>49.8</ele>
        <time>2011-06-17T10:50:58Z</time>
      </trkpt>
      <trkpt lat="59.2642668653" lon="18.0430254614">
        <ele>49.8</ele>
        <time>2011-06-17T10:51:02Z</time>
      </trkpt>
      <trkpt lat="59.2641593256" lon="18.0429332605">
        <ele>49.8</ele>
        <time>2011-06-17T10:51:07Z</time>
      </trkpt>
      <trkpt lat="59.2640408055" lon="18.0428579073">
        <ele>49.8</ele>
        <time>2011-06-17T10:51:12Z</time>
      </trkpt>
      <trkpt lat="59.2639211958" lon="18.0427727472">
        <ele>49.8</ele>
        <time>2011-06-17T10:51:17Z</time>
      </trkpt>
      <trkpt lat="59.2637838164" lon="18.0426844857">
        <ele>49.8</ele>
        <time>2011-06-17T10:51:22Z</time>
      </trkpt>
      <trkpt lat="59.2636388934" lon="18.0425836515">
        <ele>49.8</ele>
        <time>2011-06-17T10:51:28Z</time>
      </trkpt>
      <trkpt lat="59.263619615" lon="18.042556997">
        <ele>49.8</ele>
        <time>2011-06-17T10:51:29Z</time>
      </trkpt>
      <trkpt lat="59.263566809" lon="18.0425170992">
        <ele>49.8</ele>
        <time>2011-06-17T10:51:33Z</time>
      </trkpt>
      <trkpt lat="59.2628981011" lon="18.0423701645">
        <ele>49.8</ele>
        <time>2011-06-17T10:51:57Z</time>
      </trkpt>
      <trkpt lat="59.2629188044" lon="18.0421906242">
        <ele>49.8</ele>
        <time>2011-06-17T10:51:58Z</time>
      </trkpt>
      <trkpt lat="59.2628306268" lon="18.0421292687">
        <ele>49.8</ele>
        <time>2011-06-17T10:52:02Z</time>
      </trkpt>
      <trkpt lat="59.2628035532" lon="18.0421338787">
        <ele>49.8</ele>
        <time>2011-06-17T10:52:03Z</time>
      </trkpt>
      <trkpt lat="59.262698528" lon="18.0420688352">
        <ele>50.8</ele>
        <time>2011-06-17T10:52:07Z</time>
      </trkpt>
      <trkpt lat="59.2626616477" lon="18.0420030373">
        <ele>51.6</ele>
        <time>2011-06-17T10:52:09Z</time>
      </trkpt>
      <trkpt lat="59.2625762361" lon="18.0418971739">
        <ele>53.6</ele>
        <time>2011-06-17T10:52:14Z</time>
      </trkpt>
      <trkpt lat="59.262560981" lon="18.0418628081">
        <ele>53.8</ele>
        <time>2011-06-17T10:52:15Z</time>
      </trkpt>
      <trkpt lat="59.262482275" lon="18.0415714532">
        <ele>55.2</ele>
        <time>2011-06-17T10:52:21Z</time>
      </trkpt>
      <trkpt lat="59.2623656828" lon="18.0413869676">
        <ele>55.8</ele>
        <time>2011-06-17T10:52:27Z</time>
      </trkpt>
      <trkpt lat="59.2622379426" lon="18.0412823615">
        <ele>55.8</ele>
        <time>2011-06-17T10:52:32Z</time>
      </trkpt>
      <trkpt lat="59.2620860626" lon="18.0411206747">
        <ele>55.2</ele>
        <time>2011-06-17T10:52:39Z</time>
      </trkpt>
      <trkpt lat="59.2619340987" lon="18.0409646037">
        <ele>54.8</ele>
        <time>2011-06-17T10:52:46Z</time>
      </trkpt>
      <trkpt lat="59.2617719928" lon="18.0407789446">
        <ele>54.2</ele>
        <time>2011-06-17T10:52:53Z</time>
      </trkpt>
      <trkpt lat="59.2616440012" lon="18.0406252206">
        <ele>53.6</ele>
        <time>2011-06-17T10:52:59Z</time>
      </trkpt>
      <trkpt lat="59.2614827334" lon="18.0404436686">
        <ele>53</ele>
        <time>2011-06-17T10:53:07Z</time>
      </trkpt>
      <trkpt lat="59.2613190349" lon="18.0402543215">
        <ele>52.8</ele>
        <time>2011-06-17T10:53:15Z</time>
      </trkpt>
      <trkpt lat="59.2611966592" lon="18.040095233">
        <ele>52.6</ele>
        <time>2011-06-17T10:53:21Z</time>
      </trkpt>
      <trkpt lat="59.2610938133" lon="18.0399576022">
        <ele>52.6</ele>
        <time>2011-06-17T10:53:26Z</time>
      </trkpt>
      <trkpt lat="59.2609906321" lon="18.039811841">
        <ele>52.6</ele>
        <time>2011-06-17T10:53:31Z</time>
      </trkpt>
      <trkpt lat="59.2609006943" lon="18.0396260143">
        <ele>52.6</ele>
        <time>2011-06-17T10:53:36Z</time>
      </trkpt>
      <trkpt lat="59.2607789891" lon="18.0393847832">
        <ele>52</ele>
        <time>2011-06-17T10:53:43Z</time>
      </trkpt>
      <trkpt lat="59.2606898895" lon="18.0391586395">
        <ele>51.2</ele>
        <time>2011-06-17T10:53:49Z</time>
      </trkpt>
      <trkpt lat="59.2606220799" lon="18.038868039">
        <ele>50</ele>
        <time>2011-06-17T10:53:55Z</time>
      </trkpt>
      <trkpt lat="59.2605841937" lon="18.0386903428">
        <ele>49.2</ele>
        <time>2011-06-17T10:53:59Z</time>
      </trkpt>
      <trkpt lat="59.2605259395" lon="18.0384614331">
        <ele>47.8</ele>
        <time>2011-06-17T10:54:04Z</time>
      </trkpt>
      <trkpt lat="59.2604573756" lon="18.038246605">
        <ele>46.4</ele>
        <time>2011-06-17T10:54:09Z</time>
      </trkpt>
      <trkpt lat="59.2603893146" lon="18.038045607">
        <ele>45.4</ele>
        <time>2011-06-17T10:54:14Z</time>
      </trkpt>
      <trkpt lat="59.2602993768" lon="18.0378424298">
        <ele>44.2</ele>
        <time>2011-06-17T10:54:19Z</time>
      </trkpt>
      <trkpt lat="59.2601894063" lon="18.0377090737">
        <ele>43.2</ele>
        <time>2011-06-17T10:54:24Z</time>
      </trkpt>
      <trkpt lat="59.2601134662" lon="18.0375133564">
        <ele>42.6</ele>
        <time>2011-06-17T10:54:29Z</time>
      </trkpt>
      <trkpt lat="59.2600555473" lon="18.0372890567">
        <ele>42.4</ele>
        <time>2011-06-17T10:54:34Z</time>
      </trkpt>
      <trkpt lat="59.2599806969" lon="18.0370162259">
        <ele>42.2</ele>
        <time>2011-06-17T10:54:40Z</time>
      </trkpt>
      <trkpt lat="59.2599264661" lon="18.0367868971">
        <ele>42</ele>
        <time>2011-06-17T10:54:45Z</time>
      </trkpt>
      <trkpt lat="59.2598735763" lon="18.0365874917">
        <ele>42</ele>
        <time>2011-06-17T10:54:50Z</time>
      </trkpt>
      <trkpt lat="59.2598110473" lon="18.0363485237">
        <ele>41.6</ele>
        <time>2011-06-17T10:54:56Z</time>
      </trkpt>
      <trkpt lat="59.2597467581" lon="18.0361072926">
        <ele>40.8</ele>
        <time>2011-06-17T10:55:02Z</time>
      </trkpt>
      <trkpt lat="59.2597035075" lon="18.0359379783">
        <ele>40.4</ele>
        <time>2011-06-17T10:55:06Z</time>
      </trkpt>
      <trkpt lat="59.2596436607" lon="18.035695909">
        <ele>40.2</ele>
        <time>2011-06-17T10:55:12Z</time>
      </trkpt>
      <trkpt lat="59.2595719117" lon="18.0354487268">
        <ele>40</ele>
        <time>2011-06-17T10:55:18Z</time>
      </trkpt>
      <trkpt lat="59.2595104724" lon="18.035199952">
        <ele>40</ele>
        <time>2011-06-17T10:55:24Z</time>
      </trkpt>
      <trkpt lat="59.2594579178" lon="18.0349966071">
        <ele>40</ele>
        <time>2011-06-17T10:55:29Z</time>
      </trkpt>
      <trkpt lat="59.2593890186" lon="18.0347419649">
        <ele>40.6</ele>
        <time>2011-06-17T10:55:35Z</time>
      </trkpt>
      <trkpt lat="59.2593320217" lon="18.0345201799">
        <ele>41.2</ele>
        <time>2011-06-17T10:55:40Z</time>
      </trkpt>
      <trkpt lat="59.2592570037" lon="18.0342655378">
        <ele>41.6</ele>
        <time>2011-06-17T10:55:46Z</time>
      </trkpt>
      <trkpt lat="59.2591953967" lon="18.0340472731">
        <ele>41.6</ele>
        <time>2011-06-17T10:55:51Z</time>
      </trkpt>
      <trkpt lat="59.2591254079" lon="18.0337903678">
        <ele>41.8</ele>
        <time>2011-06-17T10:55:57Z</time>
      </trkpt>
      <trkpt lat="59.2590435167" lon="18.0334887871">
        <ele>41.8</ele>
        <time>2011-06-17T10:56:04Z</time>
      </trkpt>
      <trkpt lat="59.2589863521" lon="18.0332841849">
        <ele>41.8</ele>
        <time>2011-06-17T10:56:09Z</time>
      </trkpt>
      <trkpt lat="59.2589143516" lon="18.0329980268">
        <ele>42</ele>
        <time>2011-06-17T10:56:16Z</time>
      </trkpt>
      <trkpt lat="59.2588441113" lon="18.0327508446">
        <ele>42</ele>
        <time>2011-06-17T10:56:22Z</time>
      </trkpt>
      <trkpt lat="59.2587909701" lon="18.0325350107">
        <ele>42</ele>
        <time>2011-06-17T10:56:27Z</time>
      </trkpt>
      <trkpt lat="59.2587430256" lon="18.0322474277">
        <ele>42</ele>
        <time>2011-06-17T10:56:33Z</time>
      </trkpt>
      <trkpt lat="59.2586856934" lon="18.0320579967">
        <ele>42</ele>
        <time>2011-06-17T10:56:38Z</time>
      </trkpt>
      <trkpt lat="59.2586137767" lon="18.0318588428">
        <ele>42</ele>
        <time>2011-06-17T10:56:43Z</time>
      </trkpt>
      <trkpt lat="59.2585444584" lon="18.0316518099">
        <ele>42</ele>
        <time>2011-06-17T10:56:48Z</time>
      </trkpt>
      <trkpt lat="59.2585053987" lon="18.0315260814">
        <ele>42</ele>
        <time>2011-06-17T10:56:51Z</time>
      </trkpt>
      <trkpt lat="59.2584687698" lon="18.031402616">
        <ele>42</ele>
        <time>2011-06-17T10:56:54Z</time>
      </trkpt>
      <trkpt lat="59.2583904829" lon="18.0311540088">
        <ele>42</ele>
        <time>2011-06-17T10:57:00Z</time>
      </trkpt>
      <trkpt lat="59.2583121121" lon="18.0308974389">
        <ele>42</ele>
        <time>2011-06-17T10:57:06Z</time>
      </trkpt>
      <trkpt lat="59.2582426262" lon="18.0306894839">
        <ele>42</ele>
        <time>2011-06-17T10:57:11Z</time>
      </trkpt>
      <trkpt lat="59.2581797619" lon="18.0304840436">
        <ele>42</ele>
        <time>2011-06-17T10:57:16Z</time>
      </trkpt>
      <trkpt lat="59.2580891536" lon="18.0301897551">
        <ele>42</ele>
        <time>2011-06-17T10:57:23Z</time>
      </trkpt>
      <trkpt lat="59.2580256188" lon="18.0299792017">
        <ele>42</ele>
        <time>2011-06-17T10:57:28Z</time>
      </trkpt>
      <trkpt lat="59.2579916721" lon="18.0296616954">
        <ele>42</ele>
        <time>2011-06-17T10:57:35Z</time>
      </trkpt>
      <trkpt lat="59.2579816138" lon="18.0295796366">
        <ele>42</ele>
        <time>2011-06-17T10:57:37Z</time>
      </trkpt>
      <trkpt lat="59.2578962861" lon="18.02948819">
        <ele>42</ele>
        <time>2011-06-17T10:57:41Z</time>
      </trkpt>
      <trkpt lat="59.257712471" lon="18.0294501362">
        <ele>42</ele>
        <time>2011-06-17T10:57:48Z</time>
      </trkpt>
      <trkpt lat="59.257591604" lon="18.0293400819">
        <ele>42</ele>
        <time>2011-06-17T10:57:53Z</time>
      </trkpt>
      <trkpt lat="59.2574548952" lon="18.0292240764">
        <ele>42</ele>
        <time>2011-06-17T10:57:59Z</time>
      </trkpt>
      <trkpt lat="59.2573452599" lon="18.0291022873">
        <ele>42</ele>
        <time>2011-06-17T10:58:04Z</time>
      </trkpt>
      <trkpt lat="59.2572435875" lon="18.0289675902">
        <ele>42.8</ele>
        <time>2011-06-17T10:58:09Z</time>
      </trkpt>
      <trkpt lat="59.2571280011" lon="18.0288013771">
        <ele>43.4</ele>
        <time>2011-06-17T10:58:15Z</time>
      </trkpt>
      <trkpt lat="59.2570248199" lon="18.0286270336">
        <ele>44.8</ele>
        <time>2011-06-17T10:58:21Z</time>
      </trkpt>
      <trkpt lat="59.2569550825" lon="18.0284244431">
        <ele>45.8</ele>
        <time>2011-06-17T10:58:26Z</time>
      </trkpt>
      <trkpt lat="59.2568831658" lon="18.0281863133">
        <ele>47</ele>
        <time>2011-06-17T10:58:32Z</time>
      </trkpt>
      <trkpt lat="59.2568204692" lon="18.0279848124">
        <ele>47.4</ele>
        <time>2011-06-17T10:58:37Z</time>
      </trkpt>
      <trkpt lat="59.2567389133" lon="18.0277612672">
        <ele>47.8</ele>
        <time>2011-06-17T10:58:43Z</time>
      </trkpt>
      <trkpt lat="59.2566681701" lon="18.0275123247">
        <ele>48</ele>
        <time>2011-06-17T10:58:49Z</time>
      </trkpt>
      <trkpt lat="59.2566094968" lon="18.0273093989">
        <ele>48.2</ele>
        <time>2011-06-17T10:58:54Z</time>
      </trkpt>
      <trkpt lat="59.2565625581" lon="18.0270862728">
        <ele>48.2</ele>
        <time>2011-06-17T10:58:59Z</time>
      </trkpt>
      <trkpt lat="59.2565349817" lon="18.0269549284">
        <ele>48.2</ele>
        <time>2011-06-17T10:59:02Z</time>
      </trkpt>
      <trkpt lat="59.2564988557" lon="18.0266420321">
        <ele>48.2</ele>
        <time>2011-06-17T10:59:09Z</time>
      </trkpt>
      <trkpt lat="59.2564866181" lon="18.0264090152">
        <ele>48.2</ele>
        <time>2011-06-17T10:59:14Z</time>
      </trkpt>
      <trkpt lat="59.2564904738" lon="18.026122019">
        <ele>48.2</ele>
        <time>2011-06-17T10:59:20Z</time>
      </trkpt>
      <trkpt lat="59.2564926531" lon="18.0258827996">
        <ele>48.2</ele>
        <time>2011-06-17T10:59:25Z</time>
      </trkpt>
      <trkpt lat="59.2565027952" lon="18.0255946298">
        <ele>48.2</ele>
        <time>2011-06-17T10:59:31Z</time>
      </trkpt>
      <trkpt lat="59.2565212354" lon="18.0253515547">
        <ele>48.2</ele>
        <time>2011-06-17T10:59:36Z</time>
      </trkpt>
      <trkpt lat="59.2565446209" lon="18.0249960784">
        <ele>48.2</ele>
        <time>2011-06-17T10:59:43Z</time>
      </trkpt>
      <trkpt lat="59.2565561041" lon="18.0246298731">
        <ele>48.2</ele>
        <time>2011-06-17T10:59:50Z</time>
      </trkpt>
      <trkpt lat="59.256573287" lon="18.0243100198">
        <ele>48.2</ele>
        <time>2011-06-17T10:59:56Z</time>
      </trkpt>
      <trkpt lat="59.2565810821" lon="18.0240341715">
        <ele>47.8</ele>
        <time>2011-06-17T11:00:01Z</time>
      </trkpt>
      <trkpt lat="59.2565856083" lon="18.0237771825">
        <ele>47.2</ele>
        <time>2011-06-17T11:00:06Z</time>
      </trkpt>
      <trkpt lat="59.2565875362" lon="18.0235240491">
        <ele>46.8</ele>
        <time>2011-06-17T11:00:11Z</time>
      </trkpt>
      <trkpt lat="59.2565841834" lon="18.0233058682">
        <ele>46.6</ele>
        <time>2011-06-17T11:00:16Z</time>
      </trkpt>
      <trkpt lat="59.2565841834" lon="18.0231684889">
        <ele>46.4</ele>
        <time>2011-06-17T11:00:19Z</time>
      </trkpt>
      <trkpt lat="59.2565664138" lon="18.02285861">
        <ele>46.4</ele>
        <time>2011-06-17T11:00:25Z</time>
      </trkpt>
      <trkpt lat="59.2565477222" lon="18.022599777">
        <ele>46.4</ele>
        <time>2011-06-17T11:00:30Z</time>
      </trkpt>
      <trkpt lat="59.2565420225" lon="18.0223097632">
        <ele>46.4</ele>
        <time>2011-06-17T11:00:36Z</time>
      </trkpt>
      <trkpt lat="59.2565255939" lon="18.0220102779">
        <ele>46.2</ele>
        <time>2011-06-17T11:00:42Z</time>
      </trkpt>
      <trkpt lat="59.256531126" lon="18.0216720683">
        <ele>46.2</ele>
        <time>2011-06-17T11:00:49Z</time>
      </trkpt>
      <trkpt lat="59.2564753025" lon="18.0215017481">
        <ele>46.2</ele>
        <time>2011-06-17T11:00:54Z</time>
      </trkpt>
      <trkpt lat="59.2563958421" lon="18.0214419013">
        <ele>46.2</ele>
        <time>2011-06-17T11:00:58Z</time>
      </trkpt>
      <trkpt lat="59.2563032221" lon="18.0212952181">
        <ele>46.2</ele>
        <time>2011-06-17T11:01:03Z</time>
      </trkpt>
      <trkpt lat="59.2562510867" lon="18.0212002511">
        <ele>46.2</ele>
        <time>2011-06-17T11:01:06Z</time>
      </trkpt>
      <trkpt lat="59.2561267831" lon="18.0209906198">
        <ele>46.2</ele>
        <time>2011-06-17T11:01:13Z</time>
      </trkpt>
      <trkpt lat="59.256012454" lon="18.0207951539">
        <ele>46.2</ele>
        <time>2011-06-17T11:01:20Z</time>
      </trkpt>
      <trkpt lat="59.2559755737" lon="18.0205894621">
        <ele>46.2</ele>
        <time>2011-06-17T11:01:25Z</time>
      </trkpt>
      <trkpt lat="59.2559367655" lon="18.0203433695">
        <ele>46.8</ele>
        <time>2011-06-17T11:01:30Z</time>
      </trkpt>
      <trkpt lat="59.2559192473" lon="18.020105575">
        <ele>47.4</ele>
        <time>2011-06-17T11:01:35Z</time>
      </trkpt>
      <trkpt lat="59.2558718896" lon="18.0195677085">
        <ele>48</ele>
        <time>2011-06-17T11:01:46Z</time>
      </trkpt>
      <trkpt lat="59.255853617" lon="18.0192254755">
        <ele>48.2</ele>
        <time>2011-06-17T11:01:53Z</time>
      </trkpt>
      <trkpt lat="59.2558515215" lon="18.0189653013">
        <ele>49</ele>
        <time>2011-06-17T11:01:58Z</time>
      </trkpt>
      <trkpt lat="59.2558523597" lon="18.0186981702">
        <ele>49.6</ele>
        <time>2011-06-17T11:02:03Z</time>
      </trkpt>
      <trkpt lat="59.2558848815" lon="18.0184414326">
        <ele>49.8</ele>
        <time>2011-06-17T11:02:08Z</time>
      </trkpt>
      <trkpt lat="59.2559561277" lon="18.0182336453">
        <ele>50</ele>
        <time>2011-06-17T11:02:13Z</time>
      </trkpt>
      <trkpt lat="59.2560100233" lon="18.0180677675">
        <ele>50.2</ele>
        <time>2011-06-17T11:02:17Z</time>
      </trkpt>
      <trkpt lat="59.2560013061" lon="18.0178225969">
        <ele>50.2</ele>
        <time>2011-06-17T11:02:22Z</time>
      </trkpt>
      <trkpt lat="59.2560241887" lon="18.0175903344">
        <ele>50.4</ele>
        <time>2011-06-17T11:02:27Z</time>
      </trkpt>
      <trkpt lat="59.2560959378" lon="18.0173573176">
        <ele>49.8</ele>
        <time>2011-06-17T11:02:33Z</time>
      </trkpt>
      <trkpt lat="59.2561610651" lon="18.0171568226">
        <ele>49.2</ele>
        <time>2011-06-17T11:02:38Z</time>
      </trkpt>
      <trkpt lat="59.256231976" lon="18.0170025118">
        <ele>48.8</ele>
        <time>2011-06-17T11:02:42Z</time>
      </trkpt>
      <trkpt lat="59.2563116879" lon="18.0167949759">
        <ele>48.4</ele>
        <time>2011-06-17T11:02:48Z</time>
      </trkpt>
      <trkpt lat="59.2563423656" lon="18.0167205447">
        <ele>48</ele>
        <time>2011-06-17T11:02:50Z</time>
      </trkpt>
      <trkpt lat="59.2563676789" lon="18.0165609533">
        <ele>47.6</ele>
        <time>2011-06-17T11:02:53Z</time>
      </trkpt>
      <trkpt lat="59.2563819282" lon="18.016516613">
        <ele>47.4</ele>
        <time>2011-06-17T11:02:54Z</time>
      </trkpt>
      <trkpt lat="59.2564675074" lon="18.0162658266">
        <ele>46.8</ele>
        <time>2011-06-17T11:03:00Z</time>
      </trkpt>
      <trkpt lat="59.2565178826" lon="18.0160965122">
        <ele>46.6</ele>
        <time>2011-06-17T11:03:04Z</time>
      </trkpt>
      <trkpt lat="59.2566063955" lon="18.0158099351">
        <ele>46.4</ele>
        <time>2011-06-17T11:03:11Z</time>
      </trkpt>
      <trkpt lat="59.2566383305" lon="18.0155594001">
        <ele>46.4</ele>
        <time>2011-06-17T11:03:16Z</time>
      </trkpt>
      <trkpt lat="59.2566809944" lon="18.015269554">
        <ele>46.4</ele>
        <time>2011-06-17T11:03:22Z</time>
      </trkpt>
      <trkpt lat="59.2566852691" lon="18.0152229506">
        <ele>46.4</ele>
        <time>2011-06-17T11:03:23Z</time>
      </trkpt>
      <trkpt lat="59.2566080718" lon="18.0150812965">
        <ele>46.4</ele>
        <time>2011-06-17T11:03:28Z</time>
      </trkpt>
      <trkpt lat="59.2564427808" lon="18.0148761914">
        <ele>45.2</ele>
        <time>2011-06-17T11:03:36Z</time>
      </trkpt>
      <trkpt lat="59.256346808" lon="18.014723557">
        <ele>44.8</ele>
        <time>2011-06-17T11:03:41Z</time>
      </trkpt>
      <trkpt lat="59.256256535" lon="18.0145746106">
        <ele>44.6</ele>
        <time>2011-06-17T11:03:46Z</time>
      </trkpt>
      <trkpt lat="59.2561406971" lon="18.0144233173">
        <ele>44.4</ele>
        <time>2011-06-17T11:03:52Z</time>
      </trkpt>
      <trkpt lat="59.2560275414" lon="18.0143547534">
        <ele>44.4</ele>
        <time>2011-06-17T11:03:57Z</time>
      </trkpt>
      <trkpt lat="59.2558632562" lon="18.0143070604">
        <ele>44.2</ele>
        <time>2011-06-17T11:04:04Z</time>
      </trkpt>
      <trkpt lat="59.2557130526" lon="18.0142622172">
        <ele>44.2</ele>
        <time>2011-06-17T11:04:10Z</time>
      </trkpt>
      <trkpt lat="59.2555646929" lon="18.014180829">
        <ele>43.6</ele>
        <time>2011-06-17T11:04:16Z</time>
      </trkpt>
      <trkpt lat="59.2554191831" lon="18.0141095828">
        <ele>43</ele>
        <time>2011-06-17T11:04:22Z</time>
      </trkpt>
      <trkpt lat="59.2552793731" lon="18.014044204">
        <ele>42.6</ele>
        <time>2011-06-17T11:04:28Z</time>
      </trkpt>
      <trkpt lat="59.2551315163" lon="18.0139361613">
        <ele>42.4</ele>
        <time>2011-06-17T11:04:34Z</time>
      </trkpt>
      <trkpt lat="59.2549902813" lon="18.0138267775">
        <ele>42.4</ele>
        <time>2011-06-17T11:04:40Z</time>
      </trkpt>
      <trkpt lat="59.2548761198" lon="18.0137251889">
        <ele>42.2</ele>
        <time>2011-06-17T11:04:45Z</time>
      </trkpt>
      <trkpt lat="59.2547715976" lon="18.0135994604">
        <ele>42.2</ele>
        <time>2011-06-17T11:04:50Z</time>
      </trkpt>
      <trkpt lat="59.2546379901" lon="18.0134443114">
        <ele>41.4</ele>
        <time>2011-06-17T11:04:56Z</time>
      </trkpt>
      <trkpt lat="59.2545024547" lon="18.0133013162">
        <ele>40.8</ele>
        <time>2011-06-17T11:05:02Z</time>
      </trkpt>
      <trkpt lat="59.2543737926" lon="18.0131742466">
        <ele>40.6</ele>
        <time>2011-06-17T11:05:08Z</time>
      </trkpt>
      <trkpt lat="59.2542284504" lon="18.0130928583">
        <ele>40.4</ele>
        <time>2011-06-17T11:05:14Z</time>
      </trkpt>
      <trkpt lat="59.2540935857" lon="18.0129729972">
        <ele>40.2</ele>
        <time>2011-06-17T11:05:20Z</time>
      </trkpt>
      <trkpt lat="59.2539597267" lon="18.012831846">
        <ele>40.2</ele>
        <time>2011-06-17T11:05:26Z</time>
      </trkpt>
      <trkpt lat="59.253809104" lon="18.0126435885">
        <ele>40.2</ele>
        <time>2011-06-17T11:05:33Z</time>
      </trkpt>
      <trkpt lat="59.253684046" lon="18.0124913732">
        <ele>40</ele>
        <time>2011-06-17T11:05:39Z</time>
      </trkpt>
      <trkpt lat="59.253477516" lon="18.012151571">
        <ele>38.6</ele>
        <time>2011-06-17T11:05:50Z</time>
      </trkpt>
      <trkpt lat="59.2533492729" lon="18.0120054745">
        <ele>38.4</ele>
        <time>2011-06-17T11:05:56Z</time>
      </trkpt>
      <trkpt lat="59.2532346085" lon="18.0118723699">
        <ele>38.2</ele>
        <time>2011-06-17T11:06:02Z</time>
      </trkpt>
      <trkpt lat="59.2532018353" lon="18.0118116849">
        <ele>38.2</ele>
        <time>2011-06-17T11:06:04Z</time>
      </trkpt>
      <trkpt lat="59.2530726702" lon="18.0117053186">
        <ele>38</ele>
        <time>2011-06-17T11:06:10Z</time>
      </trkpt>
      <trkpt lat="59.2529828163" lon="18.0116422867">
        <ele>38</ele>
        <time>2011-06-17T11:06:14Z</time>
      </trkpt>
      <trkpt lat="59.2528375579" lon="18.0115294664">
        <ele>38</ele>
        <time>2011-06-17T11:06:20Z</time>
      </trkpt>
      <trkpt lat="59.2527437645" lon="18.0114346671">
        <ele>38</ele>
        <time>2011-06-17T11:06:25Z</time>
      </trkpt>
      <trkpt lat="59.2526321176" lon="18.0113484173">
        <ele>38</ele>
        <time>2011-06-17T11:06:30Z</time>
      </trkpt>
      <trkpt lat="59.2524603724" lon="18.0112058412">
        <ele>38</ele>
        <time>2011-06-17T11:06:37Z</time>
      </trkpt>
      <trkpt lat="59.2523015354" lon="18.0110660311">
        <ele>38</ele>
        <time>2011-06-17T11:06:44Z</time>
      </trkpt>
      <trkpt lat="59.2521896371" lon="18.0109543842">
        <ele>38</ele>
        <time>2011-06-17T11:06:49Z</time>
      </trkpt>
      <trkpt lat="59.2520308001" lon="18.0108070304">
        <ele>39</ele>
        <time>2011-06-17T11:06:56Z</time>
      </trkpt>
      <trkpt lat="59.2518494996" lon="18.0106593413">
        <ele>39.6</ele>
        <time>2011-06-17T11:07:04Z</time>
      </trkpt>
      <trkpt lat="59.251727962" lon="18.0105647097">
        <ele>39.8</ele>
        <time>2011-06-17T11:07:09Z</time>
      </trkpt>
      <trkpt lat="59.2516143873" lon="18.0104751072">
        <ele>39.8</ele>
        <time>2011-06-17T11:07:14Z</time>
      </trkpt>
      <trkpt lat="59.2514792711" lon="18.0103545754">
        <ele>40</ele>
        <time>2011-06-17T11:07:20Z</time>
      </trkpt>
      <trkpt lat="59.2513649419" lon="18.0102544956">
        <ele>40</ele>
        <time>2011-06-17T11:07:25Z</time>
      </trkpt>
      <trkpt lat="59.2512498584" lon="18.0101608697">
        <ele>40</ele>
        <time>2011-06-17T11:07:30Z</time>
      </trkpt>
      <trkpt lat="59.2511118924" lon="18.0100598678">
        <ele>40</ele>
        <time>2011-06-17T11:07:36Z</time>
      </trkpt>
      <trkpt lat="59.2508269916" lon="18.0097592929">
        <ele>40</ele>
        <time>2011-06-17T11:07:49Z</time>
      </trkpt>
      <trkpt lat="59.2507155123" lon="18.0096486518">
        <ele>40</ele>
        <time>2011-06-17T11:07:54Z</time>
      </trkpt>
      <trkpt lat="59.2506079725" lon="18.0095676827">
        <ele>40</ele>
        <time>2011-06-17T11:07:59Z</time>
      </trkpt>
      <trkpt lat="59.2505886104" lon="18.0095590493">
        <ele>40</ele>
        <time>2011-06-17T11:08:00Z</time>
      </trkpt>
      <trkpt lat="59.2505360558" lon="18.0095697781">
        <ele>40</ele>
        <time>2011-06-17T11:08:04Z</time>
      </trkpt>
      <trkpt lat="59.2505252432" lon="18.0095604742">
        <ele>40</ele>
        <time>2011-06-17T11:08:12Z</time>
      </trkpt>
      <trkpt lat="59.2505283445" lon="18.0095502483">
        <ele>39</ele>
        <time>2011-06-17T11:08:35Z</time>
      </trkpt>
      <trkpt lat="59.2505212199" lon="18.0095498292">
        <ele>39</ele>
        <time>2011-06-17T11:08:36Z</time>
      </trkpt>
      <trkpt lat="59.2501509914" lon="18.0091047503">
        <ele>51.4</ele>
        <time>2011-06-17T11:35:16Z</time>
      </trkpt>
      <trkpt lat="59.2501265162" lon="18.0090118789">
        <ele>51.4</ele>
        <time>2011-06-17T11:35:20Z</time>
      </trkpt>
      <trkpt lat="59.2501112612" lon="18.0089891639">
        <ele>51.4</ele>
        <time>2011-06-17T11:35:21Z</time>
      </trkpt>
      <trkpt lat="59.2499315532" lon="18.0086776087">
        <ele>50.6</ele>
        <time>2011-06-17T11:35:29Z</time>
      </trkpt>
      <trkpt lat="59.2498170565" lon="18.0084823104">
        <ele>49.4</ele>
        <time>2011-06-17T11:35:35Z</time>
      </trkpt>
      <trkpt lat="59.2497057448" lon="18.0083175223">
        <ele>48.4</ele>
        <time>2011-06-17T11:35:41Z</time>
      </trkpt>
      <trkpt lat="59.2495982889" lon="18.0081412509">
        <ele>47.6</ele>
        <time>2011-06-17T11:35:47Z</time>
      </trkpt>
      <trkpt lat="59.2494562995" lon="18.0079161131">
        <ele>46</ele>
        <time>2011-06-17T11:35:55Z</time>
      </trkpt>
      <trkpt lat="59.2493397073" lon="18.0077043025">
        <ele>45.6</ele>
        <time>2011-06-17T11:36:02Z</time>
      </trkpt>
      <trkpt lat="59.2491931916" lon="18.0074372551">
        <ele>45.2</ele>
        <time>2011-06-17T11:36:11Z</time>
      </trkpt>
      <trkpt lat="59.2491633521" lon="18.0073846168">
        <ele>45.2</ele>
        <time>2011-06-17T11:36:13Z</time>
      </trkpt>
      <trkpt lat="59.2490947043" lon="18.0072558708">
        <ele>45.2</ele>
        <time>2011-06-17T11:36:17Z</time>
      </trkpt>
      <trkpt lat="59.2490042636" lon="18.0071133785">
        <ele>45</ele>
        <time>2011-06-17T11:36:22Z</time>
      </trkpt>
      <trkpt lat="59.2488858274" lon="18.0068961197">
        <ele>45</ele>
        <time>2011-06-17T11:36:29Z</time>
      </trkpt>
      <trkpt lat="59.2487602665" lon="18.0066633543">
        <ele>45</ele>
        <time>2011-06-17T11:36:37Z</time>
      </trkpt>
      <trkpt lat="59.2486362144" lon="18.0064527172">
        <ele>45</ele>
        <time>2011-06-17T11:36:44Z</time>
      </trkpt>
      <trkpt lat="59.2485278364" lon="18.0062693212">
        <ele>45</ele>
        <time>2011-06-17T11:36:50Z</time>
      </trkpt>
      <trkpt lat="59.2484350488" lon="18.0061293435">
        <ele>45</ele>
        <time>2011-06-17T11:36:55Z</time>
      </trkpt>
      <trkpt lat="59.2483105776" lon="18.0059247413">
        <ele>45.6</ele>
        <time>2011-06-17T11:37:02Z</time>
      </trkpt>
      <trkpt lat="59.2482120064" lon="18.0057233242">
        <ele>46.2</ele>
        <time>2011-06-17T11:37:08Z</time>
      </trkpt>
      <trkpt lat="59.2481187159" lon="18.005519225">
        <ele>46.6</ele>
        <time>2011-06-17T11:37:14Z</time>
      </trkpt>
      <trkpt lat="59.2480194742" lon="18.0053398523">
        <ele>46.8</ele>
        <time>2011-06-17T11:37:20Z</time>
      </trkpt>
      <trkpt lat="59.2478784906" lon="18.0050924186">
        <ele>47</ele>
        <time>2011-06-17T11:37:28Z</time>
      </trkpt>
      <trkpt lat="59.2477724596" lon="18.0049221822">
        <ele>47.6</ele>
        <time>2011-06-17T11:37:34Z</time>
      </trkpt>
      <trkpt lat="59.2476780794" lon="18.0047312425">
        <ele>48.4</ele>
        <time>2011-06-17T11:37:40Z</time>
      </trkpt>
      <trkpt lat="59.2475857109" lon="18.0045539654">
        <ele>48.6</ele>
        <time>2011-06-17T11:37:46Z</time>
      </trkpt>
      <trkpt lat="59.2474850442" lon="18.0043711561">
        <ele>49.4</ele>
        <time>2011-06-17T11:37:52Z</time>
      </trkpt>
      <trkpt lat="59.2473931786" lon="18.0041809708">
        <ele>50.2</ele>
        <time>2011-06-17T11:37:58Z</time>
      </trkpt>
      <trkpt lat="59.2472932664" lon="18.0039969881">
        <ele>51.6</ele>
        <time>2011-06-17T11:38:04Z</time>
      </trkpt>
      <trkpt lat="59.2471851399" lon="18.0038140951">
        <ele>52.4</ele>
        <time>2011-06-17T11:38:10Z</time>
      </trkpt>
      <trkpt lat="59.2470916817" lon="18.00366825">
        <ele>52.6</ele>
        <time>2011-06-17T11:38:15Z</time>
      </trkpt>
      <trkpt lat="59.2469612593" lon="18.0034588701">
        <ele>53</ele>
        <time>2011-06-17T11:38:22Z</time>
      </trkpt>
      <trkpt lat="59.2468221198" lon="18.0032558605">
        <ele>54</ele>
        <time>2011-06-17T11:38:29Z</time>
      </trkpt>
      <trkpt lat="59.2467290807" lon="18.003101885">
        <ele>54.4</ele>
        <time>2011-06-17T11:38:34Z</time>
      </trkpt>
      <trkpt lat="59.2466369636" lon="18.0029519328">
        <ele>54.8</ele>
        <time>2011-06-17T11:38:39Z</time>
      </trkpt>
      <trkpt lat="59.2465378057" lon="18.0027642621">
        <ele>55</ele>
        <time>2011-06-17T11:38:45Z</time>
      </trkpt>
      <trkpt lat="59.2464114905" lon="18.0025487634">
        <ele>55.2</ele>
        <time>2011-06-17T11:38:52Z</time>
      </trkpt>
      <trkpt lat="59.2463123326" lon="18.002360506">
        <ele>55.6</ele>
        <time>2011-06-17T11:38:58Z</time>
      </trkpt>
      <trkpt lat="59.2462192935" lon="18.002146516">
        <ele>56.4</ele>
        <time>2011-06-17T11:39:04Z</time>
      </trkpt>
      <trkpt lat="59.246144527" lon="18.0019836557">
        <ele>56.8</ele>
        <time>2011-06-17T11:39:09Z</time>
      </trkpt>
      <trkpt lat="59.2459463789" lon="18.0015145208">
        <ele>57.2</ele>
        <time>2011-06-17T11:39:22Z</time>
      </trkpt>
      <trkpt lat="59.2458825088" lon="18.001351409">
        <ele>57.2</ele>
        <time>2011-06-17T11:39:27Z</time>
      </trkpt>
      <trkpt lat="59.2458006176" lon="18.0011489861">
        <ele>57.2</ele>
        <time>2011-06-17T11:39:32Z</time>
      </trkpt>
      <trkpt lat="59.2457149546" lon="18.0009062463">
        <ele>57.2</ele>
        <time>2011-06-17T11:39:38Z</time>
      </trkpt>
      <trkpt lat="59.2456235919" lon="18.0006642608">
        <ele>56.8</ele>
        <time>2011-06-17T11:39:44Z</time>
      </trkpt>
      <trkpt lat="59.2455434609" lon="18.0004732373">
        <ele>56.2</ele>
        <time>2011-06-17T11:39:49Z</time>
      </trkpt>
      <trkpt lat="59.2454398606" lon="18.0002496083">
        <ele>55.8</ele>
        <time>2011-06-17T11:39:55Z</time>
      </trkpt>
      <trkpt lat="59.2453329076" lon="17.9999669706">
        <ele>55.4</ele>
        <time>2011-06-17T11:40:02Z</time>
      </trkpt>
      <trkpt lat="59.2452640922" lon="17.9997149269">
        <ele>55</ele>
        <time>2011-06-17T11:40:08Z</time>
      </trkpt>
      <trkpt lat="59.2452023176" lon="17.9994520705">
        <ele>54.2</ele>
        <time>2011-06-17T11:40:14Z</time>
      </trkpt>
      <trkpt lat="59.2451528644" lon="17.9992466301">
        <ele>53.8</ele>
        <time>2011-06-17T11:40:19Z</time>
      </trkpt>
      <trkpt lat="59.2450677881" lon="17.9989406908">
        <ele>52.8</ele>
        <time>2011-06-17T11:40:26Z</time>
      </trkpt>
      <trkpt lat="59.2450037504" lon="17.9987058299">
        <ele>52</ele>
        <time>2011-06-17T11:40:32Z</time>
      </trkpt>
      <trkpt lat="59.2449447418" lon="17.9984621681">
        <ele>51.6</ele>
        <time>2011-06-17T11:40:38Z</time>
      </trkpt>
      <trkpt lat="59.2448866552" lon="17.998221859">
        <ele>51.4</ele>
        <time>2011-06-17T11:40:44Z</time>
      </trkpt>
      <trkpt lat="59.244805267" lon="17.9980009959">
        <ele>51.2</ele>
        <time>2011-06-17T11:40:50Z</time>
      </trkpt>
      <trkpt lat="59.2447455879" lon="17.9978085475">
        <ele>51.2</ele>
        <time>2011-06-17T11:40:55Z</time>
      </trkpt>
      <trkpt lat="59.2446851544" lon="17.9975259937">
        <ele>51.2</ele>
        <time>2011-06-17T11:41:01Z</time>
      </trkpt>
      <trkpt lat="59.2446263972" lon="17.9973032866">
        <ele>51.2</ele>
        <time>2011-06-17T11:41:06Z</time>
      </trkpt>
      <trkpt lat="59.244604269" lon="17.997075718">
        <ele>51.2</ele>
        <time>2011-06-17T11:41:11Z</time>
      </trkpt>
      <trkpt lat="59.2445479427" lon="17.9968656676">
        <ele>51.2</ele>
        <time>2011-06-17T11:41:16Z</time>
      </trkpt>
      <trkpt lat="59.2444625311" lon="17.9965949322">
        <ele>51.2</ele>
        <time>2011-06-17T11:41:23Z</time>
      </trkpt>
      <trkpt lat="59.2443892733" lon="17.9963629212">
        <ele>51.2</ele>
        <time>2011-06-17T11:41:29Z</time>
      </trkpt>
      <trkpt lat="59.2442970724" lon="17.9961003163">
        <ele>51.2</ele>
        <time>2011-06-17T11:41:36Z</time>
      </trkpt>
      <trkpt lat="59.24420462" lon="17.9958398907">
        <ele>51.2</ele>
        <time>2011-06-17T11:41:43Z</time>
      </trkpt>
      <trkpt lat="59.2441225612" lon="17.9956186085">
        <ele>51.2</ele>
        <time>2011-06-17T11:41:49Z</time>
      </trkpt>
      <trkpt lat="59.2440470403" lon="17.9954284232">
        <ele>51.2</ele>
        <time>2011-06-17T11:41:55Z</time>
      </trkpt>
      <trkpt lat="59.2439280173" lon="17.995125669">
        <ele>52</ele>
        <time>2011-06-17T11:42:03Z</time>
      </trkpt>
      <trkpt lat="59.2438341401" lon="17.9948698534">
        <ele>53.6</ele>
        <time>2011-06-17T11:42:09Z</time>
      </trkpt>
      <trkpt lat="59.2437266003" lon="17.994603309">
        <ele>54.2</ele>
        <time>2011-06-17T11:42:15Z</time>
      </trkpt>
      <trkpt lat="59.2436685975" lon="17.9944345813">
        <ele>54.6</ele>
        <time>2011-06-17T11:42:19Z</time>
      </trkpt>
      <trkpt lat="59.2435831022" lon="17.9942791809">
        <ele>55</ele>
        <time>2011-06-17T11:42:24Z</time>
      </trkpt>
      <trkpt lat="59.2434900631" lon="17.9941057594">
        <ele>55.2</ele>
        <time>2011-06-17T11:42:29Z</time>
      </trkpt>
      <trkpt lat="59.2434381791" lon="17.9938809568">
        <ele>55.2</ele>
        <time>2011-06-17T11:42:34Z</time>
      </trkpt>
      <trkpt lat="59.2434074175" lon="17.9936735886">
        <ele>55.4</ele>
        <time>2011-06-17T11:42:39Z</time>
      </trkpt>
      <trkpt lat="59.2433611494" lon="17.9935239717">
        <ele>55.4</ele>
        <time>2011-06-17T11:42:43Z</time>
      </trkpt>
      <trkpt lat="59.2433094331" lon="17.9933528133">
        <ele>55.4</ele>
        <time>2011-06-17T11:42:48Z</time>
      </trkpt>
      <trkpt lat="59.2432445572" lon="17.9931653102">
        <ele>54.8</ele>
        <time>2011-06-17T11:42:53Z</time>
      </trkpt>
      <trkpt lat="59.2431555414" lon="17.9928805771">
        <ele>54</ele>
        <time>2011-06-17T11:43:00Z</time>
      </trkpt>
      <trkpt lat="59.2430995503" lon="17.9926442913">
        <ele>53.8</ele>
        <time>2011-06-17T11:43:06Z</time>
      </trkpt>
      <trkpt lat="59.2430411285" lon="17.9923799262">
        <ele>53.6</ele>
        <time>2011-06-17T11:43:13Z</time>
      </trkpt>
      <trkpt lat="59.2429969559" lon="17.992171636">
        <ele>53.4</ele>
        <time>2011-06-17T11:43:18Z</time>
      </trkpt>
      <trkpt lat="59.2429549626" lon="17.991967369">
        <ele>52.8</ele>
        <time>2011-06-17T11:43:23Z</time>
      </trkpt>
      <trkpt lat="59.2428955349" lon="17.9916968851">
        <ele>52</ele>
        <time>2011-06-17T11:43:29Z</time>
      </trkpt>
      <trkpt lat="59.2428459141" lon="17.9914962224">
        <ele>51.8</ele>
        <time>2011-06-17T11:43:34Z</time>
      </trkpt>
      <trkpt lat="59.2427898391" lon="17.9912601881">
        <ele>51.6</ele>
        <time>2011-06-17T11:43:40Z</time>
      </trkpt>
      <trkpt lat="59.2427420623" lon="17.9910211364">
        <ele>51.4</ele>
        <time>2011-06-17T11:43:46Z</time>
      </trkpt>
      <trkpt lat="59.2427124742" lon="17.9908099125">
        <ele>51.4</ele>
        <time>2011-06-17T11:43:51Z</time>
      </trkpt>
      <trkpt lat="59.2426762644" lon="17.9905949167">
        <ele>51.4</ele>
        <time>2011-06-17T11:43:56Z</time>
      </trkpt>
      <trkpt lat="59.2426486879" lon="17.9904284522">
        <ele>51.4</ele>
        <time>2011-06-17T11:44:00Z</time>
      </trkpt>
      <trkpt lat="59.2426089577" lon="17.9901950163">
        <ele>51.4</ele>
        <time>2011-06-17T11:44:06Z</time>
      </trkpt>
      <trkpt lat="59.2425700657" lon="17.9899651008">
        <ele>52.2</ele>
        <time>2011-06-17T11:44:12Z</time>
      </trkpt>
      <trkpt lat="59.2425462611" lon="17.9897439863">
        <ele>52.8</ele>
        <time>2011-06-17T11:44:17Z</time>
      </trkpt>
      <trkpt lat="59.2425117277" lon="17.9894388013">
        <ele>53</ele>
        <time>2011-06-17T11:44:24Z</time>
      </trkpt>
      <trkpt lat="59.2425092131" lon="17.9894063633">
        <ele>53</ele>
        <time>2011-06-17T11:44:25Z</time>
      </trkpt>
      <trkpt lat="59.242481972" lon="17.9891905294">
        <ele>53.2</ele>
        <time>2011-06-17T11:44:30Z</time>
      </trkpt>
      <trkpt lat="59.2424306747" lon="17.9888617075">
        <ele>53.2</ele>
        <time>2011-06-17T11:44:37Z</time>
      </trkpt>
      <trkpt lat="59.2423822273" lon="17.9886242482">
        <ele>53.4</ele>
        <time>2011-06-17T11:44:42Z</time>
      </trkpt>
      <trkpt lat="59.2423075446" lon="17.9882955939">
        <ele>53.4</ele>
        <time>2011-06-17T11:44:49Z</time>
      </trkpt>
      <trkpt lat="59.2422253182" lon="17.9880688635">
        <ele>53.4</ele>
        <time>2011-06-17T11:44:54Z</time>
      </trkpt>
      <trkpt lat="59.2421106538" lon="17.9878831206">
        <ele>54.4</ele>
        <time>2011-06-17T11:45:00Z</time>
      </trkpt>
      <trkpt lat="59.2419996774" lon="17.9876788537">
        <ele>55</ele>
        <time>2011-06-17T11:45:07Z</time>
      </trkpt>
      <trkpt lat="59.2419705922" lon="17.9874704797">
        <ele>56</ele>
        <time>2011-06-17T11:45:12Z</time>
      </trkpt>
      <trkpt lat="59.2419916308" lon="17.9871937094">
        <ele>56.8</ele>
        <time>2011-06-17T11:45:18Z</time>
      </trkpt>
      <trkpt lat="59.2420187882" lon="17.9868307731">
        <ele>57.2</ele>
        <time>2011-06-17T11:45:26Z</time>
      </trkpt>
      <trkpt lat="59.241988781" lon="17.986607144">
        <ele>57.4</ele>
        <time>2011-06-17T11:45:31Z</time>
      </trkpt>
      <trkpt lat="59.241915607" lon="17.9863512446">
        <ele>57.6</ele>
        <time>2011-06-17T11:45:37Z</time>
      </trkpt>
      <trkpt lat="59.2418326262" lon="17.9861345725">
        <ele>57.6</ele>
        <time>2011-06-17T11:45:43Z</time>
      </trkpt>
      <trkpt lat="59.2417586978" lon="17.985931479">
        <ele>57</ele>
        <time>2011-06-17T11:45:48Z</time>
      </trkpt>
      <trkpt lat="59.241633556" lon="17.9856713887">
        <ele>56.2</ele>
        <time>2011-06-17T11:45:55Z</time>
      </trkpt>
      <trkpt lat="59.2415182211" lon="17.9854604163">
        <ele>55.4</ele>
        <time>2011-06-17T11:46:01Z</time>
      </trkpt>
      <trkpt lat="59.2413810932" lon="17.9852071991">
        <ele>54.4</ele>
        <time>2011-06-17T11:46:08Z</time>
      </trkpt>
      <trkpt lat="59.2412453902" lon="17.9849439236">
        <ele>53.6</ele>
        <time>2011-06-17T11:46:15Z</time>
      </trkpt>
      <trkpt lat="59.2411116151" lon="17.9846906226">
        <ele>52.4</ele>
        <time>2011-06-17T11:46:22Z</time>
      </trkpt>
      <trkpt lat="59.2410035724" lon="17.9844826676">
        <ele>51.4</ele>
        <time>2011-06-17T11:46:28Z</time>
      </trkpt>
      <trkpt lat="59.2408881537" lon="17.9842817535">
        <ele>50.6</ele>
        <time>2011-06-17T11:46:34Z</time>
      </trkpt>
      <trkpt lat="59.2407603297" lon="17.9840866228">
        <ele>49.4</ele>
        <time>2011-06-17T11:46:40Z</time>
      </trkpt>
      <trkpt lat="59.2406266384" lon="17.9839005447">
        <ele>48.4</ele>
        <time>2011-06-17T11:46:46Z</time>
      </trkpt>
      <trkpt lat="59.2405036759" lon="17.9837552863">
        <ele>48</ele>
        <time>2011-06-17T11:46:51Z</time>
      </trkpt>
      <trkpt lat="59.2404033446" lon="17.9835948568">
        <ele>47.8</ele>
        <time>2011-06-17T11:46:56Z</time>
      </trkpt>
      <trkpt lat="59.2402901051" lon="17.9834153165">
        <ele>47.6</ele>
        <time>2011-06-17T11:47:02Z</time>
      </trkpt>
      <trkpt lat="59.2401758598" lon="17.9832234548">
        <ele>46.6</ele>
        <time>2011-06-17T11:47:08Z</time>
      </trkpt>
      <trkpt lat="59.2400620336" lon="17.9830201937">
        <ele>46</ele>
        <time>2011-06-17T11:47:14Z</time>
      </trkpt>
      <trkpt lat="59.2399743589" lon="17.9828668888">
        <ele>45.8</ele>
        <time>2011-06-17T11:47:19Z</time>
      </trkpt>
      <trkpt lat="59.2398674059" lon="17.982719032">
        <ele>44.8</ele>
        <time>2011-06-17T11:47:24Z</time>
      </trkpt>
      <trkpt lat="59.2397407554" lon="17.9825480413">
        <ele>44</ele>
        <time>2011-06-17T11:47:30Z</time>
      </trkpt>
      <trkpt lat="59.2395963352" lon="17.9823593647">
        <ele>43.6</ele>
        <time>2011-06-17T11:47:37Z</time>
      </trkpt>
      <trkpt lat="59.239456609" lon="17.982160127">
        <ele>43.4</ele>
        <time>2011-06-17T11:47:44Z</time>
      </trkpt>
      <trkpt lat="59.2393373345" lon="17.9819824307">
        <ele>43.4</ele>
        <time>2011-06-17T11:47:50Z</time>
      </trkpt>
      <trkpt lat="59.2392312197" lon="17.9818490746">
        <ele>43.4</ele>
        <time>2011-06-17T11:47:55Z</time>
      </trkpt>
      <trkpt lat="59.239131056" lon="17.9817173112">
        <ele>43.4</ele>
        <time>2011-06-17T11:48:00Z</time>
      </trkpt>
      <trkpt lat="59.2390258631" lon="17.9815966956">
        <ele>43.4</ele>
        <time>2011-06-17T11:48:05Z</time>
      </trkpt>
      <trkpt lat="59.2389207541" lon="17.9814713862">
        <ele>43.4</ele>
        <time>2011-06-17T11:48:10Z</time>
      </trkpt>
      <trkpt lat="59.2387779265" lon="17.9812677061">
        <ele>43.4</ele>
        <time>2011-06-17T11:48:17Z</time>
      </trkpt>
      <trkpt lat="59.2386572272" lon="17.9810770178">
        <ele>43.4</ele>
        <time>2011-06-17T11:48:23Z</time>
      </trkpt>
      <trkpt lat="59.2385805328" lon="17.9809335197">
        <ele>43.4</ele>
        <time>2011-06-17T11:48:28Z</time>
      </trkpt>
      <trkpt lat="59.2384622642" lon="17.9807697374">
        <ele>43.4</ele>
        <time>2011-06-17T11:48:34Z</time>
      </trkpt>
      <trkpt lat="59.2383768526" lon="17.9806548215">
        <ele>43.8</ele>
        <time>2011-06-17T11:48:39Z</time>
      </trkpt>
      <trkpt lat="59.2383429897" lon="17.9806105651">
        <ele>44</ele>
        <time>2011-06-17T11:48:41Z</time>
      </trkpt>
      <trkpt lat="59.2382906867" lon="17.9805649676">
        <ele>44.4</ele>
        <time>2011-06-17T11:48:44Z</time>
      </trkpt>
      <trkpt lat="59.2381984858" lon="17.9804442682">
        <ele>44.8</ele>
        <time>2011-06-17T11:48:49Z</time>
      </trkpt>
      <trkpt lat="59.2380967295" lon="17.9802918014">
        <ele>45.2</ele>
        <time>2011-06-17T11:48:55Z</time>
      </trkpt>
      <trkpt lat="59.2379824004" lon="17.9801170388">
        <ele>45.6</ele>
        <time>2011-06-17T11:49:01Z</time>
      </trkpt>
      <trkpt lat="59.2378864276" lon="17.9799809168">
        <ele>46.4</ele>
        <time>2011-06-17T11:49:06Z</time>
      </trkpt>
      <trkpt lat="59.2377912931" lon="17.979859463">
        <ele>46.8</ele>
        <time>2011-06-17T11:49:11Z</time>
      </trkpt>
      <trkpt lat="59.2377208851" lon="17.9797026377">
        <ele>47.6</ele>
        <time>2011-06-17T11:49:16Z</time>
      </trkpt>
      <trkpt lat="59.2376211405" lon="17.9795172301">
        <ele>48.4</ele>
        <time>2011-06-17T11:49:21Z</time>
      </trkpt>
      <trkpt lat="59.2375653171" lon="17.9794288848">
        <ele>48.6</ele>
        <time>2011-06-17T11:49:24Z</time>
      </trkpt>
      <trkpt lat="59.2375953243" lon="17.9792730653">
        <ele>49</ele>
        <time>2011-06-17T11:49:29Z</time>
      </trkpt>
      <trkpt lat="59.2376365632" lon="17.9791432297">
        <ele>49.2</ele>
        <time>2011-06-17T11:49:33Z</time>
      </trkpt>
      <trkpt lat="59.2376772992" lon="17.9789932775">
        <ele>49.2</ele>
        <time>2011-06-17T11:49:37Z</time>
      </trkpt>
      <trkpt lat="59.2377824083" lon="17.9786344484">
        <ele>49.4</ele>
        <time>2011-06-17T11:49:45Z</time>
      </trkpt>
      <trkpt lat="59.2378817338" lon="17.9784057063">
        <ele>49.4</ele>
        <time>2011-06-17T11:49:51Z</time>
      </trkpt>
      <trkpt lat="59.237970079" lon="17.9782099889">
        <ele>50.2</ele>
        <time>2011-06-17T11:49:57Z</time>
      </trkpt>
      <trkpt lat="59.2380329433" lon="17.9780056382">
        <ele>50.8</ele>
        <time>2011-06-17T11:50:02Z</time>
      </trkpt>
      <trkpt lat="59.2381300895" lon="17.9777629822">
        <ele>51</ele>
        <time>2011-06-17T11:50:08Z</time>
      </trkpt>
      <trkpt lat="59.2382292473" lon="17.9774899837">
        <ele>51.2</ele>
        <time>2011-06-17T11:50:14Z</time>
      </trkpt>
      <trkpt lat="59.2382845679" lon="17.9773126227">
        <ele>51.6</ele>
        <time>2011-06-17T11:50:19Z</time>
      </trkpt>
      <trkpt lat="59.2383899284" lon="17.977007773">
        <ele>52.6</ele>
        <time>2011-06-17T11:50:26Z</time>
      </trkpt>
      <trkpt lat="59.2384658684" lon="17.9767898436">
        <ele>53</ele>
        <time>2011-06-17T11:50:31Z</time>
      </trkpt>
      <trkpt lat="59.2385661159" lon="17.9765700702">
        <ele>53.2</ele>
        <time>2011-06-17T11:50:37Z</time>
      </trkpt>
      <trkpt lat="59.2387094464" lon="17.9762540726">
        <ele>53.4</ele>
        <time>2011-06-17T11:50:45Z</time>
      </trkpt>
      <trkpt lat="59.2387850511" lon="17.9760451956">
        <ele>53.6</ele>
        <time>2011-06-17T11:50:51Z</time>
      </trkpt>
      <trkpt lat="59.2388457361" lon="17.9759013622">
        <ele>53.6</ele>
        <time>2011-06-17T11:50:55Z</time>
      </trkpt>
      <trkpt lat="59.2387681197" lon="17.9757171281">
        <ele>53.2</ele>
        <time>2011-06-17T11:51:00Z</time>
      </trkpt>
      <trkpt lat="59.2386481747" lon="17.9755371687">
        <ele>52.4</ele>
        <time>2011-06-17T11:51:06Z</time>
      </trkpt>
      <trkpt lat="59.23852253" lon="17.9753194907">
        <ele>50.8</ele>
        <time>2011-06-17T11:51:13Z</time>
      </trkpt>
      <trkpt lat="59.238445668" lon="17.9751381064">
        <ele>49.6</ele>
        <time>2011-06-17T11:51:18Z</time>
      </trkpt>
      <trkpt lat="59.2383349431" lon="17.9748739927">
        <ele>48.4</ele>
        <time>2011-06-17T11:51:25Z</time>
      </trkpt>
      <trkpt lat="59.2382135732" lon="17.974839124">
        <ele>48</ele>
        <time>2011-06-17T11:51:30Z</time>
      </trkpt>
      <trkpt lat="59.2380954722" lon="17.9748907565">
        <ele>46.8</ele>
        <time>2011-06-17T11:51:35Z</time>
      </trkpt>
      <trkpt lat="59.237971001" lon="17.9749309897">
        <ele>46.2</ele>
        <time>2011-06-17T11:51:40Z</time>
      </trkpt>
      <trkpt lat="59.2378461945" lon="17.9749395392">
        <ele>45</ele>
        <time>2011-06-17T11:51:45Z</time>
      </trkpt>
      <trkpt lat="59.2377064682" lon="17.9749157346">
        <ele>44.2</ele>
        <time>2011-06-17T11:51:51Z</time>
      </trkpt>
      <trkpt lat="59.2375572704" lon="17.9748751662">
        <ele>43.8</ele>
        <time>2011-06-17T11:51:57Z</time>
      </trkpt>
      <trkpt lat="59.2374156163" lon="17.9748401299">
        <ele>43.4</ele>
        <time>2011-06-17T11:52:03Z</time>
      </trkpt>
      <trkpt lat="59.2372333938" lon="17.9747804507">
        <ele>43.4</ele>
        <time>2011-06-17T11:52:11Z</time>
      </trkpt>
      <trkpt lat="59.2369562044" lon="17.9746184286">
        <ele>43.2</ele>
        <time>2011-06-17T11:52:24Z</time>
      </trkpt>
      <trkpt lat="59.2368856288" lon="17.9744228789">
        <ele>44</ele>
        <time>2011-06-17T11:52:29Z</time>
      </trkpt>
      <trkpt lat="59.236810024" lon="17.9740849207">
        <ele>44.8</ele>
        <time>2011-06-17T11:52:37Z</time>
      </trkpt>
      <trkpt lat="59.2367153086" lon="17.9738098267">
        <ele>45</ele>
        <time>2011-06-17T11:52:44Z</time>
      </trkpt>
      <trkpt lat="59.2366239459" lon="17.9736451224">
        <ele>45.2</ele>
        <time>2011-06-17T11:52:49Z</time>
      </trkpt>
      <trkpt lat="59.2365331699" lon="17.9735278596">
        <ele>46</ele>
        <time>2011-06-17T11:52:54Z</time>
      </trkpt>
      <trkpt lat="59.2364255463" lon="17.9734116026">
        <ele>46.6</ele>
        <time>2011-06-17T11:53:00Z</time>
      </trkpt>
      <trkpt lat="59.2363032544" lon="17.9733759796">
        <ele>47</ele>
        <time>2011-06-17T11:53:05Z</time>
      </trkpt>
      <trkpt lat="59.2361502847" lon="17.9733945036">
        <ele>47</ele>
        <time>2011-06-17T11:53:11Z</time>
      </trkpt>
      <trkpt lat="59.2360045235" lon="17.9734618102">
        <ele>47.2</ele>
        <time>2011-06-17T11:53:17Z</time>
      </trkpt>
      <trkpt lat="59.2359171841" lon="17.9735394266">
        <ele>47.2</ele>
        <time>2011-06-17T11:53:21Z</time>
      </trkpt>
      <trkpt lat="59.2357705008" lon="17.9736906361">
        <ele>47.2</ele>
        <time>2011-06-17T11:53:28Z</time>
      </trkpt>
      <trkpt lat="59.2356758692" lon="17.973818041">
        <ele>47.2</ele>
        <time>2011-06-17T11:53:33Z</time>
      </trkpt>
      <trkpt lat="59.2355869372" lon="17.9739520676">
        <ele>47.2</ele>
        <time>2011-06-17T11:53:38Z</time>
      </trkpt>
      <trkpt lat="59.2355687485" lon="17.9739705916">
        <ele>47.2</ele>
        <time>2011-06-17T11:53:39Z</time>
      </trkpt>
      <trkpt lat="59.2354854324" lon="17.9739306099">
        <ele>47.2</ele>
        <time>2011-06-17T11:53:43Z</time>
      </trkpt>
      <trkpt lat="59.2353415152" lon="17.9737685039">
        <ele>47.2</ele>
        <time>2011-06-17T11:53:50Z</time>
      </trkpt>
      <trkpt lat="59.2352204805" lon="17.9737063941">
        <ele>47.2</ele>
        <time>2011-06-17T11:53:55Z</time>
      </trkpt>
      <trkpt lat="59.2350944167" lon="17.9737440288">
        <ele>47.2</ele>
        <time>2011-06-17T11:54:00Z</time>
      </trkpt>
      <trkpt lat="59.2349813449" lon="17.9737348925">
        <ele>47.2</ele>
        <time>2011-06-17T11:54:05Z</time>
      </trkpt>
      <trkpt lat="59.2348427921" lon="17.9736949109">
        <ele>47.2</ele>
        <time>2011-06-17T11:54:11Z</time>
      </trkpt>
      <trkpt lat="59.2346869726" lon="17.9736219883">
        <ele>47.2</ele>
        <time>2011-06-17T11:54:18Z</time>
      </trkpt>
      <trkpt lat="59.2345074323" lon="17.9735297874">
        <ele>46.4</ele>
        <time>2011-06-17T11:54:26Z</time>
      </trkpt>
      <trkpt lat="59.234370472" lon="17.9734555238">
        <ele>45.8</ele>
        <time>2011-06-17T11:54:32Z</time>
      </trkpt>
      <trkpt lat="59.2342350205" lon="17.9733640773">
        <ele>44.6</ele>
        <time>2011-06-17T11:54:38Z</time>
      </trkpt>
      <trkpt lat="59.2340822185" lon="17.9732336549">
        <ele>43.8</ele>
        <time>2011-06-17T11:54:45Z</time>
      </trkpt>
      <trkpt lat="59.2339501198" lon="17.9731116983">
        <ele>43.4</ele>
        <time>2011-06-17T11:54:51Z</time>
      </trkpt>
      <trkpt lat="59.2338711623" lon="17.9730214252">
        <ele>43.4</ele>
        <time>2011-06-17T11:54:55Z</time>
      </trkpt>
      <trkpt lat="59.2338297557" lon="17.97297566">
        <ele>43.2</ele>
        <time>2011-06-17T11:54:57Z</time>
      </trkpt>
      <trkpt lat="59.2336839106" lon="17.9728137217">
        <ele>43.2</ele>
        <time>2011-06-17T11:55:04Z</time>
      </trkpt>
      <trkpt lat="59.2335460284" lon="17.9726442397">
        <ele>43.2</ele>
        <time>2011-06-17T11:55:11Z</time>
      </trkpt>
      <trkpt lat="59.2334150193" lon="17.9724606761">
        <ele>43</ele>
        <time>2011-06-17T11:55:18Z</time>
      </trkpt>
      <trkpt lat="59.2332777237" lon="17.9722500389">
        <ele>43</ele>
        <time>2011-06-17T11:55:25Z</time>
      </trkpt>
      <trkpt lat="59.2331748778" lon="17.9720863404">
        <ele>43</ele>
        <time>2011-06-17T11:55:31Z</time>
      </trkpt>
      <trkpt lat="59.2330876223" lon="17.9719240669">
        <ele>43</ele>
        <time>2011-06-17T11:55:36Z</time>
      </trkpt>
      <trkpt lat="59.2329725388" lon="17.9716862724">
        <ele>43</ele>
        <time>2011-06-17T11:55:43Z</time>
      </trkpt>
      <trkpt lat="59.232871034" lon="17.9714792394">
        <ele>43</ele>
        <time>2011-06-17T11:55:49Z</time>
      </trkpt>
      <trkpt lat="59.2327591356" lon="17.9712271119">
        <ele>43</ele>
        <time>2011-06-17T11:55:56Z</time>
      </trkpt>
      <trkpt lat="59.2326472372" lon="17.9709785885">
        <ele>43</ele>
        <time>2011-06-17T11:56:03Z</time>
      </trkpt>
      <trkpt lat="59.2325508454" lon="17.9707621679">
        <ele>43</ele>
        <time>2011-06-17T11:56:09Z</time>
      </trkpt>
      <trkpt lat="59.2324355104" lon="17.9705045083">
        <ele>43.8</ele>
        <time>2011-06-17T11:56:16Z</time>
      </trkpt>
      <trkpt lat="59.2323587322" lon="17.9702989841">
        <ele>44.4</ele>
        <time>2011-06-17T11:56:21Z</time>
      </trkpt>
      <trkpt lat="59.2322136415" lon="17.9699732634">
        <ele>46.2</ele>
        <time>2011-06-17T11:56:30Z</time>
      </trkpt>
      <trkpt lat="59.2321227817" lon="17.9697029472">
        <ele>47.8</ele>
        <time>2011-06-17T11:56:36Z</time>
      </trkpt>
      <trkpt lat="59.2320269766" lon="17.9694245005">
        <ele>49.8</ele>
        <time>2011-06-17T11:56:43Z</time>
      </trkpt>
      <trkpt lat="59.2319512881" lon="17.9692296213">
        <ele>51.4</ele>
        <time>2011-06-17T11:56:48Z</time>
      </trkpt>
      <trkpt lat="59.2318796228" lon="17.9689858756">
        <ele>53</ele>
        <time>2011-06-17T11:56:54Z</time>
      </trkpt>
      <trkpt lat="59.2317965582" lon="17.9687885657">
        <ele>54.4</ele>
        <time>2011-06-17T11:57:00Z</time>
      </trkpt>
      <trkpt lat="59.2317714963" lon="17.9687355083">
        <ele>55.4</ele>
        <time>2011-06-17T11:57:04Z</time>
      </trkpt>
      <trkpt lat="59.2317408186" lon="17.9686213468">
        <ele>57.2</ele>
        <time>2011-06-17T11:57:14Z</time>
      </trkpt>
      <trkpt lat="59.2316514675" lon="17.9683754219">
        <ele>57.6</ele>
        <time>2011-06-17T11:57:20Z</time>
      </trkpt>
      <trkpt lat="59.2315693249" lon="17.9681411477">
        <ele>57.8</ele>
        <time>2011-06-17T11:57:26Z</time>
      </trkpt>
      <trkpt lat="59.2314700832" lon="17.9679062031">
        <ele>58</ele>
        <time>2011-06-17T11:57:33Z</time>
      </trkpt>
      <trkpt lat="59.2313779661" lon="17.9677113239">
        <ele>58</ele>
        <time>2011-06-17T11:57:39Z</time>
      </trkpt>
      <trkpt lat="59.2312700072" lon="17.967483001">
        <ele>58.2</ele>
        <time>2011-06-17T11:57:46Z</time>
      </trkpt>
      <trkpt lat="59.2311805724" lon="17.9672960846">
        <ele>58.2</ele>
        <time>2011-06-17T11:57:52Z</time>
      </trkpt>
      <trkpt lat="59.2310574423" lon="17.9670163806">
        <ele>57.6</ele>
        <time>2011-06-17T11:58:00Z</time>
      </trkpt>
      <trkpt lat="59.2309572785" lon="17.9668173943">
        <ele>57</ele>
        <time>2011-06-17T11:58:06Z</time>
      </trkpt>
      <trkpt lat="59.2308725375" lon="17.9666658495">
        <ele>56.6</ele>
        <time>2011-06-17T11:58:11Z</time>
      </trkpt>
      <trkpt lat="59.2307444621" lon="17.9664306534">
        <ele>56.4</ele>
        <time>2011-06-17T11:58:18Z</time>
      </trkpt>
      <trkpt lat="59.2306573742" lon="17.9662464193">
        <ele>55.8</ele>
        <time>2011-06-17T11:58:23Z</time>
      </trkpt>
      <trkpt lat="59.2305704539" lon="17.9660840618">
        <ele>55.2</ele>
        <time>2011-06-17T11:58:28Z</time>
      </trkpt>
      <trkpt lat="59.2304500898" lon="17.9658494525">
        <ele>54.6</ele>
        <time>2011-06-17T11:58:35Z</time>
      </trkpt>
      <trkpt lat="59.2303464895" lon="17.9656569202">
        <ele>54.4</ele>
        <time>2011-06-17T11:58:41Z</time>
      </trkpt>
      <trkpt lat="59.2302771712" lon="17.9655299344">
        <ele>54.2</ele>
        <time>2011-06-17T11:58:45Z</time>
      </trkpt>
      <trkpt lat="59.2301808632" lon="17.9653432695">
        <ele>54.2</ele>
        <time>2011-06-17T11:58:51Z</time>
      </trkpt>
      <trkpt lat="59.2301047555" lon="17.9651732008">
        <ele>54.2</ele>
        <time>2011-06-17T11:58:56Z</time>
      </trkpt>
      <trkpt lat="59.2300180028" lon="17.9650105081">
        <ele>54.2</ele>
        <time>2011-06-17T11:59:01Z</time>
      </trkpt>
      <trkpt lat="59.2299150731" lon="17.964809091">
        <ele>54.2</ele>
        <time>2011-06-17T11:59:07Z</time>
      </trkpt>
      <trkpt lat="59.2297927812" lon="17.9645899044">
        <ele>54.2</ele>
        <time>2011-06-17T11:59:14Z</time>
      </trkpt>
      <trkpt lat="59.2296473552" lon="17.964334424">
        <ele>54.2</ele>
        <time>2011-06-17T11:59:22Z</time>
      </trkpt>
      <trkpt lat="59.2295123228" lon="17.9640812907">
        <ele>54.2</ele>
        <time>2011-06-17T11:59:30Z</time>
      </trkpt>
      <trkpt lat="59.2294378077" lon="17.963914407">
        <ele>54.2</ele>
        <time>2011-06-17T11:59:35Z</time>
      </trkpt>
      <trkpt lat="59.2293327825" lon="17.9637084637">
        <ele>54.2</ele>
        <time>2011-06-17T11:59:41Z</time>
      </trkpt>
      <trkpt lat="59.2292249913" lon="17.9634899476">
        <ele>54.2</ele>
        <time>2011-06-17T11:59:47Z</time>
      </trkpt>
      <trkpt lat="59.2291280127" lon="17.9632778017">
        <ele>54.2</ele>
        <time>2011-06-17T11:59:53Z</time>
      </trkpt>
      <trkpt lat="59.2290220655" lon="17.963068841">
        <ele>54.2</ele>
        <time>2011-06-17T11:59:59Z</time>
      </trkpt>
      <trkpt lat="59.2289299484" lon="17.9628623948">
        <ele>54.2</ele>
        <time>2011-06-17T12:00:05Z</time>
      </trkpt>
      <trkpt lat="59.2288359035" lon="17.9626574573">
        <ele>54.2</ele>
        <time>2011-06-17T12:00:11Z</time>
      </trkpt>
      <trkpt lat="59.2287435349" lon="17.9624379353">
        <ele>54.2</ele>
        <time>2011-06-17T12:00:17Z</time>
      </trkpt>
      <trkpt lat="59.2286451314" lon="17.9622030745">
        <ele>53.2</ele>
        <time>2011-06-17T12:00:23Z</time>
      </trkpt>
      <trkpt lat="59.2285607257" lon="17.9620216902">
        <ele>52.8</ele>
        <time>2011-06-17T12:00:28Z</time>
      </trkpt>
      <trkpt lat="59.2284664293" lon="17.9618177586">
        <ele>52.4</ele>
        <time>2011-06-17T12:00:34Z</time>
      </trkpt>
      <trkpt lat="59.228361907" lon="17.9615821434">
        <ele>52.4</ele>
        <time>2011-06-17T12:00:40Z</time>
      </trkpt>
      <trkpt lat="59.2282614081" lon="17.9613166048">
        <ele>52.2</ele>
        <time>2011-06-17T12:00:47Z</time>
      </trkpt>
      <trkpt lat="59.2281552932" lon="17.961069674">
        <ele>52.2</ele>
        <time>2011-06-17T12:00:54Z</time>
      </trkpt>
      <trkpt lat="59.228040545" lon="17.9607577835">
        <ele>52.2</ele>
        <time>2011-06-17T12:01:02Z</time>
      </trkpt>
      <trkpt lat="59.2279718972" lon="17.9605510858">
        <ele>52.2</ele>
        <time>2011-06-17T12:01:07Z</time>
      </trkpt>
      <trkpt lat="59.2278672073" lon="17.9602278798">
        <ele>51.2</ele>
        <time>2011-06-17T12:01:15Z</time>
      </trkpt>
      <trkpt lat="59.2278400499" lon="17.9601562145">
        <ele>51</ele>
        <time>2011-06-17T12:01:17Z</time>
      </trkpt>
      <trkpt lat="59.2277982243" lon="17.9600340902">
        <ele>50.8</ele>
        <time>2011-06-17T12:01:20Z</time>
      </trkpt>
      <trkpt lat="59.2277190153" lon="17.9597838905">
        <ele>49.6</ele>
        <time>2011-06-17T12:01:26Z</time>
      </trkpt>
      <trkpt lat="59.2276367889" lon="17.9595465151">
        <ele>48.6</ele>
        <time>2011-06-17T12:01:32Z</time>
      </trkpt>
      <trkpt lat="59.2275319313" lon="17.9592816471">
        <ele>47</ele>
        <time>2011-06-17T12:01:39Z</time>
      </trkpt>
      <trkpt lat="59.227462613" lon="17.9590895339">
        <ele>46.4</ele>
        <time>2011-06-17T12:01:44Z</time>
      </trkpt>
      <trkpt lat="59.2273645448" lon="17.9588224866">
        <ele>46</ele>
        <time>2011-06-17T12:01:51Z</time>
      </trkpt>
      <trkpt lat="59.22726765" lon="17.9586026294">
        <ele>45.8</ele>
        <time>2011-06-17T12:01:57Z</time>
      </trkpt>
      <trkpt lat="59.2271808973" lon="17.9584225023">
        <ele>45.8</ele>
        <time>2011-06-17T12:02:02Z</time>
      </trkpt>
      <trkpt lat="59.2270631316" lon="17.9581743981">
        <ele>45.6</ele>
        <time>2011-06-17T12:02:09Z</time>
      </trkpt>
      <trkpt lat="59.2269545022" lon="17.9579599891">
        <ele>45.6</ele>
        <time>2011-06-17T12:02:15Z</time>
      </trkpt>
      <trkpt lat="59.2268295281" lon="17.9577134774">
        <ele>45.6</ele>
        <time>2011-06-17T12:02:22Z</time>
      </trkpt>
      <trkpt lat="59.2267028776" lon="17.9574801253">
        <ele>45.6</ele>
        <time>2011-06-17T12:02:29Z</time>
      </trkpt>
      <trkpt lat="59.2265939129" lon="17.9572767804">
        <ele>45.6</ele>
        <time>2011-06-17T12:02:35Z</time>
      </trkpt>
      <trkpt lat="59.2264483193" lon="17.957026916">
        <ele>45.6</ele>
        <time>2011-06-17T12:02:43Z</time>
      </trkpt>
      <trkpt lat="59.2263027257" lon="17.9567829189">
        <ele>45.6</ele>
        <time>2011-06-17T12:02:51Z</time>
      </trkpt>
      <trkpt lat="59.2261722195" lon="17.956574461">
        <ele>45.6</ele>
        <time>2011-06-17T12:02:58Z</time>
      </trkpt>
      <trkpt lat="59.2260577227" lon="17.956393412">
        <ele>45</ele>
        <time>2011-06-17T12:03:04Z</time>
      </trkpt>
      <trkpt lat="59.2259245343" lon="17.95617389">
        <ele>44.2</ele>
        <time>2011-06-17T12:03:11Z</time>
      </trkpt>
      <trkpt lat="59.2257975485" lon="17.9559479978">
        <ele>44</ele>
        <time>2011-06-17T12:03:18Z</time>
      </trkpt>
      <trkpt lat="59.2256683835" lon="17.9557222732">
        <ele>43.8</ele>
        <time>2011-06-17T12:03:25Z</time>
      </trkpt>
      <trkpt lat="59.225534776" lon="17.955531585">
        <ele>43.6</ele>
        <time>2011-06-17T12:03:32Z</time>
      </trkpt>
      <trkpt lat="59.2254174294" lon="17.9553640308">
        <ele>43.6</ele>
        <time>2011-06-17T12:03:38Z</time>
      </trkpt>
      <trkpt lat="59.2252954727" lon="17.9551942135">
        <ele>44.2</ele>
        <time>2011-06-17T12:03:44Z</time>
      </trkpt>
      <trkpt lat="59.2251851669" lon="17.9550371367">
        <ele>45</ele>
        <time>2011-06-17T12:03:50Z</time>
      </trkpt>
      <trkpt lat="59.2250676527" lon="17.9548826583">
        <ele>46</ele>
        <time>2011-06-17T12:03:56Z</time>
      </trkpt>
      <trkpt lat="59.2249398287" lon="17.9546803193">
        <ele>47</ele>
        <time>2011-06-17T12:04:03Z</time>
      </trkpt>
      <trkpt lat="59.2248320375" lon="17.9545019524">
        <ele>48</ele>
        <time>2011-06-17T12:04:09Z</time>
      </trkpt>
      <trkpt lat="59.2247271799" lon="17.9543172154">
        <ele>48.8</ele>
        <time>2011-06-17T12:04:15Z</time>
      </trkpt>
      <trkpt lat="59.2246189696" lon="17.9540791694">
        <ele>49.4</ele>
        <time>2011-06-17T12:04:22Z</time>
      </trkpt>
      <trkpt lat="59.2245372461" lon="17.953901054">
        <ele>49.6</ele>
        <time>2011-06-17T12:04:27Z</time>
      </trkpt>
      <trkpt lat="59.2240370981" lon="17.9530372992">
        <ele>39.4</ele>
        <time>2011-06-17T12:06:56Z</time>
      </trkpt>
      <trkpt lat="59.2239845436" lon="17.9529636223">
        <ele>39.4</ele>
        <time>2011-06-17T12:07:00Z</time>
      </trkpt>
      <trkpt lat="59.2238863915" lon="17.9528509696">
        <ele>39.4</ele>
        <time>2011-06-17T12:07:05Z</time>
      </trkpt>
      <trkpt lat="59.2237452403" lon="17.9526478761">
        <ele>39.4</ele>
        <time>2011-06-17T12:07:13Z</time>
      </trkpt>
      <trkpt lat="59.2236364433" lon="17.9525158612">
        <ele>39.4</ele>
        <time>2011-06-17T12:07:19Z</time>
      </trkpt>
      <trkpt lat="59.2235040092" lon="17.9523632268">
        <ele>39.4</ele>
        <time>2011-06-17T12:07:26Z</time>
      </trkpt>
      <trkpt lat="59.2233593377" lon="17.9521731253">
        <ele>39.4</ele>
        <time>2011-06-17T12:07:34Z</time>
      </trkpt>
      <trkpt lat="59.2232542286" lon="17.951998698">
        <ele>39.4</ele>
        <time>2011-06-17T12:07:40Z</time>
      </trkpt>
      <trkpt lat="59.223153562" lon="17.9518284616">
        <ele>39.4</ele>
        <time>2011-06-17T12:07:46Z</time>
      </trkpt>
      <trkpt lat="59.2230408255" lon="17.9516442274">
        <ele>40.2</ele>
        <time>2011-06-17T12:07:53Z</time>
      </trkpt>
      <trkpt lat="59.2229667295" lon="17.951476338">
        <ele>40.8</ele>
        <time>2011-06-17T12:07:58Z</time>
      </trkpt>
      <trkpt lat="59.2228661467" lon="17.9513483464">
        <ele>41.4</ele>
        <time>2011-06-17T12:08:04Z</time>
      </trkpt>
      <trkpt lat="59.2228126701" lon="17.9512952051">
        <ele>42.2</ele>
        <time>2011-06-17T12:08:08Z</time>
      </trkpt>
      <trkpt lat="59.2227009394" lon="17.9510858253">
        <ele>43</ele>
        <time>2011-06-17T12:08:15Z</time>
      </trkpt>
      <trkpt lat="59.2225603749" lon="17.9508062051">
        <ele>44</ele>
        <time>2011-06-17T12:08:23Z</time>
      </trkpt>
      <trkpt lat="59.2224385021" lon="17.9505731044">
        <ele>45</ele>
        <time>2011-06-17T12:08:30Z</time>
      </trkpt>
      <trkpt lat="59.2223607181" lon="17.9504135131">
        <ele>46.2</ele>
        <time>2011-06-17T12:08:35Z</time>
      </trkpt>
      <trkpt lat="59.2222291223" lon="17.9501606311">
        <ele>47.2</ele>
        <time>2011-06-17T12:08:43Z</time>
      </trkpt>
      <trkpt lat="59.2220860432" lon="17.9499462221">
        <ele>48</ele>
        <time>2011-06-17T12:08:50Z</time>
      </trkpt>
      <trkpt lat="59.2219623264" lon="17.9497731359">
        <ele>49</ele>
        <time>2011-06-17T12:08:56Z</time>
      </trkpt>
      <trkpt lat="59.2218651802" lon="17.9496313142">
        <ele>50</ele>
        <time>2011-06-17T12:09:01Z</time>
      </trkpt>
      <trkpt lat="59.2217370209" lon="17.9494332499">
        <ele>51</ele>
        <time>2011-06-17T12:09:08Z</time>
      </trkpt>
      <trkpt lat="59.2216132202" lon="17.949267875">
        <ele>51.4</ele>
        <time>2011-06-17T12:09:14Z</time>
      </trkpt>
      <trkpt lat="59.2215221928" lon="17.94913125">
        <ele>52.6</ele>
        <time>2011-06-17T12:09:19Z</time>
      </trkpt>
      <trkpt lat="59.2214123061" lon="17.9490020849">
        <ele>53.2</ele>
        <time>2011-06-17T12:09:24Z</time>
      </trkpt>
      <trkpt lat="59.2212936184" lon="17.94886546">
        <ele>53.6</ele>
        <time>2011-06-17T12:09:30Z</time>
      </trkpt>
      <trkpt lat="59.2211766071" lon="17.9487110654">
        <ele>54.8</ele>
        <time>2011-06-17T12:09:36Z</time>
      </trkpt>
      <trkpt lat="59.2210638705" lon="17.9485506358">
        <ele>55.4</ele>
        <time>2011-06-17T12:09:42Z</time>
      </trkpt>
      <trkpt lat="59.2209461048" lon="17.9483840874">
        <ele>55.8</ele>
        <time>2011-06-17T12:09:48Z</time>
      </trkpt>
      <trkpt lat="59.2208490424" lon="17.9482524916">
        <ele>55.8</ele>
        <time>2011-06-17T12:09:53Z</time>
      </trkpt>
      <trkpt lat="59.2207378984" lon="17.9480808303">
        <ele>56</ele>
        <time>2011-06-17T12:09:59Z</time>
      </trkpt>
      <trkpt lat="59.2206384053" lon="17.9479503241">
        <ele>56</ele>
        <time>2011-06-17T12:10:04Z</time>
      </trkpt>
      <trkpt lat="59.2206201327" lon="17.9479206522">
        <ele>56</ele>
        <time>2011-06-17T12:10:05Z</time>
      </trkpt>
      <trkpt lat="59.2205147723" lon="17.9477395193">
        <ele>56</ele>
        <time>2011-06-17T12:10:11Z</time>
      </trkpt>
      <trkpt lat="59.2203777282" lon="17.9475181533">
        <ele>56</ele>
        <time>2011-06-17T12:10:18Z</time>
      </trkpt>
      <trkpt lat="59.2202778159" lon="17.9473662733">
        <ele>56</ele>
        <time>2011-06-17T12:10:23Z</time>
      </trkpt>
      <trkpt lat="59.2201556917" lon="17.9471651915">
        <ele>56</ele>
        <time>2011-06-17T12:10:29Z</time>
      </trkpt>
      <trkpt lat="59.2200373392" lon="17.9468942885">
        <ele>56</ele>
        <time>2011-06-17T12:10:36Z</time>
      </trkpt>
      <trkpt lat="59.2199336551" lon="17.9466735931">
        <ele>55.4</ele>
        <time>2011-06-17T12:10:42Z</time>
      </trkpt>
      <trkpt lat="59.2198079266" lon="17.9464962321">
        <ele>54.8</ele>
        <time>2011-06-17T12:10:48Z</time>
      </trkpt>
      <trkpt lat="59.2196199206" lon="17.9462668195">
        <ele>54.2</ele>
        <time>2011-06-17T12:10:57Z</time>
      </trkpt>
      <trkpt lat="59.219492851" lon="17.9461734451">
        <ele>54.2</ele>
        <time>2011-06-17T12:11:03Z</time>
      </trkpt>
      <trkpt lat="59.2193615904" lon="17.9461769655">
        <ele>53.8</ele>
        <time>2011-06-17T12:11:08Z</time>
      </trkpt>
      <trkpt lat="59.2192380412" lon="17.9461539991">
        <ele>53</ele>
        <time>2011-06-17T12:11:13Z</time>
      </trkpt>
      <trkpt lat="59.2190874185" lon="17.946043358">
        <ele>52.6</ele>
        <time>2011-06-17T12:11:19Z</time>
      </trkpt>
      <trkpt lat="59.2189640369" lon="17.9459010334">
        <ele>52.2</ele>
        <time>2011-06-17T12:11:25Z</time>
      </trkpt>
      <trkpt lat="59.2188362968" lon="17.9457452977">
        <ele>52.2</ele>
        <time>2011-06-17T12:11:31Z</time>
      </trkpt>
      <trkpt lat="59.2186987498" lon="17.9455872989">
        <ele>52</ele>
        <time>2011-06-17T12:11:37Z</time>
      </trkpt>
      <trkpt lat="59.2185415054" lon="17.9454004663">
        <ele>52</ele>
        <time>2011-06-17T12:11:44Z</time>
      </trkpt>
      <trkpt lat="59.2184183752" lon="17.945255208">
        <ele>52</ele>
        <time>2011-06-17T12:11:50Z</time>
      </trkpt>
      <trkpt lat="59.2182617175" lon="17.9451093629">
        <ele>52.6</ele>
        <time>2011-06-17T12:11:57Z</time>
      </trkpt>
      <trkpt lat="59.2181513279" lon="17.9450166591">
        <ele>53.2</ele>
        <time>2011-06-17T12:12:03Z</time>
      </trkpt>
      <trkpt lat="59.2181294511" lon="17.9450015717">
        <ele>53.4</ele>
        <time>2011-06-17T12:12:05Z</time>
      </trkpt>
      <trkpt lat="59.2181193929" lon="17.9449950338">
        <ele>53.4</ele>
        <time>2011-06-17T12:12:07Z</time>
      </trkpt>
      <trkpt lat="59.2180925708" lon="17.944970391">
        <ele>53.8</ele>
        <time>2011-06-17T12:12:13Z</time>
      </trkpt>
      <trkpt lat="59.2180732924" lon="17.9450146475">
        <ele>53.8</ele>
        <time>2011-06-17T12:12:22Z</time>
      </trkpt>
      <trkpt lat="59.2180732086" lon="17.9450056788">
        <ele>54</ele>
        <time>2011-06-17T12:12:27Z</time>
      </trkpt>
      <trkpt lat="59.2180250127" lon="17.9449860652">
        <ele>54</ele>
        <time>2011-06-17T12:12:37Z</time>
      </trkpt>
      <trkpt lat="59.2178639126" lon="17.9448346042">
        <ele>54</ele>
        <time>2011-06-17T12:12:44Z</time>
      </trkpt>
      <trkpt lat="59.2177432132" lon="17.9446704866">
        <ele>53.2</ele>
        <time>2011-06-17T12:12:50Z</time>
      </trkpt>
      <trkpt lat="59.2175953565" lon="17.944480469">
        <ele>52.6</ele>
        <time>2011-06-17T12:12:57Z</time>
      </trkpt>
      <trkpt lat="59.2174829552" lon="17.9443414971">
        <ele>52.4</ele>
        <time>2011-06-17T12:13:02Z</time>
      </trkpt>
      <trkpt lat="59.2173505212" lon="17.9441626273">
        <ele>52.2</ele>
        <time>2011-06-17T12:13:08Z</time>
      </trkpt>
      <trkpt lat="59.2172201826" lon="17.9439996832">
        <ele>52</ele>
        <time>2011-06-17T12:13:14Z</time>
      </trkpt>
      <trkpt lat="59.2170874133" lon="17.9438291953">
        <ele>52</ele>
        <time>2011-06-17T12:13:20Z</time>
      </trkpt>
      <trkpt lat="59.216964367" lon="17.943662647">
        <ele>52</ele>
        <time>2011-06-17T12:13:26Z</time>
      </trkpt>
      <trkpt lat="59.2168456793" lon="17.9434818494">
        <ele>52</ele>
        <time>2011-06-17T12:13:32Z</time>
      </trkpt>
      <trkpt lat="59.2167289195" lon="17.9433017224">
        <ele>52</ele>
        <time>2011-06-17T12:13:38Z</time>
      </trkpt>
      <trkpt lat="59.2165865948" lon="17.943091672">
        <ele>52</ele>
        <time>2011-06-17T12:13:45Z</time>
      </trkpt>
      <trkpt lat="59.2164455274" lon="17.94288883">
        <ele>52</ele>
        <time>2011-06-17T12:13:52Z</time>
      </trkpt>
      <trkpt lat="59.2163203857" lon="17.9427174201">
        <ele>52</ele>
        <time>2011-06-17T12:13:58Z</time>
      </trkpt>
      <trkpt lat="59.2161758817" lon="17.9425084594">
        <ele>52</ele>
        <time>2011-06-17T12:14:05Z</time>
      </trkpt>
      <trkpt lat="59.2160206489" lon="17.9422752749">
        <ele>52</ele>
        <time>2011-06-17T12:14:13Z</time>
      </trkpt>
      <trkpt lat="59.2158970997" lon="17.9420972433">
        <ele>52.2</ele>
        <time>2011-06-17T12:14:19Z</time>
      </trkpt>
      <trkpt lat="59.2157821839" lon="17.9419155237">
        <ele>53</ele>
        <time>2011-06-17T12:14:25Z</time>
      </trkpt>
      <trkpt lat="59.2156630771" lon="17.9417398391">
        <ele>53.6</ele>
        <time>2011-06-17T12:14:31Z</time>
      </trkpt>
      <trkpt lat="59.2155526875" lon="17.9415516655">
        <ele>53.8</ele>
        <time>2011-06-17T12:14:37Z</time>
      </trkpt>
      <trkpt lat="59.2154283839" lon="17.9413308862">
        <ele>55</ele>
        <time>2011-06-17T12:14:44Z</time>
      </trkpt>
      <trkpt lat="59.2153108696" lon="17.9411098555">
        <ele>55.6</ele>
        <time>2011-06-17T12:14:51Z</time>
      </trkpt>
      <trkpt lat="59.215182878" lon="17.9408913394">
        <ele>55.8</ele>
        <time>2011-06-17T12:14:58Z</time>
      </trkpt>
      <trkpt lat="59.2151059322" lon="17.9407245396">
        <ele>56</ele>
        <time>2011-06-17T12:15:03Z</time>
      </trkpt>
      <trkpt lat="59.2150713149" lon="17.9406703087">
        <ele>56</ele>
        <time>2011-06-17T12:15:05Z</time>
      </trkpt>
      <trkpt lat="59.2149761804" lon="17.940404351">
        <ele>56</ele>
        <time>2011-06-17T12:15:12Z</time>
      </trkpt>
      <trkpt lat="59.2148996536" lon="17.9402188596">
        <ele>56</ele>
        <time>2011-06-17T12:15:18Z</time>
      </trkpt>
      <trkpt lat="59.2148310897" lon="17.9400344578">
        <ele>56</ele>
        <time>2011-06-17T12:15:23Z</time>
      </trkpt>
      <trkpt lat="59.2147898507" lon="17.9399257445">
        <ele>56</ele>
        <time>2011-06-17T12:15:26Z</time>
      </trkpt>
      <trkpt lat="59.2147065346" lon="17.9397294404">
        <ele>56</ele>
        <time>2011-06-17T12:15:32Z</time>
      </trkpt>
      <trkpt lat="59.2146424131" lon="17.9395393389">
        <ele>56</ele>
        <time>2011-06-17T12:15:37Z</time>
      </trkpt>
      <trkpt lat="59.2145487035" lon="17.9392902289">
        <ele>56</ele>
        <time>2011-06-17T12:15:44Z</time>
      </trkpt>
      <trkpt lat="59.2144784631" lon="17.9391190705">
        <ele>56</ele>
        <time>2011-06-17T12:15:50Z</time>
      </trkpt>
      <trkpt lat="59.2144183649" lon="17.9389769972">
        <ele>56</ele>
        <time>2011-06-17T12:15:53Z</time>
      </trkpt>
      <trkpt lat="59.2143759525" lon="17.9388624167">
        <ele>56</ele>
        <time>2011-06-17T12:15:56Z</time>
      </trkpt>
      <trkpt lat="59.2142588574" lon="17.9385699722">
        <ele>56</ele>
        <time>2011-06-17T12:16:04Z</time>
      </trkpt>
      <trkpt lat="59.2141669079" lon="17.9383294117">
        <ele>56</ele>
        <time>2011-06-17T12:16:10Z</time>
      </trkpt>
      <trkpt lat="59.2140898783" lon="17.9380942994">
        <ele>55.6</ele>
        <time>2011-06-17T12:16:16Z</time>
      </trkpt>
      <trkpt lat="59.214012681" lon="17.9378428424">
        <ele>55</ele>
        <time>2011-06-17T12:16:22Z</time>
      </trkpt>
      <trkpt lat="59.2139460449" lon="17.9375954925">
        <ele>54.4</ele>
        <time>2011-06-17T12:16:28Z</time>
      </trkpt>
      <trkpt lat="59.2138691828" lon="17.9373548481">
        <ele>54.2</ele>
        <time>2011-06-17T12:16:34Z</time>
      </trkpt>
      <trkpt lat="59.2138131917" lon="17.9371810914">
        <ele>54.2</ele>
        <time>2011-06-17T12:16:38Z</time>
      </trkpt>
      <trkpt lat="59.2137908959" lon="17.9370909859">
        <ele>54.2</ele>
        <time>2011-06-17T12:16:40Z</time>
      </trkpt>
      <trkpt lat="59.2137215776" lon="17.9368391098">
        <ele>54.2</ele>
        <time>2011-06-17T12:16:46Z</time>
      </trkpt>
      <trkpt lat="59.2136259401" lon="17.9365676201">
        <ele>54</ele>
        <time>2011-06-17T12:16:53Z</time>
      </trkpt>
      <trkpt lat="59.2135433784" lon="17.9363399677">
        <ele>54</ele>
        <time>2011-06-17T12:17:00Z</time>
      </trkpt>
      <trkpt lat="59.2134866329" lon="17.9361506206">
        <ele>54</ele>
        <time>2011-06-17T12:17:04Z</time>
      </trkpt>
      <trkpt lat="59.2134432985" lon="17.9358951403">
        <ele>54</ele>
        <time>2011-06-17T12:17:10Z</time>
      </trkpt>
      <trkpt lat="59.2133729744" lon="17.9355979181">
        <ele>54</ele>
        <time>2011-06-17T12:17:17Z</time>
      </trkpt>
      <trkpt lat="59.2132959447" lon="17.9352763884">
        <ele>54</ele>
        <time>2011-06-17T12:17:25Z</time>
      </trkpt>
      <trkpt lat="59.2132246147" lon="17.9350250152">
        <ele>54</ele>
        <time>2011-06-17T12:17:31Z</time>
      </trkpt>
      <trkpt lat="59.2131495967" lon="17.934723183">
        <ele>54</ele>
        <time>2011-06-17T12:17:38Z</time>
      </trkpt>
      <trkpt lat="59.2131333358" lon="17.9346547867">
        <ele>54</ele>
        <time>2011-06-17T12:17:40Z</time>
      </trkpt>
      <trkpt lat="59.2131076872" lon="17.9346984564">
        <ele>54</ele>
        <time>2011-06-17T12:17:44Z</time>
      </trkpt>
      <trkpt lat="59.2131029934" lon="17.9347119513">
        <ele>54</ele>
        <time>2011-06-17T12:17:45Z</time>
      </trkpt>
      <trkpt lat="59.2130882412" lon="17.9347497536">
        <ele>54</ele>
        <time>2011-06-17T12:17:47Z</time>
      </trkpt>
      <trkpt lat="59.2130525343" lon="17.9347080118">
        <ele>54</ele>
        <time>2011-06-17T12:17:51Z</time>
      </trkpt>
      <trkpt lat="59.2129937772" lon="17.9344993024">
        <ele>54</ele>
        <time>2011-06-17T12:17:57Z</time>
      </trkpt>
      <trkpt lat="59.2129346848" lon="17.9342350211">
        <ele>54</ele>
        <time>2011-06-17T12:18:03Z</time>
      </trkpt>
      <trkpt lat="59.212885064" lon="17.9340194387">
        <ele>54</ele>
        <time>2011-06-17T12:18:08Z</time>
      </trkpt>
      <trkpt lat="59.2128244628" lon="17.9337741843">
        <ele>54</ele>
        <time>2011-06-17T12:18:14Z</time>
      </trkpt>
      <trkpt lat="59.212731759" lon="17.9334613718">
        <ele>54</ele>
        <time>2011-06-17T12:18:22Z</time>
      </trkpt>
      <trkpt lat="59.2126813" lon="17.9332482201">
        <ele>54</ele>
        <time>2011-06-17T12:18:27Z</time>
      </trkpt>
      <trkpt lat="59.2126274044" lon="17.9330466354">
        <ele>54.6</ele>
        <time>2011-06-17T12:18:32Z</time>
      </trkpt>
      <trkpt lat="59.2125598462" lon="17.9327997046">
        <ele>55.2</ele>
        <time>2011-06-17T12:18:38Z</time>
      </trkpt>
      <trkpt lat="59.2124916176" lon="17.9325023148">
        <ele>55.6</ele>
        <time>2011-06-17T12:18:45Z</time>
      </trkpt>
      <trkpt lat="59.2124321899" lon="17.9322517798">
        <ele>55.8</ele>
        <time>2011-06-17T12:18:51Z</time>
      </trkpt>
      <trkpt lat="59.2123694933" lon="17.9320059387">
        <ele>56.2</ele>
        <time>2011-06-17T12:18:57Z</time>
      </trkpt>
      <trkpt lat="59.2123093951" lon="17.931745513">
        <ele>57</ele>
        <time>2011-06-17T12:19:03Z</time>
      </trkpt>
      <trkpt lat="59.2122456088" lon="17.9314756158">
        <ele>57.6</ele>
        <time>2011-06-17T12:19:09Z</time>
      </trkpt>
      <trkpt lat="59.212190875" lon="17.931224997">
        <ele>57.8</ele>
        <time>2011-06-17T12:19:15Z</time>
      </trkpt>
      <trkpt lat="59.2121216405" lon="17.9309771442">
        <ele>58</ele>
        <time>2011-06-17T12:19:21Z</time>
      </trkpt>
      <trkpt lat="59.2120660685" lon="17.9307731288">
        <ele>58</ele>
        <time>2011-06-17T12:19:26Z</time>
      </trkpt>
      <trkpt lat="59.2120244943" lon="17.9305777467">
        <ele>58</ele>
        <time>2011-06-17T12:19:31Z</time>
      </trkpt>
      <trkpt lat="59.2119688385" lon="17.9303902436">
        <ele>58</ele>
        <time>2011-06-17T12:19:36Z</time>
      </trkpt>
      <trkpt lat="59.2119177089" lon="17.9301537902">
        <ele>58</ele>
        <time>2011-06-17T12:19:42Z</time>
      </trkpt>
      <trkpt lat="59.2118660764" lon="17.9299119724">
        <ele>58</ele>
        <time>2011-06-17T12:19:48Z</time>
      </trkpt>
      <trkpt lat="59.211837075" lon="17.9297532192">
        <ele>58</ele>
        <time>2011-06-17T12:19:52Z</time>
      </trkpt>
      <trkpt lat="59.2117809163" lon="17.9295374691">
        <ele>58</ele>
        <time>2011-06-17T12:19:58Z</time>
      </trkpt>
      <trkpt lat="59.2117390068" lon="17.9293528997">
        <ele>58.8</ele>
        <time>2011-06-17T12:20:03Z</time>
      </trkpt>
      <trkpt lat="59.2117354864" lon="17.9293244012">
        <ele>59</ele>
        <time>2011-06-17T12:20:05Z</time>
      </trkpt>
      <trkpt lat="59.2117559382" lon="17.9293463618">
        <ele>59.4</ele>
        <time>2011-06-17T12:20:08Z</time>
      </trkpt>
      <trkpt lat="59.2117655774" lon="17.9292711761">
        <ele>59.6</ele>
        <time>2011-06-17T12:20:12Z</time>
      </trkpt>
      <trkpt lat="59.2118031283" lon="17.9291917995">
        <ele>59.8</ele>
        <time>2011-06-17T12:20:18Z</time>
      </trkpt>
      <trkpt lat="59.2118099176" lon="17.9291846749">
        <ele>59.8</ele>
        <time>2011-06-17T12:20:19Z</time>
      </trkpt>
      <trkpt lat="59.2118128513" lon="17.929171683">
        <ele>60</ele>
        <time>2011-06-17T12:20:21Z</time>
      </trkpt>
      <trkpt lat="59.2117802457" lon="17.9289985129">
        <ele>60</ele>
        <time>2011-06-17T12:20:28Z</time>
      </trkpt>
      <trkpt lat="59.2117714447" lon="17.9289612135">
        <ele>60</ele>
        <time>2011-06-17T12:20:30Z</time>
      </trkpt>
      <trkpt lat="59.2117618055" lon="17.9288664142">
        <ele>60</ele>
        <time>2011-06-17T12:20:35Z</time>
      </trkpt>
      <trkpt lat="59.2117572793" lon="17.9288447051">
        <ele>60</ele>
        <time>2011-06-17T12:20:36Z</time>
      </trkpt>
      <trkpt lat="59.2117502385" lon="17.9288100878">
        <ele>59.6</ele>
        <time>2011-06-17T12:20:38Z</time>
      </trkpt>
      <trkpt lat="59.2117153698" lon="17.9286568667">
        <ele>59</ele>
        <time>2011-06-17T12:20:43Z</time>
      </trkpt>
      <trkpt lat="59.211664324" lon="17.9283992909">
        <ele>58.6</ele>
        <time>2011-06-17T12:20:50Z</time>
      </trkpt>
      <trkpt lat="59.2116556907" lon="17.9283704572">
        <ele>58.4</ele>
        <time>2011-06-17T12:20:51Z</time>
      </trkpt>
      <trkpt lat="59.2116214087" lon="17.9281709679">
        <ele>58.4</ele>
        <time>2011-06-17T12:20:56Z</time>
      </trkpt>
      <trkpt lat="59.2115507493" lon="17.9278161621">
        <ele>58.2</ele>
        <time>2011-06-17T12:21:04Z</time>
      </trkpt>
      <trkpt lat="59.211494842" lon="17.9276211153">
        <ele>58.2</ele>
        <time>2011-06-17T12:21:09Z</time>
      </trkpt>
      <trkpt lat="59.2114419522" lon="17.9274066225">
        <ele>58.2</ele>
        <time>2011-06-17T12:21:14Z</time>
      </trkpt>
      <trkpt lat="59.2113857935" lon="17.9271907886">
        <ele>58.2</ele>
        <time>2011-06-17T12:21:19Z</time>
      </trkpt>
      <trkpt lat="59.2113226778" lon="17.9269391639">
        <ele>58.2</ele>
        <time>2011-06-17T12:21:25Z</time>
      </trkpt>
      <trkpt lat="59.2112459834" lon="17.926639511">
        <ele>58</ele>
        <time>2011-06-17T12:21:32Z</time>
      </trkpt>
      <trkpt lat="59.2111755755" lon="17.9263375111">
        <ele>58</ele>
        <time>2011-06-17T12:21:39Z</time>
      </trkpt>
      <trkpt lat="59.2110930976" lon="17.9260378582">
        <ele>58</ele>
        <time>2011-06-17T12:21:46Z</time>
      </trkpt>
      <trkpt lat="59.2110213485" lon="17.9257820426">
        <ele>58</ele>
        <time>2011-06-17T12:21:52Z</time>
      </trkpt>
      <trkpt lat="59.2109527007" lon="17.9255265623">
        <ele>58.4</ele>
        <time>2011-06-17T12:21:58Z</time>
      </trkpt>
      <trkpt lat="59.2108782695" lon="17.9252726746">
        <ele>59.2</ele>
        <time>2011-06-17T12:22:04Z</time>
      </trkpt>
      <trkpt lat="59.2108137288" lon="17.925002945">
        <ele>60.6</ele>
        <time>2011-06-17T12:22:10Z</time>
      </trkpt>
      <trkpt lat="59.2107506131" lon="17.9247541702">
        <ele>61.6</ele>
        <time>2011-06-17T12:22:16Z</time>
      </trkpt>
      <trkpt lat="59.2106848152" lon="17.9245008692">
        <ele>62.8</ele>
        <time>2011-06-17T12:22:22Z</time>
      </trkpt>
      <trkpt lat="59.2106187658" lon="17.9242551957">
        <ele>63.6</ele>
        <time>2011-06-17T12:22:28Z</time>
      </trkpt>
      <trkpt lat="59.2105602602" lon="17.9239991287">
        <ele>64</ele>
        <time>2011-06-17T12:22:34Z</time>
      </trkpt>
      <trkpt lat="59.2105110584" lon="17.9237960352">
        <ele>64</ele>
        <time>2011-06-17T12:22:39Z</time>
      </trkpt>
      <trkpt lat="59.2104481942" lon="17.9235440753">
        <ele>65</ele>
        <time>2011-06-17T12:22:45Z</time>
      </trkpt>
      <trkpt lat="59.2103984895" lon="17.9233160038">
        <ele>65.6</ele>
        <time>2011-06-17T12:22:51Z</time>
      </trkpt>
      <trkpt lat="59.2103208731" lon="17.9230265768">
        <ele>66</ele>
        <time>2011-06-17T12:22:57Z</time>
      </trkpt>
      <trkpt lat="59.2102586794" lon="17.922773192">
        <ele>66.2</ele>
        <time>2011-06-17T12:23:03Z</time>
      </trkpt>
      <trkpt lat="59.2101969886" lon="17.9225019537">
        <ele>66.2</ele>
        <time>2011-06-17T12:23:10Z</time>
      </trkpt>
      <trkpt lat="59.21015005" lon="17.9223169652">
        <ele>66.2</ele>
        <time>2011-06-17T12:23:14Z</time>
      </trkpt>
      <trkpt lat="59.2100859285" lon="17.9220329026">
        <ele>66.2</ele>
        <time>2011-06-17T12:23:21Z</time>
      </trkpt>
      <trkpt lat="59.2100363076" lon="17.9218222654">
        <ele>66.2</ele>
        <time>2011-06-17T12:23:25Z</time>
      </trkpt>
      <trkpt lat="59.2100270037" lon="17.9217851336">
        <ele>66.2</ele>
        <time>2011-06-17T12:23:26Z</time>
      </trkpt>
      <trkpt lat="59.2099651453" lon="17.9215207685">
        <ele>66.4</ele>
        <time>2011-06-17T12:23:32Z</time>
      </trkpt>
      <trkpt lat="59.2099165303" lon="17.9212465965">
        <ele>66.4</ele>
        <time>2011-06-17T12:23:38Z</time>
      </trkpt>
      <trkpt lat="59.2098519058" lon="17.9209372206">
        <ele>66.4</ele>
        <time>2011-06-17T12:23:45Z</time>
      </trkpt>
      <trkpt lat="59.2098084037" lon="17.920677717">
        <ele>66.4</ele>
        <time>2011-06-17T12:23:51Z</time>
      </trkpt>
      <trkpt lat="59.209755933" lon="17.9203620546">
        <ele>66.4</ele>
        <time>2011-06-17T12:23:58Z</time>
      </trkpt>
      <trkpt lat="59.209689716" lon="17.9200475657">
        <ele>66.4</ele>
        <time>2011-06-17T12:24:05Z</time>
      </trkpt>
      <trkpt lat="59.2096345631" lon="17.9197881459">
        <ele>66.4</ele>
        <time>2011-06-17T12:24:11Z</time>
      </trkpt>
      <trkpt lat="59.2095701901" lon="17.9194397104">
        <ele>66.4</ele>
        <time>2011-06-17T12:24:19Z</time>
      </trkpt>
      <trkpt lat="59.209521156" lon="17.9191767702">
        <ele>66.4</ele>
        <time>2011-06-17T12:24:25Z</time>
      </trkpt>
      <trkpt lat="59.2094770672" lon="17.9189195296">
        <ele>66.4</ele>
        <time>2011-06-17T12:24:31Z</time>
      </trkpt>
      <trkpt lat="59.2094235069" lon="17.9187041148">
        <ele>66.4</ele>
        <time>2011-06-17T12:24:36Z</time>
      </trkpt>
      <trkpt lat="59.2094084195" lon="17.9186736047">
        <ele>66.4</ele>
        <time>2011-06-17T12:24:37Z</time>
      </trkpt>
      <trkpt lat="59.2093225888" lon="17.9185268376">
        <ele>66.4</ele>
        <time>2011-06-17T12:24:42Z</time>
      </trkpt>
      <trkpt lat="59.2092769075" lon="17.9182621372">
        <ele>66.4</ele>
        <time>2011-06-17T12:24:48Z</time>
      </trkpt>
      <trkpt lat="59.2092619877" lon="17.9179792481">
        <ele>65.8</ele>
        <time>2011-06-17T12:24:54Z</time>
      </trkpt>
      <trkpt lat="59.2091982014" lon="17.9177182357">
        <ele>65</ele>
        <time>2011-06-17T12:25:00Z</time>
      </trkpt>
      <trkpt lat="59.2091001332" lon="17.917462504">
        <ele>64.6</ele>
        <time>2011-06-17T12:25:07Z</time>
      </trkpt>
      <trkpt lat="59.2089982093" lon="17.917210125">
        <ele>64.4</ele>
        <time>2011-06-17T12:25:14Z</time>
      </trkpt>
      <trkpt lat="59.2089098641" lon="17.916875771">
        <ele>64.4</ele>
        <time>2011-06-17T12:25:22Z</time>
      </trkpt>
      <trkpt lat="59.2088490115" lon="17.9166181114">
        <ele>64.4</ele>
        <time>2011-06-17T12:25:28Z</time>
      </trkpt>
      <trkpt lat="59.2087771786" lon="17.9163047121">
        <ele>64.4</ele>
        <time>2011-06-17T12:25:35Z</time>
      </trkpt>
      <trkpt lat="59.2087191758" lon="17.9160468011">
        <ele>64</ele>
        <time>2011-06-17T12:25:41Z</time>
      </trkpt>
      <trkpt lat="59.2086591614" lon="17.9157973557">
        <ele>63.2</ele>
        <time>2011-06-17T12:25:47Z</time>
      </trkpt>
      <trkpt lat="59.2085923577" lon="17.9155391932">
        <ele>62.8</ele>
        <time>2011-06-17T12:25:53Z</time>
      </trkpt>
      <trkpt lat="59.208532008" lon="17.9152701342">
        <ele>62.4</ele>
        <time>2011-06-17T12:25:59Z</time>
      </trkpt>
      <trkpt lat="59.2084812137" lon="17.9150584074">
        <ele>62.4</ele>
        <time>2011-06-17T12:26:04Z</time>
      </trkpt>
      <trkpt lat="59.2084266475" lon="17.9148152485">
        <ele>62.4</ele>
        <time>2011-06-17T12:26:10Z</time>
      </trkpt>
      <trkpt lat="59.2083666331" lon="17.9145135839">
        <ele>62.2</ele>
        <time>2011-06-17T12:26:17Z</time>
      </trkpt>
      <trkpt lat="59.2082993265" lon="17.9142175352">
        <ele>62.2</ele>
        <time>2011-06-17T12:26:24Z</time>
      </trkpt>
      <trkpt lat="59.2082470234" lon="17.9140090773">
        <ele>62.2</ele>
        <time>2011-06-17T12:26:30Z</time>
      </trkpt>
      <trkpt lat="59.2081912" lon="17.9137582071">
        <ele>62.2</ele>
        <time>2011-06-17T12:26:35Z</time>
      </trkpt>
      <trkpt lat="59.2081191156" lon="17.9134678581">
        <ele>62.2</ele>
        <time>2011-06-17T12:26:42Z</time>
      </trkpt>
      <trkpt lat="59.2080627054" lon="17.913228471">
        <ele>62.2</ele>
        <time>2011-06-17T12:26:48Z</time>
      </trkpt>
      <trkpt lat="59.2079923813" lon="17.9129197656">
        <ele>62.2</ele>
        <time>2011-06-17T12:26:55Z</time>
      </trkpt>
      <trkpt lat="59.207936474" lon="17.9126933705">
        <ele>62.2</ele>
        <time>2011-06-17T12:27:00Z</time>
      </trkpt>
      <trkpt lat="59.207892972" lon="17.9125233856">
        <ele>62.2</ele>
        <time>2011-06-17T12:27:04Z</time>
      </trkpt>
      <trkpt lat="59.2078861826" lon="17.9124487028">
        <ele>62.2</ele>
        <time>2011-06-17T12:27:06Z</time>
      </trkpt>
      <trkpt lat="59.2078355559" lon="17.9121887801">
        <ele>62.2</ele>
        <time>2011-06-17T12:27:12Z</time>
      </trkpt>
      <trkpt lat="59.2078248271" lon="17.9121384887">
        <ele>62.2</ele>
        <time>2011-06-17T12:27:13Z</time>
      </trkpt>
      <trkpt lat="59.2077569337" lon="17.9118027936">
        <ele>62.2</ele>
        <time>2011-06-17T12:27:20Z</time>
      </trkpt>
      <trkpt lat="59.2076823348" lon="17.9114565373">
        <ele>62.2</ele>
        <time>2011-06-17T12:27:27Z</time>
      </trkpt>
      <trkpt lat="59.2076198058" lon="17.9111641767">
        <ele>61.2</ele>
        <time>2011-06-17T12:27:33Z</time>
      </trkpt>
      <trkpt lat="59.2075711908" lon="17.9109312437">
        <ele>60.8</ele>
        <time>2011-06-17T12:27:38Z</time>
      </trkpt>
      <trkpt lat="59.2074948317" lon="17.9106454209">
        <ele>60.6</ele>
        <time>2011-06-17T12:27:43Z</time>
      </trkpt>
      <trkpt lat="59.2074567779" lon="17.9104408187">
        <ele>59.6</ele>
        <time>2011-06-17T12:27:47Z</time>
      </trkpt>
      <trkpt lat="59.2074010382" lon="17.9102254877">
        <ele>59</ele>
        <time>2011-06-17T12:27:52Z</time>
      </trkpt>
      <trkpt lat="59.2073347374" lon="17.9099686663">
        <ele>58.6</ele>
        <time>2011-06-17T12:27:58Z</time>
      </trkpt>
      <trkpt lat="59.2072865415" lon="17.9097659919">
        <ele>57.8</ele>
        <time>2011-06-17T12:28:03Z</time>
      </trkpt>
      <trkpt lat="59.207194173" lon="17.9094121081">
        <ele>56.8</ele>
        <time>2011-06-17T12:28:11Z</time>
      </trkpt>
      <trkpt lat="59.2071208313" lon="17.9091636686">
        <ele>55.6</ele>
        <time>2011-06-17T12:28:17Z</time>
      </trkpt>
      <trkpt lat="59.207050591" lon="17.9089063443">
        <ele>54.8</ele>
        <time>2011-06-17T12:28:23Z</time>
      </trkpt>
      <trkpt lat="59.2069578034" lon="17.9085475151">
        <ele>53.2</ele>
        <time>2011-06-17T12:28:31Z</time>
      </trkpt>
      <trkpt lat="59.206913966" lon="17.908326233">
        <ele>52.6</ele>
        <time>2011-06-17T12:28:36Z</time>
      </trkpt>
      <trkpt lat="59.2068381098" lon="17.9079819045">
        <ele>51</ele>
        <time>2011-06-17T12:28:44Z</time>
      </trkpt>
      <trkpt lat="59.2067688753" lon="17.9077172879">
        <ele>50.4</ele>
        <time>2011-06-17T12:28:51Z</time>
      </trkpt>
      <trkpt lat="59.2066897502" lon="17.9074369972">
        <ele>50</ele>
        <time>2011-06-17T12:28:58Z</time>
      </trkpt>
      <trkpt lat="59.2066110442" lon="17.9071509229">
        <ele>49.8</ele>
        <time>2011-06-17T12:29:05Z</time>
      </trkpt>
      <trkpt lat="59.206517586" lon="17.9068125456">
        <ele>49.6</ele>
        <time>2011-06-17T12:29:14Z</time>
      </trkpt>
      <trkpt lat="59.2064539674" lon="17.9065862343">
        <ele>48.6</ele>
        <time>2011-06-17T12:29:20Z</time>
      </trkpt>
      <trkpt lat="59.2063668794" lon="17.9063517926">
        <ele>48.2</ele>
        <time>2011-06-17T12:29:27Z</time>
      </trkpt>
      <trkpt lat="59.2062411509" lon="17.9062175146">
        <ele>48</ele>
        <time>2011-06-17T12:29:33Z</time>
      </trkpt>
      <trkpt lat="59.2062206153" lon="17.9061886808">
        <ele>47.8</ele>
        <time>2011-06-17T12:29:34Z</time>
      </trkpt>
      <trkpt lat="59.2061445914" lon="17.9059976573">
        <ele>47.8</ele>
        <time>2011-06-17T12:29:39Z</time>
      </trkpt>
      <trkpt lat="59.2060587608" lon="17.9056655664">
        <ele>47.8</ele>
        <time>2011-06-17T12:29:47Z</time>
      </trkpt>
      <trkpt lat="59.2059710861" lon="17.9053260995">
        <ele>47.6</ele>
        <time>2011-06-17T12:29:55Z</time>
      </trkpt>
      <trkpt lat="59.2059122452" lon="17.9050749778">
        <ele>47.6</ele>
        <time>2011-06-17T12:30:01Z</time>
      </trkpt>
      <trkpt lat="59.2058306893" lon="17.9047875624">
        <ele>47.6</ele>
        <time>2011-06-17T12:30:08Z</time>
      </trkpt>
      <trkpt lat="59.2057387398" lon="17.9044473411">
        <ele>47.6</ele>
        <time>2011-06-17T12:30:16Z</time>
      </trkpt>
      <trkpt lat="59.2056680804" lon="17.9041912741">
        <ele>47.6</ele>
        <time>2011-06-17T12:30:22Z</time>
      </trkpt>
      <trkpt lat="59.2055787294" lon="17.9038739353">
        <ele>47.6</ele>
        <time>2011-06-17T12:30:30Z</time>
      </trkpt>
      <trkpt lat="59.2054893783" lon="17.9035423474">
        <ele>46.8</ele>
        <time>2011-06-17T12:30:38Z</time>
      </trkpt>
      <trkpt lat="59.2054596226" lon="17.903303547">
        <ele>46.2</ele>
        <time>2011-06-17T12:30:43Z</time>
      </trkpt>
      <trkpt lat="59.2054331358" lon="17.9030253518">
        <ele>46</ele>
        <time>2011-06-17T12:30:50Z</time>
      </trkpt>
      <trkpt lat="59.2054144441" lon="17.9027488329">
        <ele>45.8</ele>
        <time>2011-06-17T12:30:55Z</time>
      </trkpt>
      <trkpt lat="59.2053595427" lon="17.9024837134">
        <ele>45.8</ele>
        <time>2011-06-17T12:31:01Z</time>
      </trkpt>
      <trkpt lat="59.2052656654" lon="17.9022123075">
        <ele>45</ele>
        <time>2011-06-17T12:31:08Z</time>
      </trkpt>
      <trkpt lat="59.2051427029" lon="17.9019150015">
        <ele>44.2</ele>
        <time>2011-06-17T12:31:16Z</time>
      </trkpt>
      <trkpt lat="59.2050545253" lon="17.9016771232">
        <ele>44</ele>
        <time>2011-06-17T12:31:22Z</time>
      </trkpt>
      <trkpt lat="59.204962995" lon="17.9014674918">
        <ele>43.8</ele>
        <time>2011-06-17T12:31:28Z</time>
      </trkpt>
      <trkpt lat="59.2048844566" lon="17.9012129335">
        <ele>43.6</ele>
        <time>2011-06-17T12:31:34Z</time>
      </trkpt>
      <trkpt lat="59.2047966143" lon="17.900969607">
        <ele>43.6</ele>
        <time>2011-06-17T12:31:40Z</time>
      </trkpt>
      <trkpt lat="59.2047262063" lon="17.9007485763">
        <ele>43.6</ele>
        <time>2011-06-17T12:31:46Z</time>
      </trkpt>
      <trkpt lat="59.2046553793" lon="17.9005541162">
        <ele>43.6</ele>
        <time>2011-06-17T12:31:51Z</time>
      </trkpt>
      <trkpt lat="59.2045867315" lon="17.9003488435">
        <ele>43.6</ele>
        <time>2011-06-17T12:31:56Z</time>
      </trkpt>
      <trkpt lat="59.2045055109" lon="17.9001010745">
        <ele>43.6</ele>
        <time>2011-06-17T12:32:02Z</time>
      </trkpt>
      <trkpt lat="59.2044328398" lon="17.8998945445">
        <ele>43.6</ele>
        <time>2011-06-17T12:32:07Z</time>
      </trkpt>
      <trkpt lat="59.204354972" lon="17.8996450991">
        <ele>43.6</ele>
        <time>2011-06-17T12:32:13Z</time>
      </trkpt>
      <trkpt lat="59.204260927" lon="17.8993420096">
        <ele>43.6</ele>
        <time>2011-06-17T12:32:20Z</time>
      </trkpt>
      <trkpt lat="59.2041657087" lon="17.8990472182">
        <ele>43.6</ele>
        <time>2011-06-17T12:32:27Z</time>
      </trkpt>
      <trkpt lat="59.2040785369" lon="17.8988051489">
        <ele>43.6</ele>
        <time>2011-06-17T12:32:33Z</time>
      </trkpt>
      <trkpt lat="59.2039853302" lon="17.8985470702">
        <ele>43.2</ele>
        <time>2011-06-17T12:32:39Z</time>
      </trkpt>
      <trkpt lat="59.2038754435" lon="17.8982622533">
        <ele>42.4</ele>
        <time>2011-06-17T12:32:46Z</time>
      </trkpt>
      <trkpt lat="59.2037813985" lon="17.8979856506">
        <ele>42</ele>
        <time>2011-06-17T12:32:53Z</time>
      </trkpt>
      <trkpt lat="59.2036933886" lon="17.8977477723">
        <ele>41</ele>
        <time>2011-06-17T12:32:59Z</time>
      </trkpt>
      <trkpt lat="59.203606133" lon="17.8975110674">
        <ele>40.2</ele>
        <time>2011-06-17T12:33:05Z</time>
      </trkpt>
      <trkpt lat="59.2034937317" lon="17.8971949859">
        <ele>39.8</ele>
        <time>2011-06-17T12:33:13Z</time>
      </trkpt>
      <trkpt lat="59.2034288558" lon="17.8969858575">
        <ele>38.8</ele>
        <time>2011-06-17T12:33:18Z</time>
      </trkpt>
      <trkpt lat="59.2033674165" lon="17.8967822612">
        <ele>38.2</ele>
        <time>2011-06-17T12:33:23Z</time>
      </trkpt>
      <trkpt lat="59.2032434482" lon="17.896478082">
        <ele>37.8</ele>
        <time>2011-06-17T12:33:31Z</time>
      </trkpt>
      <trkpt lat="59.2031563603" lon="17.8961898285">
        <ele>37.4</ele>
        <time>2011-06-17T12:33:38Z</time>
      </trkpt>
      <trkpt lat="59.2030877963" lon="17.8958771836">
        <ele>36.4</ele>
        <time>2011-06-17T12:33:45Z</time>
      </trkpt>
      <trkpt lat="59.2029995349" lon="17.895586667">
        <ele>35.8</ele>
        <time>2011-06-17T12:33:52Z</time>
      </trkpt>
      <trkpt lat="59.202917979" lon="17.8953528958">
        <ele>35.6</ele>
        <time>2011-06-17T12:33:58Z</time>
      </trkpt>
      <trkpt lat="59.2028588028" lon="17.8951634648">
        <ele>35.6</ele>
        <time>2011-06-17T12:34:03Z</time>
      </trkpt>
      <trkpt lat="59.202767021" lon="17.8949070625">
        <ele>35.4</ele>
        <time>2011-06-17T12:34:09Z</time>
      </trkpt>
      <trkpt lat="59.202608184" lon="17.8944370894">
        <ele>35.4</ele>
        <time>2011-06-17T12:34:21Z</time>
      </trkpt>
      <trkpt lat="59.2025297294" lon="17.8942097723">
        <ele>35.4</ele>
        <time>2011-06-17T12:34:27Z</time>
      </trkpt>
      <trkpt lat="59.2024185854" lon="17.8939434793">
        <ele>35.4</ele>
        <time>2011-06-17T12:34:34Z</time>
      </trkpt>
      <trkpt lat="59.2023428969" lon="17.8937491869">
        <ele>35.4</ele>
        <time>2011-06-17T12:34:39Z</time>
      </trkpt>
      <trkpt lat="59.2022700582" lon="17.8935579119">
        <ele>35.4</ele>
        <time>2011-06-17T12:34:44Z</time>
      </trkpt>
      <trkpt lat="59.2022030868" lon="17.8933413236">
        <ele>35.6</ele>
        <time>2011-06-17T12:34:50Z</time>
      </trkpt>
      <trkpt lat="59.2021374565" lon="17.8931346259">
        <ele>36.4</ele>
        <time>2011-06-17T12:34:54Z</time>
      </trkpt>
      <trkpt lat="59.2020646178" lon="17.8928564307">
        <ele>37</ele>
        <time>2011-06-17T12:35:00Z</time>
      </trkpt>
      <trkpt lat="59.2020143264" lon="17.8926365735">
        <ele>37.2</ele>
        <time>2011-06-17T12:35:05Z</time>
      </trkpt>
      <trkpt lat="59.2019641188" lon="17.8924090049">
        <ele>37.2</ele>
        <time>2011-06-17T12:35:10Z</time>
      </trkpt>
      <trkpt lat="59.2019016737" lon="17.8921142134">
        <ele>37.4</ele>
        <time>2011-06-17T12:35:17Z</time>
      </trkpt>
      <trkpt lat="59.2018354566" lon="17.8918318272">
        <ele>37.4</ele>
        <time>2011-06-17T12:35:23Z</time>
      </trkpt>
      <trkpt lat="59.2017837403" lon="17.8915782748">
        <ele>37.4</ele>
        <time>2011-06-17T12:35:30Z</time>
      </trkpt>
      <trkpt lat="59.2017285874" lon="17.8913345291">
        <ele>37.4</ele>
        <time>2011-06-17T12:35:35Z</time>
      </trkpt>
      <trkpt lat="59.2017047828" lon="17.891216931">
        <ele>37.4</ele>
        <time>2011-06-17T12:35:38Z</time>
      </trkpt>
      <trkpt lat="59.2016791342" lon="17.8911319386">
        <ele>37.4</ele>
        <time>2011-06-17T12:35:40Z</time>
      </trkpt>
      <trkpt lat="59.2016316088" lon="17.8908559226">
        <ele>37.4</ele>
        <time>2011-06-17T12:35:46Z</time>
      </trkpt>
      <trkpt lat="59.2015824071" lon="17.8906445311">
        <ele>37.4</ele>
        <time>2011-06-17T12:35:50Z</time>
      </trkpt>
      <trkpt lat="59.201508814" lon="17.8903727899">
        <ele>37.4</ele>
        <time>2011-06-17T12:35:56Z</time>
      </trkpt>
      <trkpt lat="59.201404627" lon="17.8900893979">
        <ele>37.4</ele>
        <time>2011-06-17T12:36:03Z</time>
      </trkpt>
      <trkpt lat="59.2013514857" lon="17.8898734801">
        <ele>37.4</ele>
        <time>2011-06-17T12:36:08Z</time>
      </trkpt>
      <trkpt lat="59.2013246637" lon="17.8896101208">
        <ele>37.4</ele>
        <time>2011-06-17T12:36:14Z</time>
      </trkpt>
      <trkpt lat="59.2013071455" lon="17.8895610029">
        <ele>37.4</ele>
        <time>2011-06-17T12:36:15Z</time>
      </trkpt>
      <trkpt lat="59.2012574408" lon="17.8893916885">
        <ele>37.4</ele>
        <time>2011-06-17T12:36:19Z</time>
      </trkpt>
      <trkpt lat="59.2011944928" lon="17.8891914449">
        <ele>37.4</ele>
        <time>2011-06-17T12:36:24Z</time>
      </trkpt>
      <trkpt lat="59.2011312094" lon="17.888944095">
        <ele>37.4</ele>
        <time>2011-06-17T12:36:30Z</time>
      </trkpt>
      <trkpt lat="59.2011148647" lon="17.8888412491">
        <ele>37.4</ele>
        <time>2011-06-17T12:36:33Z</time>
      </trkpt>
      <trkpt lat="59.2010406011" lon="17.8885832542">
        <ele>37.4</ele>
        <time>2011-06-17T12:36:38Z</time>
      </trkpt>
      <trkpt lat="59.2010103424" lon="17.888506979">
        <ele>37.8</ele>
        <time>2011-06-17T12:36:40Z</time>
      </trkpt>
      <trkpt lat="59.2009694387" lon="17.8883458788">
        <ele>38.4</ele>
        <time>2011-06-17T12:36:44Z</time>
      </trkpt>
      <trkpt lat="59.2009131124" lon="17.8882231678">
        <ele>38.8</ele>
        <time>2011-06-17T12:36:47Z</time>
      </trkpt>
      <trkpt lat="59.2008059917" lon="17.8879913245">
        <ele>39.4</ele>
        <time>2011-06-17T12:36:53Z</time>
      </trkpt>
      <trkpt lat="59.2007468993" lon="17.887835924">
        <ele>40.2</ele>
        <time>2011-06-17T12:36:57Z</time>
      </trkpt>
      <trkpt lat="59.2006712946" lon="17.8876262927">
        <ele>40.8</ele>
        <time>2011-06-17T12:37:02Z</time>
      </trkpt>
      <trkpt lat="59.2005666046" lon="17.8873838882">
        <ele>41.2</ele>
        <time>2011-06-17T12:37:08Z</time>
      </trkpt>
      <trkpt lat="59.2004806063" lon="17.8871579122">
        <ele>41.4</ele>
        <time>2011-06-17T12:37:15Z</time>
      </trkpt>
      <trkpt lat="59.2003851365" lon="17.8869295054">
        <ele>41.4</ele>
        <time>2011-06-17T12:37:21Z</time>
      </trkpt>
      <trkpt lat="59.2003060114" lon="17.8867401583">
        <ele>41.4</ele>
        <time>2011-06-17T12:37:26Z</time>
      </trkpt>
      <trkpt lat="59.200213559" lon="17.8864944009">
        <ele>41.6</ele>
        <time>2011-06-17T12:37:32Z</time>
      </trkpt>
      <trkpt lat="59.2001309135" lon="17.8862525831">
        <ele>41.6</ele>
        <time>2011-06-17T12:37:37Z</time>
      </trkpt>
      <trkpt lat="59.2000285705" lon="17.8859800037">
        <ele>40.8</ele>
        <time>2011-06-17T12:37:45Z</time>
      </trkpt>
      <trkpt lat="59.1999098828" lon="17.8856595637">
        <ele>39.4</ele>
        <time>2011-06-17T12:37:52Z</time>
      </trkpt>
      <trkpt lat="59.1998036841" lon="17.8853416382">
        <ele>38.4</ele>
        <time>2011-06-17T12:38:00Z</time>
      </trkpt>
      <trkpt lat="59.1997154227" lon="17.885021282">
        <ele>37</ele>
        <time>2011-06-17T12:38:07Z</time>
      </trkpt>
      <trkpt lat="59.1996326095" lon="17.8847067931">
        <ele>36</ele>
        <time>2011-06-17T12:38:13Z</time>
      </trkpt>
      <trkpt lat="59.1995581782" lon="17.884366488">
        <ele>35.6</ele>
        <time>2011-06-17T12:38:20Z</time>
      </trkpt>
      <trkpt lat="59.1995267461" lon="17.884052502">
        <ele>34.6</ele>
        <time>2011-06-17T12:38:27Z</time>
      </trkpt>
      <trkpt lat="59.1994979962" lon="17.8837147115">
        <ele>33.8</ele>
        <time>2011-06-17T12:38:33Z</time>
      </trkpt>
      <trkpt lat="59.1994615349" lon="17.8833884041">
        <ele>33.6</ele>
        <time>2011-06-17T12:38:40Z</time>
      </trkpt>
      <trkpt lat="59.1994842499" lon="17.8831344325">
        <ele>33.4</ele>
        <time>2011-06-17T12:38:46Z</time>
      </trkpt>
      <trkpt lat="59.1994906201" lon="17.8828462628">
        <ele>33.4</ele>
        <time>2011-06-17T12:38:52Z</time>
      </trkpt>
      <trkpt lat="59.1995169393" lon="17.8825803051">
        <ele>32.8</ele>
        <time>2011-06-17T12:38:58Z</time>
      </trkpt>
      <trkpt lat="59.1995381455" lon="17.8823115814">
        <ele>32</ele>
        <time>2011-06-17T12:39:03Z</time>
      </trkpt>
      <trkpt lat="59.1995547417" lon="17.8820866112">
        <ele>31.8</ele>
        <time>2011-06-17T12:39:08Z</time>
      </trkpt>
      <trkpt lat="59.1995723436" lon="17.8818615572">
        <ele>31.6</ele>
        <time>2011-06-17T12:39:13Z</time>
      </trkpt>
      <trkpt lat="59.1995901971" lon="17.881633318">
        <ele>31.4</ele>
        <time>2011-06-17T12:39:18Z</time>
      </trkpt>
      <trkpt lat="59.1996091402" lon="17.8813573021">
        <ele>31.4</ele>
        <time>2011-06-17T12:39:25Z</time>
      </trkpt>
      <trkpt lat="59.199630514" lon="17.8810634327">
        <ele>31.4</ele>
        <time>2011-06-17T12:39:32Z</time>
      </trkpt>
      <trkpt lat="59.1996316037" lon="17.8808171724">
        <ele>31.4</ele>
        <time>2011-06-17T12:39:37Z</time>
      </trkpt>
      <trkpt lat="59.1996313522" lon="17.8807669649">
        <ele>31.4</ele>
        <time>2011-06-17T12:39:38Z</time>
      </trkpt>
      <trkpt lat="59.199672675" lon="17.8805075451">
        <ele>31.2</ele>
        <time>2011-06-17T12:39:43Z</time>
      </trkpt>
      <trkpt lat="59.1997406522" lon="17.8801872727">
        <ele>31.2</ele>
        <time>2011-06-17T12:39:51Z</time>
      </trkpt>
      <trkpt lat="59.1997507943" lon="17.8801378194">
        <ele>31.2</ele>
        <time>2011-06-17T12:39:52Z</time>
      </trkpt>
      <trkpt lat="59.1997766105" lon="17.8799372406">
        <ele>31.2</ele>
        <time>2011-06-17T12:39:56Z</time>
      </trkpt>
      <trkpt lat="59.1998143291" lon="17.879705984">
        <ele>31.2</ele>
        <time>2011-06-17T12:40:01Z</time>
      </trkpt>
      <trkpt lat="59.1998282431" lon="17.8796099274">
        <ele>31.2</ele>
        <time>2011-06-17T12:40:03Z</time>
      </trkpt>
      <trkpt lat="59.199939387" lon="17.878958989">
        <ele>31.2</ele>
        <time>2011-06-17T12:40:16Z</time>
      </trkpt>
      <trkpt lat="59.1999828891" lon="17.8787309175">
        <ele>31.2</ele>
        <time>2011-06-17T12:40:21Z</time>
      </trkpt>
      <trkpt lat="59.20003712" lon="17.8784548177">
        <ele>31.2</ele>
        <time>2011-06-17T12:40:27Z</time>
      </trkpt>
      <trkpt lat="59.2000816279" lon="17.8782260757">
        <ele>31.2</ele>
        <time>2011-06-17T12:40:33Z</time>
      </trkpt>
      <trkpt lat="59.200120939" lon="17.8779414264">
        <ele>31.2</ele>
        <time>2011-06-17T12:40:38Z</time>
      </trkpt>
      <trkpt lat="59.2001750023" lon="17.87762853">
        <ele>31.2</ele>
        <time>2011-06-17T12:40:45Z</time>
      </trkpt>
      <trkpt lat="59.2002248746" lon="17.8773417852">
        <ele>31.2</ele>
        <time>2011-06-17T12:40:52Z</time>
      </trkpt>
      <trkpt lat="59.2002597433" lon="17.8771552042">
        <ele>31.2</ele>
        <time>2011-06-17T12:40:56Z</time>
      </trkpt>
      <trkpt lat="59.2003020719" lon="17.8769188346">
        <ele>31.2</ele>
        <time>2011-06-17T12:41:01Z</time>
      </trkpt>
      <trkpt lat="59.2003411315" lon="17.876689422">
        <ele>31.2</ele>
        <time>2011-06-17T12:41:06Z</time>
      </trkpt>
      <trkpt lat="59.2003967035" lon="17.8764145795">
        <ele>31.2</ele>
        <time>2011-06-17T12:41:12Z</time>
      </trkpt>
      <trkpt lat="59.2004860546" lon="17.8759186224">
        <ele>31.2</ele>
        <time>2011-06-17T12:41:22Z</time>
      </trkpt>
      <trkpt lat="59.2005387767" lon="17.8755352343">
        <ele>31.2</ele>
        <time>2011-06-17T12:41:31Z</time>
      </trkpt>
      <trkpt lat="59.2005760762" lon="17.8753392655">
        <ele>31.2</ele>
        <time>2011-06-17T12:41:34Z</time>
      </trkpt>
      <trkpt lat="59.2005847933" lon="17.8752910696">
        <ele>31.2</ele>
        <time>2011-06-17T12:41:36Z</time>
      </trkpt>
      <trkpt lat="59.2006401977" lon="17.8749678635">
        <ele>31.2</ele>
        <time>2011-06-17T12:41:43Z</time>
      </trkpt>
      <trkpt lat="59.2006881422" lon="17.8746739103">
        <ele>31.2</ele>
        <time>2011-06-17T12:41:48Z</time>
      </trkpt>
      <trkpt lat="59.2007080911" lon="17.8744408935">
        <ele>32.2</ele>
        <time>2011-06-17T12:41:53Z</time>
      </trkpt>
      <trkpt lat="59.20072343" lon="17.874130847">
        <ele>32.8</ele>
        <time>2011-06-17T12:42:00Z</time>
      </trkpt>
      <trkpt lat="59.2007354161" lon="17.8738434316">
        <ele>33</ele>
        <time>2011-06-17T12:42:06Z</time>
      </trkpt>
      <trkpt lat="59.2007455582" lon="17.873642769">
        <ele>33.2</ele>
        <time>2011-06-17T12:42:10Z</time>
      </trkpt>
      <trkpt lat="59.2007162215" lon="17.8730793376">
        <ele>33.2</ele>
        <time>2011-06-17T12:42:21Z</time>
      </trkpt>
      <trkpt lat="59.2007043192" lon="17.8727967838">
        <ele>33.8</ele>
        <time>2011-06-17T12:42:27Z</time>
      </trkpt>
      <trkpt lat="59.200691914" lon="17.872534598">
        <ele>34.6</ele>
        <time>2011-06-17T12:42:33Z</time>
      </trkpt>
      <trkpt lat="59.200683113" lon="17.8722758487">
        <ele>35</ele>
        <time>2011-06-17T12:42:39Z</time>
      </trkpt>
      <trkpt lat="59.2006461489" lon="17.8719794647">
        <ele>35.2</ele>
        <time>2011-06-17T12:42:46Z</time>
      </trkpt>
      <trkpt lat="59.2005971986" lon="17.8717670674">
        <ele>35.2</ele>
        <time>2011-06-17T12:42:51Z</time>
      </trkpt>
      <trkpt lat="59.2005429677" lon="17.8715705118">
        <ele>35.4</ele>
        <time>2011-06-17T12:42:56Z</time>
      </trkpt>
      <trkpt lat="59.2004390321" lon="17.8712851081">
        <ele>35.4</ele>
        <time>2011-06-17T12:43:04Z</time>
      </trkpt>
      <trkpt lat="59.2003500163" lon="17.8710820147">
        <ele>35.4</ele>
        <time>2011-06-17T12:43:10Z</time>
      </trkpt>
      <trkpt lat="59.2002365254" lon="17.8708499199">
        <ele>35.4</ele>
        <time>2011-06-17T12:43:17Z</time>
      </trkpt>
      <trkpt lat="59.2001377028" lon="17.8706582258">
        <ele>35.4</ele>
        <time>2011-06-17T12:43:23Z</time>
      </trkpt>
      <trkpt lat="59.2000408919" lon="17.8704658612">
        <ele>35.4</ele>
        <time>2011-06-17T12:43:28Z</time>
      </trkpt>
      <trkpt lat="59.1999344417" lon="17.87028213">
        <ele>35.4</ele>
        <time>2011-06-17T12:43:35Z</time>
      </trkpt>
      <trkpt lat="59.1998291651" lon="17.8700946269">
        <ele>35.4</ele>
        <time>2011-06-17T12:43:41Z</time>
      </trkpt>
      <trkpt lat="59.1997330247" lon="17.8698818104">
        <ele>35.4</ele>
        <time>2011-06-17T12:43:47Z</time>
      </trkpt>
      <trkpt lat="59.1996358784" lon="17.8696624561">
        <ele>35.4</ele>
        <time>2011-06-17T12:43:53Z</time>
      </trkpt>
      <trkpt lat="59.1995488743" lon="17.8694817423">
        <ele>35.4</ele>
        <time>2011-06-17T12:43:58Z</time>
      </trkpt>
      <trkpt lat="59.1994404964" lon="17.8693394177">
        <ele>35.4</ele>
        <time>2011-06-17T12:44:03Z</time>
      </trkpt>
      <trkpt lat="59.1993462" lon="17.8691157886">
        <ele>35.4</ele>
        <time>2011-06-17T12:44:09Z</time>
      </trkpt>
      <trkpt lat="59.1991723594" lon="17.8685961946">
        <ele>34</ele>
        <time>2011-06-17T12:44:21Z</time>
      </trkpt>
      <trkpt lat="59.1990900491" lon="17.8682751678">
        <ele>33.2</ele>
        <time>2011-06-17T12:44:28Z</time>
      </trkpt>
      <trkpt lat="59.1990245027" lon="17.8679895127">
        <ele>32.2</ele>
        <time>2011-06-17T12:44:34Z</time>
      </trkpt>
      <trkpt lat="59.1989630633" lon="17.8676909494">
        <ele>31.4</ele>
        <time>2011-06-17T12:44:40Z</time>
      </trkpt>
      <trkpt lat="59.1989069046" lon="17.8673940625">
        <ele>30.4</ele>
        <time>2011-06-17T12:44:46Z</time>
      </trkpt>
      <trkpt lat="59.1988632349" lon="17.8671485567">
        <ele>29.8</ele>
        <time>2011-06-17T12:44:51Z</time>
      </trkpt>
      <trkpt lat="59.198816883" lon="17.866845551">
        <ele>28.4</ele>
        <time>2011-06-17T12:44:57Z</time>
      </trkpt>
      <trkpt lat="59.1987748897" lon="17.8664940141">
        <ele>27.6</ele>
        <time>2011-06-17T12:45:04Z</time>
      </trkpt>
      <trkpt lat="59.1987420326" lon="17.8662364383">
        <ele>26.6</ele>
        <time>2011-06-17T12:45:09Z</time>
      </trkpt>
      <trkpt lat="59.1987189824" lon="17.865940641">
        <ele>25.8</ele>
        <time>2011-06-17T12:45:14Z</time>
      </trkpt>
      <trkpt lat="59.1986993688" lon="17.8656795449">
        <ele>25.4</ele>
        <time>2011-06-17T12:45:20Z</time>
      </trkpt>
      <trkpt lat="59.1986828564" lon="17.8653903693">
        <ele>25</ele>
        <time>2011-06-17T12:45:26Z</time>
      </trkpt>
      <trkpt lat="59.1986850357" lon="17.865246955">
        <ele>25</ele>
        <time>2011-06-17T12:45:28Z</time>
      </trkpt>
      <trkpt lat="59.1987137856" lon="17.8649796562">
        <ele>25</ele>
        <time>2011-06-17T12:45:34Z</time>
      </trkpt>
      <trkpt lat="59.1987155458" lon="17.8649246709">
        <ele>25</ele>
        <time>2011-06-17T12:45:35Z</time>
      </trkpt>
      <trkpt lat="59.1987192339" lon="17.8646161332">
        <ele>24.8</ele>
        <time>2011-06-17T12:45:41Z</time>
      </trkpt>
      <trkpt lat="59.1987157973" lon="17.8642728944">
        <ele>24.8</ele>
        <time>2011-06-17T12:45:48Z</time>
      </trkpt>
      <trkpt lat="59.1987171384" lon="17.863988748">
        <ele>24.8</ele>
        <time>2011-06-17T12:45:54Z</time>
      </trkpt>
      <trkpt lat="59.1987104329" lon="17.8635939605">
        <ele>24.8</ele>
        <time>2011-06-17T12:46:02Z</time>
      </trkpt>
      <trkpt lat="59.1987195691" lon="17.8631954012">
        <ele>24.8</ele>
        <time>2011-06-17T12:46:10Z</time>
      </trkpt>
      <trkpt lat="59.1987194015" lon="17.862860209">
        <ele>24.8</ele>
        <time>2011-06-17T12:46:17Z</time>
      </trkpt>
      <trkpt lat="59.1987025539" lon="17.8626127753">
        <ele>24.8</ele>
        <time>2011-06-17T12:46:22Z</time>
      </trkpt>
      <trkpt lat="59.1987023024" lon="17.8622172334">
        <ele>24.8</ele>
        <time>2011-06-17T12:46:30Z</time>
      </trkpt>
      <trkpt lat="59.1987069125" lon="17.8619728172">
        <ele>24.8</ele>
        <time>2011-06-17T12:46:35Z</time>
      </trkpt>
      <trkpt lat="59.1987074154" lon="17.8616171732">
        <ele>24.8</ele>
        <time>2011-06-17T12:46:42Z</time>
      </trkpt>
      <trkpt lat="59.1987100138" lon="17.8612674803">
        <ele>24.6</ele>
        <time>2011-06-17T12:46:49Z</time>
      </trkpt>
      <trkpt lat="59.1987204073" lon="17.8609286001">
        <ele>23.6</ele>
        <time>2011-06-17T12:46:56Z</time>
      </trkpt>
      <trkpt lat="59.198727029" lon="17.8605440385">
        <ele>23</ele>
        <time>2011-06-17T12:47:04Z</time>
      </trkpt>
      <trkpt lat="59.1987239277" lon="17.8602491633">
        <ele>23</ele>
        <time>2011-06-17T12:47:10Z</time>
      </trkpt>
      <trkpt lat="59.1987217484" lon="17.859918665">
        <ele>22.8</ele>
        <time>2011-06-17T12:47:16Z</time>
      </trkpt>
      <trkpt lat="59.1987471456" lon="17.8596009072">
        <ele>22.8</ele>
        <time>2011-06-17T12:47:23Z</time>
      </trkpt>
      <trkpt lat="59.1987730457" lon="17.8593455107">
        <ele>22.8</ele>
        <time>2011-06-17T12:47:28Z</time>
      </trkpt>
      <trkpt lat="59.1987777395" lon="17.8592354563">
        <ele>22.8</ele>
        <time>2011-06-17T12:47:31Z</time>
      </trkpt>
      <trkpt lat="59.1987870434" lon="17.8589888608">
        <ele>22.8</ele>
        <time>2011-06-17T12:47:36Z</time>
      </trkpt>
      <trkpt lat="59.1987851994" lon="17.8588819916">
        <ele>22.8</ele>
        <time>2011-06-17T12:47:38Z</time>
      </trkpt>
      <trkpt lat="59.1987978561" lon="17.8586256731">
        <ele>22.8</ele>
        <time>2011-06-17T12:47:43Z</time>
      </trkpt>
      <trkpt lat="59.1988129435" lon="17.8583444604">
        <ele>22.8</ele>
        <time>2011-06-17T12:47:49Z</time>
      </trkpt>
      <trkpt lat="59.1988328086" lon="17.8580860464">
        <ele>22.8</ele>
        <time>2011-06-17T12:47:54Z</time>
      </trkpt>
      <trkpt lat="59.1988564456" lon="17.8578023191">
        <ele>22.8</ele>
        <time>2011-06-17T12:48:00Z</time>
      </trkpt>
      <trkpt lat="59.1988672582" lon="17.8575562265">
        <ele>22.8</ele>
        <time>2011-06-17T12:48:05Z</time>
      </trkpt>
      <trkpt lat="59.1988922363" lon="17.8572215372">
        <ele>22.6</ele>
        <time>2011-06-17T12:48:12Z</time>
      </trkpt>
      <trkpt lat="59.198890057" lon="17.8569980758">
        <ele>22.6</ele>
        <time>2011-06-17T12:48:16Z</time>
      </trkpt>
      <trkpt lat="59.1988950861" lon="17.8567294359">
        <ele>23.4</ele>
        <time>2011-06-17T12:48:22Z</time>
      </trkpt>
      <trkpt lat="59.1989079104" lon="17.856397345">
        <ele>24</ele>
        <time>2011-06-17T12:48:28Z</time>
      </trkpt>
      <trkpt lat="59.1989193936" lon="17.8560748933">
        <ele>24.4</ele>
        <time>2011-06-17T12:48:36Z</time>
      </trkpt>
      <trkpt lat="59.1989048091" lon="17.855837015">
        <ele>24.6</ele>
        <time>2011-06-17T12:48:41Z</time>
      </trkpt>
      <trkpt lat="59.1988894703" lon="17.8555565566">
        <ele>25</ele>
        <time>2011-06-17T12:48:47Z</time>
      </trkpt>
      <trkpt lat="59.1988694375" lon="17.8552653694">
        <ele>25.8</ele>
        <time>2011-06-17T12:48:53Z</time>
      </trkpt>
      <trkpt lat="59.1988788252" lon="17.8549886829">
        <ele>26.2</ele>
        <time>2011-06-17T12:48:58Z</time>
      </trkpt>
      <trkpt lat="59.1988730417" lon="17.8547810632">
        <ele>26.4</ele>
        <time>2011-06-17T12:49:03Z</time>
      </trkpt>
      <trkpt lat="59.1988712815" lon="17.8546321168">
        <ele>26.6</ele>
        <time>2011-06-17T12:49:06Z</time>
      </trkpt>
      <trkpt lat="59.1988709463" lon="17.8544380759">
        <ele>26.6</ele>
        <time>2011-06-17T12:49:10Z</time>
      </trkpt>
      <trkpt lat="59.1988745505" lon="17.8542192244">
        <ele>26.6</ele>
        <time>2011-06-17T12:49:15Z</time>
      </trkpt>
      <trkpt lat="59.198930793" lon="17.8539558651">
        <ele>26.8</ele>
        <time>2011-06-17T12:49:20Z</time>
      </trkpt>
      <trkpt lat="59.1989389235" lon="17.8539028915">
        <ele>26.8</ele>
        <time>2011-06-17T12:49:22Z</time>
      </trkpt>
      <trkpt lat="59.1989430306" lon="17.853740115">
        <ele>26.8</ele>
        <time>2011-06-17T12:49:25Z</time>
      </trkpt>
      <trkpt lat="59.1989406837" lon="17.8535400391">
        <ele>26.8</ele>
        <time>2011-06-17T12:49:28Z</time>
      </trkpt>
      <trkpt lat="59.198921992" lon="17.8531940343">
        <ele>26.8</ele>
        <time>2011-06-17T12:49:36Z</time>
      </trkpt>
      <trkpt lat="59.1989346487" lon="17.8528383902">
        <ele>26.8</ele>
        <time>2011-06-17T12:49:43Z</time>
      </trkpt>
      <trkpt lat="59.198952586" lon="17.8525411681">
        <ele>26.8</ele>
        <time>2011-06-17T12:49:49Z</time>
      </trkpt>
      <trkpt lat="59.1989743789" lon="17.852187871">
        <ele>26.8</ele>
        <time>2011-06-17T12:49:56Z</time>
      </trkpt>
      <trkpt lat="59.1989815035" lon="17.8518693588">
        <ele>26.8</ele>
        <time>2011-06-17T12:50:02Z</time>
      </trkpt>
      <trkpt lat="59.1989853592" lon="17.8515664369">
        <ele>26.2</ele>
        <time>2011-06-17T12:50:08Z</time>
      </trkpt>
      <trkpt lat="59.1989867841" lon="17.851204255">
        <ele>25.4</ele>
        <time>2011-06-17T12:50:15Z</time>
      </trkpt>
      <trkpt lat="59.1989970938" lon="17.8510156623">
        <ele>25.2</ele>
        <time>2011-06-17T12:50:18Z</time>
      </trkpt>
      <trkpt lat="59.1990053919" lon="17.85064996">
        <ele>25</ele>
        <time>2011-06-17T12:50:26Z</time>
      </trkpt>
      <trkpt lat="59.1989966748" lon="17.8503523187">
        <ele>24.2</ele>
        <time>2011-06-17T12:50:32Z</time>
      </trkpt>
      <trkpt lat="59.1989929029" lon="17.8500105886">
        <ele>23.4</ele>
        <time>2011-06-17T12:50:39Z</time>
      </trkpt>
      <trkpt lat="59.1989884605" lon="17.8496795874">
        <ele>23</ele>
        <time>2011-06-17T12:50:46Z</time>
      </trkpt>
      <trkpt lat="59.1989960042" lon="17.8494001349">
        <ele>22.2</ele>
        <time>2011-06-17T12:50:52Z</time>
      </trkpt>
      <trkpt lat="59.199004889" lon="17.8490445747">
        <ele>21.4</ele>
        <time>2011-06-17T12:50:59Z</time>
      </trkpt>
      <trkpt lat="59.19899701" lon="17.8489071953">
        <ele>21.2</ele>
        <time>2011-06-17T12:51:02Z</time>
      </trkpt>
      <trkpt lat="59.198982677" lon="17.8488388828">
        <ele>20.4</ele>
        <time>2011-06-17T12:51:06Z</time>
      </trkpt>
      <trkpt lat="59.1989850239" lon="17.8488365359">
        <ele>20.2</ele>
        <time>2011-06-17T12:51:07Z</time>
      </trkpt>
      <trkpt lat="59.1990089961" lon="17.8489029206">
        <ele>19.4</ele>
        <time>2011-06-17T12:51:14Z</time>
      </trkpt>
      <trkpt lat="59.1989998599" lon="17.848915661">
        <ele>19</ele>
        <time>2011-06-17T12:51:18Z</time>
      </trkpt>
      <trkpt lat="59.19899701" lon="17.8488936166">
        <ele>18.2</ele>
        <time>2011-06-17T12:51:22Z</time>
      </trkpt>
      <trkpt lat="59.1989902207" lon="17.8488136533">
        <ele>15.6</ele>
        <time>2011-06-17T12:51:49Z</time>
      </trkpt>
      <trkpt lat="59.1990022906" lon="17.8486029324">
        <ele>14.8</ele>
        <time>2011-06-17T12:51:58Z</time>
      </trkpt>
      <trkpt lat="59.1990007819" lon="17.848491956">
        <ele>14.6</ele>
        <time>2011-06-17T12:52:03Z</time>
      </trkpt>
      <trkpt lat="59.1990061463" lon="17.8483660599">
        <ele>13.6</ele>
        <time>2011-06-17T12:52:08Z</time>
      </trkpt>
      <trkpt lat="59.1990119298" lon="17.8480261738">
        <ele>13</ele>
        <time>2011-06-17T12:52:15Z</time>
      </trkpt>
      <trkpt lat="59.1990142767" lon="17.8477951686">
        <ele>12.8</ele>
        <time>2011-06-17T12:52:20Z</time>
      </trkpt>
      <trkpt lat="59.1990184677" lon="17.847538012">
        <ele>12.6</ele>
        <time>2011-06-17T12:52:25Z</time>
      </trkpt>
      <trkpt lat="59.1990024583" lon="17.8472017301">
        <ele>12.2</ele>
        <time>2011-06-17T12:52:32Z</time>
      </trkpt>
      <trkpt lat="59.1989611355" lon="17.8468583237">
        <ele>11.2</ele>
        <time>2011-06-17T12:52:39Z</time>
      </trkpt>
      <trkpt lat="59.1989355707" lon="17.8465095528">
        <ele>10.8</ele>
        <time>2011-06-17T12:52:46Z</time>
      </trkpt>
      <trkpt lat="59.1989446232" lon="17.8461164417">
        <ele>10.6</ele>
        <time>2011-06-17T12:52:54Z</time>
      </trkpt>
      <trkpt lat="59.1989486465" lon="17.8458447005">
        <ele>10.6</ele>
        <time>2011-06-17T12:53:00Z</time>
      </trkpt>
      <trkpt lat="59.19895904" lon="17.8455293734">
        <ele>10.4</ele>
        <time>2011-06-17T12:53:07Z</time>
      </trkpt>
      <trkpt lat="59.1989679248" lon="17.8452422095">
        <ele>10.4</ele>
        <time>2011-06-17T12:53:13Z</time>
      </trkpt>
      <trkpt lat="59.1989672543" lon="17.8448768425">
        <ele>10.4</ele>
        <time>2011-06-17T12:53:21Z</time>
      </trkpt>
      <trkpt lat="59.1989698527" lon="17.8445003276">
        <ele>10.4</ele>
        <time>2011-06-17T12:53:29Z</time>
      </trkpt>
      <trkpt lat="59.1989719481" lon="17.8441613635">
        <ele>10.4</ele>
        <time>2011-06-17T12:53:36Z</time>
      </trkpt>
      <trkpt lat="59.1989652426" lon="17.8438060548">
        <ele>10.4</ele>
        <time>2011-06-17T12:53:44Z</time>
      </trkpt>
      <trkpt lat="59.1989597944" lon="17.8434322221">
        <ele>10.4</ele>
        <time>2011-06-17T12:53:52Z</time>
      </trkpt>
      <trkpt lat="59.1989732893" lon="17.8430475767">
        <ele>10.4</ele>
        <time>2011-06-17T12:54:00Z</time>
      </trkpt>
      <trkpt lat="59.1989717805" lon="17.8428581457">
        <ele>10.8</ele>
        <time>2011-06-17T12:54:04Z</time>
      </trkpt>
      <trkpt lat="59.1989731216" lon="17.8425728259">
        <ele>11.6</ele>
        <time>2011-06-17T12:54:10Z</time>
      </trkpt>
      <trkpt lat="59.1989636501" lon="17.8421793795">
        <ele>12.2</ele>
        <time>2011-06-17T12:54:18Z</time>
      </trkpt>
      <trkpt lat="59.1989611355" lon="17.8421348716">
        <ele>12.2</ele>
        <time>2011-06-17T12:54:19Z</time>
      </trkpt>
      <trkpt lat="59.1989579504" lon="17.8418037865">
        <ele>12.4</ele>
        <time>2011-06-17T12:54:26Z</time>
      </trkpt>
      <trkpt lat="59.1989198965" lon="17.8414409341">
        <ele>12.4</ele>
        <time>2011-06-17T12:54:34Z</time>
      </trkpt>
      <trkpt lat="59.1989041386" lon="17.8412430374">
        <ele>12.6</ele>
        <time>2011-06-17T12:54:38Z</time>
      </trkpt>
      <trkpt lat="59.1988955052" lon="17.8412012956">
        <ele>12.6</ele>
        <time>2011-06-17T12:54:39Z</time>
      </trkpt>
      <trkpt lat="59.1988939965" lon="17.8409805163">
        <ele>12.6</ele>
        <time>2011-06-17T12:54:43Z</time>
      </trkpt>
      <trkpt lat="59.1988663362" lon="17.8406900835">
        <ele>13.4</ele>
        <time>2011-06-17T12:54:49Z</time>
      </trkpt>
      <trkpt lat="59.1988277795" lon="17.840473579">
        <ele>14</ele>
        <time>2011-06-17T12:54:54Z</time>
      </trkpt>
      <trkpt lat="59.1987825172" lon="17.8403277339">
        <ele>14.2</ele>
        <time>2011-06-17T12:54:59Z</time>
      </trkpt>
      <trkpt lat="59.1987780748" lon="17.8402438311">
        <ele>14.4</ele>
        <time>2011-06-17T12:55:05Z</time>
      </trkpt>
      <trkpt lat="59.1987839421" lon="17.8402609302">
        <ele>14.4</ele>
        <time>2011-06-17T12:55:07Z</time>
      </trkpt>
      <trkpt lat="59.198787714" lon="17.840258248">
        <ele>14.4</ele>
        <time>2011-06-17T12:55:08Z</time>
      </trkpt>
      <trkpt lat="59.1988727903" lon="17.8402042686">
        <ele>14.6</ele>
        <time>2011-06-17T12:55:14Z</time>
      </trkpt>
      <trkpt lat="59.198969685" lon="17.840133693">
        <ele>14.6</ele>
        <time>2011-06-17T12:55:19Z</time>
      </trkpt>
      <trkpt lat="59.1989873708" lon="17.8400934598">
        <ele>14.6</ele>
        <time>2011-06-17T12:55:20Z</time>
      </trkpt>
      <trkpt lat="59.1990337228" lon="17.8399676475">
        <ele>14.6</ele>
        <time>2011-06-17T12:55:23Z</time>
      </trkpt>
      <trkpt lat="59.1991182123" lon="17.8396484648">
        <ele>14.6</ele>
        <time>2011-06-17T12:55:30Z</time>
      </trkpt>
      <trkpt lat="59.1991405082" lon="17.8394254224">
        <ele>14.6</ele>
        <time>2011-06-17T12:55:35Z</time>
      </trkpt>
      <trkpt lat="59.199138748" lon="17.8391748874">
        <ele>14.6</ele>
        <time>2011-06-17T12:55:40Z</time>
      </trkpt>
      <trkpt lat="59.1991239958" lon="17.8389380149">
        <ele>14.6</ele>
        <time>2011-06-17T12:55:45Z</time>
      </trkpt>
      <trkpt lat="59.1990922284" lon="17.8386791818">
        <ele>14.6</ele>
        <time>2011-06-17T12:55:50Z</time>
      </trkpt>
      <trkpt lat="59.1991210621" lon="17.838437364">
        <ele>14.6</ele>
        <time>2011-06-17T12:55:56Z</time>
      </trkpt>
      <trkpt lat="59.1991605409" lon="17.8382551415">
        <ele>14.6</ele>
        <time>2011-06-17T12:56:00Z</time>
      </trkpt>
      <trkpt lat="59.1991641451" lon="17.8382197699">
        <ele>14.6</ele>
        <time>2011-06-17T12:56:01Z</time>
      </trkpt>
      <trkpt lat="59.1991675817" lon="17.8380590889">
        <ele>14.6</ele>
        <time>2011-06-17T12:56:07Z</time>
      </trkpt>
      <trkpt lat="59.1991774723" lon="17.837943251">
        <ele>14.6</ele>
        <time>2011-06-17T12:56:10Z</time>
      </trkpt>
      <trkpt lat="59.1991935656" lon="17.8377025229">
        <ele>14.6</ele>
        <time>2011-06-17T12:56:15Z</time>
      </trkpt>
      <trkpt lat="59.1992065575" lon="17.8374696737">
        <ele>14.6</ele>
        <time>2011-06-17T12:56:19Z</time>
      </trkpt>
      <trkpt lat="59.1992275123" lon="17.8372039674">
        <ele>14.6</ele>
        <time>2011-06-17T12:56:25Z</time>
      </trkpt>
      <trkpt lat="59.1992417615" lon="17.8369261913">
        <ele>15.4</ele>
        <time>2011-06-17T12:56:31Z</time>
      </trkpt>
      <trkpt lat="59.1992301945" lon="17.8366702081">
        <ele>15.8</ele>
        <time>2011-06-17T12:56:36Z</time>
      </trkpt>
      <trkpt lat="59.1992367324" lon="17.836563255">
        <ele>16</ele>
        <time>2011-06-17T12:56:38Z</time>
      </trkpt>
      <trkpt lat="59.1992371515" lon="17.8363945274">
        <ele>16.4</ele>
        <time>2011-06-17T12:56:43Z</time>
      </trkpt>
      <trkpt lat="59.1992205553" lon="17.8363719801">
        <ele>16.4</ele>
        <time>2011-06-17T12:56:44Z</time>
      </trkpt>
      <trkpt lat="59.1991430227" lon="17.8362921844">
        <ele>16.4</ele>
        <time>2011-06-17T12:56:48Z</time>
      </trkpt>
      <trkpt lat="59.1991186314" lon="17.8362595788">
        <ele>16.4</ele>
        <time>2011-06-17T12:56:49Z</time>
      </trkpt>
      <trkpt lat="59.1990882889" lon="17.8361777714">
        <ele>16.6</ele>
        <time>2011-06-17T12:56:51Z</time>
      </trkpt>
      <trkpt lat="59.1990499836" lon="17.8360926951">
        <ele>16.8</ele>
        <time>2011-06-17T12:56:56Z</time>
      </trkpt>
      <trkpt lat="59.1990417694" lon="17.8360549766">
        <ele>17.6</ele>
        <time>2011-06-17T12:57:01Z</time>
      </trkpt>
      <trkpt lat="59.1990713575" lon="17.8359805453">
        <ele>19</ele>
        <time>2011-06-17T12:57:10Z</time>
      </trkpt>
      <trkpt lat="59.1990737044" lon="17.8359754324">
        <ele>19.2</ele>
        <time>2011-06-17T12:57:11Z</time>
      </trkpt>
      <trkpt lat="59.1995280872" lon="17.8288144399">
        <ele>20.4</ele>
        <time>2011-06-17T13:11:37Z</time>
      </trkpt>
      <trkpt lat="59.1995507183" lon="17.8285278628">
        <ele>20.4</ele>
        <time>2011-06-17T13:11:43Z</time>
      </trkpt>
      <trkpt lat="59.199542085" lon="17.8282981987">
        <ele>20.4</ele>
        <time>2011-06-17T13:11:48Z</time>
      </trkpt>
      <trkpt lat="59.1995306018" lon="17.8282084285">
        <ele>20.4</ele>
        <time>2011-06-17T13:11:50Z</time>
      </trkpt>
      <trkpt lat="59.1995574239" lon="17.8280218475">
        <ele>20.4</ele>
        <time>2011-06-17T13:11:54Z</time>
      </trkpt>
      <trkpt lat="59.1996460205" lon="17.8278051753">
        <ele>20.4</ele>
        <time>2011-06-17T13:12:00Z</time>
      </trkpt>
      <trkpt lat="59.1996536481" lon="17.8277693008">
        <ele>20.4</ele>
        <time>2011-06-17T13:12:01Z</time>
      </trkpt>
      <trkpt lat="59.1996914504" lon="17.8275587475">
        <ele>20.4</ele>
        <time>2011-06-17T13:12:06Z</time>
      </trkpt>
      <trkpt lat="59.1997279955" lon="17.8273583363">
        <ele>20.4</ele>
        <time>2011-06-17T13:12:11Z</time>
      </trkpt>
      <trkpt lat="59.1997612717" lon="17.8271357968">
        <ele>20.4</ele>
        <time>2011-06-17T13:12:16Z</time>
      </trkpt>
      <trkpt lat="59.1997937096" lon="17.8269093179">
        <ele>20.4</ele>
        <time>2011-06-17T13:12:21Z</time>
      </trkpt>
      <trkpt lat="59.1998274887" lon="17.8265726169">
        <ele>20.4</ele>
        <time>2011-06-17T13:12:28Z</time>
      </trkpt>
      <trkpt lat="59.1998547299" lon="17.8263016301">
        <ele>20.4</ele>
        <time>2011-06-17T13:12:34Z</time>
      </trkpt>
      <trkpt lat="59.1998589208" lon="17.8262596368">
        <ele>20.4</ele>
        <time>2011-06-17T13:12:35Z</time>
      </trkpt>
      <trkpt lat="59.1998671351" lon="17.8262169729">
        <ele>20.4</ele>
        <time>2011-06-17T13:12:36Z</time>
      </trkpt>
      <trkpt lat="59.1998947953" lon="17.8259365146">
        <ele>20.4</ele>
        <time>2011-06-17T13:12:42Z</time>
      </trkpt>
      <trkpt lat="59.1999419854" lon="17.8257418868">
        <ele>21</ele>
        <time>2011-06-17T13:12:47Z</time>
      </trkpt>
      <trkpt lat="59.1999757645" lon="17.8254874124">
        <ele>21.6</ele>
        <time>2011-06-17T13:12:53Z</time>
      </trkpt>
      <trkpt lat="59.1999835597" lon="17.825446341">
        <ele>21.8</ele>
        <time>2011-06-17T13:12:54Z</time>
      </trkpt>
      <trkpt lat="59.2000001558" lon="17.8252159226">
        <ele>22</ele>
        <time>2011-06-17T13:12:59Z</time>
      </trkpt>
      <trkpt lat="59.2000118905" lon="17.8251735102">
        <ele>22</ele>
        <time>2011-06-17T13:13:00Z</time>
      </trkpt>
      <trkpt lat="59.2000414786" lon="17.8249477018">
        <ele>22.2</ele>
        <time>2011-06-17T13:13:05Z</time>
      </trkpt>
      <trkpt lat="59.2000661214" lon="17.8247215581">
        <ele>22.4</ele>
        <time>2011-06-17T13:13:10Z</time>
      </trkpt>
      <trkpt lat="59.2000742518" lon="17.8245250026">
        <ele>23</ele>
        <time>2011-06-17T13:13:15Z</time>
      </trkpt>
      <trkpt lat="59.2000762635" lon="17.8242967635">
        <ele>23.6</ele>
        <time>2011-06-17T13:13:20Z</time>
      </trkpt>
      <trkpt lat="59.2000731622" lon="17.824077493">
        <ele>23.8</ele>
        <time>2011-06-17T13:13:24Z</time>
      </trkpt>
      <trkpt lat="59.2000604217" lon="17.8238323224">
        <ele>24.2</ele>
        <time>2011-06-17T13:13:29Z</time>
      </trkpt>
      <trkpt lat="59.2000576557" lon="17.8237876469">
        <ele>24.2</ele>
        <time>2011-06-17T13:13:30Z</time>
      </trkpt>
      <trkpt lat="59.2000344378" lon="17.8234875748">
        <ele>24.4</ele>
        <time>2011-06-17T13:13:36Z</time>
      </trkpt>
      <trkpt lat="59.2000066099" lon="17.8232257243">
        <ele>24.4</ele>
        <time>2011-06-17T13:13:42Z</time>
      </trkpt>
      <trkpt lat="59.2000018322" lon="17.8229480319">
        <ele>24.4</ele>
        <time>2011-06-17T13:13:48Z</time>
      </trkpt>
      <trkpt lat="59.2000027542" lon="17.822906793">
        <ele>24.4</ele>
        <time>2011-06-17T13:13:49Z</time>
      </trkpt>
      <trkpt lat="59.1999858228" lon="17.8226764584">
        <ele>24.4</ele>
        <time>2011-06-17T13:13:54Z</time>
      </trkpt>
      <trkpt lat="59.1999898461" lon="17.8225049647">
        <ele>24.4</ele>
        <time>2011-06-17T13:13:58Z</time>
      </trkpt>
      <trkpt lat="59.1999881697" lon="17.8224578584">
        <ele>24.4</ele>
        <time>2011-06-17T13:13:59Z</time>
      </trkpt>
      <trkpt lat="59.199980626" lon="17.8221150387">
        <ele>23.4</ele>
        <time>2011-06-17T13:14:06Z</time>
      </trkpt>
      <trkpt lat="59.1999812127" lon="17.8220734645">
        <ele>23.4</ele>
        <time>2011-06-17T13:14:07Z</time>
      </trkpt>
      <trkpt lat="59.1999737528" lon="17.8218221751">
        <ele>23</ele>
        <time>2011-06-17T13:14:12Z</time>
      </trkpt>
      <trkpt lat="59.1999757645" lon="17.821517074">
        <ele>22.8</ele>
        <time>2011-06-17T13:14:18Z</time>
      </trkpt>
      <trkpt lat="59.1999822186" lon="17.8212884995">
        <ele>22.6</ele>
        <time>2011-06-17T13:14:23Z</time>
      </trkpt>
      <trkpt lat="59.1999928636" lon="17.8209941272">
        <ele>22.6</ele>
        <time>2011-06-17T13:14:29Z</time>
      </trkpt>
      <trkpt lat="59.1999943723" lon="17.8207072148">
        <ele>22.6</ele>
        <time>2011-06-17T13:14:35Z</time>
      </trkpt>
      <trkpt lat="59.1999896784" lon="17.8204180392">
        <ele>22.4</ele>
        <time>2011-06-17T13:14:41Z</time>
      </trkpt>
      <trkpt lat="59.1999872477" lon="17.8201810829">
        <ele>22.4</ele>
        <time>2011-06-17T13:14:46Z</time>
      </trkpt>
      <trkpt lat="59.1999752616" lon="17.819944881">
        <ele>22.4</ele>
        <time>2011-06-17T13:14:51Z</time>
      </trkpt>
      <trkpt lat="59.1999756807" lon="17.8196359241">
        <ele>22.4</ele>
        <time>2011-06-17T13:14:58Z</time>
      </trkpt>
      <trkpt lat="59.1999625211" lon="17.8193588185">
        <ele>22.4</ele>
        <time>2011-06-17T13:15:04Z</time>
      </trkpt>
      <trkpt lat="59.1999557318" lon="17.8191212755">
        <ele>22.4</ele>
        <time>2011-06-17T13:15:09Z</time>
      </trkpt>
      <trkpt lat="59.1999641975" lon="17.8190709003">
        <ele>22.6</ele>
        <time>2011-06-17T13:15:10Z</time>
      </trkpt>
      <trkpt lat="59.2000216973" lon="17.818940897">
        <ele>23.4</ele>
        <time>2011-06-17T13:15:14Z</time>
      </trkpt>
      <trkpt lat="59.2001059354" lon="17.8187503764">
        <ele>23.8</ele>
        <time>2011-06-17T13:15:20Z</time>
      </trkpt>
      <trkpt lat="59.2001524549" lon="17.8185675672">
        <ele>24</ele>
        <time>2011-06-17T13:15:24Z</time>
      </trkpt>
      <trkpt lat="59.2001600825" lon="17.8185176949">
        <ele>24.2</ele>
        <time>2011-06-17T13:15:25Z</time>
      </trkpt>
      <trkpt lat="59.2001563944" lon="17.8182389129">
        <ele>24.4</ele>
        <time>2011-06-17T13:15:31Z</time>
      </trkpt>
      <trkpt lat="59.200130662" lon="17.818017966">
        <ele>24.4</ele>
        <time>2011-06-17T13:15:36Z</time>
      </trkpt>
      <trkpt lat="59.2001254652" lon="17.8177305506">
        <ele>24.4</ele>
        <time>2011-06-17T13:15:42Z</time>
      </trkpt>
      <trkpt lat="59.2001293209" lon="17.8176852046">
        <ele>24.4</ele>
        <time>2011-06-17T13:15:43Z</time>
      </trkpt>
      <trkpt lat="59.2001364455" lon="17.8174120384">
        <ele>24.4</ele>
        <time>2011-06-17T13:15:49Z</time>
      </trkpt>
      <trkpt lat="59.2001310811" lon="17.8171865653">
        <ele>24.4</ele>
        <time>2011-06-17T13:15:54Z</time>
      </trkpt>
      <trkpt lat="59.2001195141" lon="17.8169367847">
        <ele>24.6</ele>
        <time>2011-06-17T13:16:00Z</time>
      </trkpt>
      <trkpt lat="59.2000827175" lon="17.8167745111">
        <ele>24.6</ele>
        <time>2011-06-17T13:16:04Z</time>
      </trkpt>
      <trkpt lat="59.2000295763" lon="17.8165104813">
        <ele>25.6</ele>
        <time>2011-06-17T13:16:11Z</time>
      </trkpt>
      <trkpt lat="59.1999652871" lon="17.8162772968">
        <ele>26</ele>
        <time>2011-06-17T13:16:17Z</time>
      </trkpt>
      <trkpt lat="59.1999370401" lon="17.8160835073">
        <ele>26.4</ele>
        <time>2011-06-17T13:16:22Z</time>
      </trkpt>
      <trkpt lat="59.1999020038" lon="17.8159227424">
        <ele>27.2</ele>
        <time>2011-06-17T13:16:26Z</time>
      </trkpt>
      <trkpt lat="59.199894041" lon="17.8158789889">
        <ele>27.4</ele>
        <time>2011-06-17T13:16:27Z</time>
      </trkpt>
      <trkpt lat="59.1998932866" lon="17.8156909829">
        <ele>27.8</ele>
        <time>2011-06-17T13:16:31Z</time>
      </trkpt>
      <trkpt lat="59.1999195219" lon="17.8154572955">
        <ele>29.2</ele>
        <time>2011-06-17T13:16:37Z</time>
      </trkpt>
      <trkpt lat="59.1999106371" lon="17.8154314793">
        <ele>29.8</ele>
        <time>2011-06-17T13:16:40Z</time>
      </trkpt>
      <trkpt lat="59.1999626049" lon="17.8152188305">
        <ele>30.2</ele>
        <time>2011-06-17T13:16:46Z</time>
      </trkpt>
      <trkpt lat="59.2000685521" lon="17.8149211054">
        <ele>31.6</ele>
        <time>2011-06-17T13:16:53Z</time>
      </trkpt>
      <trkpt lat="59.200154299" lon="17.8146854064">
        <ele>32.2</ele>
        <time>2011-06-17T13:16:59Z</time>
      </trkpt>
      <trkpt lat="59.2002353519" lon="17.8144828997">
        <ele>32.8</ele>
        <time>2011-06-17T13:17:04Z</time>
      </trkpt>
      <trkpt lat="59.2003050893" lon="17.814285925">
        <ele>33.8</ele>
        <time>2011-06-17T13:17:09Z</time>
      </trkpt>
      <trkpt lat="59.2003765869" lon="17.814029858">
        <ele>34.4</ele>
        <time>2011-06-17T13:17:15Z</time>
      </trkpt>
      <trkpt lat="59.2004459891" lon="17.8136588751">
        <ele>34.6</ele>
        <time>2011-06-17T13:17:23Z</time>
      </trkpt>
      <trkpt lat="59.2004733979" lon="17.8134702823">
        <ele>34.8</ele>
        <time>2011-06-17T13:17:27Z</time>
      </trkpt>
      <trkpt lat="59.2005056682" lon="17.8131410413">
        <ele>34.8</ele>
        <time>2011-06-17T13:17:34Z</time>
      </trkpt>
      <trkpt lat="59.2005243598" lon="17.8129055099">
        <ele>35</ele>
        <time>2011-06-17T13:17:39Z</time>
      </trkpt>
      <trkpt lat="59.2005314845" lon="17.8126671287">
        <ele>35</ele>
        <time>2011-06-17T13:17:44Z</time>
      </trkpt>
      <trkpt lat="59.2005514334" lon="17.8123730916">
        <ele>35</ele>
        <time>2011-06-17T13:17:50Z</time>
      </trkpt>
      <trkpt lat="59.2005695383" lon="17.8120762047">
        <ele>35</ele>
        <time>2011-06-17T13:17:56Z</time>
      </trkpt>
      <trkpt lat="59.2005738969" lon="17.8119830818">
        <ele>35</ele>
        <time>2011-06-17T13:17:58Z</time>
      </trkpt>
      <trkpt lat="59.2005593962" lon="17.8117957463">
        <ele>35</ele>
        <time>2011-06-17T13:18:02Z</time>
      </trkpt>
      <trkpt lat="59.2005332447" lon="17.8115136954">
        <ele>35</ele>
        <time>2011-06-17T13:18:08Z</time>
      </trkpt>
      <trkpt lat="59.2004645969" lon="17.8112913236">
        <ele>35</ele>
        <time>2011-06-17T13:18:13Z</time>
      </trkpt>
      <trkpt lat="59.2004443965" lon="17.8111969434">
        <ele>35</ele>
        <time>2011-06-17T13:18:15Z</time>
      </trkpt>
      <trkpt lat="59.2004236094" lon="17.810909109">
        <ele>35</ele>
        <time>2011-06-17T13:18:21Z</time>
      </trkpt>
      <trkpt lat="59.2004379425" lon="17.8105781077">
        <ele>35</ele>
        <time>2011-06-17T13:18:28Z</time>
      </trkpt>
      <trkpt lat="59.2004469111" lon="17.8104434106">
        <ele>35</ele>
        <time>2011-06-17T13:18:31Z</time>
      </trkpt>
      <trkpt lat="59.2004372719" lon="17.8101523072">
        <ele>34.4</ele>
        <time>2011-06-17T13:18:37Z</time>
      </trkpt>
      <trkpt lat="59.2004359308" lon="17.8099145965">
        <ele>33.8</ele>
        <time>2011-06-17T13:18:42Z</time>
      </trkpt>
      <trkpt lat="59.2004281356" lon="17.809591139">
        <ele>33.4</ele>
        <time>2011-06-17T13:18:49Z</time>
      </trkpt>
      <trkpt lat="59.2004350926" lon="17.8093122732">
        <ele>33.2</ele>
        <time>2011-06-17T13:18:55Z</time>
      </trkpt>
      <trkpt lat="59.200427968" lon="17.8090740596">
        <ele>33</ele>
        <time>2011-06-17T13:19:00Z</time>
      </trkpt>
      <trkpt lat="59.20044557" lon="17.8088259554">
        <ele>33</ele>
        <time>2011-06-17T13:19:06Z</time>
      </trkpt>
      <trkpt lat="59.2004742361" lon="17.8084530446">
        <ele>33</ele>
        <time>2011-06-17T13:19:14Z</time>
      </trkpt>
      <trkpt lat="59.2005010582" lon="17.8081767772">
        <ele>33</ele>
        <time>2011-06-17T13:19:20Z</time>
      </trkpt>
      <trkpt lat="59.2005438059" lon="17.8079596022">
        <ele>33</ele>
        <time>2011-06-17T13:19:25Z</time>
      </trkpt>
      <trkpt lat="59.200572472" lon="17.8075833387">
        <ele>32</ele>
        <time>2011-06-17T13:19:33Z</time>
      </trkpt>
      <trkpt lat="59.2005747351" lon="17.8072934088">
        <ele>31.6</ele>
        <time>2011-06-17T13:19:39Z</time>
      </trkpt>
      <trkpt lat="59.2005753218" lon="17.8070205779">
        <ele>31.2</ele>
        <time>2011-06-17T13:19:45Z</time>
      </trkpt>
      <trkpt lat="59.2005545347" lon="17.806778341">
        <ele>31.2</ele>
        <time>2011-06-17T13:19:50Z</time>
      </trkpt>
      <trkpt lat="59.2005276288" lon="17.8065529517">
        <ele>31</ele>
        <time>2011-06-17T13:19:55Z</time>
      </trkpt>
      <trkpt lat="59.200515475" lon="17.8063149057">
        <ele>31</ele>
        <time>2011-06-17T13:20:00Z</time>
      </trkpt>
      <trkpt lat="59.2004790976" lon="17.8060515464">
        <ele>31</ele>
        <time>2011-06-17T13:20:06Z</time>
      </trkpt>
      <trkpt lat="59.2004397865" lon="17.8058025202">
        <ele>31</ele>
        <time>2011-06-17T13:20:11Z</time>
      </trkpt>
      <trkpt lat="59.2004309855" lon="17.8057546596">
        <ele>31</ele>
        <time>2011-06-17T13:20:12Z</time>
      </trkpt>
      <trkpt lat="59.2003992181" lon="17.8056212197">
        <ele>31</ele>
        <time>2011-06-17T13:20:15Z</time>
      </trkpt>
      <trkpt lat="59.2003606613" lon="17.8054218981">
        <ele>31</ele>
        <time>2011-06-17T13:20:20Z</time>
      </trkpt>
      <trkpt lat="59.200346915" lon="17.8053832576">
        <ele>31</ele>
        <time>2011-06-17T13:20:21Z</time>
      </trkpt>
      <trkpt lat="59.2002585698" lon="17.8051440381">
        <ele>31</ele>
        <time>2011-06-17T13:20:27Z</time>
      </trkpt>
      <trkpt lat="59.200174667" lon="17.804974137">
        <ele>31</ele>
        <time>2011-06-17T13:20:32Z</time>
      </trkpt>
      <trkpt lat="59.1999625211" lon="17.8046521044">
        <ele>31</ele>
        <time>2011-06-17T13:20:43Z</time>
      </trkpt>
      <trkpt lat="59.1998923646" lon="17.8045216821">
        <ele>31</ele>
        <time>2011-06-17T13:20:48Z</time>
      </trkpt>
      <trkpt lat="59.1998218728" lon="17.8044327501">
        <ele>31</ele>
        <time>2011-06-17T13:20:52Z</time>
      </trkpt>
      <trkpt lat="59.1997502914" lon="17.8043267191">
        <ele>31</ele>
        <time>2011-06-17T13:20:56Z</time>
      </trkpt>
      <trkpt lat="59.1996685679" lon="17.8041993142">
        <ele>31</ele>
        <time>2011-06-17T13:21:01Z</time>
      </trkpt>
      <trkpt lat="59.1995559151" lon="17.8040770223">
        <ele>31</ele>
        <time>2011-06-17T13:21:06Z</time>
      </trkpt>
      <trkpt lat="59.1994584336" lon="17.8039380504">
        <ele>31</ele>
        <time>2011-06-17T13:21:12Z</time>
      </trkpt>
      <trkpt lat="59.1993624609" lon="17.8038259005">
        <ele>31.8</ele>
        <time>2011-06-17T13:21:17Z</time>
      </trkpt>
      <trkpt lat="59.1993514806" lon="17.8038020959">
        <ele>32</ele>
        <time>2011-06-17T13:21:18Z</time>
      </trkpt>
      <trkpt lat="59.1992494729" lon="17.8036756969">
        <ele>32.4</ele>
        <time>2011-06-17T13:21:23Z</time>
      </trkpt>
      <trkpt lat="59.1991489739" lon="17.8035525668">
        <ele>32.6</ele>
        <time>2011-06-17T13:21:28Z</time>
      </trkpt>
      <trkpt lat="59.199129947" lon="17.8035368088">
        <ele>32.6</ele>
        <time>2011-06-17T13:21:29Z</time>
      </trkpt>
      <trkpt lat="59.1990579464" lon="17.8034321189">
        <ele>32.8</ele>
        <time>2011-06-17T13:21:33Z</time>
      </trkpt>
      <trkpt lat="59.1989607164" lon="17.8033155267">
        <ele>33</ele>
        <time>2011-06-17T13:21:38Z</time>
      </trkpt>
      <trkpt lat="59.1988756401" lon="17.8031888761">
        <ele>33</ele>
        <time>2011-06-17T13:21:43Z</time>
      </trkpt>
      <trkpt lat="59.1988620614" lon="17.8031644848">
        <ele>33</ele>
        <time>2011-06-17T13:21:44Z</time>
      </trkpt>
      <trkpt lat="59.1988328924" lon="17.8031202284">
        <ele>33</ele>
        <time>2011-06-17T13:21:46Z</time>
      </trkpt>
      <trkpt lat="59.1987654181" lon="17.8030474735">
        <ele>33</ele>
        <time>2011-06-17T13:21:49Z</time>
      </trkpt>
      <trkpt lat="59.1987423679" lon="17.8030237527">
        <ele>33</ele>
        <time>2011-06-17T13:21:50Z</time>
      </trkpt>
      <trkpt lat="59.1987067448" lon="17.8029475612">
        <ele>33</ele>
        <time>2011-06-17T13:21:53Z</time>
      </trkpt>
      <trkpt lat="59.1986513405" lon="17.8028567014">
        <ele>33</ele>
        <time>2011-06-17T13:21:57Z</time>
      </trkpt>
      <trkpt lat="59.1985300544" lon="17.8027220043">
        <ele>33</ele>
        <time>2011-06-17T13:22:02Z</time>
      </trkpt>
      <trkpt lat="59.1985130391" lon="17.802696691">
        <ele>33</ele>
        <time>2011-06-17T13:22:03Z</time>
      </trkpt>
      <trkpt lat="59.1983427189" lon="17.8025454815">
        <ele>33</ele>
        <time>2011-06-17T13:22:09Z</time>
      </trkpt>
      <trkpt lat="59.1982175771" lon="17.802397541">
        <ele>33</ele>
        <time>2011-06-17T13:22:14Z</time>
      </trkpt>
      <trkpt lat="59.1980787729" lon="17.8022408833">
        <ele>33</ele>
        <time>2011-06-17T13:22:19Z</time>
      </trkpt>
      <trkpt lat="59.1979538826" lon="17.8020812081">
        <ele>33</ele>
        <time>2011-06-17T13:22:24Z</time>
      </trkpt>
      <trkpt lat="59.1978737516" lon="17.8019564016">
        <ele>33</ele>
        <time>2011-06-17T13:22:28Z</time>
      </trkpt>
      <trkpt lat="59.1977987336" lon="17.8017621929">
        <ele>33</ele>
        <time>2011-06-17T13:22:33Z</time>
      </trkpt>
      <trkpt lat="59.1977729174" lon="17.8016378894">
        <ele>33</ele>
        <time>2011-06-17T13:22:36Z</time>
      </trkpt>
      <trkpt lat="59.1977469335" lon="17.8014385678">
        <ele>33</ele>
        <time>2011-06-17T13:22:41Z</time>
      </trkpt>
      <trkpt lat="59.1976866676" lon="17.8011110031">
        <ele>33</ele>
        <time>2011-06-17T13:22:48Z</time>
      </trkpt>
      <trkpt lat="59.197592036" lon="17.8008115178">
        <ele>33</ele>
        <time>2011-06-17T13:22:54Z</time>
      </trkpt>
      <trkpt lat="59.1974954765" lon="17.8005090151">
        <ele>33</ele>
        <time>2011-06-17T13:23:00Z</time>
      </trkpt>
      <trkpt lat="59.1974363841" lon="17.8001772595">
        <ele>33</ele>
        <time>2011-06-17T13:23:07Z</time>
      </trkpt>
      <trkpt lat="59.1974100649" lon="17.7998826357">
        <ele>33</ele>
        <time>2011-06-17T13:23:13Z</time>
      </trkpt>
      <trkpt lat="59.1974083047" lon="17.7996156722">
        <ele>33</ele>
        <time>2011-06-17T13:23:19Z</time>
      </trkpt>
      <trkpt lat="59.1974062092" lon="17.7995783727">
        <ele>33</ele>
        <time>2011-06-17T13:23:20Z</time>
      </trkpt>
      <trkpt lat="59.1973751962" lon="17.7995312664">
        <ele>33.2</ele>
        <time>2011-06-17T13:23:24Z</time>
      </trkpt>
      <trkpt lat="59.1973527327" lon="17.7995672248">
        <ele>33.8</ele>
        <time>2011-06-17T13:23:28Z</time>
      </trkpt>
      <trkpt lat="59.1973586" lon="17.7995995789">
        <ele>34.2</ele>
        <time>2011-06-17T13:23:30Z</time>
      </trkpt>
      <trkpt lat="59.1969675006" lon="17.7996248084">
        <ele>35</ele>
        <time>2011-06-17T13:23:49Z</time>
      </trkpt>
      <trkpt lat="59.1968880402" lon="17.7995171848">
        <ele>35</ele>
        <time>2011-06-17T13:23:52Z</time>
      </trkpt>
      <trkpt lat="59.1968579491" lon="17.7994399875">
        <ele>35</ele>
        <time>2011-06-17T13:23:54Z</time>
      </trkpt>
      <trkpt lat="59.1968553508" lon="17.7993943062">
        <ele>35</ele>
        <time>2011-06-17T13:23:55Z</time>
      </trkpt>
      <trkpt lat="59.1968493158" lon="17.7993032788">
        <ele>35</ele>
        <time>2011-06-17T13:23:57Z</time>
      </trkpt>
      <trkpt lat="59.1968214879" lon="17.7989344752">
        <ele>33.8</ele>
        <time>2011-06-17T13:24:05Z</time>
      </trkpt>
      <trkpt lat="59.1968053108" lon="17.7986637398">
        <ele>33.4</ele>
        <time>2011-06-17T13:24:11Z</time>
      </trkpt>
      <trkpt lat="59.1968025448" lon="17.7984786674">
        <ele>33.2</ele>
        <time>2011-06-17T13:24:16Z</time>
      </trkpt>
      <trkpt lat="59.1968136927" lon="17.7982754064">
        <ele>33.2</ele>
        <time>2011-06-17T13:24:21Z</time>
      </trkpt>
      <trkpt lat="59.1968188895" lon="17.798242717">
        <ele>33.2</ele>
        <time>2011-06-17T13:24:22Z</time>
      </trkpt>
      <trkpt lat="59.1968280258" lon="17.7980655236">
        <ele>33.2</ele>
        <time>2011-06-17T13:24:26Z</time>
      </trkpt>
      <trkpt lat="59.1968168778" lon="17.7979821237">
        <ele>33</ele>
        <time>2011-06-17T13:24:28Z</time>
      </trkpt>
      <trkpt lat="59.1967846913" lon="17.79767543">
        <ele>33</ele>
        <time>2011-06-17T13:24:35Z</time>
      </trkpt>
      <trkpt lat="59.1967526725" lon="17.7973764476">
        <ele>33</ele>
        <time>2011-06-17T13:24:41Z</time>
      </trkpt>
      <trkpt lat="59.1967248446" lon="17.7971016051">
        <ele>33</ele>
        <time>2011-06-17T13:24:47Z</time>
      </trkpt>
      <trkpt lat="59.1966917361" lon="17.7968938178">
        <ele>33</ele>
        <time>2011-06-17T13:24:52Z</time>
      </trkpt>
      <trkpt lat="59.1966520059" lon="17.7966850247">
        <ele>33</ele>
        <time>2011-06-17T13:24:57Z</time>
      </trkpt>
      <trkpt lat="59.1966422829" lon="17.796568181">
        <ele>33</ele>
        <time>2011-06-17T13:25:00Z</time>
      </trkpt>
      <trkpt lat="59.1966060731" lon="17.7963180651">
        <ele>33</ele>
        <time>2011-06-17T13:25:06Z</time>
      </trkpt>
      <trkpt lat="59.1965835257" lon="17.7961935939">
        <ele>33</ele>
        <time>2011-06-17T13:25:09Z</time>
      </trkpt>
      <trkpt lat="59.1965458072" lon="17.7959748263">
        <ele>32.8</ele>
        <time>2011-06-17T13:25:14Z</time>
      </trkpt>
      <trkpt lat="59.1965339887" lon="17.7958329207">
        <ele>32.4</ele>
        <time>2011-06-17T13:25:17Z</time>
      </trkpt>
      <trkpt lat="59.1964919116" lon="17.7955596708">
        <ele>31.6</ele>
        <time>2011-06-17T13:25:23Z</time>
      </trkpt>
      <trkpt lat="59.1964733038" lon="17.7953700722">
        <ele>31.4</ele>
        <time>2011-06-17T13:25:27Z</time>
      </trkpt>
      <trkpt lat="59.1964652571" lon="17.7953248937">
        <ele>31.4</ele>
        <time>2011-06-17T13:25:28Z</time>
      </trkpt>
      <trkpt lat="59.1964089308" lon="17.7951022705">
        <ele>31.2</ele>
        <time>2011-06-17T13:25:33Z</time>
      </trkpt>
      <trkpt lat="59.1963650934" lon="17.7948646436">
        <ele>31.2</ele>
        <time>2011-06-17T13:25:38Z</time>
      </trkpt>
      <trkpt lat="59.1963106949" lon="17.794522243">
        <ele>31</ele>
        <time>2011-06-17T13:25:45Z</time>
      </trkpt>
      <trkpt lat="59.1962840405" lon="17.7943225861">
        <ele>31</ele>
        <time>2011-06-17T13:25:50Z</time>
      </trkpt>
      <trkpt lat="59.1962656003" lon="17.7942642481">
        <ele>31</ele>
        <time>2011-06-17T13:25:52Z</time>
      </trkpt>
      <trkpt lat="59.1962269597" lon="17.7939407068">
        <ele>31</ele>
        <time>2011-06-17T13:25:59Z</time>
      </trkpt>
      <trkpt lat="59.1962044124" lon="17.7937557182">
        <ele>31</ele>
        <time>2011-06-17T13:26:03Z</time>
      </trkpt>
      <trkpt lat="59.1961413805" lon="17.7934227054">
        <ele>31</ele>
        <time>2011-06-17T13:26:10Z</time>
      </trkpt>
      <trkpt lat="59.1960810308" lon="17.793128333">
        <ele>31</ele>
        <time>2011-06-17T13:26:16Z</time>
      </trkpt>
      <trkpt lat="59.1960366068" lon="17.7928970764">
        <ele>31</ele>
        <time>2011-06-17T13:26:21Z</time>
      </trkpt>
      <trkpt lat="59.1959848904" lon="17.7926901273">
        <ele>31</ele>
        <time>2011-06-17T13:26:26Z</time>
      </trkpt>
      <trkpt lat="59.1959408017" lon="17.7924677555">
        <ele>31.8</ele>
        <time>2011-06-17T13:26:31Z</time>
      </trkpt>
      <trkpt lat="59.1958988083" lon="17.7921873809">
        <ele>32.4</ele>
        <time>2011-06-17T13:26:37Z</time>
      </trkpt>
      <trkpt lat="59.1958460024" lon="17.7919578007">
        <ele>32.6</ele>
        <time>2011-06-17T13:26:42Z</time>
      </trkpt>
      <trkpt lat="59.1957861556" lon="17.7917205929">
        <ele>32.8</ele>
        <time>2011-06-17T13:26:47Z</time>
      </trkpt>
      <trkpt lat="59.1957209444" lon="17.7914437388">
        <ele>33</ele>
        <time>2011-06-17T13:26:53Z</time>
      </trkpt>
      <trkpt lat="59.1956740896" lon="17.7912443334">
        <ele>33</ele>
        <time>2011-06-17T13:26:58Z</time>
      </trkpt>
      <trkpt lat="59.1956185176" lon="17.7909324429">
        <ele>33</ele>
        <time>2011-06-17T13:27:05Z</time>
      </trkpt>
      <trkpt lat="59.1955590899" lon="17.7906723525">
        <ele>33</ele>
        <time>2011-06-17T13:27:11Z</time>
      </trkpt>
      <trkpt lat="59.1955129895" lon="17.7903939896">
        <ele>33</ele>
        <time>2011-06-17T13:27:17Z</time>
      </trkpt>
      <trkpt lat="59.1954916156" lon="17.7901822628">
        <ele>33</ele>
        <time>2011-06-17T13:27:22Z</time>
      </trkpt>
      <trkpt lat="59.1954569146" lon="17.789956203">
        <ele>33</ele>
        <time>2011-06-17T13:27:27Z</time>
      </trkpt>
      <trkpt lat="59.1954088863" lon="17.7897021476">
        <ele>33</ele>
        <time>2011-06-17T13:27:33Z</time>
      </trkpt>
      <trkpt lat="59.1953959782" lon="17.7895027422">
        <ele>33</ele>
        <time>2011-06-17T13:27:38Z</time>
      </trkpt>
      <trkpt lat="59.1953782923" lon="17.789287495">
        <ele>33</ele>
        <time>2011-06-17T13:27:43Z</time>
      </trkpt>
      <trkpt lat="59.1953378916" lon="17.7890655423">
        <ele>33</ele>
        <time>2011-06-17T13:27:48Z</time>
      </trkpt>
      <trkpt lat="59.1953037773" lon="17.7888865049">
        <ele>33</ele>
        <time>2011-06-17T13:27:52Z</time>
      </trkpt>
      <trkpt lat="59.1952414159" lon="17.7886289291">
        <ele>33</ele>
        <time>2011-06-17T13:27:58Z</time>
      </trkpt>
      <trkpt lat="59.1951931362" lon="17.7884404202">
        <ele>33</ele>
        <time>2011-06-17T13:28:02Z</time>
      </trkpt>
      <trkpt lat="59.1951857601" lon="17.7884027016">
        <ele>33</ele>
        <time>2011-06-17T13:28:03Z</time>
      </trkpt>
      <trkpt lat="59.1951328703" lon="17.7881364925">
        <ele>33</ele>
        <time>2011-06-17T13:28:09Z</time>
      </trkpt>
      <trkpt lat="59.1951117479" lon="17.7879819302">
        <ele>33</ele>
        <time>2011-06-17T13:28:13Z</time>
      </trkpt>
      <trkpt lat="59.1950830818" lon="17.7878308884">
        <ele>33</ele>
        <time>2011-06-17T13:28:17Z</time>
      </trkpt>
      <trkpt lat="59.1950327904" lon="17.7876013082">
        <ele>33</ele>
        <time>2011-06-17T13:28:23Z</time>
      </trkpt>
      <trkpt lat="59.1949927249" lon="17.78739394">
        <ele>33</ele>
        <time>2011-06-17T13:28:28Z</time>
      </trkpt>
      <trkpt lat="59.1949907133" lon="17.7873558023">
        <ele>33</ele>
        <time>2011-06-17T13:28:29Z</time>
      </trkpt>
      <trkpt lat="59.1949736142" lon="17.7871165829">
        <ele>33</ele>
        <time>2011-06-17T13:28:35Z</time>
      </trkpt>
      <trkpt lat="59.1949215626" lon="17.7868151698">
        <ele>33</ele>
        <time>2011-06-17T13:28:42Z</time>
      </trkpt>
      <trkpt lat="59.194889879" lon="17.786599252">
        <ele>33</ele>
        <time>2011-06-17T13:28:47Z</time>
      </trkpt>
      <trkpt lat="59.1948527472" lon="17.7864148502">
        <ele>33</ele>
        <time>2011-06-17T13:28:51Z</time>
      </trkpt>
      <trkpt lat="59.1948458741" lon="17.7863306121">
        <ele>33</ele>
        <time>2011-06-17T13:28:53Z</time>
      </trkpt>
      <trkpt lat="59.1948197225" lon="17.7861738706">
        <ele>33.8</ele>
        <time>2011-06-17T13:28:57Z</time>
      </trkpt>
      <trkpt lat="59.1947820878" lon="17.7859212401">
        <ele>34.4</ele>
        <time>2011-06-17T13:29:03Z</time>
      </trkpt>
      <trkpt lat="59.1947466324" lon="17.7857486568">
        <ele>34.6</ele>
        <time>2011-06-17T13:29:07Z</time>
      </trkpt>
      <trkpt lat="59.194686618" lon="17.7854883988">
        <ele>34.8</ele>
        <time>2011-06-17T13:29:13Z</time>
      </trkpt>
      <trkpt lat="59.1946355722" lon="17.785291508">
        <ele>35.8</ele>
        <time>2011-06-17T13:29:18Z</time>
      </trkpt>
      <trkpt lat="59.1945939141" lon="17.7851244567">
        <ele>36.2</ele>
        <time>2011-06-17T13:29:22Z</time>
      </trkpt>
      <trkpt lat="59.1945457182" lon="17.7849293261">
        <ele>36.6</ele>
        <time>2011-06-17T13:29:27Z</time>
      </trkpt>
      <trkpt lat="59.1944924093" lon="17.7847287472">
        <ele>36.8</ele>
        <time>2011-06-17T13:29:33Z</time>
      </trkpt>
      <trkpt lat="59.1944938343" lon="17.7846942976">
        <ele>36.8</ele>
        <time>2011-06-17T13:29:34Z</time>
      </trkpt>
      <trkpt lat="59.194448572" lon="17.7845316888">
        <ele>37.6</ele>
        <time>2011-06-17T13:29:38Z</time>
      </trkpt>
      <trkpt lat="59.1944158826" lon="17.7843638831">
        <ele>38.2</ele>
        <time>2011-06-17T13:29:42Z</time>
      </trkpt>
      <trkpt lat="59.1943722967" lon="17.7841546709">
        <ele>38.6</ele>
        <time>2011-06-17T13:29:47Z</time>
      </trkpt>
      <trkpt lat="59.1943306387" lon="17.783944369">
        <ele>39.4</ele>
        <time>2011-06-17T13:29:52Z</time>
      </trkpt>
      <trkpt lat="59.1943011344" lon="17.7837696064">
        <ele>40</ele>
        <time>2011-06-17T13:29:56Z</time>
      </trkpt>
      <trkpt lat="59.1942850411" lon="17.7837191474">
        <ele>40.2</ele>
        <time>2011-06-17T13:29:57Z</time>
      </trkpt>
      <trkpt lat="59.1942720492" lon="17.7835932512">
        <ele>40.4</ele>
        <time>2011-06-17T13:30:00Z</time>
      </trkpt>
      <trkpt lat="59.1942188241" lon="17.7833044948">
        <ele>40.8</ele>
        <time>2011-06-17T13:30:06Z</time>
      </trkpt>
      <trkpt lat="59.1941677783" lon="17.7831358509">
        <ele>41</ele>
        <time>2011-06-17T13:30:10Z</time>
      </trkpt>
      <trkpt lat="59.1941143856" lon="17.7829525388">
        <ele>41</ele>
        <time>2011-06-17T13:30:14Z</time>
      </trkpt>
      <trkpt lat="59.194063759" lon="17.7827631079">
        <ele>41</ele>
        <time>2011-06-17T13:30:18Z</time>
      </trkpt>
      <trkpt lat="59.1940411278" lon="17.7827214498">
        <ele>41.4</ele>
        <time>2011-06-17T13:30:19Z</time>
      </trkpt>
      <trkpt lat="59.1939788503" lon="17.7825558235">
        <ele>42</ele>
        <time>2011-06-17T13:30:23Z</time>
      </trkpt>
      <trkpt lat="59.1939278884" lon="17.7824602698">
        <ele>42.2</ele>
        <time>2011-06-17T13:30:25Z</time>
      </trkpt>
      <trkpt lat="59.1938511102" lon="17.7823606928">
        <ele>42.6</ele>
        <time>2011-06-17T13:30:29Z</time>
      </trkpt>
      <trkpt lat="59.1937258008" lon="17.7822710903">
        <ele>43</ele>
        <time>2011-06-17T13:30:35Z</time>
      </trkpt>
      <trkpt lat="59.1936394672" lon="17.7822342938">
        <ele>43</ele>
        <time>2011-06-17T13:30:39Z</time>
      </trkpt>
      <trkpt lat="59.1935286585" lon="17.7822038675">
        <ele>43.2</ele>
        <time>2011-06-17T13:30:44Z</time>
      </trkpt>
      <trkpt lat="59.1934119824" lon="17.7821848406">
        <ele>43.2</ele>
        <time>2011-06-17T13:30:49Z</time>
      </trkpt>
      <trkpt lat="59.1932844937" lon="17.7822044542">
        <ele>43.2</ele>
        <time>2011-06-17T13:30:54Z</time>
      </trkpt>
      <trkpt lat="59.1931767863" lon="17.7822195416">
        <ele>43.2</ele>
        <time>2011-06-17T13:30:59Z</time>
      </trkpt>
      <trkpt lat="59.1930997566" lon="17.7822303543">
        <ele>43.2</ele>
        <time>2011-06-17T13:31:03Z</time>
      </trkpt>
      <trkpt lat="59.1930179493" lon="17.7822546618">
        <ele>43.2</ele>
        <time>2011-06-17T13:31:07Z</time>
      </trkpt>
      <trkpt lat="59.1929035364" lon="17.7823026063">
        <ele>43.2</ele>
        <time>2011-06-17T13:31:12Z</time>
      </trkpt>
      <trkpt lat="59.1928845933" lon="17.7822908716">
        <ele>43.2</ele>
        <time>2011-06-17T13:31:13Z</time>
      </trkpt>
      <trkpt lat="59.1927856869" lon="17.7822580146">
        <ele>43.2</ele>
        <time>2011-06-17T13:31:17Z</time>
      </trkpt>
      <trkpt lat="59.1927623852" lon="17.7822500518">
        <ele>43.2</ele>
        <time>2011-06-17T13:31:18Z</time>
      </trkpt>
      <trkpt lat="59.1927141892" lon="17.7822194578">
        <ele>43.2</ele>
        <time>2011-06-17T13:31:20Z</time>
      </trkpt>
      <trkpt lat="59.1925949148" lon="17.7820332958">
        <ele>43.6</ele>
        <time>2011-06-17T13:31:25Z</time>
      </trkpt>
      <trkpt lat="59.1925777319" lon="17.7819929789">
        <ele>43.8</ele>
        <time>2011-06-17T13:31:26Z</time>
      </trkpt>
      <trkpt lat="59.1924974333" lon="17.7817431983">
        <ele>44.6</ele>
        <time>2011-06-17T13:31:32Z</time>
      </trkpt>
      <trkpt lat="59.1924737964" lon="17.7816547692">
        <ele>44.6</ele>
        <time>2011-06-17T13:31:34Z</time>
      </trkpt>
      <trkpt lat="59.1924487345" lon="17.7815234248">
        <ele>44.8</ele>
        <time>2011-06-17T13:31:37Z</time>
      </trkpt>
      <trkpt lat="59.1923375067" lon="17.7814532683">
        <ele>45</ele>
        <time>2011-06-17T13:31:42Z</time>
      </trkpt>
      <trkpt lat="59.1923174739" lon="17.781451089">
        <ele>45</ele>
        <time>2011-06-17T13:31:43Z</time>
      </trkpt>
      <trkpt lat="59.1922107723" lon="17.7814654221">
        <ele>45.2</ele>
        <time>2011-06-17T13:31:48Z</time>
      </trkpt>
      <trkpt lat="59.1921248579" lon="17.7815584612">
        <ele>45.2</ele>
        <time>2011-06-17T13:31:52Z</time>
      </trkpt>
      <trkpt lat="59.192070627" lon="17.7816416096">
        <ele>45.2</ele>
        <time>2011-06-17T13:31:55Z</time>
      </trkpt>
      <trkpt lat="59.1919867241" lon="17.7818120137">
        <ele>45.2</ele>
        <time>2011-06-17T13:32:01Z</time>
      </trkpt>
      <trkpt lat="59.1919174058" lon="17.7819079864">
        <ele>44.8</ele>
        <time>2011-06-17T13:32:05Z</time>
      </trkpt>
      <trkpt lat="59.1918403762" lon="17.7819145243">
        <ele>44.4</ele>
        <time>2011-06-17T13:32:08Z</time>
      </trkpt>
      <trkpt lat="59.1917728181" lon="17.781721573">
        <ele>44</ele>
        <time>2011-06-17T13:32:13Z</time>
      </trkpt>
      <trkpt lat="59.191776087" lon="17.7816729579">
        <ele>44</ele>
        <time>2011-06-17T13:32:14Z</time>
      </trkpt>
      <trkpt lat="59.1917809485" lon="17.7814670147">
        <ele>43.6</ele>
        <time>2011-06-17T13:32:19Z</time>
      </trkpt>
      <trkpt lat="59.191774243" lon="17.7814202437">
        <ele>43.6</ele>
        <time>2011-06-17T13:32:20Z</time>
      </trkpt>
      <trkpt lat="59.1917082774" lon="17.7811786773">
        <ele>43.4</ele>
        <time>2011-06-17T13:32:26Z</time>
      </trkpt>
      <trkpt lat="59.1916644401" lon="17.7810512724">
        <ele>43.4</ele>
        <time>2011-06-17T13:32:29Z</time>
      </trkpt>
      <trkpt lat="59.1915802858" lon="17.7808532919">
        <ele>42.6</ele>
        <time>2011-06-17T13:32:34Z</time>
      </trkpt>
      <trkpt lat="59.1914946228" lon="17.7806724105">
        <ele>42</ele>
        <time>2011-06-17T13:32:38Z</time>
      </trkpt>
      <trkpt lat="59.1913953811" lon="17.7804787886">
        <ele>41.8</ele>
        <time>2011-06-17T13:32:43Z</time>
      </trkpt>
      <trkpt lat="59.1913640328" lon="17.7802980749">
        <ele>41.4</ele>
        <time>2011-06-17T13:32:47Z</time>
      </trkpt>
      <trkpt lat="59.1913407311" lon="17.7801532356">
        <ele>40.8</ele>
        <time>2011-06-17T13:32:50Z</time>
      </trkpt>
      <trkpt lat="59.1913118136" lon="17.779879399">
        <ele>40</ele>
        <time>2011-06-17T13:32:56Z</time>
      </trkpt>
      <trkpt lat="59.191292619" lon="17.7797924787">
        <ele>39.8</ele>
        <time>2011-06-17T13:32:58Z</time>
      </trkpt>
      <trkpt lat="59.191259762" lon="17.7795728729">
        <ele>39.6</ele>
        <time>2011-06-17T13:33:03Z</time>
      </trkpt>
      <trkpt lat="59.1912188583" lon="17.7792953482">
        <ele>39.4</ele>
        <time>2011-06-17T13:33:09Z</time>
      </trkpt>
      <trkpt lat="59.1911925391" lon="17.779065265">
        <ele>39.4</ele>
        <time>2011-06-17T13:33:14Z</time>
      </trkpt>
      <trkpt lat="59.1911348716" lon="17.7788299013">
        <ele>39.2</ele>
        <time>2011-06-17T13:33:19Z</time>
      </trkpt>
      <trkpt lat="59.1910965664" lon="17.7786745847">
        <ele>39.2</ele>
        <time>2011-06-17T13:33:23Z</time>
      </trkpt>
      <trkpt lat="59.1910686546" lon="17.7785483533">
        <ele>39.2</ele>
        <time>2011-06-17T13:33:26Z</time>
      </trkpt>
      <trkpt lat="59.1910396533" lon="17.7784156678">
        <ele>39.2</ele>
        <time>2011-06-17T13:33:29Z</time>
      </trkpt>
      <trkpt lat="59.1910088917" lon="17.7783378837">
        <ele>39.2</ele>
        <time>2011-06-17T13:33:31Z</time>
      </trkpt>
      <trkpt lat="59.1909246536" lon="17.7780647176">
        <ele>39.2</ele>
        <time>2011-06-17T13:33:38Z</time>
      </trkpt>
      <trkpt lat="59.190902693" lon="17.777951562">
        <ele>39.2</ele>
        <time>2011-06-17T13:33:41Z</time>
      </trkpt>
      <trkpt lat="59.1908779664" lon="17.7778368976">
        <ele>39.2</ele>
        <time>2011-06-17T13:33:44Z</time>
      </trkpt>
      <trkpt lat="59.1908241546" lon="17.7776058924">
        <ele>39.2</ele>
        <time>2011-06-17T13:33:50Z</time>
      </trkpt>
      <trkpt lat="59.1907876095" lon="17.7774511625">
        <ele>39.2</ele>
        <time>2011-06-17T13:33:54Z</time>
      </trkpt>
      <trkpt lat="59.1907775513" lon="17.7774124382">
        <ele>39.2</ele>
        <time>2011-06-17T13:33:55Z</time>
      </trkpt>
      <trkpt lat="59.1907296068" lon="17.7772313053">
        <ele>39.2</ele>
        <time>2011-06-17T13:33:59Z</time>
      </trkpt>
      <trkpt lat="59.1907177883" lon="17.7771812654">
        <ele>39.2</ele>
        <time>2011-06-17T13:34:00Z</time>
      </trkpt>
      <trkpt lat="59.1906632221" lon="17.7769516013">
        <ele>39.2</ele>
        <time>2011-06-17T13:34:05Z</time>
      </trkpt>
      <trkpt lat="59.1906296107" lon="17.7767767549">
        <ele>39.2</ele>
        <time>2011-06-17T13:34:09Z</time>
      </trkpt>
      <trkpt lat="59.1906142718" lon="17.7766707238">
        <ele>39.2</ele>
        <time>2011-06-17T13:34:11Z</time>
      </trkpt>
      <trkpt lat="59.1905706021" lon="17.7764688877">
        <ele>39.2</ele>
        <time>2011-06-17T13:34:16Z</time>
      </trkpt>
      <trkpt lat="59.1905112583" lon="17.7763294967">
        <ele>39.2</ele>
        <time>2011-06-17T13:34:20Z</time>
      </trkpt>
      <trkpt lat="59.190494243" lon="17.7762860784">
        <ele>39.2</ele>
        <time>2011-06-17T13:34:21Z</time>
      </trkpt>
      <trkpt lat="59.1903825961" lon="17.7760176062">
        <ele>39.2</ele>
        <time>2011-06-17T13:34:27Z</time>
      </trkpt>
      <trkpt lat="59.1903308798" lon="17.7758894469">
        <ele>39.2</ele>
        <time>2011-06-17T13:34:30Z</time>
      </trkpt>
      <trkpt lat="59.1902845279" lon="17.775704626">
        <ele>39.2</ele>
        <time>2011-06-17T13:34:35Z</time>
      </trkpt>
      <trkpt lat="59.1902634893" lon="17.7756574359">
        <ele>39.2</ele>
        <time>2011-06-17T13:34:36Z</time>
      </trkpt>
      <trkpt lat="59.1902125274" lon="17.7754177136">
        <ele>39.2</ele>
        <time>2011-06-17T13:34:41Z</time>
      </trkpt>
      <trkpt lat="59.1902031396" lon="17.7753696015">
        <ele>39.2</ele>
        <time>2011-06-17T13:34:42Z</time>
      </trkpt>
      <trkpt lat="59.1901301333" lon="17.775171621">
        <ele>39.2</ele>
        <time>2011-06-17T13:34:46Z</time>
      </trkpt>
      <trkpt lat="59.1900827756" lon="17.7750304698">
        <ele>39</ele>
        <time>2011-06-17T13:34:49Z</time>
      </trkpt>
      <trkpt lat="59.1900264492" lon="17.7748219282">
        <ele>38.2</ele>
        <time>2011-06-17T13:34:54Z</time>
      </trkpt>
      <trkpt lat="59.1900134572" lon="17.7747771688">
        <ele>38</ele>
        <time>2011-06-17T13:34:55Z</time>
      </trkpt>
      <trkpt lat="59.1900175644" lon="17.7745072716">
        <ele>37.6</ele>
        <time>2011-06-17T13:35:01Z</time>
      </trkpt>
      <trkpt lat="59.1900678558" lon="17.7743604207">
        <ele>37.4</ele>
        <time>2011-06-17T13:35:05Z</time>
      </trkpt>
      <trkpt lat="59.1901290436" lon="17.7741716604">
        <ele>37.2</ele>
        <time>2011-06-17T13:35:10Z</time>
      </trkpt>
      <trkpt lat="59.1901161355" lon="17.774019026">
        <ele>37.2</ele>
        <time>2011-06-17T13:35:14Z</time>
      </trkpt>
      <trkpt lat="59.1901054067" lon="17.7739340335">
        <ele>37.2</ele>
        <time>2011-06-17T13:35:16Z</time>
      </trkpt>
      <trkpt lat="59.1900313107" lon="17.773687438">
        <ele>37.2</ele>
        <time>2011-06-17T13:35:22Z</time>
      </trkpt>
      <trkpt lat="59.1899758225" lon="17.7734577739">
        <ele>37.2</ele>
        <time>2011-06-17T13:35:27Z</time>
      </trkpt>
      <trkpt lat="59.1899679435" lon="17.7734084045">
        <ele>37.2</ele>
        <time>2011-06-17T13:35:28Z</time>
      </trkpt>
      <trkpt lat="59.1899109466" lon="17.7732203985">
        <ele>37</ele>
        <time>2011-06-17T13:35:32Z</time>
      </trkpt>
      <trkpt lat="59.189897787" lon="17.7731788243">
        <ele>37</ele>
        <time>2011-06-17T13:35:33Z</time>
      </trkpt>
      <trkpt lat="59.1898522733" lon="17.7730220828">
        <ele>37</ele>
        <time>2011-06-17T13:35:37Z</time>
      </trkpt>
      <trkpt lat="59.1898367668" lon="17.7729997869">
        <ele>37</ele>
        <time>2011-06-17T13:35:38Z</time>
      </trkpt>
      <trkpt lat="59.1897353458" lon="17.7728329871">
        <ele>37.4</ele>
        <time>2011-06-17T13:35:44Z</time>
      </trkpt>
      <trkpt lat="59.189694526" lon="17.7727733918">
        <ele>37.8</ele>
        <time>2011-06-17T13:35:46Z</time>
      </trkpt>
      <trkpt lat="59.1895959548" lon="17.772682532">
        <ele>38.2</ele>
        <time>2011-06-17T13:35:51Z</time>
      </trkpt>
      <trkpt lat="59.1895752515" lon="17.772671887">
        <ele>38.4</ele>
        <time>2011-06-17T13:35:52Z</time>
      </trkpt>
      <trkpt lat="59.1894285683" lon="17.7726071787">
        <ele>38.8</ele>
        <time>2011-06-17T13:35:59Z</time>
      </trkpt>
      <trkpt lat="59.1893591661" lon="17.7725669456">
        <ele>38.8</ele>
        <time>2011-06-17T13:36:03Z</time>
      </trkpt>
      <trkpt lat="59.1892705694" lon="17.7725068474">
        <ele>39</ele>
        <time>2011-06-17T13:36:07Z</time>
      </trkpt>
      <trkpt lat="59.1892480221" lon="17.7725016506">
        <ele>39</ele>
        <time>2011-06-17T13:36:08Z</time>
      </trkpt>
      <trkpt lat="59.1891603475" lon="17.7724427258">
        <ele>39</ele>
        <time>2011-06-17T13:36:12Z</time>
      </trkpt>
      <trkpt lat="59.1890620278" lon="17.7723625111">
        <ele>39</ele>
        <time>2011-06-17T13:36:16Z</time>
      </trkpt>
      <trkpt lat="59.1890306795" lon="17.7723403828">
        <ele>39</ele>
        <time>2011-06-17T13:36:17Z</time>
      </trkpt>
      <trkpt lat="59.18893873" lon="17.7722293227">
        <ele>39</ele>
        <time>2011-06-17T13:36:22Z</time>
      </trkpt>
      <trkpt lat="59.1888532346" lon="17.7721265606">
        <ele>39</ele>
        <time>2011-06-17T13:36:25Z</time>
      </trkpt>
      <trkpt lat="59.1887749477" lon="17.7720363713">
        <ele>39</ele>
        <time>2011-06-17T13:36:29Z</time>
      </trkpt>
      <trkpt lat="59.1887057132" lon="17.7718751036">
        <ele>39.2</ele>
        <time>2011-06-17T13:36:33Z</time>
      </trkpt>
      <trkpt lat="59.1886397477" lon="17.7716511392">
        <ele>39.2</ele>
        <time>2011-06-17T13:36:38Z</time>
      </trkpt>
      <trkpt lat="59.1885935634" lon="17.7714655639">
        <ele>39.2</ele>
        <time>2011-06-17T13:36:42Z</time>
      </trkpt>
      <trkpt lat="59.1885403383" lon="17.7712657394">
        <ele>39.2</ele>
        <time>2011-06-17T13:36:46Z</time>
      </trkpt>
      <trkpt lat="59.1884848501" lon="17.7710615564">
        <ele>39.2</ele>
        <time>2011-06-17T13:36:50Z</time>
      </trkpt>
      <trkpt lat="59.1884756301" lon="17.771011265">
        <ele>39.2</ele>
        <time>2011-06-17T13:36:51Z</time>
      </trkpt>
      <trkpt lat="59.1884529151" lon="17.7708185651">
        <ele>39.2</ele>
        <time>2011-06-17T13:36:55Z</time>
      </trkpt>
      <trkpt lat="59.1884917233" lon="17.7706591413">
        <ele>39.2</ele>
        <time>2011-06-17T13:36:59Z</time>
      </trkpt>
      <trkpt lat="59.1885580241" lon="17.7703946086">
        <ele>39.2</ele>
        <time>2011-06-17T13:37:05Z</time>
      </trkpt>
      <trkpt lat="59.1885934796" lon="17.7702896672">
        <ele>39.2</ele>
        <time>2011-06-17T13:37:08Z</time>
      </trkpt>
      <trkpt lat="59.1886330421" lon="17.7701226159">
        <ele>39.2</ele>
        <time>2011-06-17T13:37:12Z</time>
      </trkpt>
      <trkpt lat="59.1887176993" lon="17.7698789541">
        <ele>39.2</ele>
        <time>2011-06-17T13:37:18Z</time>
      </trkpt>
      <trkpt lat="59.1887353013" lon="17.7698380504">
        <ele>39.2</ele>
        <time>2011-06-17T13:37:19Z</time>
      </trkpt>
      <trkpt lat="59.1887637998" lon="17.7697532256">
        <ele>39.2</ele>
        <time>2011-06-17T13:37:21Z</time>
      </trkpt>
      <trkpt lat="59.1888145941" lon="17.7695732662">
        <ele>39.2</ele>
        <time>2011-06-17T13:37:25Z</time>
      </trkpt>
      <trkpt lat="59.1888327828" lon="17.7694772096">
        <ele>39</ele>
        <time>2011-06-17T13:37:27Z</time>
      </trkpt>
      <trkpt lat="59.1888764525" lon="17.7692625492">
        <ele>38.2</ele>
        <time>2011-06-17T13:37:32Z</time>
      </trkpt>
      <trkpt lat="59.1889686534" lon="17.7691049694">
        <ele>37.8</ele>
        <time>2011-06-17T13:37:37Z</time>
      </trkpt>
      <trkpt lat="59.1889895243" lon="17.769081081">
        <ele>37.6</ele>
        <time>2011-06-17T13:37:38Z</time>
      </trkpt>
      <trkpt lat="59.1891270713" lon="17.7690252576">
        <ele>37.4</ele>
        <time>2011-06-17T13:37:44Z</time>
      </trkpt>
      <trkpt lat="59.1892239661" lon="17.7689886287">
        <ele>37.2</ele>
        <time>2011-06-17T13:37:49Z</time>
      </trkpt>
      <trkpt lat="59.189364782" lon="17.769041267">
        <ele>37.2</ele>
        <time>2011-06-17T13:37:55Z</time>
      </trkpt>
      <trkpt lat="59.1895396284" lon="17.7690374113">
        <ele>37.2</ele>
        <time>2011-06-17T13:38:02Z</time>
      </trkpt>
      <trkpt lat="59.1896829589" lon="17.7689441208">
        <ele>37.2</ele>
        <time>2011-06-17T13:38:08Z</time>
      </trkpt>
      <trkpt lat="59.1897672808" lon="17.7688544344">
        <ele>36.6</ele>
        <time>2011-06-17T13:38:12Z</time>
      </trkpt>
      <trkpt lat="59.1898554584" lon="17.7687231739">
        <ele>36</ele>
        <time>2011-06-17T13:38:17Z</time>
      </trkpt>
      <trkpt lat="59.1898793468" lon="17.7686976929">
        <ele>35.8</ele>
        <time>2011-06-17T13:38:18Z</time>
      </trkpt>
      <trkpt lat="59.1899677759" lon="17.768557799">
        <ele>35.6</ele>
        <time>2011-06-17T13:38:22Z</time>
      </trkpt>
      <trkpt lat="59.1900634134" lon="17.7684267061">
        <ele>35.4</ele>
        <time>2011-06-17T13:38:27Z</time>
      </trkpt>
      <trkpt lat="59.190160392" lon="17.7682838785">
        <ele>35.2</ele>
        <time>2011-06-17T13:38:32Z</time>
      </trkpt>
      <trkpt lat="59.1902028044" lon="17.7681594073">
        <ele>35.2</ele>
        <time>2011-06-17T13:38:35Z</time>
      </trkpt>
      <trkpt lat="59.1902287044" lon="17.7679266419">
        <ele>35.2</ele>
        <time>2011-06-17T13:38:40Z</time>
      </trkpt>
      <trkpt lat="59.1902394333" lon="17.7678355307">
        <ele>35.2</ele>
        <time>2011-06-17T13:38:42Z</time>
      </trkpt>
      <trkpt lat="59.1902563647" lon="17.7675751889">
        <ele>35</ele>
        <time>2011-06-17T13:38:47Z</time>
      </trkpt>
      <trkpt lat="59.1902370863" lon="17.7674114904">
        <ele>35</ele>
        <time>2011-06-17T13:38:50Z</time>
      </trkpt>
      <trkpt lat="59.19020666" lon="17.7672265018">
        <ele>35</ele>
        <time>2011-06-17T13:38:55Z</time>
      </trkpt>
      <trkpt lat="59.1902017985" lon="17.7670613784">
        <ele>35</ele>
        <time>2011-06-17T13:38:59Z</time>
      </trkpt>
      <trkpt lat="59.1901870464" lon="17.7668820057">
        <ele>35</ele>
        <time>2011-06-17T13:39:03Z</time>
      </trkpt>
      <trkpt lat="59.1901950092" lon="17.7667328079">
        <ele>35</ele>
        <time>2011-06-17T13:39:06Z</time>
      </trkpt>
      <trkpt lat="59.1901883875" lon="17.7665990328">
        <ele>35</ele>
        <time>2011-06-17T13:39:09Z</time>
      </trkpt>
      <trkpt lat="59.1902386789" lon="17.7663186582">
        <ele>35</ele>
        <time>2011-06-17T13:39:15Z</time>
      </trkpt>
      <trkpt lat="59.1903044768" lon="17.7661654371">
        <ele>35</ele>
        <time>2011-06-17T13:39:19Z</time>
      </trkpt>
      <trkpt lat="59.1903190613" lon="17.7661283891">
        <ele>35</ele>
        <time>2011-06-17T13:39:20Z</time>
      </trkpt>
      <trkpt lat="59.1903935764" lon="17.7659366951">
        <ele>35</ele>
        <time>2011-06-17T13:39:25Z</time>
      </trkpt>
      <trkpt lat="59.1904573627" lon="17.7657040135">
        <ele>35</ele>
        <time>2011-06-17T13:39:31Z</time>
      </trkpt>
      <trkpt lat="59.1904787365" lon="17.7656148301">
        <ele>35</ele>
        <time>2011-06-17T13:39:33Z</time>
      </trkpt>
      <trkpt lat="59.1905921436" lon="17.7653546559">
        <ele>35</ele>
        <time>2011-06-17T13:39:40Z</time>
      </trkpt>
      <trkpt lat="59.1906770523" lon="17.7651602797">
        <ele>35</ele>
        <time>2011-06-17T13:39:45Z</time>
      </trkpt>
      <trkpt lat="59.1907762101" lon="17.764866075">
        <ele>35</ele>
        <time>2011-06-17T13:39:52Z</time>
      </trkpt>
      <trkpt lat="59.1907882801" lon="17.7648230758">
        <ele>35</ele>
        <time>2011-06-17T13:39:53Z</time>
      </trkpt>
      <trkpt lat="59.1908802295" lon="17.7646086668">
        <ele>35</ele>
        <time>2011-06-17T13:39:59Z</time>
      </trkpt>
      <trkpt lat="59.1909487096" lon="17.7643780808">
        <ele>35</ele>
        <time>2011-06-17T13:40:04Z</time>
      </trkpt>
      <trkpt lat="59.1909745259" lon="17.7642875562">
        <ele>35.4</ele>
        <time>2011-06-17T13:40:06Z</time>
      </trkpt>
      <trkpt lat="59.1910131665" lon="17.764051019">
        <ele>36.2</ele>
        <time>2011-06-17T13:40:11Z</time>
      </trkpt>
      <trkpt lat="59.1910281701" lon="17.7639760848">
        <ele>36.4</ele>
        <time>2011-06-17T13:40:13Z</time>
      </trkpt>
      <trkpt lat="59.191106457" lon="17.7636827183">
        <ele>36.8</ele>
        <time>2011-06-17T13:40:20Z</time>
      </trkpt>
      <trkpt lat="59.1911316027" lon="17.7635200257">
        <ele>36.8</ele>
        <time>2011-06-17T13:40:24Z</time>
      </trkpt>
      <trkpt lat="59.1911458519" lon="17.7634815527">
        <ele>36.8</ele>
        <time>2011-06-17T13:40:25Z</time>
      </trkpt>
      <trkpt lat="59.1912031003" lon="17.763324895">
        <ele>37</ele>
        <time>2011-06-17T13:40:29Z</time>
      </trkpt>
      <trkpt lat="59.1912701555" lon="17.7630559198">
        <ele>37</ele>
        <time>2011-06-17T13:40:35Z</time>
      </trkpt>
      <trkpt lat="59.1913046051" lon="17.7629838355">
        <ele>37</ele>
        <time>2011-06-17T13:40:37Z</time>
      </trkpt>
      <trkpt lat="59.1913803775" lon="17.7628353082">
        <ele>37</ele>
        <time>2011-06-17T13:40:41Z</time>
      </trkpt>
      <trkpt lat="59.1914419845" lon="17.7626933189">
        <ele>37</ele>
        <time>2011-06-17T13:40:44Z</time>
      </trkpt>
      <trkpt lat="59.1914883364" lon="17.762573793">
        <ele>37</ele>
        <time>2011-06-17T13:40:47Z</time>
      </trkpt>
      <trkpt lat="59.1915740832" lon="17.7623821827">
        <ele>37</ele>
        <time>2011-06-17T13:40:52Z</time>
      </trkpt>
      <trkpt lat="59.1916152383" lon="17.7621658459">
        <ele>37</ele>
        <time>2011-06-17T13:40:57Z</time>
      </trkpt>
      <trkpt lat="59.1916263024" lon="17.7621314801">
        <ele>37</ele>
        <time>2011-06-17T13:40:58Z</time>
      </trkpt>
      <trkpt lat="59.1916554715" lon="17.7620516006">
        <ele>37</ele>
        <time>2011-06-17T13:41:00Z</time>
      </trkpt>
      <trkpt lat="59.19173116" lon="17.7618659415">
        <ele>37</ele>
        <time>2011-06-17T13:41:05Z</time>
      </trkpt>
      <trkpt lat="59.1917468342" lon="17.7618279715">
        <ele>37</ele>
        <time>2011-06-17T13:41:06Z</time>
      </trkpt>
      <trkpt lat="59.1918144761" lon="17.7616359422">
        <ele>37</ele>
        <time>2011-06-17T13:41:11Z</time>
      </trkpt>
      <trkpt lat="59.1917988858" lon="17.7613855748">
        <ele>36.4</ele>
        <time>2011-06-17T13:41:16Z</time>
      </trkpt>
      <trkpt lat="59.1917895819" lon="17.761210896">
        <ele>36</ele>
        <time>2011-06-17T13:41:20Z</time>
      </trkpt>
      <trkpt lat="59.1918007298" lon="17.7611889354">
        <ele>35.6</ele>
        <time>2011-06-17T13:41:24Z</time>
      </trkpt>
      <trkpt lat="59.1918014842" lon="17.7611660529">
        <ele>32</ele>
        <time>2011-06-17T13:41:47Z</time>
      </trkpt>
      <trkpt lat="59.1917860615" lon="17.7610452697">
        <ele>31.4</ele>
        <time>2011-06-17T13:41:54Z</time>
      </trkpt>
      <trkpt lat="59.1917786854" lon="17.7609637138">
        <ele>31.2</ele>
        <time>2011-06-17T13:41:59Z</time>
      </trkpt>
      <trkpt lat="59.1917608319" lon="17.7608452775">
        <ele>30.6</ele>
        <time>2011-06-17T13:42:05Z</time>
      </trkpt>
      <trkpt lat="59.1917593232" lon="17.7608171982">
        <ele>30.4</ele>
        <time>2011-06-17T13:42:06Z</time>
      </trkpt>
      <trkpt lat="59.1917558028" lon="17.7606053876">
        <ele>29.8</ele>
        <time>2011-06-17T13:42:11Z</time>
      </trkpt>
      <trkpt lat="59.1917474209" lon="17.760561634">
        <ele>29.6</ele>
        <time>2011-06-17T13:42:12Z</time>
      </trkpt>
      <trkpt lat="59.1917067687" lon="17.7602846961">
        <ele>29.2</ele>
        <time>2011-06-17T13:42:18Z</time>
      </trkpt>
      <trkpt lat="59.1916529569" lon="17.7600490809">
        <ele>29</ele>
        <time>2011-06-17T13:42:23Z</time>
      </trkpt>
      <trkpt lat="59.1915569841" lon="17.7598232725">
        <ele>29</ele>
        <time>2011-06-17T13:42:29Z</time>
      </trkpt>
      <trkpt lat="59.191464448" lon="17.7596502701">
        <ele>29</ele>
        <time>2011-06-17T13:42:34Z</time>
      </trkpt>
      <trkpt lat="59.1913729176" lon="17.7594481825">
        <ele>28.8</ele>
        <time>2011-06-17T13:42:40Z</time>
      </trkpt>
      <trkpt lat="59.1913256437" lon="17.7592448376">
        <ele>28.8</ele>
        <time>2011-06-17T13:42:45Z</time>
      </trkpt>
      <trkpt lat="59.1913305052" lon="17.759203431">
        <ele>28.8</ele>
        <time>2011-06-17T13:42:46Z</time>
      </trkpt>
      <trkpt lat="59.1913818024" lon="17.7590608549">
        <ele>28.8</ele>
        <time>2011-06-17T13:42:49Z</time>
      </trkpt>
      <trkpt lat="59.1914868276" lon="17.7588997547">
        <ele>28.8</ele>
        <time>2011-06-17T13:42:54Z</time>
      </trkpt>
      <trkpt lat="59.1915483508" lon="17.758773691">
        <ele>28.8</ele>
        <time>2011-06-17T13:42:58Z</time>
      </trkpt>
      <trkpt lat="59.1916545494" lon="17.7586029517">
        <ele>28.8</ele>
        <time>2011-06-17T13:43:03Z</time>
      </trkpt>
      <trkpt lat="59.1917760032" lon="17.7583996068">
        <ele>29.2</ele>
        <time>2011-06-17T13:43:09Z</time>
      </trkpt>
      <trkpt lat="59.1918741552" lon="17.7582427814">
        <ele>29.8</ele>
        <time>2011-06-17T13:43:14Z</time>
      </trkpt>
      <trkpt lat="59.1919097783" lon="17.7581920709">
        <ele>30</ele>
        <time>2011-06-17T13:43:16Z</time>
      </trkpt>
      <trkpt lat="59.1919598182" lon="17.758054021">
        <ele>30.4</ele>
        <time>2011-06-17T13:43:21Z</time>
      </trkpt>
      <trkpt lat="59.1920408712" lon="17.7578767438">
        <ele>30.6</ele>
        <time>2011-06-17T13:43:27Z</time>
      </trkpt>
      <trkpt lat="59.1921282106" lon="17.7577018974">
        <ele>30.8</ele>
        <time>2011-06-17T13:43:32Z</time>
      </trkpt>
      <trkpt lat="59.1921425437" lon="17.7576713873">
        <ele>30.8</ele>
        <time>2011-06-17T13:43:33Z</time>
      </trkpt>
      <trkpt lat="59.1922284581" lon="17.7574659469">
        <ele>30.8</ele>
        <time>2011-06-17T13:43:38Z</time>
      </trkpt>
      <trkpt lat="59.1923255205" lon="17.7572888374">
        <ele>30.8</ele>
        <time>2011-06-17T13:43:43Z</time>
      </trkpt>
      <trkpt lat="59.192420236" lon="17.7570292499">
        <ele>31.8</ele>
        <time>2011-06-17T13:43:50Z</time>
      </trkpt>
      <trkpt lat="59.1924282826" lon="17.7569853288">
        <ele>31.8</ele>
        <time>2011-06-17T13:43:51Z</time>
      </trkpt>
      <trkpt lat="59.1924683481" lon="17.7568694071">
        <ele>32.2</ele>
        <time>2011-06-17T13:43:54Z</time>
      </trkpt>
      <trkpt lat="59.1925162088" lon="17.7565825785">
        <ele>32.4</ele>
        <time>2011-06-17T13:44:00Z</time>
      </trkpt>
      <trkpt lat="59.1925315476" lon="17.756493898">
        <ele>32.6</ele>
        <time>2011-06-17T13:44:02Z</time>
      </trkpt>
      <trkpt lat="59.1925444558" lon="17.7563987634">
        <ele>32.6</ele>
        <time>2011-06-17T13:44:04Z</time>
      </trkpt>
      <trkpt lat="59.1925793245" lon="17.7562086619">
        <ele>32.6</ele>
        <time>2011-06-17T13:44:08Z</time>
      </trkpt>
      <trkpt lat="59.1925961721" lon="17.7560342346">
        <ele>32.8</ele>
        <time>2011-06-17T13:44:12Z</time>
      </trkpt>
      <trkpt lat="59.1926017041" lon="17.7559774891">
        <ele>32.8</ele>
        <time>2011-06-17T13:44:13Z</time>
      </trkpt>
      <trkpt lat="59.1926390036" lon="17.7557408681">
        <ele>32.8</ele>
        <time>2011-06-17T13:44:18Z</time>
      </trkpt>
      <trkpt lat="59.192652247" lon="17.7554892434">
        <ele>32.8</ele>
        <time>2011-06-17T13:44:23Z</time>
      </trkpt>
      <trkpt lat="59.1926629758" lon="17.7553356032">
        <ele>32.8</ele>
        <time>2011-06-17T13:44:26Z</time>
      </trkpt>
      <trkpt lat="59.1926748781" lon="17.7550324299">
        <ele>32.8</ele>
        <time>2011-06-17T13:44:32Z</time>
      </trkpt>
      <trkpt lat="59.19267865" lon="17.754822128">
        <ele>32.8</ele>
        <time>2011-06-17T13:44:36Z</time>
      </trkpt>
      <trkpt lat="59.1926828409" lon="17.7545507221">
        <ele>32.8</ele>
        <time>2011-06-17T13:44:41Z</time>
      </trkpt>
      <trkpt lat="59.1926937374" lon="17.7543941482">
        <ele>33.4</ele>
        <time>2011-06-17T13:44:44Z</time>
      </trkpt>
      <trkpt lat="59.1927380777" lon="17.7540630632">
        <ele>34.2</ele>
        <time>2011-06-17T13:44:51Z</time>
      </trkpt>
      <trkpt lat="59.1927675819" lon="17.7537764022">
        <ele>34.6</ele>
        <time>2011-06-17T13:44:57Z</time>
      </trkpt>
      <trkpt lat="59.1927944878" lon="17.7534243624">
        <ele>34.8</ele>
        <time>2011-06-17T13:45:04Z</time>
      </trkpt>
      <trkpt lat="59.192816197" lon="17.7532387871">
        <ele>34.8</ele>
        <time>2011-06-17T13:45:08Z</time>
      </trkpt>
      <trkpt lat="59.1928769657" lon="17.7529553113">
        <ele>34.8</ele>
        <time>2011-06-17T13:45:15Z</time>
      </trkpt>
      <trkpt lat="59.1929192105" lon="17.7527296705">
        <ele>34.8</ele>
        <time>2011-06-17T13:45:20Z</time>
      </trkpt>
      <trkpt lat="59.192974112" lon="17.7525166864">
        <ele>34.8</ele>
        <time>2011-06-17T13:45:25Z</time>
      </trkpt>
      <trkpt lat="59.1929936418" lon="17.7524840808">
        <ele>34.8</ele>
        <time>2011-06-17T13:45:26Z</time>
      </trkpt>
      <trkpt lat="59.193029181" lon="17.7522826638">
        <ele>34.8</ele>
        <time>2011-06-17T13:45:31Z</time>
      </trkpt>
      <trkpt lat="59.1930196257" lon="17.7521326278">
        <ele>34.8</ele>
        <time>2011-06-17T13:45:34Z</time>
      </trkpt>
      <trkpt lat="59.1930252416" lon="17.7520730325">
        <ele>34.8</ele>
        <time>2011-06-17T13:45:35Z</time>
      </trkpt>
      <trkpt lat="59.1930741919" lon="17.7517235072">
        <ele>34.8</ele>
        <time>2011-06-17T13:45:43Z</time>
      </trkpt>
      <trkpt lat="59.1931013492" lon="17.7514961063">
        <ele>34</ele>
        <time>2011-06-17T13:45:48Z</time>
      </trkpt>
      <trkpt lat="59.1931178615" lon="17.7512599882">
        <ele>33.6</ele>
        <time>2011-06-17T13:45:53Z</time>
      </trkpt>
      <trkpt lat="59.1931200408" lon="17.7509529592">
        <ele>33.2</ele>
        <time>2011-06-17T13:45:59Z</time>
      </trkpt>
      <trkpt lat="59.1931401574" lon="17.7507558169">
        <ele>33.2</ele>
        <time>2011-06-17T13:46:03Z</time>
      </trkpt>
      <trkpt lat="59.1931587652" lon="17.7505188606">
        <ele>33</ele>
        <time>2011-06-17T13:46:08Z</time>
      </trkpt>
      <trkpt lat="59.1931839109" lon="17.7502964888">
        <ele>33</ele>
        <time>2011-06-17T13:46:13Z</time>
      </trkpt>
      <trkpt lat="59.1931886048" lon="17.7501510628">
        <ele>33</ele>
        <time>2011-06-17T13:46:16Z</time>
      </trkpt>
      <trkpt lat="59.1932075479" lon="17.7498991867">
        <ele>33.4</ele>
        <time>2011-06-17T13:46:22Z</time>
      </trkpt>
      <trkpt lat="59.1932064582" lon="17.7496831013">
        <ele>34</ele>
        <time>2011-06-17T13:46:27Z</time>
      </trkpt>
      <trkpt lat="59.1932282512" lon="17.7495042316">
        <ele>34.4</ele>
        <time>2011-06-17T13:46:31Z</time>
      </trkpt>
      <trkpt lat="59.1932872597" lon="17.7492346697">
        <ele>34.6</ele>
        <time>2011-06-17T13:46:38Z</time>
      </trkpt>
      <trkpt lat="59.1932746869" lon="17.7491096955">
        <ele>34.8</ele>
        <time>2011-06-17T13:46:41Z</time>
      </trkpt>
      <trkpt lat="59.1933370482" lon="17.7489067697">
        <ele>34.8</ele>
        <time>2011-06-17T13:46:47Z</time>
      </trkpt>
      <trkpt lat="59.193349202" lon="17.7488895868">
        <ele>34.8</ele>
        <time>2011-06-17T13:46:48Z</time>
      </trkpt>
      <trkpt lat="59.1933434185" lon="17.7488394631">
        <ele>34.8</ele>
        <time>2011-06-17T13:46:52Z</time>
      </trkpt>
      <trkpt lat="59.1933307618" lon="17.7487974698">
        <ele>34.8</ele>
        <time>2011-06-17T13:46:54Z</time>
      </trkpt>
      <trkpt lat="59.1932929594" lon="17.7486165884">
        <ele>34.2</ele>
        <time>2011-06-17T13:46:59Z</time>
      </trkpt>
      <trkpt lat="59.1932861701" lon="17.7485683086">
        <ele>34</ele>
        <time>2011-06-17T13:47:00Z</time>
      </trkpt>
      <trkpt lat="59.1932586775" lon="17.7483356271">
        <ele>33.6</ele>
        <time>2011-06-17T13:47:05Z</time>
      </trkpt>
      <trkpt lat="59.1932184443" lon="17.7480941445">
        <ele>33.2</ele>
        <time>2011-06-17T13:47:11Z</time>
      </trkpt>
      <trkpt lat="59.1932109006" lon="17.7480591082">
        <ele>33.2</ele>
        <time>2011-06-17T13:47:12Z</time>
      </trkpt>
      <trkpt lat="59.1931725115" lon="17.7477602096">
        <ele>33</ele>
        <time>2011-06-17T13:47:18Z</time>
      </trkpt>
      <trkpt lat="59.1931302668" lon="17.7476098383">
        <ele>33</ele>
        <time>2011-06-17T13:47:21Z</time>
      </trkpt>
      <trkpt lat="59.1930912071" lon="17.7474160488">
        <ele>33</ele>
        <time>2011-06-17T13:47:25Z</time>
      </trkpt>
      <trkpt lat="59.1930739404" lon="17.747327536">
        <ele>33</ele>
        <time>2011-06-17T13:47:27Z</time>
      </trkpt>
      <trkpt lat="59.1930171111" lon="17.7471026496">
        <ele>33</ele>
        <time>2011-06-17T13:47:33Z</time>
      </trkpt>
      <trkpt lat="59.1929917978" lon="17.7469651864">
        <ele>32.8</ele>
        <time>2011-06-17T13:47:36Z</time>
      </trkpt>
      <trkpt lat="59.1929346332" lon="17.7466725743">
        <ele>32.8</ele>
        <time>2011-06-17T13:47:42Z</time>
      </trkpt>
      <trkpt lat="59.1928843418" lon="17.7464689779">
        <ele>32.8</ele>
        <time>2011-06-17T13:47:46Z</time>
      </trkpt>
      <trkpt lat="59.1928245789" lon="17.7462849114">
        <ele>32.8</ele>
        <time>2011-06-17T13:47:51Z</time>
      </trkpt>
      <trkpt lat="59.1927796519" lon="17.7461193689">
        <ele>32.8</ele>
        <time>2011-06-17T13:47:55Z</time>
      </trkpt>
      <trkpt lat="59.192700862" lon="17.7458903754">
        <ele>32.8</ele>
        <time>2011-06-17T13:48:00Z</time>
      </trkpt>
      <trkpt lat="59.1926596231" lon="17.7457257549">
        <ele>32.8</ele>
        <time>2011-06-17T13:48:04Z</time>
      </trkpt>
      <trkpt lat="59.1926165401" lon="17.7455537583">
        <ele>32.8</ele>
        <time>2011-06-17T13:48:08Z</time>
      </trkpt>
      <trkpt lat="59.1925307933" lon="17.7453088392">
        <ele>32.8</ele>
        <time>2011-06-17T13:48:14Z</time>
      </trkpt>
      <trkpt lat="59.1925190586" lon="17.745266762">
        <ele>32.8</ele>
        <time>2011-06-17T13:48:15Z</time>
      </trkpt>
      <trkpt lat="59.1925616387" lon="17.7451252755">
        <ele>32.8</ele>
        <time>2011-06-17T13:48:19Z</time>
      </trkpt>
      <trkpt lat="59.1926229942" lon="17.7451241021">
        <ele>32.8</ele>
        <time>2011-06-17T13:48:21Z</time>
      </trkpt>
      <trkpt lat="59.1927802386" lon="17.7451197435">
        <ele>32.8</ele>
        <time>2011-06-17T13:48:26Z</time>
      </trkpt>
      <trkpt lat="59.1928357268" lon="17.7450599805">
        <ele>32.8</ele>
        <time>2011-06-17T13:48:29Z</time>
      </trkpt>
      <trkpt lat="59.1928844256" lon="17.7449179073">
        <ele>32.8</ele>
        <time>2011-06-17T13:48:35Z</time>
      </trkpt>
      <trkpt lat="59.1928951545" lon="17.7449006406">
        <ele>32.8</ele>
        <time>2011-06-17T13:48:36Z</time>
      </trkpt>
      <trkpt lat="59.1929895347" lon="17.744747168">
        <ele>32.8</ele>
        <time>2011-06-17T13:48:45Z</time>
      </trkpt>
      <trkpt lat="59.1930415863" lon="17.7446124709">
        <ele>32.8</ele>
        <time>2011-06-17T13:48:51Z</time>
      </trkpt>
      <trkpt lat="59.193047705" lon="17.7445900074">
        <ele>32.8</ele>
        <time>2011-06-17T13:48:52Z</time>
      </trkpt>
      <trkpt lat="59.1930392393" lon="17.7443473514">
        <ele>32.8</ele>
        <time>2011-06-17T13:49:00Z</time>
      </trkpt>
      <trkpt lat="59.1930189551" lon="17.7441803001">
        <ele>32.8</ele>
        <time>2011-06-17T13:49:06Z</time>
      </trkpt>
      <trkpt lat="59.1929645566" lon="17.7439425895">
        <ele>32.8</ele>
        <time>2011-06-17T13:49:15Z</time>
      </trkpt>
      <trkpt lat="59.1929311966" lon="17.74379138">
        <ele>32.8</ele>
        <time>2011-06-17T13:49:23Z</time>
      </trkpt>
      <trkpt lat="59.1928943163" lon="17.7436845946">
        <ele>32.8</ele>
        <time>2011-06-17T13:49:28Z</time>
      </trkpt>
      <trkpt lat="59.1928383252" lon="17.7435802399">
        <ele>32.8</ele>
        <time>2011-06-17T13:49:34Z</time>
      </trkpt>
      <trkpt lat="59.1928010257" lon="17.7434945769">
        <ele>32.8</ele>
        <time>2011-06-17T13:49:38Z</time>
      </trkpt>
      <trkpt lat="59.1927135187" lon="17.7433306269">
        <ele>32.8</ele>
        <time>2011-06-17T13:49:47Z</time>
      </trkpt>
      <trkpt lat="59.192692983" lon="17.7432888013">
        <ele>32.8</ele>
        <time>2011-06-17T13:49:50Z</time>
      </trkpt>
      <trkpt lat="59.1926773927" lon="17.7432794974">
        <ele>32.8</ele>
        <time>2011-06-17T13:49:53Z</time>
      </trkpt>
      <trkpt lat="59.1926081582" lon="17.7431506675">
        <ele>32.8</ele>
        <time>2011-06-17T13:49:58Z</time>
      </trkpt>
      <trkpt lat="59.1924798313" lon="17.7429112805">
        <ele>32.8</ele>
        <time>2011-06-17T13:50:04Z</time>
      </trkpt>
      <trkpt lat="59.1923660889" lon="17.7427207599">
        <ele>32.8</ele>
        <time>2011-06-17T13:50:09Z</time>
      </trkpt>
      <trkpt lat="59.1922751453" lon="17.742520181">
        <ele>32.8</ele>
        <time>2011-06-17T13:50:14Z</time>
      </trkpt>
      <trkpt lat="59.1921811842" lon="17.7421945442">
        <ele>32.8</ele>
        <time>2011-06-17T13:50:21Z</time>
      </trkpt>
      <trkpt lat="59.1921479919" lon="17.7419849129">
        <ele>32.8</ele>
        <time>2011-06-17T13:50:25Z</time>
      </trkpt>
      <trkpt lat="59.192119242" lon="17.7416858467">
        <ele>32.8</ele>
        <time>2011-06-17T13:50:31Z</time>
      </trkpt>
      <trkpt lat="59.1920984549" lon="17.741341183">
        <ele>32.8</ele>
        <time>2011-06-17T13:50:38Z</time>
      </trkpt>
      <trkpt lat="59.1920556234" lon="17.7410738842">
        <ele>32.8</ele>
        <time>2011-06-17T13:50:43Z</time>
      </trkpt>
      <trkpt lat="59.1920332437" lon="17.7408185715">
        <ele>32.8</ele>
        <time>2011-06-17T13:50:48Z</time>
      </trkpt>
      <trkpt lat="59.1920083494" lon="17.7405764184">
        <ele>32.8</ele>
        <time>2011-06-17T13:50:53Z</time>
      </trkpt>
      <trkpt lat="59.1919773364" lon="17.7403546333">
        <ele>32.8</ele>
        <time>2011-06-17T13:50:58Z</time>
      </trkpt>
      <trkpt lat="59.1919611593" lon="17.740056573">
        <ele>32.8</ele>
        <time>2011-06-17T13:51:04Z</time>
      </trkpt>
      <trkpt lat="59.191965937" lon="17.7397661401">
        <ele>32.8</ele>
        <time>2011-06-17T13:51:10Z</time>
      </trkpt>
      <trkpt lat="59.1919713014" lon="17.7394780542">
        <ele>32.8</ele>
        <time>2011-06-17T13:51:16Z</time>
      </trkpt>
      <trkpt lat="59.1919912504" lon="17.739174378">
        <ele>32.8</ele>
        <time>2011-06-17T13:51:22Z</time>
      </trkpt>
      <trkpt lat="59.1920319864" lon="17.7389343204">
        <ele>32.8</ele>
        <time>2011-06-17T13:51:27Z</time>
      </trkpt>
      <trkpt lat="59.1921136261" lon="17.7386711287">
        <ele>32.8</ele>
        <time>2011-06-17T13:51:33Z</time>
      </trkpt>
      <trkpt lat="59.1921986186" lon="17.7384113736">
        <ele>32.8</ele>
        <time>2011-06-17T13:51:39Z</time>
      </trkpt>
      <trkpt lat="59.1922874667" lon="17.738213477">
        <ele>32.8</ele>
        <time>2011-06-17T13:51:44Z</time>
      </trkpt>
      <trkpt lat="59.1923666757" lon="17.7380141554">
        <ele>32.8</ele>
        <time>2011-06-17T13:51:49Z</time>
      </trkpt>
      <trkpt lat="59.1924385924" lon="17.7378223775">
        <ele>32.8</ele>
        <time>2011-06-17T13:51:54Z</time>
      </trkpt>
      <trkpt lat="59.1925276082" lon="17.7375793024">
        <ele>32.8</ele>
        <time>2011-06-17T13:52:00Z</time>
      </trkpt>
      <trkpt lat="59.192606398" lon="17.737380819">
        <ele>32.8</ele>
        <time>2011-06-17T13:52:05Z</time>
      </trkpt>
      <trkpt lat="59.1926646522" lon="17.7372251672">
        <ele>32.8</ele>
        <time>2011-06-17T13:52:09Z</time>
      </trkpt>
      <trkpt lat="59.1927227388" lon="17.7370708564">
        <ele>32.8</ele>
        <time>2011-06-17T13:52:13Z</time>
      </trkpt>
      <trkpt lat="59.1927753771" lon="17.736859884">
        <ele>32.8</ele>
        <time>2011-06-17T13:52:18Z</time>
      </trkpt>
      <trkpt lat="59.1928230701" lon="17.7366376798">
        <ele>32.8</ele>
        <time>2011-06-17T13:52:23Z</time>
      </trkpt>
      <trkpt lat="59.1928509819" lon="17.7365585547">
        <ele>32.8</ele>
        <time>2011-06-17T13:52:25Z</time>
      </trkpt>
      <trkpt lat="59.1928946516" lon="17.7364016455">
        <ele>32.8</ele>
        <time>2011-06-17T13:52:29Z</time>
      </trkpt>
      <trkpt lat="59.1929431828" lon="17.7362359353">
        <ele>32.8</ele>
        <time>2011-06-17T13:52:33Z</time>
      </trkpt>
      <trkpt lat="59.1929558394" lon="17.7361926847">
        <ele>32.8</ele>
        <time>2011-06-17T13:52:34Z</time>
      </trkpt>
      <trkpt lat="59.1930451905" lon="17.7358445844">
        <ele>32.8</ele>
        <time>2011-06-17T13:52:42Z</time>
      </trkpt>
      <trkpt lat="59.1931061269" lon="17.7355938818">
        <ele>32.8</ele>
        <time>2011-06-17T13:52:48Z</time>
      </trkpt>
      <trkpt lat="59.1931364694" lon="17.7354046185">
        <ele>32.8</ele>
        <time>2011-06-17T13:52:52Z</time>
      </trkpt>
      <trkpt lat="59.1931964" lon="17.7351731104">
        <ele>32.8</ele>
        <time>2011-06-17T13:52:57Z</time>
      </trkpt>
      <trkpt lat="59.1932568335" lon="17.7349126848">
        <ele>32.8</ele>
        <time>2011-06-17T13:53:03Z</time>
      </trkpt>
      <trkpt lat="59.193330678" lon="17.7346714537">
        <ele>32.8</ele>
        <time>2011-06-17T13:53:09Z</time>
      </trkpt>
      <trkpt lat="59.1934059475" lon="17.734372136">
        <ele>32.8</ele>
        <time>2011-06-17T13:53:16Z</time>
      </trkpt>
      <trkpt lat="59.1934279918" lon="17.7342258719">
        <ele>32.8</ele>
        <time>2011-06-17T13:53:19Z</time>
      </trkpt>
      <trkpt lat="59.1934748467" lon="17.7340908395">
        <ele>32.8</ele>
        <time>2011-06-17T13:53:23Z</time>
      </trkpt>
      <trkpt lat="59.1935103021" lon="17.733928063">
        <ele>32.8</ele>
        <time>2011-06-17T13:53:27Z</time>
      </trkpt>
      <trkpt lat="59.1935125652" lon="17.7338963794">
        <ele>32.8</ele>
        <time>2011-06-17T13:53:28Z</time>
      </trkpt>
      <trkpt lat="59.1935212824" lon="17.7337218682">
        <ele>32.8</ele>
        <time>2011-06-17T13:53:33Z</time>
      </trkpt>
      <trkpt lat="59.1935711547" lon="17.7335755203">
        <ele>32.8</ele>
        <time>2011-06-17T13:53:37Z</time>
      </trkpt>
      <trkpt lat="59.1936088733" lon="17.7335273243">
        <ele>32.8</ele>
        <time>2011-06-17T13:53:39Z</time>
      </trkpt>
      <trkpt lat="59.1936640262" lon="17.733397824">
        <ele>32.8</ele>
        <time>2011-06-17T13:53:43Z</time>
      </trkpt>
      <trkpt lat="59.1937414749" lon="17.7332812318">
        <ele>32.8</ele>
        <time>2011-06-17T13:53:47Z</time>
      </trkpt>
      <trkpt lat="59.1937554727" lon="17.7332554155">
        <ele>32.8</ele>
        <time>2011-06-17T13:53:48Z</time>
      </trkpt>
      <trkpt lat="59.1937954543" lon="17.7331910425">
        <ele>32.8</ele>
        <time>2011-06-17T13:53:50Z</time>
      </trkpt>
      <trkpt lat="59.1938895831" lon="17.7330415094">
        <ele>32.8</ele>
        <time>2011-06-17T13:53:55Z</time>
      </trkpt>
      <trkpt lat="59.1939351806" lon="17.7329488894">
        <ele>32.8</ele>
        <time>2011-06-17T13:53:58Z</time>
      </trkpt>
      <trkpt lat="59.1940380265" lon="17.7327422756">
        <ele>32.8</ele>
        <time>2011-06-17T13:54:04Z</time>
      </trkpt>
      <trkpt lat="59.1940959455" lon="17.7325976878">
        <ele>33.4</ele>
        <time>2011-06-17T13:54:08Z</time>
      </trkpt>
      <trkpt lat="59.1941682813" lon="17.732408676">
        <ele>34</ele>
        <time>2011-06-17T13:54:13Z</time>
      </trkpt>
      <trkpt lat="59.1941778366" lon="17.7323729691">
        <ele>34.2</ele>
        <time>2011-06-17T13:54:14Z</time>
      </trkpt>
      <trkpt lat="59.1942522679" lon="17.7321905789">
        <ele>34.4</ele>
        <time>2011-06-17T13:54:20Z</time>
      </trkpt>
      <trkpt lat="59.1943225082" lon="17.7320281377">
        <ele>34.6</ele>
        <time>2011-06-17T13:54:25Z</time>
      </trkpt>
      <trkpt lat="59.1943830255" lon="17.7318447417">
        <ele>35.4</ele>
        <time>2011-06-17T13:54:30Z</time>
      </trkpt>
      <trkpt lat="59.1944694429" lon="17.731589932">
        <ele>36.2</ele>
        <time>2011-06-17T13:54:37Z</time>
      </trkpt>
      <trkpt lat="59.1945297088" lon="17.7314225454">
        <ele>36.4</ele>
        <time>2011-06-17T13:54:42Z</time>
      </trkpt>
      <trkpt lat="59.1945368334" lon="17.7313854136">
        <ele>36.6</ele>
        <time>2011-06-17T13:54:43Z</time>
      </trkpt>
      <trkpt lat="59.1945896394" lon="17.7311888581">
        <ele>36.8</ele>
        <time>2011-06-17T13:54:48Z</time>
      </trkpt>
      <trkpt lat="59.1946044753" lon="17.7311476191">
        <ele>36.8</ele>
        <time>2011-06-17T13:54:49Z</time>
      </trkpt>
      <trkpt lat="59.194656946" lon="17.7309917996">
        <ele>36.8</ele>
        <time>2011-06-17T13:54:54Z</time>
      </trkpt>
      <trkpt lat="59.1947284436" lon="17.7307956631">
        <ele>36.8</ele>
        <time>2011-06-17T13:54:59Z</time>
      </trkpt>
      <trkpt lat="59.194789883" lon="17.7306038853">
        <ele>37</ele>
        <time>2011-06-17T13:55:04Z</time>
      </trkpt>
      <trkpt lat="59.1948476343" lon="17.7304097605">
        <ele>37</ele>
        <time>2011-06-17T13:55:09Z</time>
      </trkpt>
      <trkpt lat="59.19491075" lon="17.7301961058">
        <ele>37</ele>
        <time>2011-06-17T13:55:14Z</time>
      </trkpt>
      <trkpt lat="59.1949457863" lon="17.7299796013">
        <ele>37</ele>
        <time>2011-06-17T13:55:19Z</time>
      </trkpt>
      <trkpt lat="59.1949901266" lon="17.7297133084">
        <ele>37.8</ele>
        <time>2011-06-17T13:55:25Z</time>
      </trkpt>
      <trkpt lat="59.1950387416" lon="17.7294468478">
        <ele>38.4</ele>
        <time>2011-06-17T13:55:31Z</time>
      </trkpt>
      <trkpt lat="59.1950793938" lon="17.7291927086">
        <ele>38.8</ele>
        <time>2011-06-17T13:55:37Z</time>
      </trkpt>
      <trkpt lat="59.1951030307" lon="17.7289586859">
        <ele>38.8</ele>
        <time>2011-06-17T13:55:42Z</time>
      </trkpt>
      <trkpt lat="59.1951295175" lon="17.7286366533">
        <ele>39</ele>
        <time>2011-06-17T13:55:49Z</time>
      </trkpt>
      <trkpt lat="59.1951450241" lon="17.7283554406">
        <ele>39</ele>
        <time>2011-06-17T13:55:55Z</time>
      </trkpt>
      <trkpt lat="59.1951603629" lon="17.728009771">
        <ele>39</ele>
        <time>2011-06-17T13:56:02Z</time>
      </trkpt>
      <trkpt lat="59.195177462" lon="17.7277340903">
        <ele>39.6</ele>
        <time>2011-06-17T13:56:08Z</time>
      </trkpt>
      <trkpt lat="59.195177462" lon="17.7275094554">
        <ele>40.2</ele>
        <time>2011-06-17T13:56:13Z</time>
      </trkpt>
      <trkpt lat="59.1951761209" lon="17.7274100461">
        <ele>40.4</ele>
        <time>2011-06-17T13:56:15Z</time>
      </trkpt>
      <trkpt lat="59.1951604468" lon="17.7272236326">
        <ele>40.6</ele>
        <time>2011-06-17T13:56:19Z</time>
      </trkpt>
      <trkpt lat="59.1951599438" lon="17.7271391431">
        <ele>40.8</ele>
        <time>2011-06-17T13:56:21Z</time>
      </trkpt>
      <trkpt lat="59.1951520649" lon="17.7269745226">
        <ele>40.8</ele>
        <time>2011-06-17T13:56:25Z</time>
      </trkpt>
      <trkpt lat="59.1951572616" lon="17.7267266698">
        <ele>41</ele>
        <time>2011-06-17T13:56:31Z</time>
      </trkpt>
      <trkpt lat="59.1951537412" lon="17.7263989375">
        <ele>41</ele>
        <time>2011-06-17T13:56:38Z</time>
      </trkpt>
      <trkpt lat="59.1951450241" lon="17.7261813434">
        <ele>41</ele>
        <time>2011-06-17T13:56:43Z</time>
      </trkpt>
      <trkpt lat="59.1951485445" lon="17.7261316387">
        <ele>41</ele>
        <time>2011-06-17T13:56:44Z</time>
      </trkpt>
      <trkpt lat="59.195137648" lon="17.7258927545">
        <ele>41.4</ele>
        <time>2011-06-17T13:56:49Z</time>
      </trkpt>
      <trkpt lat="59.1951259133" lon="17.725710532">
        <ele>42</ele>
        <time>2011-06-17T13:56:53Z</time>
      </trkpt>
      <trkpt lat="59.1951079761" lon="17.7255009845">
        <ele>42.6</ele>
        <time>2011-06-17T13:56:58Z</time>
      </trkpt>
      <trkpt lat="59.1950647255" lon="17.725207618">
        <ele>43.8</ele>
        <time>2011-06-17T13:57:05Z</time>
      </trkpt>
      <trkpt lat="59.1950143502" lon="17.7249546523">
        <ele>44.6</ele>
        <time>2011-06-17T13:57:11Z</time>
      </trkpt>
      <trkpt lat="59.1949881987" lon="17.7247658919">
        <ele>45.6</ele>
        <time>2011-06-17T13:57:16Z</time>
      </trkpt>
      <trkpt lat="59.1949731951" lon="17.7246978309">
        <ele>46</ele>
        <time>2011-06-17T13:57:18Z</time>
      </trkpt>
      <trkpt lat="59.1949822476" lon="17.7247054584">
        <ele>46.4</ele>
        <time>2011-06-17T13:57:22Z</time>
      </trkpt>
      <trkpt lat="59.1949977541" lon="17.7247497987">
        <ele>47</ele>
        <time>2011-06-17T13:57:30Z</time>
      </trkpt>
      <trkpt lat="59.1950041243" lon="17.7247949771">
        <ele>47.2</ele>
        <time>2011-06-17T13:57:37Z</time>
      </trkpt>
      <trkpt lat="59.1949899589" lon="17.7247930493">
        <ele>47.4</ele>
        <time>2011-06-17T13:57:43Z</time>
      </trkpt>
      <trkpt lat="59.1949717702" lon="17.7247154329">
        <ele>46.8</ele>
        <time>2011-06-17T13:57:49Z</time>
      </trkpt>
      <trkpt lat="59.1949603708" lon="17.7246545803">
        <ele>46.4</ele>
        <time>2011-06-17T13:57:52Z</time>
      </trkpt>
      <trkpt lat="59.1949532462" lon="17.7245104116">
        <ele>46</ele>
        <time>2011-06-17T13:57:59Z</time>
      </trkpt>
      <trkpt lat="59.1949503125" lon="17.724484763">
        <ele>45.8</ele>
        <time>2011-06-17T13:58:00Z</time>
      </trkpt>
      <trkpt lat="59.1949236581" lon="17.7243466293">
        <ele>45.2</ele>
        <time>2011-06-17T13:58:06Z</time>
      </trkpt>
      <trkpt lat="59.1948941538" lon="17.7242425261">
        <ele>44.4</ele>
        <time>2011-06-17T13:58:11Z</time>
      </trkpt>
      <trkpt lat="59.1948873645" lon="17.7242163745">
        <ele>44.2</ele>
        <time>2011-06-17T13:58:12Z</time>
      </trkpt>
      <trkpt lat="59.1948683375" lon="17.7241059849">
        <ele>44</ele>
        <time>2011-06-17T13:58:15Z</time>
      </trkpt>
      <trkpt lat="59.194829697" lon="17.7238700344">
        <ele>43.8</ele>
        <time>2011-06-17T13:58:21Z</time>
      </trkpt>
      <trkpt lat="59.1947844347" lon="17.7236827828">
        <ele>43.6</ele>
        <time>2011-06-17T13:58:25Z</time>
      </trkpt>
      <trkpt lat="59.1947265996" lon="17.723469212">
        <ele>43.4</ele>
        <time>2011-06-17T13:58:30Z</time>
      </trkpt>
      <trkpt lat="59.1947063992" lon="17.7233903383">
        <ele>43.4</ele>
        <time>2011-06-17T13:58:32Z</time>
      </trkpt>
      <trkpt lat="59.1946148689" lon="17.7231068624">
        <ele>42.4</ele>
        <time>2011-06-17T13:58:39Z</time>
      </trkpt>
      <trkpt lat="59.1945306308" lon="17.7228790424">
        <ele>41.8</ele>
        <time>2011-06-17T13:58:45Z</time>
      </trkpt>
      <trkpt lat="59.1944421179" lon="17.722632866">
        <ele>41.6</ele>
        <time>2011-06-17T13:58:52Z</time>
      </trkpt>
      <trkpt lat="59.1943752304" lon="17.7224832491">
        <ele>41.6</ele>
        <time>2011-06-17T13:58:56Z</time>
      </trkpt>
      <trkpt lat="59.1943264477" lon="17.7223472947">
        <ele>41.4</ele>
        <time>2011-06-17T13:59:00Z</time>
      </trkpt>
      <trkpt lat="59.1942792576" lon="17.7222611287">
        <ele>41.4</ele>
        <time>2011-06-17T13:59:03Z</time>
      </trkpt>
      <trkpt lat="59.1942240209" lon="17.722109584">
        <ele>41.4</ele>
        <time>2011-06-17T13:59:08Z</time>
      </trkpt>
      <trkpt lat="59.1941409563" lon="17.7219292055">
        <ele>41.4</ele>
        <time>2011-06-17T13:59:13Z</time>
      </trkpt>
      <trkpt lat="59.1940687043" lon="17.7217559516">
        <ele>41.4</ele>
        <time>2011-06-17T13:59:18Z</time>
      </trkpt>
      <trkpt lat="59.1939920937" lon="17.7216214221">
        <ele>41.4</ele>
        <time>2011-06-17T13:59:22Z</time>
      </trkpt>
      <trkpt lat="59.1939032456" lon="17.7214894072">
        <ele>41.8</ele>
        <time>2011-06-17T13:59:26Z</time>
      </trkpt>
      <trkpt lat="59.1938343464" lon="17.7213680373">
        <ele>42.2</ele>
        <time>2011-06-17T13:59:30Z</time>
      </trkpt>
      <trkpt lat="59.1938115476" lon="17.7213253734">
        <ele>42.4</ele>
        <time>2011-06-17T13:59:31Z</time>
      </trkpt>
      <trkpt lat="59.1937258008" lon="17.7211831326">
        <ele>42.8</ele>
        <time>2011-06-17T13:59:36Z</time>
      </trkpt>
      <trkpt lat="59.1936540517" lon="17.7210850643">
        <ele>43</ele>
        <time>2011-06-17T13:59:40Z</time>
      </trkpt>
      <trkpt lat="59.1936355277" lon="17.7210582423">
        <ele>43</ele>
        <time>2011-06-17T13:59:41Z</time>
      </trkpt>
      <trkpt lat="59.1935262277" lon="17.7209053564">
        <ele>43.6</ele>
        <time>2011-06-17T13:59:47Z</time>
      </trkpt>
      <trkpt lat="59.1934186041" lon="17.7207489501">
        <ele>44.4</ele>
        <time>2011-06-17T13:59:52Z</time>
      </trkpt>
      <trkpt lat="59.1933704082" lon="17.7206570845">
        <ele>44.6</ele>
        <time>2011-06-17T13:59:56Z</time>
      </trkpt>
      <trkpt lat="59.1932992459" lon="17.7205491257">
        <ele>45.6</ele>
        <time>2011-06-17T14:00:00Z</time>
      </trkpt>
      <trkpt lat="59.1932248146" lon="17.7204366406">
        <ele>46.2</ele>
        <time>2011-06-17T14:00:04Z</time>
      </trkpt>
      <trkpt lat="59.1932127447" lon="17.7204052922">
        <ele>46.4</ele>
        <time>2011-06-17T14:00:05Z</time>
      </trkpt>
      <trkpt lat="59.1931291771" lon="17.7202861016">
        <ele>46.8</ele>
        <time>2011-06-17T14:00:09Z</time>
      </trkpt>
      <trkpt lat="59.1930475374" lon="17.7201715211">
        <ele>47</ele>
        <time>2011-06-17T14:00:14Z</time>
      </trkpt>
      <trkpt lat="59.1929440209" lon="17.7199910588">
        <ele>47.2</ele>
        <time>2011-06-17T14:00:19Z</time>
      </trkpt>
      <trkpt lat="59.192905548" lon="17.7197336506">
        <ele>47.4</ele>
        <time>2011-06-17T14:00:24Z</time>
      </trkpt>
      <trkpt lat="59.1929054642" lon="17.7195029807">
        <ele>47.4</ele>
        <time>2011-06-17T14:00:28Z</time>
      </trkpt>
      <trkpt lat="59.1929030335" lon="17.7194437207">
        <ele>47.4</ele>
        <time>2011-06-17T14:00:29Z</time>
      </trkpt>
      <trkpt lat="59.1929323701" lon="17.7191855582">
        <ele>47.4</ele>
        <time>2011-06-17T14:00:34Z</time>
      </trkpt>
      <trkpt lat="59.1929534087" lon="17.7190992246">
        <ele>47.4</ele>
        <time>2011-06-17T14:00:36Z</time>
      </trkpt>
      <trkpt lat="59.1929867686" lon="17.7188294951">
        <ele>47</ele>
        <time>2011-06-17T14:00:41Z</time>
      </trkpt>
      <trkpt lat="59.1930090645" lon="17.7186417405">
        <ele>46.2</ele>
        <time>2011-06-17T14:00:45Z</time>
      </trkpt>
      <trkpt lat="59.193010238" lon="17.7185904433">
        <ele>45.8</ele>
        <time>2011-06-17T14:00:46Z</time>
      </trkpt>
      <trkpt lat="59.1930090645" lon="17.7184769523">
        <ele>45.4</ele>
        <time>2011-06-17T14:00:48Z</time>
      </trkpt>
      <trkpt lat="59.1930026942" lon="17.7183311073">
        <ele>44.8</ele>
        <time>2011-06-17T14:00:51Z</time>
      </trkpt>
      <trkpt lat="59.1929397462" lon="17.7180009442">
        <ele>43</ele>
        <time>2011-06-17T14:00:58Z</time>
      </trkpt>
      <trkpt lat="59.1929039555" lon="17.7178550992">
        <ele>42.6</ele>
        <time>2011-06-17T14:01:01Z</time>
      </trkpt>
      <trkpt lat="59.1928280154" lon="17.7176252675">
        <ele>41.6</ele>
        <time>2011-06-17T14:01:07Z</time>
      </trkpt>
      <trkpt lat="59.1927849325" lon="17.7174634968">
        <ele>40.8</ele>
        <time>2011-06-17T14:01:11Z</time>
      </trkpt>
      <trkpt lat="59.1927222359" lon="17.7172399515">
        <ele>40</ele>
        <time>2011-06-17T14:01:17Z</time>
      </trkpt>
      <trkpt lat="59.1926442004" lon="17.7170548792">
        <ele>39.6</ele>
        <time>2011-06-17T14:01:22Z</time>
      </trkpt>
      <trkpt lat="59.1925732057" lon="17.7168550547">
        <ele>39.4</ele>
        <time>2011-06-17T14:01:27Z</time>
      </trkpt>
      <trkpt lat="59.1925175499" lon="17.7166222055">
        <ele>39.4</ele>
        <time>2011-06-17T14:01:33Z</time>
      </trkpt>
      <trkpt lat="59.1924714494" lon="17.7164994107">
        <ele>39.6</ele>
        <time>2011-06-17T14:01:36Z</time>
      </trkpt>
      <trkpt lat="59.1924547694" lon="17.7162350455">
        <ele>40.4</ele>
        <time>2011-06-17T14:01:42Z</time>
      </trkpt>
      <trkpt lat="59.1925270214" lon="17.7158929802">
        <ele>40.8</ele>
        <time>2011-06-17T14:01:49Z</time>
      </trkpt>
      <trkpt lat="59.1925995249" lon="17.7156747155">
        <ele>41</ele>
        <time>2011-06-17T14:01:54Z</time>
      </trkpt>
      <trkpt lat="59.1926677535" lon="17.7154634078">
        <ele>41</ele>
        <time>2011-06-17T14:01:59Z</time>
      </trkpt>
      <trkpt lat="59.1927478007" lon="17.7152763238">
        <ele>41.2</ele>
        <time>2011-06-17T14:02:04Z</time>
      </trkpt>
      <trkpt lat="59.1928261714" lon="17.7151245276">
        <ele>41.2</ele>
        <time>2011-06-17T14:02:08Z</time>
      </trkpt>
      <trkpt lat="59.1929216413" lon="17.7149697139">
        <ele>41.2</ele>
        <time>2011-06-17T14:02:13Z</time>
      </trkpt>
      <trkpt lat="59.1930155186" lon="17.7148107931">
        <ele>41.2</ele>
        <time>2011-06-17T14:02:18Z</time>
      </trkpt>
      <trkpt lat="59.1930611999" lon="17.7147262197">
        <ele>41.2</ele>
        <time>2011-06-17T14:02:21Z</time>
      </trkpt>
      <trkpt lat="59.1931388163" lon="17.7145687238">
        <ele>41.2</ele>
        <time>2011-06-17T14:02:26Z</time>
      </trkpt>
      <trkpt lat="59.1932752736" lon="17.7143312646">
        <ele>41.2</ele>
        <time>2011-06-17T14:02:33Z</time>
      </trkpt>
      <trkpt lat="59.1933973141" lon="17.714110653">
        <ele>41.2</ele>
        <time>2011-06-17T14:02:39Z</time>
      </trkpt>
      <trkpt lat="59.1934894312" lon="17.7139458648">
        <ele>41.2</ele>
        <time>2011-06-17T14:02:44Z</time>
      </trkpt>
      <trkpt lat="59.1935658741" lon="17.7138055518">
        <ele>41.2</ele>
        <time>2011-06-17T14:02:48Z</time>
      </trkpt>
      <trkpt lat="59.1936510342" lon="17.7136179649">
        <ele>41.2</ele>
        <time>2011-06-17T14:02:53Z</time>
      </trkpt>
      <trkpt lat="59.1937431513" lon="17.7134433699">
        <ele>41.2</ele>
        <time>2011-06-17T14:02:58Z</time>
      </trkpt>
      <trkpt lat="59.1938564746" lon="17.7132490775">
        <ele>41.2</ele>
        <time>2011-06-17T14:03:05Z</time>
      </trkpt>
      <trkpt lat="59.1939485078" lon="17.7131073396">
        <ele>41.2</ele>
        <time>2011-06-17T14:03:11Z</time>
      </trkpt>
      <trkpt lat="59.1939604101" lon="17.7130720518">
        <ele>41.2</ele>
        <time>2011-06-17T14:03:12Z</time>
      </trkpt>
      <trkpt lat="59.1939949436" lon="17.7129386957">
        <ele>41.2</ele>
        <time>2011-06-17T14:03:15Z</time>
      </trkpt>
      <trkpt lat="59.1940788464" lon="17.7127305732">
        <ele>41.2</ele>
        <time>2011-06-17T14:03:21Z</time>
      </trkpt>
      <trkpt lat="59.194129054" lon="17.7126487658">
        <ele>41.2</ele>
        <time>2011-06-17T14:03:24Z</time>
      </trkpt>
      <trkpt lat="59.1941995457" lon="17.7125134819">
        <ele>41.2</ele>
        <time>2011-06-17T14:03:29Z</time>
      </trkpt>
      <trkpt lat="59.1942177345" lon="17.7124813793">
        <ele>41.2</ele>
        <time>2011-06-17T14:03:30Z</time>
      </trkpt>
      <trkpt lat="59.1942650084" lon="17.7123714926">
        <ele>41.2</ele>
        <time>2011-06-17T14:03:34Z</time>
      </trkpt>
      <trkpt lat="59.1942958538" lon="17.7122949658">
        <ele>41.2</ele>
        <time>2011-06-17T14:03:36Z</time>
      </trkpt>
      <trkpt lat="59.1944002922" lon="17.71214208">
        <ele>41.2</ele>
        <time>2011-06-17T14:03:41Z</time>
      </trkpt>
      <trkpt lat="59.1944901462" lon="17.7120345402">
        <ele>41.2</ele>
        <time>2011-06-17T14:03:46Z</time>
      </trkpt>
      <trkpt lat="59.1945058204" lon="17.7120105679">
        <ele>41.2</ele>
        <time>2011-06-17T14:03:47Z</time>
      </trkpt>
      <trkpt lat="59.1945416111" lon="17.7119540739">
        <ele>41.2</ele>
        <time>2011-06-17T14:03:49Z</time>
      </trkpt>
      <trkpt lat="59.1946303754" lon="17.7118240707">
        <ele>41.2</ele>
        <time>2011-06-17T14:03:54Z</time>
      </trkpt>
      <trkpt lat="59.1946692674" lon="17.7117073946">
        <ele>41.2</ele>
        <time>2011-06-17T14:03:58Z</time>
      </trkpt>
      <trkpt lat="59.1947345624" lon="17.7115713564">
        <ele>41.2</ele>
        <time>2011-06-17T14:04:02Z</time>
      </trkpt>
      <trkpt lat="59.1947511586" lon="17.7115400081">
        <ele>41.2</ele>
        <time>2011-06-17T14:04:03Z</time>
      </trkpt>
      <trkpt lat="59.1947880389" lon="17.7114805804">
        <ele>41.2</ele>
        <time>2011-06-17T14:04:05Z</time>
      </trkpt>
      <trkpt lat="59.194836654" lon="17.7113255153">
        <ele>41.2</ele>
        <time>2011-06-17T14:04:09Z</time>
      </trkpt>
      <trkpt lat="59.1949041283" lon="17.7111632417">
        <ele>41.2</ele>
        <time>2011-06-17T14:04:14Z</time>
      </trkpt>
      <trkpt lat="59.1949337164" lon="17.7110966894">
        <ele>41.2</ele>
        <time>2011-06-17T14:04:16Z</time>
      </trkpt>
      <trkpt lat="59.1949996819" lon="17.7109018102">
        <ele>41.2</ele>
        <time>2011-06-17T14:04:21Z</time>
      </trkpt>
      <trkpt lat="59.1950562597" lon="17.7107169893">
        <ele>41.2</ele>
        <time>2011-06-17T14:04:26Z</time>
      </trkpt>
      <trkpt lat="59.1950740294" lon="17.7106844675">
        <ele>41.2</ele>
        <time>2011-06-17T14:04:27Z</time>
      </trkpt>
      <trkpt lat="59.195276117" lon="17.7104325076">
        <ele>41</ele>
        <time>2011-06-17T14:04:36Z</time>
      </trkpt>
      <trkpt lat="59.1954213753" lon="17.7102709046">
        <ele>40</ele>
        <time>2011-06-17T14:04:43Z</time>
      </trkpt>
      <trkpt lat="59.1955643705" lon="17.7101593415">
        <ele>39.8</ele>
        <time>2011-06-17T14:04:50Z</time>
      </trkpt>
      <trkpt lat="59.1956698148" lon="17.7100373849">
        <ele>39.2</ele>
        <time>2011-06-17T14:04:55Z</time>
      </trkpt>
      <trkpt lat="59.1957187651" lon="17.7099606905">
        <ele>38.8</ele>
        <time>2011-06-17T14:04:58Z</time>
      </trkpt>
      <trkpt lat="59.1958359441" lon="17.709791879">
        <ele>38</ele>
        <time>2011-06-17T14:05:04Z</time>
      </trkpt>
      <trkpt lat="59.1958747523" lon="17.7097148494">
        <ele>37.8</ele>
        <time>2011-06-17T14:05:06Z</time>
      </trkpt>
      <trkpt lat="59.1959722338" lon="17.7095576887">
        <ele>37.6</ele>
        <time>2011-06-17T14:05:11Z</time>
      </trkpt>
      <trkpt lat="59.1960762532" lon="17.7093975944">
        <ele>37.4</ele>
        <time>2011-06-17T14:05:17Z</time>
      </trkpt>
      <trkpt lat="59.196162922" lon="17.7092731232">
        <ele>36.4</ele>
        <time>2011-06-17T14:05:22Z</time>
      </trkpt>
      <trkpt lat="59.1962433044" lon="17.7091631527">
        <ele>36</ele>
        <time>2011-06-17T14:05:26Z</time>
      </trkpt>
      <trkpt lat="59.1963406183" lon="17.7090446326">
        <ele>35.6</ele>
        <time>2011-06-17T14:05:31Z</time>
      </trkpt>
      <trkpt lat="59.1964597251" lon="17.7088871367">
        <ele>34.8</ele>
        <time>2011-06-17T14:05:37Z</time>
      </trkpt>
      <trkpt lat="59.1965913209" lon="17.7087092728">
        <ele>34</ele>
        <time>2011-06-17T14:05:43Z</time>
      </trkpt>
      <trkpt lat="59.1966925743" lon="17.708605924">
        <ele>33.6</ele>
        <time>2011-06-17T14:05:48Z</time>
      </trkpt>
      <trkpt lat="59.1967742978" lon="17.7085049221">
        <ele>33.4</ele>
        <time>2011-06-17T14:05:52Z</time>
      </trkpt>
      <trkpt lat="59.1968792392" lon="17.7083318359">
        <ele>33.2</ele>
        <time>2011-06-17T14:05:58Z</time>
      </trkpt>
      <trkpt lat="59.1969606274" lon="17.7082340191">
        <ele>33.2</ele>
        <time>2011-06-17T14:06:02Z</time>
      </trkpt>
      <trkpt lat="59.197012679" lon="17.7080623578">
        <ele>33.2</ele>
        <time>2011-06-17T14:06:06Z</time>
      </trkpt>
      <trkpt lat="59.1970124276" lon="17.7078812249">
        <ele>33.2</ele>
        <time>2011-06-17T14:06:10Z</time>
      </trkpt>
      <trkpt lat="59.196986779" lon="17.7076745273">
        <ele>33.2</ele>
        <time>2011-06-17T14:06:14Z</time>
      </trkpt>
      <trkpt lat="59.1969732003" lon="17.707468584">
        <ele>33.2</ele>
        <time>2011-06-17T14:06:18Z</time>
      </trkpt>
      <trkpt lat="59.196980744" lon="17.7072303704">
        <ele>33.2</ele>
        <time>2011-06-17T14:06:23Z</time>
      </trkpt>
      <trkpt lat="59.1969834262" lon="17.7068807613">
        <ele>33.2</ele>
        <time>2011-06-17T14:06:30Z</time>
      </trkpt>
      <trkpt lat="59.1970035428" lon="17.7066416257">
        <ele>33.2</ele>
        <time>2011-06-17T14:06:35Z</time>
      </trkpt>
      <trkpt lat="59.1970829193" lon="17.7064843813">
        <ele>33</ele>
        <time>2011-06-17T14:06:40Z</time>
      </trkpt>
      <trkpt lat="59.1971873578" lon="17.7063602453">
        <ele>32.2</ele>
        <time>2011-06-17T14:06:46Z</time>
      </trkpt>
      <trkpt lat="59.1973013517" lon="17.7061518713">
        <ele>31.6</ele>
        <time>2011-06-17T14:06:52Z</time>
      </trkpt>
      <trkpt lat="59.1974400721" lon="17.705998734">
        <ele>31.4</ele>
        <time>2011-06-17T14:06:58Z</time>
      </trkpt>
      <trkpt lat="59.1974665589" lon="17.7059749294">
        <ele>31.2</ele>
        <time>2011-06-17T14:06:59Z</time>
      </trkpt>
      <trkpt lat="59.1975569158" lon="17.7058860813">
        <ele>31</ele>
        <time>2011-06-17T14:07:03Z</time>
      </trkpt>
      <trkpt lat="59.1976779504" lon="17.7057239753">
        <ele>30</ele>
        <time>2011-06-17T14:07:09Z</time>
      </trkpt>
      <trkpt lat="59.1976947142" lon="17.705695393">
        <ele>30</ele>
        <time>2011-06-17T14:07:10Z</time>
      </trkpt>
      <trkpt lat="59.1977902679" lon="17.7055746098">
        <ele>29.4</ele>
        <time>2011-06-17T14:07:15Z</time>
      </trkpt>
      <trkpt lat="59.1977999071" lon="17.7055487936">
        <ele>29.4</ele>
        <time>2011-06-17T14:07:16Z</time>
      </trkpt>
      <trkpt lat="59.1978232926" lon="17.7054942274">
        <ele>29.4</ele>
        <time>2011-06-17T14:07:18Z</time>
      </trkpt>
      <trkpt lat="59.1978452531" lon="17.7052347238">
        <ele>29.2</ele>
        <time>2011-06-17T14:07:24Z</time>
      </trkpt>
      <trkpt lat="59.1978348596" lon="17.7051866955">
        <ele>29.2</ele>
        <time>2011-06-17T14:07:25Z</time>
      </trkpt>
      <trkpt lat="59.1977856578" lon="17.704933646">
        <ele>29</ele>
        <time>2011-06-17T14:07:30Z</time>
      </trkpt>
      <trkpt lat="59.1977743423" lon="17.704863238">
        <ele>29</ele>
        <time>2011-06-17T14:07:32Z</time>
      </trkpt>
      <trkpt lat="59.197704521" lon="17.7047142078">
        <ele>29</ele>
        <time>2011-06-17T14:07:37Z</time>
      </trkpt>
      <trkpt lat="59.1976585882" lon="17.7046830271">
        <ele>29</ele>
        <time>2011-06-17T14:07:39Z</time>
      </trkpt>
      <trkpt lat="59.1975036907" lon="17.7046121163">
        <ele>29</ele>
        <time>2011-06-17T14:07:46Z</time>
      </trkpt>
      <trkpt lat="59.1973941393" lon="17.7045303089">
        <ele>29</ele>
        <time>2011-06-17T14:07:51Z</time>
      </trkpt>
      <trkpt lat="59.1973203786" lon="17.7043601564">
        <ele>29</ele>
        <time>2011-06-17T14:07:56Z</time>
      </trkpt>
      <trkpt lat="59.1973096497" lon="17.7042767565">
        <ele>29</ele>
        <time>2011-06-17T14:07:58Z</time>
      </trkpt>
      <trkpt lat="59.1973438479" lon="17.7040286522">
        <ele>29.6</ele>
        <time>2011-06-17T14:08:03Z</time>
      </trkpt>
      <trkpt lat="59.1973624557" lon="17.7037737586">
        <ele>30.2</ele>
        <time>2011-06-17T14:08:08Z</time>
      </trkpt>
      <trkpt lat="59.1973517269" lon="17.703556416">
        <ele>30.4</ele>
        <time>2011-06-17T14:08:13Z</time>
      </trkpt>
      <trkpt lat="59.1973585162" lon="17.7033523167">
        <ele>30.6</ele>
        <time>2011-06-17T14:08:17Z</time>
      </trkpt>
      <trkpt lat="59.1973864279" lon="17.7031203057">
        <ele>30.8</ele>
        <time>2011-06-17T14:08:22Z</time>
      </trkpt>
      <trkpt lat="59.1974266611" lon="17.7029030469">
        <ele>30.8</ele>
        <time>2011-06-17T14:08:27Z</time>
      </trkpt>
      <trkpt lat="59.1974300976" lon="17.7028605506">
        <ele>30.8</ele>
        <time>2011-06-17T14:08:28Z</time>
      </trkpt>
      <trkpt lat="59.1974538184" lon="17.7026022205">
        <ele>30.8</ele>
        <time>2011-06-17T14:08:34Z</time>
      </trkpt>
      <trkpt lat="59.1974724262" lon="17.7025490792">
        <ele>30.8</ele>
        <time>2011-06-17T14:08:35Z</time>
      </trkpt>
      <trkpt lat="59.1974917046" lon="17.7023870571">
        <ele>31</ele>
        <time>2011-06-17T14:08:39Z</time>
      </trkpt>
      <trkpt lat="59.1975169341" lon="17.7021853886">
        <ele>31.2</ele>
        <time>2011-06-17T14:08:44Z</time>
      </trkpt>
      <trkpt lat="59.1975591789" lon="17.7019423973">
        <ele>32</ele>
        <time>2011-06-17T14:08:50Z</time>
      </trkpt>
      <trkpt lat="59.197568399" lon="17.7019109652">
        <ele>32</ele>
        <time>2011-06-17T14:08:51Z</time>
      </trkpt>
      <trkpt lat="59.1975731767" lon="17.7018227038">
        <ele>32.2</ele>
        <time>2011-06-17T14:08:53Z</time>
      </trkpt>
      <trkpt lat="59.1976010884" lon="17.7016440017">
        <ele>32.4</ele>
        <time>2011-06-17T14:08:57Z</time>
      </trkpt>
      <trkpt lat="59.1976723346" lon="17.7013316921">
        <ele>32.8</ele>
        <time>2011-06-17T14:09:05Z</time>
      </trkpt>
      <trkpt lat="59.1976737595" lon="17.7012851725">
        <ele>32.8</ele>
        <time>2011-06-17T14:09:06Z</time>
      </trkpt>
      <trkpt lat="59.1976918644" lon="17.7010804865">
        <ele>32.8</ele>
        <time>2011-06-17T14:09:10Z</time>
      </trkpt>
      <trkpt lat="59.1977507053" lon="17.700764908">
        <ele>33</ele>
        <time>2011-06-17T14:09:17Z</time>
      </trkpt>
      <trkpt lat="59.1978019187" lon="17.7006126927">
        <ele>33</ele>
        <time>2011-06-17T14:09:21Z</time>
      </trkpt>
      <trkpt lat="59.1978622684" lon="17.7004002953">
        <ele>33</ele>
        <time>2011-06-17T14:09:26Z</time>
      </trkpt>
      <trkpt lat="59.1979538826" lon="17.7001687034">
        <ele>33</ele>
        <time>2011-06-17T14:09:32Z</time>
      </trkpt>
      <trkpt lat="59.1980145675" lon="17.6999959525">
        <ele>33</ele>
        <time>2011-06-17T14:09:36Z</time>
      </trkpt>
      <trkpt lat="59.1980853108" lon="17.6998647757">
        <ele>33</ele>
        <time>2011-06-17T14:09:40Z</time>
      </trkpt>
      <trkpt lat="59.1981751647" lon="17.6996860736">
        <ele>33</ele>
        <time>2011-06-17T14:09:45Z</time>
      </trkpt>
      <trkpt lat="59.1981858097" lon="17.6996621014">
        <ele>33</ele>
        <time>2011-06-17T14:09:46Z</time>
      </trkpt>
      <trkpt lat="59.1983220156" lon="17.6994042742">
        <ele>33</ele>
        <time>2011-06-17T14:09:53Z</time>
      </trkpt>
      <trkpt lat="59.1984168149" lon="17.6992591835">
        <ele>33</ele>
        <time>2011-06-17T14:09:58Z</time>
      </trkpt>
      <trkpt lat="59.1985211696" lon="17.6991060462">
        <ele>33</ele>
        <time>2011-06-17T14:10:03Z</time>
      </trkpt>
      <trkpt lat="59.198604318" lon="17.698916699">
        <ele>33</ele>
        <time>2011-06-17T14:10:08Z</time>
      </trkpt>
      <trkpt lat="59.1987026377" lon="17.6986730372">
        <ele>33</ele>
        <time>2011-06-17T14:10:14Z</time>
      </trkpt>
      <trkpt lat="59.1987809246" lon="17.6984932455">
        <ele>33</ele>
        <time>2011-06-17T14:10:19Z</time>
      </trkpt>
      <trkpt lat="59.1988531766" lon="17.6982906549">
        <ele>33</ele>
        <time>2011-06-17T14:10:24Z</time>
      </trkpt>
      <trkpt lat="59.1989229979" lon="17.6981157247">
        <ele>33</ele>
        <time>2011-06-17T14:10:29Z</time>
      </trkpt>
      <trkpt lat="59.1989732893" lon="17.697913218">
        <ele>32.6</ele>
        <time>2011-06-17T14:10:34Z</time>
      </trkpt>
      <trkpt lat="59.1990268496" lon="17.6976396328">
        <ele>31.8</ele>
        <time>2011-06-17T14:10:40Z</time>
      </trkpt>
      <trkpt lat="59.1990740397" lon="17.6974763533">
        <ele>31.4</ele>
        <time>2011-06-17T14:10:44Z</time>
      </trkpt>
      <trkpt lat="59.1991531648" lon="17.6972566637">
        <ele>31.2</ele>
        <time>2011-06-17T14:10:50Z</time>
      </trkpt>
      <trkpt lat="59.1991944876" lon="17.6971105672">
        <ele>31.2</ele>
        <time>2011-06-17T14:10:54Z</time>
      </trkpt>
      <trkpt lat="59.1992760435" lon="17.697003698">
        <ele>31</ele>
        <time>2011-06-17T14:10:59Z</time>
      </trkpt>
      <trkpt lat="59.1993539113" lon="17.6968761255">
        <ele>31</ele>
        <time>2011-06-17T14:11:05Z</time>
      </trkpt>
      <trkpt lat="59.1994308572" lon="17.6967850981">
        <ele>31</ele>
        <time>2011-06-17T14:11:09Z</time>
      </trkpt>
      <trkpt lat="59.1994997564" lon="17.6967014467">
        <ele>31</ele>
        <time>2011-06-17T14:11:12Z</time>
      </trkpt>
      <trkpt lat="59.1995680689" lon="17.6966415999">
        <ele>31</ele>
        <time>2011-06-17T14:11:15Z</time>
      </trkpt>
      <trkpt lat="59.1996792129" lon="17.6965321323">
        <ele>31</ele>
        <time>2011-06-17T14:11:19Z</time>
      </trkpt>
      <trkpt lat="59.1996906123" lon="17.6965024604">
        <ele>31</ele>
        <time>2011-06-17T14:11:20Z</time>
      </trkpt>
      <trkpt lat="59.1997521354" lon="17.6964214912">
        <ele>31</ele>
        <time>2011-06-17T14:11:24Z</time>
      </trkpt>
      <trkpt lat="59.1998280754" lon="17.6963509994">
        <ele>31</ele>
        <time>2011-06-17T14:11:28Z</time>
      </trkpt>
      <trkpt lat="59.1998529697" lon="17.6963358282">
        <ele>31</ele>
        <time>2011-06-17T14:11:29Z</time>
      </trkpt>
      <trkpt lat="59.1999227071" lon="17.696286375">
        <ele>31</ele>
        <time>2011-06-17T14:11:32Z</time>
      </trkpt>
      <trkpt lat="59.1999993176" lon="17.6962240137">
        <ele>31</ele>
        <time>2011-06-17T14:11:36Z</time>
      </trkpt>
      <trkpt lat="59.2001220286" lon="17.6961123668">
        <ele>31.4</ele>
        <time>2011-06-17T14:11:42Z</time>
      </trkpt>
      <trkpt lat="59.200137619" lon="17.6960978661">
        <ele>31.6</ele>
        <time>2011-06-17T14:11:43Z</time>
      </trkpt>
      <trkpt lat="59.200190844" lon="17.696027961">
        <ele>32</ele>
        <time>2011-06-17T14:11:46Z</time>
      </trkpt>
      <trkpt lat="59.200211715" lon="17.6959780887">
        <ele>32.2</ele>
        <time>2011-06-17T14:11:48Z</time>
      </trkpt>
      <trkpt lat="59.200316824" lon="17.6958842114">
        <ele>33.2</ele>
        <time>2011-06-17T14:11:53Z</time>
      </trkpt>
      <trkpt lat="59.2003615833" lon="17.6958411285">
        <ele>33.6</ele>
        <time>2011-06-17T14:11:55Z</time>
      </trkpt>
      <trkpt lat="59.2004438098" lon="17.6957632606">
        <ele>34.2</ele>
        <time>2011-06-17T14:11:59Z</time>
      </trkpt>
      <trkpt lat="59.2005414589" lon="17.6956505241">
        <ele>35</ele>
        <time>2011-06-17T14:12:04Z</time>
      </trkpt>
      <trkpt lat="59.2006572968" lon="17.6955071936">
        <ele>36</ele>
        <time>2011-06-17T14:12:10Z</time>
      </trkpt>
      <trkpt lat="59.2006779163" lon="17.6954728278">
        <ele>36</ele>
        <time>2011-06-17T14:12:11Z</time>
      </trkpt>
      <trkpt lat="59.2007945085" lon="17.695295383">
        <ele>36.6</ele>
        <time>2011-06-17T14:12:17Z</time>
      </trkpt>
      <trkpt lat="59.2008776569" lon="17.6951187763">
        <ele>36.8</ele>
        <time>2011-06-17T14:12:22Z</time>
      </trkpt>
      <trkpt lat="59.2009411917" lon="17.694947115">
        <ele>37</ele>
        <time>2011-06-17T14:12:26Z</time>
      </trkpt>
      <trkpt lat="59.2010141981" lon="17.69475123">
        <ele>37</ele>
        <time>2011-06-17T14:12:31Z</time>
      </trkpt>
      <trkpt lat="59.2010408525" lon="17.6946605379">
        <ele>37</ele>
        <time>2011-06-17T14:12:34Z</time>
      </trkpt>
      <trkpt lat="59.2011623901" lon="17.6944338913">
        <ele>37.2</ele>
        <time>2011-06-17T14:12:41Z</time>
      </trkpt>
      <trkpt lat="59.2012324628" lon="17.6943044747">
        <ele>37.4</ele>
        <time>2011-06-17T14:12:45Z</time>
      </trkpt>
      <trkpt lat="59.2012497295" lon="17.6942834362">
        <ele>37.6</ele>
        <time>2011-06-17T14:12:46Z</time>
      </trkpt>
      <trkpt lat="59.2013021163" lon="17.6941838592">
        <ele>38</ele>
        <time>2011-06-17T14:12:49Z</time>
      </trkpt>
      <trkpt lat="59.2013822473" lon="17.6940182329">
        <ele>38.6</ele>
        <time>2011-06-17T14:12:54Z</time>
      </trkpt>
      <trkpt lat="59.201424073" lon="17.6939123695">
        <ele>38.8</ele>
        <time>2011-06-17T14:12:57Z</time>
      </trkpt>
      <trkpt lat="59.2014881107" lon="17.6937794325">
        <ele>39</ele>
        <time>2011-06-17T14:13:01Z</time>
      </trkpt>
      <trkpt lat="59.2015433474" lon="17.6935389558">
        <ele>39.2</ele>
        <time>2011-06-17T14:13:07Z</time>
      </trkpt>
      <trkpt lat="59.20154955" lon="17.6934525384">
        <ele>39.2</ele>
        <time>2011-06-17T14:13:09Z</time>
      </trkpt>
      <trkpt lat="59.2015638831" lon="17.693224886">
        <ele>39.2</ele>
        <time>2011-06-17T14:13:15Z</time>
      </trkpt>
      <trkpt lat="59.2015681579" lon="17.6929983233">
        <ele>39.2</ele>
        <time>2011-06-17T14:13:21Z</time>
      </trkpt>
      <trkpt lat="59.2015635478" lon="17.6929137499">
        <ele>39.2</ele>
        <time>2011-06-17T14:13:23Z</time>
      </trkpt>
      <trkpt lat="59.201565308" lon="17.6928750255">
        <ele>39.2</ele>
        <time>2011-06-17T14:13:24Z</time>
      </trkpt>
      <trkpt lat="59.2015314451" lon="17.6926286815">
        <ele>39.4</ele>
        <time>2011-06-17T14:13:30Z</time>
      </trkpt>
      <trkpt lat="59.2014886974" lon="17.6923997718">
        <ele>39.4</ele>
        <time>2011-06-17T14:13:36Z</time>
      </trkpt>
      <trkpt lat="59.2014478776" lon="17.6922523342">
        <ele>39.4</ele>
        <time>2011-06-17T14:13:40Z</time>
      </trkpt>
      <trkpt lat="59.2014098238" lon="17.692150075">
        <ele>39.4</ele>
        <time>2011-06-17T14:13:45Z</time>
      </trkpt>
      <trkpt lat="59.2013980891" lon="17.6921359934">
        <ele>39.4</ele>
        <time>2011-06-17T14:13:46Z</time>
      </trkpt>
      <trkpt lat="59.2013580236" lon="17.6920472291">
        <ele>39.4</ele>
        <time>2011-06-17T14:13:52Z</time>
      </trkpt>
      <trkpt lat="59.2012963328" lon="17.6919167229">
        <ele>39.4</ele>
        <time>2011-06-17T14:13:56Z</time>
      </trkpt>
      <trkpt lat="59.2012646493" lon="17.6918754839">
        <ele>39.4</ele>
        <time>2011-06-17T14:13:58Z</time>
      </trkpt>
      <trkpt lat="59.2011638988" lon="17.6916981229">
        <ele>40</ele>
        <time>2011-06-17T14:14:04Z</time>
      </trkpt>
      <trkpt lat="59.2011519965" lon="17.6916551238">
        <ele>40.2</ele>
        <time>2011-06-17T14:14:05Z</time>
      </trkpt>
      <trkpt lat="59.2011104223" lon="17.6915435607">
        <ele>40.6</ele>
        <time>2011-06-17T14:14:08Z</time>
      </trkpt>
      <trkpt lat="59.2010619749" lon="17.6913630984">
        <ele>41</ele>
        <time>2011-06-17T14:14:13Z</time>
      </trkpt>
      <trkpt lat="59.201035069" lon="17.6910695643">
        <ele>42.2</ele>
        <time>2011-06-17T14:14:19Z</time>
      </trkpt>
      <trkpt lat="59.2010400143" lon="17.6910230447">
        <ele>42.4</ele>
        <time>2011-06-17T14:14:20Z</time>
      </trkpt>
      <trkpt lat="59.2011050579" lon="17.690770079">
        <ele>43</ele>
        <time>2011-06-17T14:14:26Z</time>
      </trkpt>
      <trkpt lat="59.2011582829" lon="17.6906137565">
        <ele>43.2</ele>
        <time>2011-06-17T14:14:30Z</time>
      </trkpt>
      <trkpt lat="59.2011897151" lon="17.6905456955">
        <ele>43.2</ele>
        <time>2011-06-17T14:14:32Z</time>
      </trkpt>
      <trkpt lat="59.2013286032" lon="17.6903063923">
        <ele>43.4</ele>
        <time>2011-06-17T14:14:40Z</time>
      </trkpt>
      <trkpt lat="59.2013631366" lon="17.6900585395">
        <ele>43.4</ele>
        <time>2011-06-17T14:14:45Z</time>
      </trkpt>
      <trkpt lat="59.2013358116" lon="17.6898677674">
        <ele>42.6</ele>
        <time>2011-06-17T14:14:50Z</time>
      </trkpt>
      <trkpt lat="59.2012738693" lon="17.6897706212">
        <ele>42.4</ele>
        <time>2011-06-17T14:14:53Z</time>
      </trkpt>
      <trkpt lat="59.2011451234" lon="17.6896647578">
        <ele>42</ele>
        <time>2011-06-17T14:14:59Z</time>
      </trkpt>
      <trkpt lat="59.2010727037" lon="17.689595188">
        <ele>41.8</ele>
        <time>2011-06-17T14:15:03Z</time>
      </trkpt>
      <trkpt lat="59.2009641581" lon="17.6895236066">
        <ele>41.8</ele>
        <time>2011-06-17T14:15:08Z</time>
      </trkpt>
      <trkpt lat="59.2008748071" lon="17.6894684537">
        <ele>41.6</ele>
        <time>2011-06-17T14:15:12Z</time>
      </trkpt>
      <trkpt lat="59.2007502521" lon="17.689395615">
        <ele>41.6</ele>
        <time>2011-06-17T14:15:18Z</time>
      </trkpt>
      <trkpt lat="59.2006333245" lon="17.6893471676">
        <ele>41.6</ele>
        <time>2011-06-17T14:15:23Z</time>
      </trkpt>
      <trkpt lat="59.2005143854" lon="17.6893015701">
        <ele>42.6</ele>
        <time>2011-06-17T14:15:29Z</time>
      </trkpt>
      <trkpt lat="59.2004176583" lon="17.689278017">
        <ele>43</ele>
        <time>2011-06-17T14:15:34Z</time>
      </trkpt>
      <trkpt lat="59.2003024071" lon="17.6892074414">
        <ele>43.2</ele>
        <time>2011-06-17T14:15:39Z</time>
      </trkpt>
      <trkpt lat="59.2001760081" lon="17.6891220298">
        <ele>43.4</ele>
        <time>2011-06-17T14:15:44Z</time>
      </trkpt>
      <trkpt lat="59.2000579071" lon="17.6890276496">
        <ele>43.4</ele>
        <time>2011-06-17T14:15:49Z</time>
      </trkpt>
      <trkpt lat="59.1999211983" lon="17.6889245522">
        <ele>43.6</ele>
        <time>2011-06-17T14:15:56Z</time>
      </trkpt>
      <trkpt lat="59.19979723" lon="17.6888150846">
        <ele>43.6</ele>
        <time>2011-06-17T14:16:02Z</time>
      </trkpt>
      <trkpt lat="59.1997050291" lon="17.6887014261">
        <ele>43.6</ele>
        <time>2011-06-17T14:16:07Z</time>
      </trkpt>
      <trkpt lat="59.1996054521" lon="17.688586594">
        <ele>43.6</ele>
        <time>2011-06-17T14:16:12Z</time>
      </trkpt>
      <trkpt lat="59.1994825735" lon="17.6884744442">
        <ele>43.6</ele>
        <time>2011-06-17T14:16:18Z</time>
      </trkpt>
      <trkpt lat="59.1993800629" lon="17.6884137592">
        <ele>43.6</ele>
        <time>2011-06-17T14:16:23Z</time>
      </trkpt>
      <trkpt lat="59.1992666558" lon="17.6883771303">
        <ele>43.6</ele>
        <time>2011-06-17T14:16:28Z</time>
      </trkpt>
      <trkpt lat="59.1990967546" lon="17.6883804831">
        <ele>43.6</ele>
        <time>2011-06-17T14:16:36Z</time>
      </trkpt>
      <trkpt lat="59.1989610517" lon="17.688365228">
        <ele>43.6</ele>
        <time>2011-06-17T14:16:43Z</time>
      </trkpt>
      <trkpt lat="59.1988258516" lon="17.6883115839">
        <ele>43</ele>
        <time>2011-06-17T14:16:49Z</time>
      </trkpt>
      <trkpt lat="59.1987764822" lon="17.6882517371">
        <ele>42.6</ele>
        <time>2011-06-17T14:16:52Z</time>
      </trkpt>
      <trkpt lat="59.1986711218" lon="17.6881572731">
        <ele>42.2</ele>
        <time>2011-06-17T14:16:57Z</time>
      </trkpt>
      <trkpt lat="59.1985950141" lon="17.6879644894">
        <ele>42</ele>
        <time>2011-06-17T14:17:02Z</time>
      </trkpt>
      <trkpt lat="59.1985200799" lon="17.6877628209">
        <ele>41.8</ele>
        <time>2011-06-17T14:17:07Z</time>
      </trkpt>
      <trkpt lat="59.1985102731" lon="17.6877205761">
        <ele>41.8</ele>
        <time>2011-06-17T14:17:08Z</time>
      </trkpt>
      <trkpt lat="59.1984668549" lon="17.6875121183">
        <ele>41.8</ele>
        <time>2011-06-17T14:17:13Z</time>
      </trkpt>
      <trkpt lat="59.1984441399" lon="17.6872618347">
        <ele>41.2</ele>
        <time>2011-06-17T14:17:19Z</time>
      </trkpt>
      <trkpt lat="59.1984157253" lon="17.6871156544">
        <ele>40.6</ele>
        <time>2011-06-17T14:17:23Z</time>
      </trkpt>
      <trkpt lat="59.1983799346" lon="17.6869543866">
        <ele>40.2</ele>
        <time>2011-06-17T14:17:27Z</time>
      </trkpt>
      <trkpt lat="59.1983276315" lon="17.6867053604">
        <ele>40</ele>
        <time>2011-06-17T14:17:33Z</time>
      </trkpt>
      <trkpt lat="59.1982853029" lon="17.686488353">
        <ele>39</ele>
        <time>2011-06-17T14:17:38Z</time>
      </trkpt>
      <trkpt lat="59.198222271" lon="17.6862377342">
        <ele>38.2</ele>
        <time>2011-06-17T14:17:44Z</time>
      </trkpt>
      <trkpt lat="59.1981646874" lon="17.6859851875">
        <ele>37.8</ele>
        <time>2011-06-17T14:17:50Z</time>
      </trkpt>
      <trkpt lat="59.1981387035" lon="17.6858008696">
        <ele>37.8</ele>
        <time>2011-06-17T14:17:54Z</time>
      </trkpt>
      <trkpt lat="59.198123197" lon="17.6856095108">
        <ele>37.6</ele>
        <time>2011-06-17T14:17:59Z</time>
      </trkpt>
      <trkpt lat="59.1980871548" lon="17.6854050762">
        <ele>37.6</ele>
        <time>2011-06-17T14:18:04Z</time>
      </trkpt>
      <trkpt lat="59.1980058504" lon="17.6852091912">
        <ele>37.4</ele>
        <time>2011-06-17T14:18:09Z</time>
      </trkpt>
      <trkpt lat="59.1979042617" lon="17.6850425591">
        <ele>37.4</ele>
        <time>2011-06-17T14:18:15Z</time>
      </trkpt>
      <trkpt lat="59.1977779465" lon="17.684965697">
        <ele>37.4</ele>
        <time>2011-06-17T14:18:21Z</time>
      </trkpt>
      <trkpt lat="59.1976429141" lon="17.6849373662">
        <ele>37.4</ele>
        <time>2011-06-17T14:18:27Z</time>
      </trkpt>
      <trkpt lat="59.1975181076" lon="17.6849469216">
        <ele>37.4</ele>
        <time>2011-06-17T14:18:33Z</time>
      </trkpt>
      <trkpt lat="59.1973626233" lon="17.6849655294">
        <ele>37.4</ele>
        <time>2011-06-17T14:18:40Z</time>
      </trkpt>
      <trkpt lat="59.1972211369" lon="17.6849619252">
        <ele>37</ele>
        <time>2011-06-17T14:18:46Z</time>
      </trkpt>
      <trkpt lat="59.1970787284" lon="17.6849235361">
        <ele>36.2</ele>
        <time>2011-06-17T14:18:52Z</time>
      </trkpt>
      <trkpt lat="59.1969555145" lon="17.6848679641">
        <ele>35.8</ele>
        <time>2011-06-17T14:18:58Z</time>
      </trkpt>
      <trkpt lat="59.1969224898" lon="17.6848594984">
        <ele>35.8</ele>
        <time>2011-06-17T14:19:01Z</time>
      </trkpt>
      <trkpt lat="59.1965067475" lon="17.6845272399">
        <ele>31.6</ele>
        <time>2011-06-17T14:20:10Z</time>
      </trkpt>
      <trkpt lat="59.1964941747" lon="17.6845152537">
        <ele>31.6</ele>
        <time>2011-06-17T14:20:11Z</time>
      </trkpt>
      <trkpt lat="59.1963741459" lon="17.6844310156">
        <ele>30.4</ele>
        <time>2011-06-17T14:20:17Z</time>
      </trkpt>
      <trkpt lat="59.196224529" lon="17.6843524772">
        <ele>29.8</ele>
        <time>2011-06-17T14:20:24Z</time>
      </trkpt>
      <trkpt lat="59.1960904186" lon="17.6843851666">
        <ele>29.6</ele>
        <time>2011-06-17T14:20:30Z</time>
      </trkpt>
      <trkpt lat="59.1959542127" lon="17.6844548202">
        <ele>29.6</ele>
        <time>2011-06-17T14:20:36Z</time>
      </trkpt>
      <trkpt lat="59.1958025003" lon="17.6845601807">
        <ele>30.6</ele>
        <time>2011-06-17T14:20:43Z</time>
      </trkpt>
      <trkpt lat="59.1956895961" lon="17.6846643677">
        <ele>30.8</ele>
        <time>2011-06-17T14:20:48Z</time>
      </trkpt>
      <trkpt lat="59.1955511271" lon="17.6847761823">
        <ele>31</ele>
        <time>2011-06-17T14:20:54Z</time>
      </trkpt>
      <trkpt lat="59.1954067908" lon="17.6848302455">
        <ele>31.2</ele>
        <time>2011-06-17T14:21:00Z</time>
      </trkpt>
      <trkpt lat="59.1952748597" lon="17.6848689699">
        <ele>31.2</ele>
        <time>2011-06-17T14:21:05Z</time>
      </trkpt>
      <trkpt lat="59.1951989197" lon="17.6848281501">
        <ele>31.6</ele>
        <time>2011-06-17T14:21:08Z</time>
      </trkpt>
      <trkpt lat="59.1951636319" lon="17.68476428">
        <ele>32</ele>
        <time>2011-06-17T14:21:10Z</time>
      </trkpt>
      <trkpt lat="59.1950940621" lon="17.684592451">
        <ele>32.4</ele>
        <time>2011-06-17T14:21:14Z</time>
      </trkpt>
      <trkpt lat="59.1950438545" lon="17.6844586759">
        <ele>32.8</ele>
        <time>2011-06-17T14:21:18Z</time>
      </trkpt>
      <trkpt lat="59.1949536653" lon="17.6843337018">
        <ele>33</ele>
        <time>2011-06-17T14:21:22Z</time>
      </trkpt>
      <trkpt lat="59.1948636437" lon="17.6842489608">
        <ele>33.2</ele>
        <time>2011-06-17T14:21:27Z</time>
      </trkpt>
      <trkpt lat="59.1947453751" lon="17.6841885273">
        <ele>33.2</ele>
        <time>2011-06-17T14:21:33Z</time>
      </trkpt>
      <trkpt lat="59.1946018769" lon="17.6842019383">
        <ele>33.2</ele>
        <time>2011-06-17T14:21:39Z</time>
      </trkpt>
      <trkpt lat="59.1944846142" lon="17.6843344562">
        <ele>33.4</ele>
        <time>2011-06-17T14:21:45Z</time>
      </trkpt>
      <trkpt lat="59.1943904854" lon="17.6844536468">
        <ele>33.4</ele>
        <time>2011-06-17T14:21:50Z</time>
      </trkpt>
      <trkpt lat="59.1942780003" lon="17.6846231288">
        <ele>33.4</ele>
        <time>2011-06-17T14:21:56Z</time>
      </trkpt>
      <trkpt lat="59.1941731428" lon="17.6847428223">
        <ele>33.4</ele>
        <time>2011-06-17T14:22:01Z</time>
      </trkpt>
      <trkpt lat="59.1940574725" lon="17.6848061895">
        <ele>33.4</ele>
        <time>2011-06-17T14:22:06Z</time>
      </trkpt>
      <trkpt lat="59.1939284751" lon="17.6849019108">
        <ele>33.4</ele>
        <time>2011-06-17T14:22:12Z</time>
      </trkpt>
      <trkpt lat="59.1938325862" lon="17.6850327522">
        <ele>33.4</ele>
        <time>2011-06-17T14:22:17Z</time>
      </trkpt>
      <trkpt lat="59.1936958774" lon="17.6852165673">
        <ele>33.4</ele>
        <time>2011-06-17T14:22:24Z</time>
      </trkpt>
      <trkpt lat="59.1935920256" lon="17.6853278789">
        <ele>33.4</ele>
        <time>2011-06-17T14:22:29Z</time>
      </trkpt>
      <trkpt lat="59.1934785347" lon="17.6854427948">
        <ele>32.4</ele>
        <time>2011-06-17T14:22:35Z</time>
      </trkpt>
      <trkpt lat="59.1933927041" lon="17.6855006299">
        <ele>32</ele>
        <time>2011-06-17T14:22:39Z</time>
      </trkpt>
      <trkpt lat="59.1932823982" lon="17.6855817667">
        <ele>31.8</ele>
        <time>2011-06-17T14:22:44Z</time>
      </trkpt>
      <trkpt lat="59.193292708" lon="17.6855297989">
        <ele>31.6</ele>
        <time>2011-06-17T14:22:49Z</time>
      </trkpt>
      <trkpt lat="59.193345011" lon="17.6854826926">
        <ele>31.6</ele>
        <time>2011-06-17T14:22:51Z</time>
      </trkpt>
      <trkpt lat="59.1934435822" lon="17.685364424">
        <ele>31.4</ele>
        <time>2011-06-17T14:22:56Z</time>
      </trkpt>
      <trkpt lat="59.1934113119" lon="17.6851936847">
        <ele>31.4</ele>
        <time>2011-06-17T14:23:00Z</time>
      </trkpt>
      <trkpt lat="59.193301509" lon="17.6849330076">
        <ele>31.4</ele>
        <time>2011-06-17T14:23:07Z</time>
      </trkpt>
      <trkpt lat="59.1932030217" lon="17.6846957999">
        <ele>31.4</ele>
        <time>2011-06-17T14:23:13Z</time>
      </trkpt>
      <trkpt lat="59.1931270816" lon="17.6844803012">
        <ele>31.4</ele>
        <time>2011-06-17T14:23:19Z</time>
      </trkpt>
      <trkpt lat="59.1930534047" lon="17.6843093105">
        <ele>31.4</ele>
        <time>2011-06-17T14:23:24Z</time>
      </trkpt>
      <trkpt lat="59.1929650595" lon="17.6840732761">
        <ele>32.2</ele>
        <time>2011-06-17T14:23:31Z</time>
      </trkpt>
      <trkpt lat="59.1928792289" lon="17.6838887905">
        <ele>32.8</ele>
        <time>2011-06-17T14:23:37Z</time>
      </trkpt>
      <trkpt lat="59.1927798195" lon="17.6836699391">
        <ele>34</ele>
        <time>2011-06-17T14:23:44Z</time>
      </trkpt>
      <trkpt lat="59.1927647321" lon="17.6836568634">
        <ele>34.2</ele>
        <time>2011-06-17T14:23:45Z</time>
      </trkpt>
      <trkpt lat="59.1927182126" lon="17.6834763172">
        <ele>34.8</ele>
        <time>2011-06-17T14:23:50Z</time>
      </trkpt>
      <trkpt lat="59.1926664124" lon="17.6832714636">
        <ele>35</ele>
        <time>2011-06-17T14:23:55Z</time>
      </trkpt>
      <trkpt lat="59.1925786539" lon="17.6830447332">
        <ele>35.2</ele>
        <time>2011-06-17T14:24:01Z</time>
      </trkpt>
      <trkpt lat="59.1925038874" lon="17.6828667016">
        <ele>35.4</ele>
        <time>2011-06-17T14:24:07Z</time>
      </trkpt>
      <trkpt lat="59.192503133" lon="17.6828514466">
        <ele>35.4</ele>
        <time>2011-06-17T14:24:08Z</time>
      </trkpt>
      <trkpt lat="59.1925376664" lon="17.6828131413">
        <ele>35.4</ele>
        <time>2011-06-17T14:24:12Z</time>
      </trkpt>
      <trkpt lat="59.1929474575" lon="17.6818568503">
        <ele>24.6</ele>
        <time>2011-06-17T15:30:54Z</time>
      </trkpt>
      <trkpt lat="59.1929052127" lon="17.681770852">
        <ele>23.4</ele>
        <time>2011-06-17T15:30:58Z</time>
      </trkpt>
      <trkpt lat="59.1928332122" lon="17.6816078241">
        <ele>24</ele>
        <time>2011-06-17T15:31:04Z</time>
      </trkpt>
      <trkpt lat="59.1927498961" lon="17.6813982766">
        <ele>24.2</ele>
        <time>2011-06-17T15:31:11Z</time>
      </trkpt>
      <trkpt lat="59.1926901332" lon="17.6811861307">
        <ele>25.4</ele>
        <time>2011-06-17T15:31:17Z</time>
      </trkpt>
      <trkpt lat="59.1926866128" lon="17.6811523516">
        <ele>25.6</ele>
        <time>2011-06-17T15:31:18Z</time>
      </trkpt>
      <trkpt lat="59.1927669952" lon="17.681017906">
        <ele>27</ele>
        <time>2011-06-17T15:31:24Z</time>
      </trkpt>
      <trkpt lat="59.1928455336" lon="17.6808791017">
        <ele>28.6</ele>
        <time>2011-06-17T15:31:30Z</time>
      </trkpt>
      <trkpt lat="59.1928628003" lon="17.6808619188">
        <ele>28.8</ele>
        <time>2011-06-17T15:31:31Z</time>
      </trkpt>
      <trkpt lat="59.1929599466" lon="17.6806950352">
        <ele>29.8</ele>
        <time>2011-06-17T15:31:37Z</time>
      </trkpt>
      <trkpt lat="59.1930017722" lon="17.6806100427">
        <ele>30</ele>
        <time>2011-06-17T15:31:40Z</time>
      </trkpt>
      <trkpt lat="59.1931127486" lon="17.6804403931">
        <ele>30.4</ele>
        <time>2011-06-17T15:31:46Z</time>
      </trkpt>
      <trkpt lat="59.19318433" lon="17.6803678896">
        <ele>30.6</ele>
        <time>2011-06-17T15:31:50Z</time>
      </trkpt>
      <trkpt lat="59.1932038598" lon="17.6803417381">
        <ele>30.6</ele>
        <time>2011-06-17T15:31:51Z</time>
      </trkpt>
      <trkpt lat="59.1932968989" lon="17.6801961445">
        <ele>30.8</ele>
        <time>2011-06-17T15:31:57Z</time>
      </trkpt>
      <trkpt lat="59.1933932908" lon="17.6800512214">
        <ele>30.8</ele>
        <time>2011-06-17T15:32:03Z</time>
      </trkpt>
      <trkpt lat="59.1934238847" lon="17.6800127485">
        <ele>30.8</ele>
        <time>2011-06-17T15:32:05Z</time>
      </trkpt>
      <trkpt lat="59.1935540556" lon="17.6799603616">
        <ele>30.8</ele>
        <time>2011-06-17T15:32:11Z</time>
      </trkpt>
      <trkpt lat="59.1936692229" lon="17.6799128363">
        <ele>30.8</ele>
        <time>2011-06-17T15:32:16Z</time>
      </trkpt>
      <trkpt lat="59.1937906767" lon="17.6798394946">
        <ele>31.6</ele>
        <time>2011-06-17T15:32:21Z</time>
      </trkpt>
      <trkpt lat="59.1938067699" lon="17.6798280953">
        <ele>31.6</ele>
        <time>2011-06-17T15:32:22Z</time>
      </trkpt>
      <trkpt lat="59.1938205162" lon="17.6796514886">
        <ele>32.2</ele>
        <time>2011-06-17T15:32:27Z</time>
      </trkpt>
      <trkpt lat="59.1937838873" lon="17.6794289492">
        <ele>32.6</ele>
        <time>2011-06-17T15:32:33Z</time>
      </trkpt>
      <trkpt lat="59.193776176" lon="17.679395673">
        <ele>32.6</ele>
        <time>2011-06-17T15:32:34Z</time>
      </trkpt>
      <trkpt lat="59.1937255493" lon="17.6790657615">
        <ele>32.8</ele>
        <time>2011-06-17T15:32:42Z</time>
      </trkpt>
      <trkpt lat="59.1936899262" lon="17.6788110355">
        <ele>32.8</ele>
        <time>2011-06-17T15:32:48Z</time>
      </trkpt>
      <trkpt lat="59.1936636909" lon="17.6785544656">
        <ele>32.8</ele>
        <time>2011-06-17T15:32:54Z</time>
      </trkpt>
      <trkpt lat="59.1936458374" lon="17.6783450019">
        <ele>33</ele>
        <time>2011-06-17T15:32:59Z</time>
      </trkpt>
      <trkpt lat="59.1935974739" lon="17.6779715882">
        <ele>33</ele>
        <time>2011-06-17T15:33:08Z</time>
      </trkpt>
      <trkpt lat="59.1935683049" lon="17.6777235678">
        <ele>33.6</ele>
        <time>2011-06-17T15:33:14Z</time>
      </trkpt>
      <trkpt lat="59.1935396388" lon="17.6774291955">
        <ele>34.4</ele>
        <time>2011-06-17T15:33:21Z</time>
      </trkpt>
      <trkpt lat="59.1935074523" lon="17.6771981065">
        <ele>34.8</ele>
        <time>2011-06-17T15:33:27Z</time>
      </trkpt>
      <trkpt lat="59.1934960529" lon="17.6771199034">
        <ele>34.8</ele>
        <time>2011-06-17T15:33:29Z</time>
      </trkpt>
      <trkpt lat="59.1934620224" lon="17.6768168139">
        <ele>35</ele>
        <time>2011-06-17T15:33:36Z</time>
      </trkpt>
      <trkpt lat="59.1934300873" lon="17.6765946935">
        <ele>35</ele>
        <time>2011-06-17T15:33:42Z</time>
      </trkpt>
      <trkpt lat="59.1933752697" lon="17.6764556378">
        <ele>35</ele>
        <time>2011-06-17T15:33:46Z</time>
      </trkpt>
      <trkpt lat="59.1932715856" lon="17.6762247164">
        <ele>35</ele>
        <time>2011-06-17T15:33:53Z</time>
      </trkpt>
      <trkpt lat="59.1931992498" lon="17.6760731717">
        <ele>35</ele>
        <time>2011-06-17T15:33:58Z</time>
      </trkpt>
      <trkpt lat="59.1931149279" lon="17.6759178551">
        <ele>35</ele>
        <time>2011-06-17T15:34:03Z</time>
      </trkpt>
      <trkpt lat="59.1930123334" lon="17.6757617003">
        <ele>35.8</ele>
        <time>2011-06-17T15:34:09Z</time>
      </trkpt>
      <trkpt lat="59.1928881975" lon="17.6756751153">
        <ele>36.6</ele>
        <time>2011-06-17T15:34:15Z</time>
      </trkpt>
      <trkpt lat="59.1927759638" lon="17.6755765441">
        <ele>37.8</ele>
        <time>2011-06-17T15:34:21Z</time>
      </trkpt>
      <trkpt lat="59.1926612995" lon="17.6754580241">
        <ele>39.4</ele>
        <time>2011-06-17T15:34:27Z</time>
      </trkpt>
      <trkpt lat="59.1925322182" lon="17.6753083233">
        <ele>41</ele>
        <time>2011-06-17T15:34:34Z</time>
      </trkpt>
      <trkpt lat="59.1924578707" lon="17.6752328024">
        <ele>42.2</ele>
        <time>2011-06-17T15:34:38Z</time>
      </trkpt>
      <trkpt lat="59.1923668433" lon="17.6751142823">
        <ele>44</ele>
        <time>2011-06-17T15:34:44Z</time>
      </trkpt>
      <trkpt lat="59.1923291248" lon="17.6750915674">
        <ele>44.6</ele>
        <time>2011-06-17T15:34:46Z</time>
      </trkpt>
      <trkpt lat="59.1923117742" lon="17.6750761447">
        <ele>45</ele>
        <time>2011-06-17T15:34:47Z</time>
      </trkpt>
      <trkpt lat="59.192169701" lon="17.674939855">
        <ele>46.4</ele>
        <time>2011-06-17T15:34:54Z</time>
      </trkpt>
      <trkpt lat="59.1920436372" lon="17.6747682775">
        <ele>48.2</ele>
        <time>2011-06-17T15:35:01Z</time>
      </trkpt>
      <trkpt lat="59.1919359298" lon="17.674679597">
        <ele>49.2</ele>
        <time>2011-06-17T15:35:06Z</time>
      </trkpt>
      <trkpt lat="59.1918203434" lon="17.6746057525">
        <ele>50.4</ele>
        <time>2011-06-17T15:35:11Z</time>
      </trkpt>
      <trkpt lat="59.1916934415" lon="17.6745542876">
        <ele>51</ele>
        <time>2011-06-17T15:35:17Z</time>
      </trkpt>
      <trkpt lat="59.1916026655" lon="17.674526292">
        <ele>52.2</ele>
        <time>2011-06-17T15:35:22Z</time>
      </trkpt>
      <trkpt lat="59.1914634421" lon="17.6745191674">
        <ele>53</ele>
        <time>2011-06-17T15:35:28Z</time>
      </trkpt>
      <trkpt lat="59.1913122327" lon="17.6745490908">
        <ele>53.4</ele>
        <time>2011-06-17T15:35:34Z</time>
      </trkpt>
      <trkpt lat="59.1911422477" lon="17.6746141344">
        <ele>53.8</ele>
        <time>2011-06-17T15:35:41Z</time>
      </trkpt>
      <trkpt lat="59.1909943072" lon="17.6746531102">
        <ele>53.8</ele>
        <time>2011-06-17T15:35:48Z</time>
      </trkpt>
      <trkpt lat="59.1908922156" lon="17.6746711313">
        <ele>54</ele>
        <time>2011-06-17T15:35:53Z</time>
      </trkpt>
      <trkpt lat="59.1907641402" lon="17.6747152201">
        <ele>54</ele>
        <time>2011-06-17T15:35:59Z</time>
      </trkpt>
      <trkpt lat="59.1906470451" lon="17.6747619073">
        <ele>54</ele>
        <time>2011-06-17T15:36:04Z</time>
      </trkpt>
      <trkpt lat="59.1905023735" lon="17.6747964407">
        <ele>54</ele>
        <time>2011-06-17T15:36:10Z</time>
      </trkpt>
      <trkpt lat="59.1903070752" lon="17.6748760687">
        <ele>54</ele>
        <time>2011-06-17T15:36:17Z</time>
      </trkpt>
      <trkpt lat="59.1901778263" lon="17.6749085067">
        <ele>54</ele>
        <time>2011-06-17T15:36:22Z</time>
      </trkpt>
      <trkpt lat="59.1900318974" lon="17.674931054">
        <ele>54.2</ele>
        <time>2011-06-17T15:36:28Z</time>
      </trkpt>
      <trkpt lat="59.1899091864" lon="17.6749313055">
        <ele>55</ele>
        <time>2011-06-17T15:36:33Z</time>
      </trkpt>
      <trkpt lat="59.1897850505" lon="17.6749313893">
        <ele>55.4</ele>
        <time>2011-06-17T15:36:38Z</time>
      </trkpt>
      <trkpt lat="59.1896520297" lon="17.674880092">
        <ele>56.4</ele>
        <time>2011-06-17T15:36:44Z</time>
      </trkpt>
      <trkpt lat="59.1895229485" lon="17.674887049">
        <ele>57</ele>
        <time>2011-06-17T15:36:49Z</time>
      </trkpt>
      <trkpt lat="59.1893369541" lon="17.6748638312">
        <ele>57.8</ele>
        <time>2011-06-17T15:36:57Z</time>
      </trkpt>
      <trkpt lat="59.1892254748" lon="17.6748254421">
        <ele>58</ele>
        <time>2011-06-17T15:37:02Z</time>
      </trkpt>
      <trkpt lat="59.1890870058" lon="17.67476065">
        <ele>58.6</ele>
        <time>2011-06-17T15:37:08Z</time>
      </trkpt>
      <trkpt lat="59.1890643747" lon="17.6747536092">
        <ele>58.8</ele>
        <time>2011-06-17T15:37:09Z</time>
      </trkpt>
      <trkpt lat="59.1889769515" lon="17.6747063353">
        <ele>59.2</ele>
        <time>2011-06-17T15:37:13Z</time>
      </trkpt>
      <trkpt lat="59.1888310226" lon="17.6745853006">
        <ele>59.8</ele>
        <time>2011-06-17T15:37:20Z</time>
      </trkpt>
      <trkpt lat="59.1886940624" lon="17.6745137192">
        <ele>60</ele>
        <time>2011-06-17T15:37:26Z</time>
      </trkpt>
      <trkpt lat="59.188584008" lon="17.6743574806">
        <ele>60.2</ele>
        <time>2011-06-17T15:37:32Z</time>
      </trkpt>
      <trkpt lat="59.188502955" lon="17.6741207757">
        <ele>60.2</ele>
        <time>2011-06-17T15:37:38Z</time>
      </trkpt>
      <trkpt lat="59.1884578604" lon="17.6740034291">
        <ele>60.2</ele>
        <time>2011-06-17T15:37:41Z</time>
      </trkpt>
      <trkpt lat="59.1883546792" lon="17.673723306">
        <ele>59.6</ele>
        <time>2011-06-17T15:37:48Z</time>
      </trkpt>
      <trkpt lat="59.1882484806" lon="17.6734646406">
        <ele>58.8</ele>
        <time>2011-06-17T15:37:55Z</time>
      </trkpt>
      <trkpt lat="59.1881195669" lon="17.6731895466">
        <ele>57.6</ele>
        <time>2011-06-17T15:38:03Z</time>
      </trkpt>
      <trkpt lat="59.1880135359" lon="17.6729735451">
        <ele>56.8</ele>
        <time>2011-06-17T15:38:10Z</time>
      </trkpt>
      <trkpt lat="59.1879189881" lon="17.6727575435">
        <ele>56.2</ele>
        <time>2011-06-17T15:38:16Z</time>
      </trkpt>
      <trkpt lat="59.1878276254" lon="17.672538273">
        <ele>55.2</ele>
        <time>2011-06-17T15:38:22Z</time>
      </trkpt>
      <trkpt lat="59.1877667728" lon="17.6723527816">
        <ele>54.6</ele>
        <time>2011-06-17T15:38:27Z</time>
      </trkpt>
      <trkpt lat="59.1877067584" lon="17.6722186712">
        <ele>54.4</ele>
        <time>2011-06-17T15:38:31Z</time>
      </trkpt>
      <trkpt lat="59.1877091053" lon="17.6719491093">
        <ele>53.8</ele>
        <time>2011-06-17T15:38:37Z</time>
      </trkpt>
      <trkpt lat="59.1877017292" lon="17.6719020868">
        <ele>53.6</ele>
        <time>2011-06-17T15:38:38Z</time>
      </trkpt>
      <trkpt lat="59.1876360989" lon="17.6717203672">
        <ele>52.8</ele>
        <time>2011-06-17T15:38:43Z</time>
      </trkpt>
      <trkpt lat="59.1875635955" lon="17.6715216324">
        <ele>52.4</ele>
        <time>2011-06-17T15:38:48Z</time>
      </trkpt>
      <trkpt lat="59.1874719813" lon="17.6713073072">
        <ele>52.2</ele>
        <time>2011-06-17T15:38:54Z</time>
      </trkpt>
      <trkpt lat="59.1873563949" lon="17.6710224902">
        <ele>51.6</ele>
        <time>2011-06-17T15:39:02Z</time>
      </trkpt>
      <trkpt lat="59.187292944" lon="17.6707840252">
        <ele>50.8</ele>
        <time>2011-06-17T15:39:08Z</time>
      </trkpt>
      <trkpt lat="59.1872521241" lon="17.6706424549">
        <ele>50.4</ele>
        <time>2011-06-17T15:39:12Z</time>
      </trkpt>
      <trkpt lat="59.1871478533" lon="17.670457634">
        <ele>50</ele>
        <time>2011-06-17T15:39:18Z</time>
      </trkpt>
      <trkpt lat="59.1870642019" lon="17.6702137207">
        <ele>50</ele>
        <time>2011-06-17T15:39:24Z</time>
      </trkpt>
      <trkpt lat="59.1869921176" lon="17.6700182548">
        <ele>49.8</ele>
        <time>2011-06-17T15:39:29Z</time>
      </trkpt>
      <trkpt lat="59.1868911995" lon="17.6697906862">
        <ele>49.8</ele>
        <time>2011-06-17T15:39:35Z</time>
      </trkpt>
      <trkpt lat="59.1868048659" lon="17.6695664704">
        <ele>49.8</ele>
        <time>2011-06-17T15:39:41Z</time>
      </trkpt>
      <trkpt lat="59.1867181971" lon="17.6693593536">
        <ele>49.8</ele>
        <time>2011-06-17T15:39:47Z</time>
      </trkpt>
      <trkpt lat="59.1866430953" lon="17.6691917156">
        <ele>49.8</ele>
        <time>2011-06-17T15:39:52Z</time>
      </trkpt>
      <trkpt lat="59.1865432668" lon="17.668950736">
        <ele>49.8</ele>
        <time>2011-06-17T15:39:59Z</time>
      </trkpt>
      <trkpt lat="59.1864717692" lon="17.6686420306">
        <ele>49.8</ele>
        <time>2011-06-17T15:40:06Z</time>
      </trkpt>
      <trkpt lat="59.1864396665" lon="17.6684303876">
        <ele>49.8</ele>
        <time>2011-06-17T15:40:11Z</time>
      </trkpt>
      <trkpt lat="59.1863962483" lon="17.6682239414">
        <ele>49.8</ele>
        <time>2011-06-17T15:40:16Z</time>
      </trkpt>
      <trkpt lat="59.1863186319" lon="17.667978687">
        <ele>49.8</ele>
        <time>2011-06-17T15:40:22Z</time>
      </trkpt>
      <trkpt lat="59.1862497327" lon="17.6677967998">
        <ele>49.8</ele>
        <time>2011-06-17T15:40:27Z</time>
      </trkpt>
      <trkpt lat="59.1861545143" lon="17.6674870048">
        <ele>49.8</ele>
        <time>2011-06-17T15:40:35Z</time>
      </trkpt>
      <trkpt lat="59.1860925721" lon="17.6671858431">
        <ele>49.8</ele>
        <time>2011-06-17T15:40:42Z</time>
      </trkpt>
      <trkpt lat="59.1860238405" lon="17.66685107">
        <ele>49.8</ele>
        <time>2011-06-17T15:40:50Z</time>
      </trkpt>
      <trkpt lat="59.1859635746" lon="17.6665981881">
        <ele>49.8</ele>
        <time>2011-06-17T15:40:56Z</time>
      </trkpt>
      <trkpt lat="59.1859168036" lon="17.6663333201">
        <ele>49.8</ele>
        <time>2011-06-17T15:41:02Z</time>
      </trkpt>
      <trkpt lat="59.1858585494" lon="17.6660889039">
        <ele>49.8</ele>
        <time>2011-06-17T15:41:08Z</time>
      </trkpt>
      <trkpt lat="59.1857662647" lon="17.6657927713">
        <ele>50.4</ele>
        <time>2011-06-17T15:41:15Z</time>
      </trkpt>
      <trkpt lat="59.185675824" lon="17.6655366205">
        <ele>51.2</ele>
        <time>2011-06-17T15:41:22Z</time>
      </trkpt>
      <trkpt lat="59.1856032367" lon="17.6652500433">
        <ele>51.4</ele>
        <time>2011-06-17T15:41:29Z</time>
      </trkpt>
      <trkpt lat="59.1855338346" lon="17.6650071359">
        <ele>51.6</ele>
        <time>2011-06-17T15:41:35Z</time>
      </trkpt>
      <trkpt lat="59.1854809448" lon="17.6647551759">
        <ele>51.6</ele>
        <time>2011-06-17T15:41:41Z</time>
      </trkpt>
      <trkpt lat="59.1854288094" lon="17.6644903079">
        <ele>50.8</ele>
        <time>2011-06-17T15:41:47Z</time>
      </trkpt>
      <trkpt lat="59.1853760873" lon="17.6642902319">
        <ele>50.4</ele>
        <time>2011-06-17T15:41:52Z</time>
      </trkpt>
      <trkpt lat="59.1853361056" lon="17.6640598973">
        <ele>50.2</ele>
        <time>2011-06-17T15:41:57Z</time>
      </trkpt>
      <trkpt lat="59.1852699724" lon="17.6638036627">
        <ele>49.4</ele>
        <time>2011-06-17T15:42:03Z</time>
      </trkpt>
      <trkpt lat="59.1852006541" lon="17.663550194">
        <ele>48.6</ele>
        <time>2011-06-17T15:42:09Z</time>
      </trkpt>
      <trkpt lat="59.1851361135" lon="17.6632591744">
        <ele>47.6</ele>
        <time>2011-06-17T15:42:16Z</time>
      </trkpt>
      <trkpt lat="59.1850968862" lon="17.6629719267">
        <ele>46.6</ele>
        <time>2011-06-17T15:42:22Z</time>
      </trkpt>
      <trkpt lat="59.1850612631" lon="17.6626761295">
        <ele>45.2</ele>
        <time>2011-06-17T15:42:28Z</time>
      </trkpt>
      <trkpt lat="59.1850108041" lon="17.6623831821">
        <ele>43.8</ele>
        <time>2011-06-17T15:42:34Z</time>
      </trkpt>
      <trkpt lat="59.1849648712" lon="17.6621397717">
        <ele>42.8</ele>
        <time>2011-06-17T15:42:39Z</time>
      </trkpt>
      <trkpt lat="59.1849358699" lon="17.6619103591">
        <ele>42.2</ele>
        <time>2011-06-17T15:42:44Z</time>
      </trkpt>
      <trkpt lat="59.1848880092" lon="17.6616461616">
        <ele>41</ele>
        <time>2011-06-17T15:42:50Z</time>
      </trkpt>
      <trkpt lat="59.1848450939" lon="17.6613539686">
        <ele>39.4</ele>
        <time>2011-06-17T15:42:57Z</time>
      </trkpt>
      <trkpt lat="59.18489044" lon="17.6611664655">
        <ele>38.6</ele>
        <time>2011-06-17T15:43:01Z</time>
      </trkpt>
      <trkpt lat="59.1849763544" lon="17.6608948081">
        <ele>37.2</ele>
        <time>2011-06-17T15:43:08Z</time>
      </trkpt>
      <trkpt lat="59.1850160846" lon="17.660615607">
        <ele>36.2</ele>
        <time>2011-06-17T15:43:14Z</time>
      </trkpt>
      <trkpt lat="59.1850597543" lon="17.6603137748">
        <ele>35.2</ele>
        <time>2011-06-17T15:43:20Z</time>
      </trkpt>
      <trkpt lat="59.1851049328" lon="17.6600172231">
        <ele>34.2</ele>
        <time>2011-06-17T15:43:26Z</time>
      </trkpt>
      <trkpt lat="59.1851573197" lon="17.6597822785">
        <ele>33.6</ele>
        <time>2011-06-17T15:43:31Z</time>
      </trkpt>
      <trkpt lat="59.1852327568" lon="17.6595143091">
        <ele>33.4</ele>
        <time>2011-06-17T15:43:37Z</time>
      </trkpt>
      <trkpt lat="59.1852829643" lon="17.6592713179">
        <ele>33.2</ele>
        <time>2011-06-17T15:43:42Z</time>
      </trkpt>
      <trkpt lat="59.1853545458" lon="17.6589321024">
        <ele>33</ele>
        <time>2011-06-17T15:43:49Z</time>
      </trkpt>
      <trkpt lat="59.1854466629" lon="17.6586954813">
        <ele>32</ele>
        <time>2011-06-17T15:43:55Z</time>
      </trkpt>
      <trkpt lat="59.1855386961" lon="17.6585555036">
        <ele>31.6</ele>
        <time>2011-06-17T15:44:00Z</time>
      </trkpt>
      <trkpt lat="59.1856495048" lon="17.6583434415">
        <ele>31.2</ele>
        <time>2011-06-17T15:44:06Z</time>
      </trkpt>
      <trkpt lat="59.1857353355" lon="17.6582105884">
        <ele>31.2</ele>
        <time>2011-06-17T15:44:10Z</time>
      </trkpt>
      <trkpt lat="59.1858208309" lon="17.6580546013">
        <ele>31</ele>
        <time>2011-06-17T15:44:15Z</time>
      </trkpt>
      <trkpt lat="59.1859180609" lon="17.6578453052">
        <ele>31</ele>
        <time>2011-06-17T15:44:21Z</time>
      </trkpt>
      <trkpt lat="59.1860059032" lon="17.6576303933">
        <ele>31</ele>
        <time>2011-06-17T15:44:27Z</time>
      </trkpt>
      <trkpt lat="59.1860697733" lon="17.657444818">
        <ele>31</ele>
        <time>2011-06-17T15:44:31Z</time>
      </trkpt>
      <trkpt lat="59.1861823422" lon="17.6571369509">
        <ele>30.8</ele>
        <time>2011-06-17T15:44:37Z</time>
      </trkpt>
      <trkpt lat="59.1863296122" lon="17.6568576659">
        <ele>30.8</ele>
        <time>2011-06-17T15:44:43Z</time>
      </trkpt>
      <trkpt lat="59.1864637226" lon="17.65673353">
        <ele>30.8</ele>
        <time>2011-06-17T15:44:47Z</time>
      </trkpt>
      <trkpt lat="59.186606634" lon="17.6565396567">
        <ele>30.8</ele>
        <time>2011-06-17T15:44:52Z</time>
      </trkpt>
      <trkpt lat="59.186627924" lon="17.6565215518">
        <ele>30.8</ele>
        <time>2011-06-17T15:44:53Z</time>
      </trkpt>
      <trkpt lat="59.1866177819" lon="17.6565203783">
        <ele>30.8</ele>
        <time>2011-06-17T15:44:58Z</time>
      </trkpt>
      <trkpt lat="59.1866193745" lon="17.6565225576">
        <ele>30.8</ele>
        <time>2011-06-17T15:45:03Z</time>
      </trkpt>
      <trkpt lat="59.1866134233" lon="17.6565044527">
        <ele>30.8</ele>
        <time>2011-06-17T15:45:08Z</time>
      </trkpt>
      <trkpt lat="59.186517702" lon="17.6563975835">
        <ele>30.8</ele>
        <time>2011-06-17T15:45:14Z</time>
      </trkpt>
      <trkpt lat="59.1864951547" lon="17.6563854297">
        <ele>30.8</ele>
        <time>2011-06-17T15:45:17Z</time>
      </trkpt>
      <trkpt lat="59.1864850964" lon="17.6564122518">
        <ele>30.8</ele>
        <time>2011-06-17T15:45:19Z</time>
      </trkpt>
      <trkpt lat="59.1864860185" lon="17.6564398282">
        <ele>30.8</ele>
        <time>2011-06-17T15:45:21Z</time>
      </trkpt>
      <trkpt lat="59.1864942327" lon="17.6564752837">
        <ele>30.8</ele>
        <time>2011-06-17T15:45:27Z</time>
      </trkpt>
      <trkpt lat="59.1864986751" lon="17.6564985015">
        <ele>30.8</ele>
        <time>2011-06-17T15:45:28Z</time>
      </trkpt>
      <trkpt lat="59.1864977531" lon="17.6565173608">
        <ele>30.8</ele>
        <time>2011-06-17T15:45:29Z</time>
      </trkpt>
      <trkpt lat="59.1864563465" lon="17.6565472004">
        <ele>30.8</ele>
        <time>2011-06-17T15:45:34Z</time>
      </trkpt>
      <trkpt lat="59.1864923049" lon="17.6565580968">
        <ele>30.8</ele>
        <time>2011-06-17T15:45:41Z</time>
      </trkpt>
      <trkpt lat="59.1865679096" lon="17.656668235">
        <ele>30.8</ele>
        <time>2011-06-17T15:45:47Z</time>
      </trkpt>
      <trkpt lat="59.1866063825" lon="17.6566331148">
        <ele>30.8</ele>
        <time>2011-06-17T15:45:51Z</time>
      </trkpt>
      <trkpt lat="59.1866132557" lon="17.6566222184">
        <ele>30.8</ele>
        <time>2011-06-17T15:45:52Z</time>
      </trkpt>
      <trkpt lat="59.1866326179" lon="17.6565858409">
        <ele>30.8</ele>
        <time>2011-06-17T15:46:01Z</time>
      </trkpt>
      <trkpt lat="59.1866296842" lon="17.6565411654">
        <ele>30.8</ele>
        <time>2011-06-17T15:46:06Z</time>
      </trkpt>
      <trkpt lat="59.1866442687" lon="17.6566101484">
        <ele>30.8</ele>
        <time>2011-06-17T15:46:12Z</time>
      </trkpt>
      <trkpt lat="59.1866212185" lon="17.6566449333">
        <ele>30.8</ele>
        <time>2011-06-17T15:46:17Z</time>
      </trkpt>
      <trkpt lat="59.186539495" lon="17.656631187">
        <ele>30.8</ele>
        <time>2011-06-17T15:46:21Z</time>
      </trkpt>
      <trkpt lat="59.1864866052" lon="17.6565763694">
        <ele>30.8</ele>
        <time>2011-06-17T15:46:24Z</time>
      </trkpt>
      <trkpt lat="59.1864095755" lon="17.6564766248">
        <ele>30.8</ele>
        <time>2011-06-17T15:46:30Z</time>
      </trkpt>
      <trkpt lat="59.18638619" lon="17.6564118327">
        <ele>30.8</ele>
        <time>2011-06-17T15:46:34Z</time>
      </trkpt>
      <trkpt lat="59.1863924764" lon="17.6563303606">
        <ele>30.8</ele>
        <time>2011-06-17T15:46:40Z</time>
      </trkpt>
      <trkpt lat="59.1864360623" lon="17.6562285205">
        <ele>30.8</ele>
        <time>2011-06-17T15:46:47Z</time>
      </trkpt>
      <trkpt lat="59.1864980046" lon="17.6560899677">
        <ele>30.8</ele>
        <time>2011-06-17T15:46:54Z</time>
      </trkpt>
      <trkpt lat="59.186520971" lon="17.6560273549">
        <ele>30.8</ele>
        <time>2011-06-17T15:46:57Z</time>
      </trkpt>
      <trkpt lat="59.1865587733" lon="17.6559285323">
        <ele>30.8</ele>
        <time>2011-06-17T15:47:03Z</time>
      </trkpt>
      <trkpt lat="59.1865810692" lon="17.6558691047">
        <ele>30.6</ele>
        <time>2011-06-17T15:47:07Z</time>
      </trkpt>
      <trkpt lat="59.1866273373" lon="17.6557492435">
        <ele>29.8</ele>
        <time>2011-06-17T15:47:13Z</time>
      </trkpt>
      <trkpt lat="59.1866529859" lon="17.6556743931">
        <ele>29.6</ele>
        <time>2011-06-17T15:47:16Z</time>
      </trkpt>
      <trkpt lat="59.1867282554" lon="17.6555313141">
        <ele>29.2</ele>
        <time>2011-06-17T15:47:21Z</time>
      </trkpt>
      <trkpt lat="59.1868226356" lon="17.6553375246">
        <ele>29.2</ele>
        <time>2011-06-17T15:47:26Z</time>
      </trkpt>
      <trkpt lat="59.1869195303" lon="17.6551004844">
        <ele>29</ele>
        <time>2011-06-17T15:47:31Z</time>
      </trkpt>
      <trkpt lat="59.1870288303" lon="17.6547902703">
        <ele>28.8</ele>
        <time>2011-06-17T15:47:37Z</time>
      </trkpt>
      <trkpt lat="59.1871309218" lon="17.6544505519">
        <ele>27.8</ele>
        <time>2011-06-17T15:47:43Z</time>
      </trkpt>
      <trkpt lat="59.1872196862" lon="17.6540935668">
        <ele>27.4</ele>
        <time>2011-06-17T15:47:49Z</time>
      </trkpt>
      <trkpt lat="59.18730032" lon="17.6538025472">
        <ele>27.2</ele>
        <time>2011-06-17T15:47:54Z</time>
      </trkpt>
      <trkpt lat="59.1874501046" lon="17.6533674428">
        <ele>27</ele>
        <time>2011-06-17T15:48:03Z</time>
      </trkpt>
      <trkpt lat="59.1875322472" lon="17.6531179974">
        <ele>27</ele>
        <time>2011-06-17T15:48:08Z</time>
      </trkpt>
      <trkpt lat="59.1876078519" lon="17.6528753414">
        <ele>27.6</ele>
        <time>2011-06-17T15:48:13Z</time>
      </trkpt>
      <trkpt lat="59.1876447323" lon="17.6527787819">
        <ele>27.8</ele>
        <time>2011-06-17T15:48:15Z</time>
      </trkpt>
      <trkpt lat="59.1876701295" lon="17.6526832283">
        <ele>28</ele>
        <time>2011-06-17T15:48:17Z</time>
      </trkpt>
      <trkpt lat="59.1877058364" lon="17.6525867526">
        <ele>28.2</ele>
        <time>2011-06-17T15:48:19Z</time>
      </trkpt>
      <trkpt lat="59.1878064192" lon="17.652301768">
        <ele>28.6</ele>
        <time>2011-06-17T15:48:25Z</time>
      </trkpt>
      <trkpt lat="59.1878964408" lon="17.6520654823">
        <ele>28.6</ele>
        <time>2011-06-17T15:48:30Z</time>
      </trkpt>
      <trkpt lat="59.1880061598" lon="17.6517980158">
        <ele>28.8</ele>
        <time>2011-06-17T15:48:36Z</time>
      </trkpt>
      <trkpt lat="59.1880990313" lon="17.6515080021">
        <ele>28.8</ele>
        <time>2011-06-17T15:48:42Z</time>
      </trkpt>
      <trkpt lat="59.1881613088" lon="17.6512681121">
        <ele>28.8</ele>
        <time>2011-06-17T15:48:47Z</time>
      </trkpt>
      <trkpt lat="59.1882366621" lon="17.6510479196">
        <ele>29.8</ele>
        <time>2011-06-17T15:48:52Z</time>
      </trkpt>
      <trkpt lat="59.1883364067" lon="17.6507643599">
        <ele>30.4</ele>
        <time>2011-06-17T15:48:58Z</time>
      </trkpt>
      <trkpt lat="59.1884063956" lon="17.6505647869">
        <ele>30.6</ele>
        <time>2011-06-17T15:49:02Z</time>
      </trkpt>
      <trkpt lat="59.1884897116" lon="17.6502498789">
        <ele>31.2</ele>
        <time>2011-06-17T15:49:08Z</time>
      </trkpt>
      <trkpt lat="59.1885073975" lon="17.6502119927">
        <ele>31.4</ele>
        <time>2011-06-17T15:49:09Z</time>
      </trkpt>
      <trkpt lat="59.1885781407" lon="17.6499754555">
        <ele>32</ele>
        <time>2011-06-17T15:49:14Z</time>
      </trkpt>
      <trkpt lat="59.1886851776" lon="17.6496867829">
        <ele>33</ele>
        <time>2011-06-17T15:49:20Z</time>
      </trkpt>
      <trkpt lat="59.1887845031" lon="17.6494311349">
        <ele>34</ele>
        <time>2011-06-17T15:49:26Z</time>
      </trkpt>
      <trkpt lat="59.1888511392" lon="17.649258803">
        <ele>34.4</ele>
        <time>2011-06-17T15:49:30Z</time>
      </trkpt>
      <trkpt lat="59.188941077" lon="17.6489840444">
        <ele>34.8</ele>
        <time>2011-06-17T15:49:36Z</time>
      </trkpt>
      <trkpt lat="59.1890027677" lon="17.6487701383">
        <ele>35</ele>
        <time>2011-06-17T15:49:42Z</time>
      </trkpt>
      <trkpt lat="59.1890736786" lon="17.6485286557">
        <ele>35</ele>
        <time>2011-06-17T15:49:48Z</time>
      </trkpt>
      <trkpt lat="59.1891519656" lon="17.6483334413">
        <ele>35.2</ele>
        <time>2011-06-17T15:49:53Z</time>
      </trkpt>
      <trkpt lat="59.1891794582" lon="17.6482576689">
        <ele>35.2</ele>
        <time>2011-06-17T15:49:55Z</time>
      </trkpt>
      <trkpt lat="59.1891584196" lon="17.6480536535">
        <ele>35.2</ele>
        <time>2011-06-17T15:50:00Z</time>
      </trkpt>
      <trkpt lat="59.1891483613" lon="17.6477133483">
        <ele>35.2</ele>
        <time>2011-06-17T15:50:07Z</time>
      </trkpt>
      <trkpt lat="59.1891683103" lon="17.6474270226">
        <ele>35.2</ele>
        <time>2011-06-17T15:50:13Z</time>
      </trkpt>
      <trkpt lat="59.1892657918" lon="17.6472722927">
        <ele>35.2</ele>
        <time>2011-06-17T15:50:18Z</time>
      </trkpt>
      <trkpt lat="59.1892824717" lon="17.6472470632">
        <ele>35.2</ele>
        <time>2011-06-17T15:50:19Z</time>
      </trkpt>
      <trkpt lat="59.1892631096" lon="17.647035085">
        <ele>35.2</ele>
        <time>2011-06-17T15:50:24Z</time>
      </trkpt>
      <trkpt lat="59.1892463458" lon="17.6469982884">
        <ele>35.2</ele>
        <time>2011-06-17T15:50:25Z</time>
      </trkpt>
      <trkpt lat="59.1891592578" lon="17.6467917584">
        <ele>35.2</ele>
        <time>2011-06-17T15:50:31Z</time>
      </trkpt>
      <trkpt lat="59.1891483613" lon="17.6467562192">
        <ele>35.2</ele>
        <time>2011-06-17T15:50:32Z</time>
      </trkpt>
      <trkpt lat="59.1890411568" lon="17.6465791096">
        <ele>35.2</ele>
        <time>2011-06-17T15:50:38Z</time>
      </trkpt>
      <trkpt lat="59.1889807233" lon="17.6464777724">
        <ele>34.8</ele>
        <time>2011-06-17T15:50:42Z</time>
      </trkpt>
      <trkpt lat="59.1888658075" lon="17.64630477">
        <ele>34</ele>
        <time>2011-06-17T15:50:48Z</time>
      </trkpt>
      <trkpt lat="59.1887917115" lon="17.646085751">
        <ele>33.6</ele>
        <time>2011-06-17T15:50:54Z</time>
      </trkpt>
      <trkpt lat="59.1887295178" lon="17.6459030256">
        <ele>33.4</ele>
        <time>2011-06-17T15:50:59Z</time>
      </trkpt>
      <trkpt lat="59.1886566791" lon="17.6457266704">
        <ele>33.4</ele>
        <time>2011-06-17T15:51:04Z</time>
      </trkpt>
      <trkpt lat="59.1885244127" lon="17.6456327093">
        <ele>33.2</ele>
        <time>2011-06-17T15:51:10Z</time>
      </trkpt>
      <trkpt lat="59.1884016179" lon="17.6454519955">
        <ele>33.2</ele>
        <time>2011-06-17T15:51:16Z</time>
      </trkpt>
      <trkpt lat="59.188297347" lon="17.6452799151">
        <ele>33.2</ele>
        <time>2011-06-17T15:51:22Z</time>
      </trkpt>
      <trkpt lat="59.1882071578" lon="17.6451297115">
        <ele>33.2</ele>
        <time>2011-06-17T15:51:27Z</time>
      </trkpt>
      <trkpt lat="59.1881095087" lon="17.6449827768">
        <ele>33.2</ele>
        <time>2011-06-17T15:51:32Z</time>
      </trkpt>
      <trkpt lat="59.1879824391" lon="17.644772894">
        <ele>33.2</ele>
        <time>2011-06-17T15:51:39Z</time>
      </trkpt>
      <trkpt lat="59.1879112767" lon="17.6446806931">
        <ele>33.2</ele>
        <time>2011-06-17T15:51:43Z</time>
      </trkpt>
      <trkpt lat="59.187815304" lon="17.6445501031">
        <ele>33.2</ele>
        <time>2011-06-17T15:51:49Z</time>
      </trkpt>
      <trkpt lat="59.187709692" lon="17.6443976363">
        <ele>32.2</ele>
        <time>2011-06-17T15:51:55Z</time>
      </trkpt>
      <trkpt lat="59.1875882383" lon="17.6442189342">
        <ele>31.6</ele>
        <time>2011-06-17T15:52:02Z</time>
      </trkpt>
      <trkpt lat="59.187481872" lon="17.644078705">
        <ele>31.4</ele>
        <time>2011-06-17T15:52:08Z</time>
      </trkpt>
      <trkpt lat="59.1874084465" lon="17.6439557425">
        <ele>31.2</ele>
        <time>2011-06-17T15:52:13Z</time>
      </trkpt>
      <trkpt lat="59.1873084505" lon="17.643849963">
        <ele>31.2</ele>
        <time>2011-06-17T15:52:18Z</time>
      </trkpt>
      <trkpt lat="59.1871710711" lon="17.6437026092">
        <ele>31.2</ele>
        <time>2011-06-17T15:52:25Z</time>
      </trkpt>
      <trkpt lat="59.1870712427" lon="17.6436060497">
        <ele>31.2</ele>
        <time>2011-06-17T15:52:30Z</time>
      </trkpt>
      <trkpt lat="59.1869711628" lon="17.643514687">
        <ele>31.2</ele>
        <time>2011-06-17T15:52:35Z</time>
      </trkpt>
      <trkpt lat="59.1868737651" lon="17.6434212288">
        <ele>31</ele>
        <time>2011-06-17T15:52:40Z</time>
      </trkpt>
      <trkpt lat="59.186751557" lon="17.64328913">
        <ele>31</ele>
        <time>2011-06-17T15:52:46Z</time>
      </trkpt>
      <trkpt lat="59.1866447716" lon="17.6432001981">
        <ele>31</ele>
        <time>2011-06-17T15:52:51Z</time>
      </trkpt>
      <trkpt lat="59.1865252457" lon="17.6430920716">
        <ele>31</ele>
        <time>2011-06-17T15:52:57Z</time>
      </trkpt>
      <trkpt lat="59.186396835" lon="17.6429846156">
        <ele>31</ele>
        <time>2011-06-17T15:53:03Z</time>
      </trkpt>
      <trkpt lat="59.1862929833" lon="17.6429048199">
        <ele>31</ele>
        <time>2011-06-17T15:53:08Z</time>
      </trkpt>
      <trkpt lat="59.1861489823" lon="17.6428251919">
        <ele>31</ele>
        <time>2011-06-17T15:53:15Z</time>
      </trkpt>
      <trkpt lat="59.1860151233" lon="17.6427420434">
        <ele>31</ele>
        <time>2011-06-17T15:53:21Z</time>
      </trkpt>
      <trkpt lat="59.1859290412" lon="17.6427030676">
        <ele>31</ele>
        <time>2011-06-17T15:53:25Z</time>
      </trkpt>
      <trkpt lat="59.1857956852" lon="17.6426530277">
        <ele>32</ele>
        <time>2011-06-17T15:53:31Z</time>
      </trkpt>
      <trkpt lat="59.18569066" lon="17.6426056699">
        <ele>32.4</ele>
        <time>2011-06-17T15:53:36Z</time>
      </trkpt>
      <trkpt lat="59.185555879" lon="17.6425543727">
        <ele>32.8</ele>
        <time>2011-06-17T15:53:42Z</time>
      </trkpt>
      <trkpt lat="59.1854463276" lon="17.6425153969">
        <ele>33</ele>
        <time>2011-06-17T15:53:47Z</time>
      </trkpt>
      <trkpt lat="59.1853401289" lon="17.6424765887">
        <ele>33</ele>
        <time>2011-06-17T15:53:52Z</time>
      </trkpt>
      <trkpt lat="59.1851850638" lon="17.6424121318">
        <ele>34</ele>
        <time>2011-06-17T15:53:59Z</time>
      </trkpt>
      <trkpt lat="59.1850757638" lon="17.6423863156">
        <ele>34.6</ele>
        <time>2011-06-17T15:54:04Z</time>
      </trkpt>
      <trkpt lat="59.1848966426" lon="17.6423298216">
        <ele>35</ele>
        <time>2011-06-17T15:54:12Z</time>
      </trkpt>
      <trkpt lat="59.1847642086" lon="17.6422848946">
        <ele>35</ele>
        <time>2011-06-17T15:54:18Z</time>
      </trkpt>
      <trkpt lat="59.1845912061" lon="17.642253211">
        <ele>35.2</ele>
        <time>2011-06-17T15:54:25Z</time>
      </trkpt>
      <trkpt lat="59.1845213849" lon="17.6422347708">
        <ele>35.2</ele>
        <time>2011-06-17T15:54:28Z</time>
      </trkpt>
      <trkpt lat="59.1844746977" lon="17.6422140675">
        <ele>35.2</ele>
        <time>2011-06-17T15:54:30Z</time>
      </trkpt>
      <trkpt lat="59.1843555071" lon="17.6421784445">
        <ele>35.2</ele>
        <time>2011-06-17T15:54:35Z</time>
      </trkpt>
      <trkpt lat="59.1842473806" lon="17.6421265605">
        <ele>35.2</ele>
        <time>2011-06-17T15:54:40Z</time>
      </trkpt>
      <trkpt lat="59.1841287767" lon="17.6420714914">
        <ele>35.2</ele>
        <time>2011-06-17T15:54:45Z</time>
      </trkpt>
      <trkpt lat="59.1839909783" lon="17.6420286599">
        <ele>35.2</ele>
        <time>2011-06-17T15:54:51Z</time>
      </trkpt>
      <trkpt lat="59.183873464" lon="17.6419909414">
        <ele>35.2</ele>
        <time>2011-06-17T15:54:56Z</time>
      </trkpt>
      <trkpt lat="59.1837537705" lon="17.6419444218">
        <ele>35.2</ele>
        <time>2011-06-17T15:55:01Z</time>
      </trkpt>
      <trkpt lat="59.1836174808" lon="17.6419061165">
        <ele>35.2</ele>
        <time>2011-06-17T15:55:07Z</time>
      </trkpt>
      <trkpt lat="59.1834810235" lon="17.6418600999">
        <ele>35.2</ele>
        <time>2011-06-17T15:55:13Z</time>
      </trkpt>
      <trkpt lat="59.1833416325" lon="17.6418034383">
        <ele>35.2</ele>
        <time>2011-06-17T15:55:19Z</time>
      </trkpt>
      <trkpt lat="59.1832045046" lon="17.6417636242">
        <ele>35.2</ele>
        <time>2011-06-17T15:55:25Z</time>
      </trkpt>
      <trkpt lat="59.1830429854" lon="17.6417093095">
        <ele>35.2</ele>
        <time>2011-06-17T15:55:32Z</time>
      </trkpt>
      <trkpt lat="59.182893117" lon="17.6416632091">
        <ele>35.2</ele>
        <time>2011-06-17T15:55:38Z</time>
      </trkpt>
      <trkpt lat="59.1827505409" lon="17.6416157675">
        <ele>34.8</ele>
        <time>2011-06-17T15:55:44Z</time>
      </trkpt>
      <trkpt lat="59.1826355412" lon="17.6415734389">
        <ele>34.2</ele>
        <time>2011-06-17T15:55:49Z</time>
      </trkpt>
      <trkpt lat="59.18254443" lon="17.6415301045">
        <ele>33.8</ele>
        <time>2011-06-17T15:55:53Z</time>
      </trkpt>
      <trkpt lat="59.1823718467" lon="17.641462714">
        <ele>33.4</ele>
        <time>2011-06-17T15:56:00Z</time>
      </trkpt>
      <trkpt lat="59.1822575175" lon="17.6414316172">
        <ele>33.4</ele>
        <time>2011-06-17T15:56:05Z</time>
      </trkpt>
      <trkpt lat="59.1821081521" lon="17.6413756261">
        <ele>33.2</ele>
        <time>2011-06-17T15:56:11Z</time>
      </trkpt>
      <trkpt lat="59.1819600439" lon="17.6413295256">
        <ele>33.2</ele>
        <time>2011-06-17T15:56:17Z</time>
      </trkpt>
      <trkpt lat="59.1818448766" lon="17.6412712714">
        <ele>32.6</ele>
        <time>2011-06-17T15:56:22Z</time>
      </trkpt>
      <trkpt lat="59.1817002888" lon="17.6412064793">
        <ele>32</ele>
        <time>2011-06-17T15:56:28Z</time>
      </trkpt>
      <trkpt lat="59.1815760691" lon="17.6411188885">
        <ele>31.6</ele>
        <time>2011-06-17T15:56:34Z</time>
      </trkpt>
      <trkpt lat="59.1814570461" lon="17.6410706088">
        <ele>31.4</ele>
        <time>2011-06-17T15:56:39Z</time>
      </trkpt>
      <trkpt lat="59.1813465726" lon="17.6410095885">
        <ele>30.8</ele>
        <time>2011-06-17T15:56:44Z</time>
      </trkpt>
      <trkpt lat="59.1813271266" lon="17.6410045594">
        <ele>30.6</ele>
        <time>2011-06-17T15:56:45Z</time>
      </trkpt>
      <trkpt lat="59.1812073493" lon="17.6409448803">
        <ele>30</ele>
        <time>2011-06-17T15:56:50Z</time>
      </trkpt>
      <trkpt lat="59.1810869852" lon="17.6409066588">
        <ele>29.6</ele>
        <time>2011-06-17T15:56:55Z</time>
      </trkpt>
      <trkpt lat="59.1809450796" lon="17.6408536014">
        <ele>29.4</ele>
        <time>2011-06-17T15:57:01Z</time>
      </trkpt>
      <trkpt lat="59.1808303314" lon="17.6407958501">
        <ele>28.4</ele>
        <time>2011-06-17T15:57:06Z</time>
      </trkpt>
      <trkpt lat="59.1807413995" lon="17.6407584668">
        <ele>27.8</ele>
        <time>2011-06-17T15:57:10Z</time>
      </trkpt>
      <trkpt lat="59.180603601" lon="17.6407065828">
        <ele>27.4</ele>
        <time>2011-06-17T15:57:16Z</time>
      </trkpt>
      <trkpt lat="59.1804880146" lon="17.6406558723">
        <ele>27.2</ele>
        <time>2011-06-17T15:57:21Z</time>
      </trkpt>
      <trkpt lat="59.1803837438" lon="17.6406022282">
        <ele>27.2</ele>
        <time>2011-06-17T15:57:26Z</time>
      </trkpt>
      <trkpt lat="59.180251645" lon="17.6405223487">
        <ele>26.2</ele>
        <time>2011-06-17T15:57:32Z</time>
      </trkpt>
      <trkpt lat="59.1801109129" lon="17.6404562993">
        <ele>25.6</ele>
        <time>2011-06-17T15:57:38Z</time>
      </trkpt>
      <trkpt lat="59.1799756291" lon="17.6403970393">
        <ele>25.2</ele>
        <time>2011-06-17T15:57:44Z</time>
      </trkpt>
      <trkpt lat="59.179840429" lon="17.6403356838">
        <ele>25</ele>
        <time>2011-06-17T15:57:50Z</time>
      </trkpt>
      <trkpt lat="59.1797295365" lon="17.6402708917">
        <ele>25</ele>
        <time>2011-06-17T15:57:55Z</time>
      </trkpt>
      <trkpt lat="59.179603808" lon="17.6402024954">
        <ele>25</ele>
        <time>2011-06-17T15:58:01Z</time>
      </trkpt>
      <trkpt lat="59.179465339" lon="17.6401259686">
        <ele>24.8</ele>
        <time>2011-06-17T15:58:07Z</time>
      </trkpt>
      <trkpt lat="59.1793515128" lon="17.6400599192">
        <ele>24.8</ele>
        <time>2011-06-17T15:58:12Z</time>
      </trkpt>
      <trkpt lat="59.1791816955" lon="17.6400066942">
        <ele>24.8</ele>
        <time>2011-06-17T15:58:19Z</time>
      </trkpt>
      <trkpt lat="59.1790444838" lon="17.6399595041">
        <ele>24.8</ele>
        <time>2011-06-17T15:58:25Z</time>
      </trkpt>
      <trkpt lat="59.1789237006" lon="17.6399009146">
        <ele>24.8</ele>
        <time>2011-06-17T15:58:31Z</time>
      </trkpt>
      <trkpt lat="59.1787800349" lon="17.6398222086">
        <ele>24.8</ele>
        <time>2011-06-17T15:58:38Z</time>
      </trkpt>
      <trkpt lat="59.1786353633" lon="17.639750208">
        <ele>24.2</ele>
        <time>2011-06-17T15:58:44Z</time>
      </trkpt>
      <trkpt lat="59.1784879257" lon="17.6396653832">
        <ele>23.6</ele>
        <time>2011-06-17T15:58:50Z</time>
      </trkpt>
      <trkpt lat="59.178368735" lon="17.6396231384">
        <ele>23.2</ele>
        <time>2011-06-17T15:58:55Z</time>
      </trkpt>
      <trkpt lat="59.178224734" lon="17.6395644651">
        <ele>23</ele>
        <time>2011-06-17T15:59:01Z</time>
      </trkpt>
      <trkpt lat="59.1781125842" lon="17.6395127488">
        <ele>23</ele>
        <time>2011-06-17T15:59:06Z</time>
      </trkpt>
      <trkpt lat="59.1780017755" lon="17.639471929">
        <ele>22.4</ele>
        <time>2011-06-17T15:59:11Z</time>
      </trkpt>
      <trkpt lat="59.177903791" lon="17.6394296842">
        <ele>21.8</ele>
        <time>2011-06-17T15:59:15Z</time>
      </trkpt>
      <trkpt lat="59.1777814153" lon="17.6394077236">
        <ele>21.4</ele>
        <time>2011-06-17T15:59:20Z</time>
      </trkpt>
      <trkpt lat="59.1776641525" lon="17.639395486">
        <ele>20.6</ele>
        <time>2011-06-17T15:59:25Z</time>
      </trkpt>
      <trkpt lat="59.177549069" lon="17.6393684125">
        <ele>19.8</ele>
        <time>2011-06-17T15:59:30Z</time>
      </trkpt>
      <trkpt lat="59.1773864602" lon="17.6393583542">
        <ele>19.2</ele>
        <time>2011-06-17T15:59:37Z</time>
      </trkpt>
      <trkpt lat="59.1772591391" lon="17.6393921333">
        <ele>18.2</ele>
        <time>2011-06-17T15:59:42Z</time>
      </trkpt>
      <trkpt lat="59.1771460673" lon="17.6394186201">
        <ele>17.6</ele>
        <time>2011-06-17T15:59:47Z</time>
      </trkpt>
      <trkpt lat="59.1769945225" lon="17.6394313606">
        <ele>17</ele>
        <time>2011-06-17T15:59:54Z</time>
      </trkpt>
      <trkpt lat="59.1769779264" lon="17.6394398263">
        <ele>16.6</ele>
        <time>2011-06-17T15:59:56Z</time>
      </trkpt>
      <trkpt lat="59.17686695" lon="17.6394873517">
        <ele>15.8</ele>
        <time>2011-06-17T16:00:00Z</time>
      </trkpt>
      <trkpt lat="59.176690511" lon="17.6395976575">
        <ele>15.2</ele>
        <time>2011-06-17T16:00:07Z</time>
      </trkpt>
      <trkpt lat="59.1765574903" lon="17.6397072089">
        <ele>15</ele>
        <time>2011-06-17T16:00:14Z</time>
      </trkpt>
      <trkpt lat="59.1764459272" lon="17.6397093044">
        <ele>14.8</ele>
        <time>2011-06-17T16:00:18Z</time>
      </trkpt>
      <trkpt lat="59.1762875931" lon="17.6399337717">
        <ele>14.8</ele>
        <time>2011-06-17T16:00:25Z</time>
      </trkpt>
      <trkpt lat="59.1761829032" lon="17.6401113841">
        <ele>14.6</ele>
        <time>2011-06-17T16:00:31Z</time>
      </trkpt>
      <trkpt lat="59.1760924625" lon="17.6402590732">
        <ele>14.6</ele>
        <time>2011-06-17T16:00:37Z</time>
      </trkpt>
      <trkpt lat="59.1760123315" lon="17.6403991347">
        <ele>15</ele>
        <time>2011-06-17T16:00:42Z</time>
      </trkpt>
      <trkpt lat="59.1759261656" lon="17.6405447283">
        <ele>15.6</ele>
        <time>2011-06-17T16:00:47Z</time>
      </trkpt>
      <trkpt lat="59.1759094018" lon="17.6405814411">
        <ele>15.8</ele>
        <time>2011-06-17T16:00:48Z</time>
      </trkpt>
      <trkpt lat="59.1758450288" lon="17.6407132884">
        <ele>16</ele>
        <time>2011-06-17T16:00:52Z</time>
      </trkpt>
      <trkpt lat="59.1757683344" lon="17.6408887215">
        <ele>16.4</ele>
        <time>2011-06-17T16:00:57Z</time>
      </trkpt>
      <trkpt lat="59.1756798215" lon="17.6410913959">
        <ele>16.4</ele>
        <time>2011-06-17T16:01:03Z</time>
      </trkpt>
      <trkpt lat="59.1755663306" lon="17.6413509833">
        <ele>16.6</ele>
        <time>2011-06-17T16:01:10Z</time>
      </trkpt>
      <trkpt lat="59.1754988563" lon="17.641519711">
        <ele>16.6</ele>
        <time>2011-06-17T16:01:16Z</time>
      </trkpt>
      <trkpt lat="59.1754172166" lon="17.6416851697">
        <ele>17.4</ele>
        <time>2011-06-17T16:01:20Z</time>
      </trkpt>
      <trkpt lat="59.1753137839" lon="17.6419312622">
        <ele>18</ele>
        <time>2011-06-17T16:01:26Z</time>
      </trkpt>
      <trkpt lat="59.1752299649" lon="17.6421087071">
        <ele>18.2</ele>
        <time>2011-06-17T16:01:31Z</time>
      </trkpt>
      <trkpt lat="59.1751140433" lon="17.642299982">
        <ele>18.4</ele>
        <time>2011-06-17T16:01:37Z</time>
      </trkpt>
      <trkpt lat="59.1750236026" lon="17.6424506886">
        <ele>18.6</ele>
        <time>2011-06-17T16:01:42Z</time>
      </trkpt>
      <trkpt lat="59.1748763326" lon="17.6427277942">
        <ele>18.6</ele>
        <time>2011-06-17T16:01:50Z</time>
      </trkpt>
      <trkpt lat="59.1747833773" lon="17.6429163869">
        <ele>18.6</ele>
        <time>2011-06-17T16:01:56Z</time>
      </trkpt>
      <trkpt lat="59.1746649411" lon="17.6430925745">
        <ele>18.6</ele>
        <time>2011-06-17T16:02:02Z</time>
      </trkpt>
      <trkpt lat="59.1745750871" lon="17.6432137768">
        <ele>18.6</ele>
        <time>2011-06-17T16:02:07Z</time>
      </trkpt>
      <trkpt lat="59.1744798687" lon="17.643335901">
        <ele>18.6</ele>
        <time>2011-06-17T16:02:12Z</time>
      </trkpt>
      <trkpt lat="59.1743983966" lon="17.643428521">
        <ele>18.6</ele>
        <time>2011-06-17T16:02:17Z</time>
      </trkpt>
      <trkpt lat="59.1742789546" lon="17.6435694208">
        <ele>18.6</ele>
        <time>2011-06-17T16:02:22Z</time>
      </trkpt>
      <trkpt lat="59.1741439222" lon="17.643742507">
        <ele>18.6</ele>
        <time>2011-06-17T16:02:27Z</time>
      </trkpt>
      <trkpt lat="59.1740331134" lon="17.6438420002">
        <ele>18.6</ele>
        <time>2011-06-17T16:02:32Z</time>
      </trkpt>
      <trkpt lat="59.1739131684" lon="17.6439316865">
        <ele>18.6</ele>
        <time>2011-06-17T16:02:37Z</time>
      </trkpt>
      <trkpt lat="59.1737599473" lon="17.6439731769">
        <ele>18.6</ele>
        <time>2011-06-17T16:02:44Z</time>
      </trkpt>
      <trkpt lat="59.1736394994" lon="17.6440488655">
        <ele>18.6</ele>
        <time>2011-06-17T16:02:48Z</time>
      </trkpt>
      <trkpt lat="59.1735517409" lon="17.6441090475">
        <ele>18.6</ele>
        <time>2011-06-17T16:02:52Z</time>
      </trkpt>
      <trkpt lat="59.173385444" lon="17.6442090436">
        <ele>18.6</ele>
        <time>2011-06-17T16:02:59Z</time>
      </trkpt>
      <trkpt lat="59.1732314685" lon="17.6442870791">
        <ele>18.6</ele>
        <time>2011-06-17T16:03:05Z</time>
      </trkpt>
      <trkpt lat="59.1732059037" lon="17.6442818823">
        <ele>18.6</ele>
        <time>2011-06-17T16:03:06Z</time>
      </trkpt>
      <trkpt lat="59.1729951828" lon="17.644450107">
        <ele>18.6</ele>
        <time>2011-06-17T16:03:16Z</time>
      </trkpt>
      <trkpt lat="59.172859396" lon="17.6445708064">
        <ele>18.6</ele>
        <time>2011-06-17T16:03:22Z</time>
      </trkpt>
      <trkpt lat="59.1727521077" lon="17.6446591516">
        <ele>18.6</ele>
        <time>2011-06-17T16:03:26Z</time>
      </trkpt>
      <trkpt lat="59.1726416342" lon="17.6447567169">
        <ele>18.6</ele>
        <time>2011-06-17T16:03:31Z</time>
      </trkpt>
      <trkpt lat="59.1726198413" lon="17.6447669428">
        <ele>18.6</ele>
        <time>2011-06-17T16:03:32Z</time>
      </trkpt>
      <trkpt lat="59.1724309971" lon="17.6448806852">
        <ele>18.6</ele>
        <time>2011-06-17T16:03:38Z</time>
      </trkpt>
      <trkpt lat="59.1723333479" lon="17.6449519314">
        <ele>18.6</ele>
        <time>2011-06-17T16:03:42Z</time>
      </trkpt>
      <trkpt lat="59.1722349444" lon="17.6450699485">
        <ele>18.6</ele>
        <time>2011-06-17T16:03:47Z</time>
      </trkpt>
      <trkpt lat="59.1721366247" lon="17.6452522548">
        <ele>18.6</ele>
        <time>2011-06-17T16:03:53Z</time>
      </trkpt>
      <trkpt lat="59.1720171827" lon="17.6453803303">
        <ele>18.6</ele>
        <time>2011-06-17T16:04:00Z</time>
      </trkpt>
      <trkpt lat="59.1718938849" lon="17.6455219844">
        <ele>18.6</ele>
        <time>2011-06-17T16:04:07Z</time>
      </trkpt>
      <trkpt lat="59.1717796396" lon="17.6456704278">
        <ele>18.6</ele>
        <time>2011-06-17T16:04:12Z</time>
      </trkpt>
      <trkpt lat="59.1716721837" lon="17.6458252415">
        <ele>18.6</ele>
        <time>2011-06-17T16:04:17Z</time>
      </trkpt>
      <trkpt lat="59.1715856825" lon="17.6459346253">
        <ele>18.6</ele>
        <time>2011-06-17T16:04:21Z</time>
      </trkpt>
      <trkpt lat="59.1714795676" lon="17.646069993">
        <ele>18.6</ele>
        <time>2011-06-17T16:04:26Z</time>
      </trkpt>
      <trkpt lat="59.1713809965" lon="17.6461960568">
        <ele>18.6</ele>
        <time>2011-06-17T16:04:31Z</time>
      </trkpt>
      <trkpt lat="59.1712783182" lon="17.6463096315">
        <ele>17.8</ele>
        <time>2011-06-17T16:04:36Z</time>
      </trkpt>
      <trkpt lat="59.1711903921" lon="17.6464225357">
        <ele>17.4</ele>
        <time>2011-06-17T16:04:42Z</time>
      </trkpt>
      <trkpt lat="59.17105888" lon="17.6465597474">
        <ele>16.6</ele>
        <time>2011-06-17T16:04:49Z</time>
      </trkpt>
      <trkpt lat="59.170939438" lon="17.6466670357">
        <ele>15.6</ele>
        <time>2011-06-17T16:04:54Z</time>
      </trkpt>
      <trkpt lat="59.1708262823" lon="17.6467625894">
        <ele>15.2</ele>
        <time>2011-06-17T16:04:59Z</time>
      </trkpt>
      <trkpt lat="59.1707086843" lon="17.6468718056">
        <ele>15</ele>
        <time>2011-06-17T16:05:04Z</time>
      </trkpt>
      <trkpt lat="59.170685634" lon="17.646879936">
        <ele>14.8</ele>
        <time>2011-06-17T16:05:05Z</time>
      </trkpt>
      <trkpt lat="59.1705585644" lon="17.6469737295">
        <ele>13.8</ele>
        <time>2011-06-17T16:05:11Z</time>
      </trkpt>
      <trkpt lat="59.1704402958" lon="17.6470530222">
        <ele>13.4</ele>
        <time>2011-06-17T16:05:16Z</time>
      </trkpt>
      <trkpt lat="59.1702998152" lon="17.6471268668">
        <ele>13</ele>
        <time>2011-06-17T16:05:22Z</time>
      </trkpt>
      <trkpt lat="59.1701766851" lon="17.6471919103">
        <ele>12.8</ele>
        <time>2011-06-17T16:05:27Z</time>
      </trkpt>
      <trkpt lat="59.1700508727" lon="17.6472572891">
        <ele>12.6</ele>
        <time>2011-06-17T16:05:32Z</time>
      </trkpt>
      <trkpt lat="59.1699076261" lon="17.6473216621">
        <ele>12.6</ele>
        <time>2011-06-17T16:05:38Z</time>
      </trkpt>
      <trkpt lat="59.1697870105" lon="17.6473779885">
        <ele>12.6</ele>
        <time>2011-06-17T16:05:43Z</time>
      </trkpt>
      <trkpt lat="59.1696665626" lon="17.6474333929">
        <ele>12.6</ele>
        <time>2011-06-17T16:05:48Z</time>
      </trkpt>
      <trkpt lat="59.1695183706" lon="17.6474915632">
        <ele>12.6</ele>
        <time>2011-06-17T16:05:54Z</time>
      </trkpt>
      <trkpt lat="59.1693543369" lon="17.6475638152">
        <ele>12.4</ele>
        <time>2011-06-17T16:06:01Z</time>
      </trkpt>
      <trkpt lat="59.1691994393" lon="17.6476288588">
        <ele>12.4</ele>
        <time>2011-06-17T16:06:08Z</time>
      </trkpt>
      <trkpt lat="59.1690846911" lon="17.6476643142">
        <ele>11.6</ele>
        <time>2011-06-17T16:06:13Z</time>
      </trkpt>
      <trkpt lat="59.1689380079" lon="17.6477008593">
        <ele>11</ele>
        <time>2011-06-17T16:06:19Z</time>
      </trkpt>
      <trkpt lat="59.1688004609" lon="17.6477425173">
        <ele>10.8</ele>
        <time>2011-06-17T16:06:25Z</time>
      </trkpt>
      <trkpt lat="59.1686696194" lon="17.6477892883">
        <ele>10.6</ele>
        <time>2011-06-17T16:06:31Z</time>
      </trkpt>
      <trkpt lat="59.1685567991" lon="17.6478238218">
        <ele>10.4</ele>
        <time>2011-06-17T16:06:36Z</time>
      </trkpt>
      <trkpt lat="59.168460994" lon="17.6478501409">
        <ele>10.4</ele>
        <time>2011-06-17T16:06:40Z</time>
      </trkpt>
      <trkpt lat="59.1683172444" lon="17.6478841714">
        <ele>10.4</ele>
        <time>2011-06-17T16:06:46Z</time>
      </trkpt>
      <trkpt lat="59.1681995625" lon="17.6478966605">
        <ele>10.4</ele>
        <time>2011-06-17T16:06:51Z</time>
      </trkpt>
      <trkpt lat="59.1681758417" lon="17.647885764">
        <ele>10.4</ele>
        <time>2011-06-17T16:06:52Z</time>
      </trkpt>
      <trkpt lat="59.1680925256" lon="17.6478990912">
        <ele>10.4</ele>
        <time>2011-06-17T16:06:55Z</time>
      </trkpt>
      <trkpt lat="59.1680532983" lon="17.6479219738">
        <ele>10.4</ele>
        <time>2011-06-17T16:06:57Z</time>
      </trkpt>
      <trkpt lat="59.1679629415" lon="17.647986263">
        <ele>10.4</ele>
        <time>2011-06-17T16:07:01Z</time>
      </trkpt>
      <trkpt lat="59.1678466845" lon="17.648095563">
        <ele>10.4</ele>
        <time>2011-06-17T16:07:06Z</time>
      </trkpt>
      <trkpt lat="59.167720034" lon="17.6481597683">
        <ele>10.4</ele>
        <time>2011-06-17T16:07:11Z</time>
      </trkpt>
      <trkpt lat="59.1675701656" lon="17.6482033542">
        <ele>10.4</ele>
        <time>2011-06-17T16:07:17Z</time>
      </trkpt>
      <trkpt lat="59.1674373125" lon="17.6482711638">
        <ele>10.4</ele>
        <time>2011-06-17T16:07:22Z</time>
      </trkpt>
      <trkpt lat="59.1673192115" lon="17.6483299209">
        <ele>10.4</ele>
        <time>2011-06-17T16:07:27Z</time>
      </trkpt>
      <trkpt lat="59.167165739" lon="17.648359509">
        <ele>10.4</ele>
        <time>2011-06-17T16:07:34Z</time>
      </trkpt>
      <trkpt lat="59.1670618034" lon="17.6483978981">
        <ele>10.4</ele>
        <time>2011-06-17T16:07:39Z</time>
      </trkpt>
      <trkpt lat="59.1669634837" lon="17.648443328">
        <ele>10.4</ele>
        <time>2011-06-17T16:07:44Z</time>
      </trkpt>
      <trkpt lat="59.1668440416" lon="17.648497978">
        <ele>9.6</ele>
        <time>2011-06-17T16:07:50Z</time>
      </trkpt>
      <trkpt lat="59.1667030581" lon="17.6485216149">
        <ele>9</ele>
        <time>2011-06-17T16:07:56Z</time>
      </trkpt>
      <trkpt lat="59.1665860467" lon="17.6485126463">
        <ele>8.8</ele>
        <time>2011-06-17T16:08:01Z</time>
      </trkpt>
      <trkpt lat="59.1664723044" lon="17.6484689766">
        <ele>8.6</ele>
        <time>2011-06-17T16:08:06Z</time>
      </trkpt>
      <trkpt lat="59.1663106175" lon="17.6483785359">
        <ele>8.4</ele>
        <time>2011-06-17T16:08:13Z</time>
      </trkpt>
      <trkpt lat="59.1661357711" lon="17.6481868419">
        <ele>8.4</ele>
        <time>2011-06-17T16:08:21Z</time>
      </trkpt>
      <trkpt lat="59.1660343501" lon="17.6480431761">
        <ele>8.4</ele>
        <time>2011-06-17T16:08:26Z</time>
      </trkpt>
      <trkpt lat="59.1659460887" lon="17.6478887815">
        <ele>8.4</ele>
        <time>2011-06-17T16:08:31Z</time>
      </trkpt>
      <trkpt lat="59.1658641975" lon="17.6476752107">
        <ele>9</ele>
        <time>2011-06-17T16:08:37Z</time>
      </trkpt>
      <trkpt lat="59.1657975614" lon="17.647403218">
        <ele>9.8</ele>
        <time>2011-06-17T16:08:43Z</time>
      </trkpt>
      <trkpt lat="59.1657346972" lon="17.6472746397">
        <ele>10</ele>
        <time>2011-06-17T16:08:47Z</time>
      </trkpt>
      <trkpt lat="59.1656197813" lon="17.6470783356">
        <ele>10.2</ele>
        <time>2011-06-17T16:08:54Z</time>
      </trkpt>
      <trkpt lat="59.1655347888" lon="17.6468865577">
        <ele>10.2</ele>
        <time>2011-06-17T16:08:59Z</time>
      </trkpt>
      <trkpt lat="59.1654505508" lon="17.6466611684">
        <ele>11</ele>
        <time>2011-06-17T16:09:05Z</time>
      </trkpt>
      <trkpt lat="59.1653777959" lon="17.6464777724">
        <ele>11.6</ele>
        <time>2011-06-17T16:09:10Z</time>
      </trkpt>
      <trkpt lat="59.1653142611" lon="17.6462322666">
        <ele>12</ele>
        <time>2011-06-17T16:09:16Z</time>
      </trkpt>
      <trkpt lat="59.1652715972" lon="17.6460604376">
        <ele>12.2</ele>
        <time>2011-06-17T16:09:20Z</time>
      </trkpt>
      <trkpt lat="59.1652182045" lon="17.6458080586">
        <ele>12.2</ele>
        <time>2011-06-17T16:09:26Z</time>
      </trkpt>
      <trkpt lat="59.1651833358" lon="17.6455965833">
        <ele>12.4</ele>
        <time>2011-06-17T16:09:31Z</time>
      </trkpt>
      <trkpt lat="59.1651488862" lon="17.6453354871">
        <ele>12.4</ele>
        <time>2011-06-17T16:09:37Z</time>
      </trkpt>
      <trkpt lat="59.1651245787" lon="17.6450075034">
        <ele>12.4</ele>
        <time>2011-06-17T16:09:44Z</time>
      </trkpt>
      <trkpt lat="59.1651237405" lon="17.644724279">
        <ele>12.4</ele>
        <time>2011-06-17T16:09:50Z</time>
      </trkpt>
      <trkpt lat="59.1651372353" lon="17.6444779349">
        <ele>12.4</ele>
        <time>2011-06-17T16:09:55Z</time>
      </trkpt>
      <trkpt lat="59.1651688351" lon="17.6442592511">
        <ele>12.4</ele>
        <time>2011-06-17T16:10:00Z</time>
      </trkpt>
      <trkpt lat="59.1652296877" lon="17.6439803853">
        <ele>12.4</ele>
        <time>2011-06-17T16:10:07Z</time>
      </trkpt>
      <trkpt lat="59.1653136743" lon="17.643686935">
        <ele>12.4</ele>
        <time>2011-06-17T16:10:14Z</time>
      </trkpt>
      <trkpt lat="59.1653831603" lon="17.6434713525">
        <ele>12.4</ele>
        <time>2011-06-17T16:10:20Z</time>
      </trkpt>
      <trkpt lat="59.1654507184" lon="17.6432652416">
        <ele>12.4</ele>
        <time>2011-06-17T16:10:26Z</time>
      </trkpt>
      <trkpt lat="59.1655135826" lon="17.6430316381">
        <ele>12.4</ele>
        <time>2011-06-17T16:10:32Z</time>
      </trkpt>
      <trkpt lat="59.1655616109" lon="17.6428011358">
        <ele>12.4</ele>
        <time>2011-06-17T16:10:38Z</time>
      </trkpt>
      <trkpt lat="59.1655914505" lon="17.6425547918">
        <ele>13.4</ele>
        <time>2011-06-17T16:10:44Z</time>
      </trkpt>
      <trkpt lat="59.1656160095" lon="17.6423503572">
        <ele>13.8</ele>
        <time>2011-06-17T16:10:49Z</time>
      </trkpt>
      <trkpt lat="59.1656092201" lon="17.6421510357">
        <ele>14.4</ele>
        <time>2011-06-17T16:10:54Z</time>
      </trkpt>
      <trkpt lat="59.1655943842" lon="17.6419497862">
        <ele>15.4</ele>
        <time>2011-06-17T16:10:59Z</time>
      </trkpt>
      <trkpt lat="59.1655901094" lon="17.6418539811">
        <ele>15.6</ele>
        <time>2011-06-17T16:11:02Z</time>
      </trkpt>
      <trkpt lat="59.165554151" lon="17.6416092296">
        <ele>17</ele>
        <time>2011-06-17T16:11:08Z</time>
      </trkpt>
      <trkpt lat="59.1655280833" lon="17.6414822439">
        <ele>17.4</ele>
        <time>2011-06-17T16:11:11Z</time>
      </trkpt>
      <trkpt lat="59.1654721761" lon="17.6412097483">
        <ele>18.4</ele>
        <time>2011-06-17T16:11:18Z</time>
      </trkpt>
      <trkpt lat="59.1654440129" lon="17.6409865383">
        <ele>19.4</ele>
        <time>2011-06-17T16:11:24Z</time>
      </trkpt>
      <trkpt lat="59.1653702522" lon="17.6409620631">
        <ele>19.8</ele>
        <time>2011-06-17T16:11:28Z</time>
      </trkpt>
      <trkpt lat="59.1653025264" lon="17.6409918189">
        <ele>20</ele>
        <time>2011-06-17T16:11:31Z</time>
      </trkpt>
      <trkpt lat="59.1652205514" lon="17.6408813454">
        <ele>20.2</ele>
        <time>2011-06-17T16:11:36Z</time>
      </trkpt>
      <trkpt lat="59.1651492214" lon="17.6407567904">
        <ele>20.4</ele>
        <time>2011-06-17T16:11:40Z</time>
      </trkpt>
      <trkpt lat="59.1650067291" lon="17.6407686089">
        <ele>20.6</ele>
        <time>2011-06-17T16:11:47Z</time>
      </trkpt>
      <trkpt lat="59.1648565255" lon="17.6408832733">
        <ele>21.6</ele>
        <time>2011-06-17T16:11:54Z</time>
      </trkpt>
      <trkpt lat="59.164733563" lon="17.6409605544">
        <ele>22</ele>
        <time>2011-06-17T16:12:00Z</time>
      </trkpt>
      <trkpt lat="59.1645971057" lon="17.641035321">
        <ele>22.4</ele>
        <time>2011-06-17T16:12:06Z</time>
      </trkpt>
      <trkpt lat="59.1644671862" lon="17.6410871211">
        <ele>22.4</ele>
        <time>2011-06-17T16:12:12Z</time>
      </trkpt>
      <trkpt lat="59.1643211735" lon="17.6411579481">
        <ele>22.6</ele>
        <time>2011-06-17T16:12:19Z</time>
      </trkpt>
      <trkpt lat="59.1641985464" lon="17.6412189684">
        <ele>23.4</ele>
        <time>2011-06-17T16:12:25Z</time>
      </trkpt>
      <trkpt lat="59.164074578" lon="17.6412899631">
        <ele>24</ele>
        <time>2011-06-17T16:12:31Z</time>
      </trkpt>
      <trkpt lat="59.163962512" lon="17.6413481335">
        <ele>24.4</ele>
        <time>2011-06-17T16:12:36Z</time>
      </trkpt>
      <trkpt lat="59.1638514519" lon="17.6414095728">
        <ele>24.8</ele>
        <time>2011-06-17T16:12:41Z</time>
      </trkpt>
      <trkpt lat="59.1637338538" lon="17.6414622949">
        <ele>25.8</ele>
        <time>2011-06-17T16:12:47Z</time>
      </trkpt>
      <trkpt lat="59.1635839854" lon="17.6415544958">
        <ele>26.4</ele>
        <time>2011-06-17T16:12:54Z</time>
      </trkpt>
      <trkpt lat="59.163468902" lon="17.6416089782">
        <ele>27.2</ele>
        <time>2011-06-17T16:12:59Z</time>
      </trkpt>
      <trkpt lat="59.1633519745" lon="17.6416879357">
        <ele>28</ele>
        <time>2011-06-17T16:13:05Z</time>
      </trkpt>
      <trkpt lat="59.1632060456" lon="17.6417919551">
        <ele>28.4</ele>
        <time>2011-06-17T16:13:11Z</time>
      </trkpt>
      <trkpt lat="59.1631062171" lon="17.6418481976">
        <ele>29.4</ele>
        <time>2011-06-17T16:13:16Z</time>
      </trkpt>
      <trkpt lat="59.1630089871" lon="17.6418716669">
        <ele>30</ele>
        <time>2011-06-17T16:13:20Z</time>
      </trkpt>
      <trkpt lat="59.1629203904" lon="17.6419095531">
        <ele>30.4</ele>
        <time>2011-06-17T16:13:24Z</time>
      </trkpt>
      <trkpt lat="59.1628112581" lon="17.6419310108">
        <ele>31.6</ele>
        <time>2011-06-17T16:13:29Z</time>
      </trkpt>
      <trkpt lat="59.1627897166" lon="17.6419398118">
        <ele>31.6</ele>
        <time>2011-06-17T16:13:30Z</time>
      </trkpt>
      <trkpt lat="59.1626960908" lon="17.641989265">
        <ele>32</ele>
        <time>2011-06-17T16:13:34Z</time>
      </trkpt>
      <trkpt lat="59.1625844439" lon="17.6420449208">
        <ele>32.4</ele>
        <time>2011-06-17T16:13:39Z</time>
      </trkpt>
      <trkpt lat="59.1624847831" lon="17.6420956313">
        <ele>32.6</ele>
        <time>2011-06-17T16:13:43Z</time>
      </trkpt>
      <trkpt lat="59.1623643352" lon="17.6421455874">
        <ele>32.8</ele>
        <time>2011-06-17T16:13:48Z</time>
      </trkpt>
      <trkpt lat="59.1622172328" lon="17.6421404745">
        <ele>32.8</ele>
        <time>2011-06-17T16:13:54Z</time>
      </trkpt>
      <trkpt lat="59.1620602398" lon="17.6421455874">
        <ele>32.8</ele>
        <time>2011-06-17T16:14:00Z</time>
      </trkpt>
      <trkpt lat="59.1619364392" lon="17.6421553942">
        <ele>33</ele>
        <time>2011-06-17T16:14:05Z</time>
      </trkpt>
      <trkpt lat="59.1617843915" lon="17.6421351101">
        <ele>33</ele>
        <time>2011-06-17T16:14:12Z</time>
      </trkpt>
      <trkpt lat="59.1616389655" lon="17.6421028397">
        <ele>33</ele>
        <time>2011-06-17T16:14:18Z</time>
      </trkpt>
      <trkpt lat="59.1615295818" lon="17.6421213637">
        <ele>33</ele>
        <time>2011-06-17T16:14:23Z</time>
      </trkpt>
      <trkpt lat="59.1614305077" lon="17.6421199388">
        <ele>33</ele>
        <time>2011-06-17T16:14:28Z</time>
      </trkpt>
      <trkpt lat="59.1613046954" lon="17.6420756824">
        <ele>33.4</ele>
        <time>2011-06-17T16:14:33Z</time>
      </trkpt>
      <trkpt lat="59.1611406616" lon="17.6421531311">
        <ele>34.2</ele>
        <time>2011-06-17T16:14:39Z</time>
      </trkpt>
      <trkpt lat="59.1610402464" lon="17.6422169174">
        <ele>34.4</ele>
        <time>2011-06-17T16:14:43Z</time>
      </trkpt>
      <trkpt lat="59.1609127577" lon="17.6422465893">
        <ele>34.6</ele>
        <time>2011-06-17T16:14:48Z</time>
      </trkpt>
      <trkpt lat="59.1607860234" lon="17.6422945338">
        <ele>34.4</ele>
        <time>2011-06-17T16:14:53Z</time>
      </trkpt>
      <trkpt lat="59.1607606262" lon="17.6423080286">
        <ele>34.2</ele>
        <time>2011-06-17T16:14:54Z</time>
      </trkpt>
      <trkpt lat="59.1605868695" lon="17.6423417239">
        <ele>33.6</ele>
        <time>2011-06-17T16:15:01Z</time>
      </trkpt>
      <trkpt lat="59.1604686847" lon="17.6424048396">
        <ele>33.4</ele>
        <time>2011-06-17T16:15:06Z</time>
      </trkpt>
      <trkpt lat="59.1603420342" lon="17.6424640158">
        <ele>33.2</ele>
        <time>2011-06-17T16:15:11Z</time>
      </trkpt>
      <trkpt lat="59.1602471511" lon="17.6424774268">
        <ele>33.2</ele>
        <time>2011-06-17T16:15:15Z</time>
      </trkpt>
      <trkpt lat="59.1601017251" lon="17.6424728168">
        <ele>33</ele>
        <time>2011-06-17T16:15:21Z</time>
      </trkpt>
      <trkpt lat="59.1600182414" lon="17.6424516944">
        <ele>33</ele>
        <time>2011-06-17T16:15:25Z</time>
      </trkpt>
      <trkpt lat="59.1599014815" lon="17.6424743255">
        <ele>33</ele>
        <time>2011-06-17T16:15:30Z</time>
      </trkpt>
      <trkpt lat="59.1598275531" lon="17.6424750799">
        <ele>33</ele>
        <time>2011-06-17T16:15:33Z</time>
      </trkpt>
      <trkpt lat="59.159651198" lon="17.6424945259">
        <ele>32</ele>
        <time>2011-06-17T16:15:40Z</time>
      </trkpt>
      <trkpt lat="59.1594800396" lon="17.6425184143">
        <ele>31.4</ele>
        <time>2011-06-17T16:15:47Z</time>
      </trkpt>
      <trkpt lat="59.1593517965" lon="17.6425362678">
        <ele>31.2</ele>
        <time>2011-06-17T16:15:52Z</time>
      </trkpt>
      <trkpt lat="59.1591756928" lon="17.6425900796">
        <ele>30</ele>
        <time>2011-06-17T16:15:59Z</time>
      </trkpt>
      <trkpt lat="59.1589917939" lon="17.6426448972">
        <ele>29.4</ele>
        <time>2011-06-17T16:16:07Z</time>
      </trkpt>
      <trkpt lat="59.1588233177" lon="17.6426700429">
        <ele>29.2</ele>
        <time>2011-06-17T16:16:13Z</time>
      </trkpt>
      <trkpt lat="59.1586794005" lon="17.6426966135">
        <ele>28</ele>
        <time>2011-06-17T16:16:19Z</time>
      </trkpt>
      <trkpt lat="59.1585618024" lon="17.6427271236">
        <ele>27.6</ele>
        <time>2011-06-17T16:16:24Z</time>
      </trkpt>
      <trkpt lat="59.15844806" lon="17.6427494195">
        <ele>27.2</ele>
        <time>2011-06-17T16:16:29Z</time>
      </trkpt>
      <trkpt lat="59.1582964315" lon="17.6428185702">
        <ele>27</ele>
        <time>2011-06-17T16:16:36Z</time>
      </trkpt>
      <trkpt lat="59.158164668" lon="17.6429448016">
        <ele>27</ele>
        <time>2011-06-17T16:16:41Z</time>
      </trkpt>
      <trkpt lat="59.1580402806" lon="17.6430432889">
        <ele>26.8</ele>
        <time>2011-06-17T16:16:47Z</time>
      </trkpt>
      <trkpt lat="59.1578923401" lon="17.6430559456">
        <ele>26.8</ele>
        <time>2011-06-17T16:16:53Z</time>
      </trkpt>
      <trkpt lat="59.1577391189" lon="17.6430161316">
        <ele>26.8</ele>
        <time>2011-06-17T16:16:59Z</time>
      </trkpt>
      <trkpt lat="59.157578857" lon="17.6430458035">
        <ele>26.8</ele>
        <time>2011-06-17T16:17:05Z</time>
      </trkpt>
      <trkpt lat="59.1574512007" lon="17.6430708654">
        <ele>26.8</ele>
        <time>2011-06-17T16:17:10Z</time>
      </trkpt>
      <trkpt lat="59.1573355304" lon="17.6430891379">
        <ele>26.8</ele>
        <time>2011-06-17T16:17:15Z</time>
      </trkpt>
      <trkpt lat="59.1572121489" lon="17.6431060693">
        <ele>26.8</ele>
        <time>2011-06-17T16:17:20Z</time>
      </trkpt>
      <trkpt lat="59.1571141645" lon="17.6431158762">
        <ele>26.8</ele>
        <time>2011-06-17T16:17:24Z</time>
      </trkpt>
      <trkpt lat="59.1569916211" lon="17.6431316341">
        <ele>26.8</ele>
        <time>2011-06-17T16:17:29Z</time>
      </trkpt>
      <trkpt lat="59.1568715085" lon="17.6431600488">
        <ele>26.8</ele>
        <time>2011-06-17T16:17:34Z</time>
      </trkpt>
      <trkpt lat="59.1567552515" lon="17.6432031317">
        <ele>26.8</ele>
        <time>2011-06-17T16:17:39Z</time>
      </trkpt>
      <trkpt lat="59.1567370628" lon="17.6432279422">
        <ele>26.8</ele>
        <time>2011-06-17T16:17:40Z</time>
      </trkpt>
      <trkpt lat="59.1566094065" lon="17.6433051395">
        <ele>26.8</ele>
        <time>2011-06-17T16:17:46Z</time>
      </trkpt>
      <trkpt lat="59.1565667426" lon="17.6433463784">
        <ele>26.8</ele>
        <time>2011-06-17T16:17:48Z</time>
      </trkpt>
      <trkpt lat="59.1564414332" lon="17.6434810756">
        <ele>26.8</ele>
        <time>2011-06-17T16:17:54Z</time>
      </trkpt>
      <trkpt lat="59.1563264335" lon="17.6436198798">
        <ele>26.8</ele>
        <time>2011-06-17T16:18:00Z</time>
      </trkpt>
      <trkpt lat="59.1562363281" lon="17.6437724304">
        <ele>26.8</ele>
        <time>2011-06-17T16:18:05Z</time>
      </trkpt>
      <trkpt lat="59.156122921" lon="17.6439984064">
        <ele>26.8</ele>
        <time>2011-06-17T16:18:12Z</time>
      </trkpt>
      <trkpt lat="59.1560380123" lon="17.6441787849">
        <ele>27.6</ele>
        <time>2011-06-17T16:18:17Z</time>
      </trkpt>
      <trkpt lat="59.1559830271" lon="17.6443154937">
        <ele>28</ele>
        <time>2011-06-17T16:18:21Z</time>
      </trkpt>
      <trkpt lat="59.1558959391" lon="17.6445267176">
        <ele>28.4</ele>
        <time>2011-06-17T16:18:27Z</time>
      </trkpt>
      <trkpt lat="59.1558436361" lon="17.6446820342">
        <ele>28.6</ele>
        <time>2011-06-17T16:18:32Z</time>
      </trkpt>
      <trkpt lat="59.1554689651" lon="17.6448236883">
        <ele>28.8</ele>
        <time>2011-06-17T16:18:42Z</time>
      </trkpt>
      <trkpt lat="59.155588491" lon="17.6449981156">
        <ele>28.8</ele>
        <time>2011-06-17T16:18:44Z</time>
      </trkpt>
      <trkpt lat="59.1556215995" lon="17.6450445514">
        <ele>28.8</ele>
        <time>2011-06-17T16:18:45Z</time>
      </trkpt>
      <trkpt lat="59.1555999742" lon="17.6452619778">
        <ele>28.8</ele>
        <time>2011-06-17T16:18:50Z</time>
      </trkpt>
      <trkpt lat="59.155582037" lon="17.6453587888">
        <ele>28.8</ele>
        <time>2011-06-17T16:18:51Z</time>
      </trkpt>
      <trkpt lat="59.1555012355" lon="17.6457160254">
        <ele>28.8</ele>
        <time>2011-06-17T16:18:59Z</time>
      </trkpt>
      <trkpt lat="59.1554395447" lon="17.6458990022">
        <ele>28.8</ele>
        <time>2011-06-17T16:19:04Z</time>
      </trkpt>
      <trkpt lat="59.1553407221" lon="17.6461572486">
        <ele>29.8</ele>
        <time>2011-06-17T16:19:11Z</time>
      </trkpt>
      <trkpt lat="59.1552491917" lon="17.6463286584">
        <ele>30.2</ele>
        <time>2011-06-17T16:19:16Z</time>
      </trkpt>
      <trkpt lat="59.1551413167" lon="17.6465414749">
        <ele>31</ele>
        <time>2011-06-17T16:19:22Z</time>
      </trkpt>
      <trkpt lat="59.1550657957" lon="17.6467033294">
        <ele>31.8</ele>
        <time>2011-06-17T16:19:27Z</time>
      </trkpt>
      <trkpt lat="59.1550267361" lon="17.6468068458">
        <ele>32.2</ele>
        <time>2011-06-17T16:19:30Z</time>
      </trkpt>
      <trkpt lat="59.1550046079" lon="17.6468306504">
        <ele>32.6</ele>
        <time>2011-06-17T16:19:33Z</time>
      </trkpt>
      <trkpt lat="59.1549911968" lon="17.6468950234">
        <ele>33.6</ele>
        <time>2011-06-17T16:19:39Z</time>
      </trkpt>
      <trkpt lat="59.1550062004" lon="17.6469267908">
        <ele>34</ele>
        <time>2011-06-17T16:19:42Z</time>
      </trkpt>
      <trkpt lat="59.1550321843" lon="17.6469360947">
        <ele>34.2</ele>
        <time>2011-06-17T16:19:45Z</time>
      </trkpt>
      <trkpt lat="59.1550477747" lon="17.6469414591">
        <ele>34.6</ele>
        <time>2011-06-17T16:19:51Z</time>
      </trkpt>
      <trkpt lat="59.1550393928" lon="17.646966521">
        <ele>34.8</ele>
        <time>2011-06-17T16:19:57Z</time>
      </trkpt>
      <trkpt lat="59.1545439387" lon="17.6474855283">
        <ele>32</ele>
        <time>2011-06-17T16:22:27Z</time>
      </trkpt>
      <trkpt lat="59.1545008557" lon="17.6475678385">
        <ele>31.6</ele>
        <time>2011-06-17T16:22:31Z</time>
      </trkpt>
      <trkpt lat="59.1544680825" lon="17.6476307028">
        <ele>31.4</ele>
        <time>2011-06-17T16:22:36Z</time>
      </trkpt>
      <trkpt lat="59.1544178749" lon="17.647713013">
        <ele>31.2</ele>
        <time>2011-06-17T16:22:41Z</time>
      </trkpt>
      <trkpt lat="59.1543625543" lon="17.6478058845">
        <ele>31</ele>
        <time>2011-06-17T16:22:47Z</time>
      </trkpt>
      <trkpt lat="59.1543250034" lon="17.6478574332">
        <ele>31</ele>
        <time>2011-06-17T16:22:51Z</time>
      </trkpt>
      <trkpt lat="59.1542499854" lon="17.6479648053">
        <ele>31</ele>
        <time>2011-06-17T16:22:59Z</time>
      </trkpt>
      <trkpt lat="59.1540731273" lon="17.6482481135">
        <ele>30.8</ele>
        <time>2011-06-17T16:23:16Z</time>
      </trkpt>
      <trkpt lat="59.1540628176" lon="17.6482646259">
        <ele>30.8</ele>
        <time>2011-06-17T16:23:17Z</time>
      </trkpt>
      <trkpt lat="59.1540045634" lon="17.6483861634">
        <ele>30.8</ele>
        <time>2011-06-17T16:23:22Z</time>
      </trkpt>
      <trkpt lat="59.1538841155" lon="17.6485853174">
        <ele>30.8</ele>
        <time>2011-06-17T16:23:33Z</time>
      </trkpt>
      <trkpt lat="59.1538839478" lon="17.6485965491">
        <ele>30.8</ele>
        <time>2011-06-17T16:23:35Z</time>
      </trkpt>
      <trkpt lat="59.1538872168" lon="17.6485819646">
        <ele>30.8</ele>
        <time>2011-06-17T16:23:36Z</time>
      </trkpt>
      <trkpt lat="59.1539080039" lon="17.6486460862">
        <ele>30.8</ele>
        <time>2011-06-17T16:23:41Z</time>
      </trkpt>
      <trkpt lat="59.1539108537" lon="17.6486730759">
        <ele>30.8</ele>
        <time>2011-06-17T16:23:42Z</time>
      </trkpt>
      <trkpt lat="59.153919068" lon="17.6488154005">
        <ele>31</ele>
        <time>2011-06-17T16:23:47Z</time>
      </trkpt>
      <trkpt lat="59.1538900666" lon="17.64891196">
        <ele>32</ele>
        <time>2011-06-17T16:23:52Z</time>
      </trkpt>
      <trkpt lat="59.1538931679" lon="17.6489166539">
        <ele>32</ele>
        <time>2011-06-17T16:23:54Z</time>
      </trkpt>
      <trkpt lat="59.1538423736" lon="17.6489366028">
        <ele>32.4</ele>
        <time>2011-06-17T16:23:58Z</time>
      </trkpt>
      <trkpt lat="59.1536127096" lon="17.6490769996">
        <ele>34</ele>
        <time>2011-06-17T16:24:14Z</time>
      </trkpt>
      <trkpt lat="59.1535448162" lon="17.6492008841">
        <ele>34.4</ele>
        <time>2011-06-17T16:24:20Z</time>
      </trkpt>
      <trkpt lat="59.1535323271" lon="17.6492220065">
        <ele>34.4</ele>
        <time>2011-06-17T16:24:21Z</time>
      </trkpt>
      <trkpt lat="59.1534565548" lon="17.6493430411">
        <ele>34.6</ele>
        <time>2011-06-17T16:24:26Z</time>
      </trkpt>
      <trkpt lat="59.1533760047" lon="17.6494718709">
        <ele>35</ele>
        <time>2011-06-17T16:24:31Z</time>
      </trkpt>
      <trkpt lat="59.1533353525" lon="17.6495233358">
        <ele>35.4</ele>
        <time>2011-06-17T16:24:32Z</time>
      </trkpt>
      <trkpt lat="59.1532367813" lon="17.6496385031">
        <ele>36</ele>
        <time>2011-06-17T16:24:38Z</time>
      </trkpt>
      <trkpt lat="59.1531152438" lon="17.649715449">
        <ele>36.4</ele>
        <time>2011-06-17T16:24:43Z</time>
      </trkpt>
      <trkpt lat="59.1529898506" lon="17.6498579413">
        <ele>36.6</ele>
        <time>2011-06-17T16:24:49Z</time>
      </trkpt>
      <trkpt lat="59.15290863" lon="17.6499479629">
        <ele>36.8</ele>
        <time>2011-06-17T16:24:53Z</time>
      </trkpt>
      <trkpt lat="59.1528189436" lon="17.650041421">
        <ele>36.8</ele>
        <time>2011-06-17T16:24:57Z</time>
      </trkpt>
      <trkpt lat="59.1527172712" lon="17.6501158523">
        <ele>36.8</ele>
        <time>2011-06-17T16:25:03Z</time>
      </trkpt>
      <trkpt lat="59.1526359668" lon="17.6501661437">
        <ele>37</ele>
        <time>2011-06-17T16:25:07Z</time>
      </trkpt>
      <trkpt lat="59.1525239846" lon="17.6502665589">
        <ele>37</ele>
        <time>2011-06-17T16:25:14Z</time>
      </trkpt>
      <trkpt lat="59.1524170315" lon="17.6503536468">
        <ele>37</ele>
        <time>2011-06-17T16:25:19Z</time>
      </trkpt>
      <trkpt lat="59.1522765509" lon="17.6504580015">
        <ele>37</ele>
        <time>2011-06-17T16:25:24Z</time>
      </trkpt>
      <trkpt lat="59.1521407641" lon="17.6505482745">
        <ele>37</ele>
        <time>2011-06-17T16:25:30Z</time>
      </trkpt>
      <trkpt lat="59.152039846" lon="17.6506460913">
        <ele>37</ele>
        <time>2011-06-17T16:25:34Z</time>
      </trkpt>
      <trkpt lat="59.1519237567" lon="17.6507387113">
        <ele>37</ele>
        <time>2011-06-17T16:25:39Z</time>
      </trkpt>
      <trkpt lat="59.1518568692" lon="17.6507958759">
        <ele>37</ele>
        <time>2011-06-17T16:25:42Z</time>
      </trkpt>
      <trkpt lat="59.1517339905" lon="17.6508630987">
        <ele>36.2</ele>
        <time>2011-06-17T16:25:47Z</time>
      </trkpt>
      <trkpt lat="59.1516901532" lon="17.6508875738">
        <ele>36</ele>
        <time>2011-06-17T16:25:49Z</time>
      </trkpt>
      <trkpt lat="59.1515472418" lon="17.6510070997">
        <ele>35.4</ele>
        <time>2011-06-17T16:25:56Z</time>
      </trkpt>
      <trkpt lat="59.151381364" lon="17.6510742388">
        <ele>34.2</ele>
        <time>2011-06-17T16:26:02Z</time>
      </trkpt>
      <trkpt lat="59.1512086968" lon="17.6511611591">
        <ele>33.4</ele>
        <time>2011-06-17T16:26:09Z</time>
      </trkpt>
      <trkpt lat="59.1511941961" lon="17.6511818624">
        <ele>33.4</ele>
        <time>2011-06-17T16:26:10Z</time>
      </trkpt>
      <trkpt lat="59.1511385403" lon="17.6512226822">
        <ele>33.2</ele>
        <time>2011-06-17T16:26:13Z</time>
      </trkpt>
      <trkpt lat="59.1509957966" lon="17.6513101054">
        <ele>33</ele>
        <time>2011-06-17T16:26:20Z</time>
      </trkpt>
      <trkpt lat="59.1508855746" lon="17.6513807648">
        <ele>33</ele>
        <time>2011-06-17T16:26:25Z</time>
      </trkpt>
      <trkpt lat="59.1507450101" lon="17.6514280388">
        <ele>32.8</ele>
        <time>2011-06-17T16:26:31Z</time>
      </trkpt>
      <trkpt lat="59.1506122408" lon="17.651478414">
        <ele>33.2</ele>
        <time>2011-06-17T16:26:37Z</time>
      </trkpt>
      <trkpt lat="59.1505119933" lon="17.6515004584">
        <ele>34</ele>
        <time>2011-06-17T16:26:42Z</time>
      </trkpt>
      <trkpt lat="59.1504230613" lon="17.6515291245">
        <ele>34.4</ele>
        <time>2011-06-17T16:26:47Z</time>
      </trkpt>
      <trkpt lat="59.1503313634" lon="17.6515570362">
        <ele>34.6</ele>
        <time>2011-06-17T16:26:52Z</time>
      </trkpt>
      <trkpt lat="59.15020882" lon="17.6515675136">
        <ele>34.8</ele>
        <time>2011-06-17T16:26:57Z</time>
      </trkpt>
      <trkpt lat="59.1501861888" lon="17.6515645799">
        <ele>34.8</ele>
        <time>2011-06-17T16:26:59Z</time>
      </trkpt>
      <trkpt lat="59.1500458758" lon="17.6515907314">
        <ele>35.6</ele>
        <time>2011-06-17T16:27:05Z</time>
      </trkpt>
      <trkpt lat="59.14990967" lon="17.6515999515">
        <ele>36.2</ele>
        <time>2011-06-17T16:27:11Z</time>
      </trkpt>
      <trkpt lat="59.1498160441" lon="17.6516114347">
        <ele>36.6</ele>
        <time>2011-06-17T16:27:15Z</time>
      </trkpt>
      <trkpt lat="59.1497774874" lon="17.6516124406">
        <ele>36.6</ele>
        <time>2011-06-17T16:27:17Z</time>
      </trkpt>
      <trkpt lat="59.1496523456" lon="17.6516133626">
        <ele>36.8</ele>
        <time>2011-06-17T16:27:22Z</time>
      </trkpt>
      <trkpt lat="59.1495180676" lon="17.6515831877">
        <ele>36.8</ele>
        <time>2011-06-17T16:27:29Z</time>
      </trkpt>
      <trkpt lat="59.1494945145" lon="17.6515934136">
        <ele>36.8</ele>
        <time>2011-06-17T16:27:30Z</time>
      </trkpt>
      <trkpt lat="59.149401643" lon="17.6515634064">
        <ele>37</ele>
        <time>2011-06-17T16:27:34Z</time>
      </trkpt>
      <trkpt lat="59.1492533672" lon="17.6515340698">
        <ele>37</ele>
        <time>2011-06-17T16:27:40Z</time>
      </trkpt>
      <trkpt lat="59.1490599968" lon="17.651541865">
        <ele>37</ele>
        <time>2011-06-17T16:27:47Z</time>
      </trkpt>
      <trkpt lat="59.1489119724" lon="17.6515363329">
        <ele>37</ele>
        <time>2011-06-17T16:27:52Z</time>
      </trkpt>
      <trkpt lat="59.1487679714" lon="17.6515084212">
        <ele>37</ele>
        <time>2011-06-17T16:27:59Z</time>
      </trkpt>
      <trkpt lat="59.1487434124" lon="17.6515044817">
        <ele>37</ele>
        <time>2011-06-17T16:28:00Z</time>
      </trkpt>
      <trkpt lat="59.1485611899" lon="17.6514776596">
        <ele>37.8</ele>
        <time>2011-06-17T16:28:07Z</time>
      </trkpt>
      <trkpt lat="59.1484589307" lon="17.6514942558">
        <ele>38.2</ele>
        <time>2011-06-17T16:28:11Z</time>
      </trkpt>
      <trkpt lat="59.1483223057" lon="17.6514359177">
        <ele>38.6</ele>
        <time>2011-06-17T16:28:17Z</time>
      </trkpt>
      <trkpt lat="59.1481825795" lon="17.6514115264">
        <ele>38.8</ele>
        <time>2011-06-17T16:28:24Z</time>
      </trkpt>
      <trkpt lat="59.148059617" lon="17.6513743108">
        <ele>39</ele>
        <time>2011-06-17T16:28:30Z</time>
      </trkpt>
      <trkpt lat="59.1480369859" lon="17.651366348">
        <ele>39</ele>
        <time>2011-06-17T16:28:31Z</time>
      </trkpt>
      <trkpt lat="59.1479013667" lon="17.6513688625">
        <ele>39</ele>
        <time>2011-06-17T16:28:36Z</time>
      </trkpt>
      <trkpt lat="59.1478788194" lon="17.6513689464">
        <ele>39</ele>
        <time>2011-06-17T16:28:37Z</time>
      </trkpt>
      <trkpt lat="59.1477310465" lon="17.6513722153">
        <ele>39</ele>
        <time>2011-06-17T16:28:42Z</time>
      </trkpt>
      <trkpt lat="59.1476126941" lon="17.6513892306">
        <ele>39</ele>
        <time>2011-06-17T16:28:47Z</time>
      </trkpt>
      <trkpt lat="59.1474437988" lon="17.6513724668">
        <ele>38.2</ele>
        <time>2011-06-17T16:28:55Z</time>
      </trkpt>
      <trkpt lat="59.1472856323" lon="17.6513577146">
        <ele>37.6</ele>
        <time>2011-06-17T16:29:01Z</time>
      </trkpt>
      <trkpt lat="59.1470896635" lon="17.6513295514">
        <ele>36.8</ele>
        <time>2011-06-17T16:29:09Z</time>
      </trkpt>
      <trkpt lat="59.1469889969" lon="17.6513194932">
        <ele>36.2</ele>
        <time>2011-06-17T16:29:12Z</time>
      </trkpt>
      <trkpt lat="59.1468290703" lon="17.6513088481">
        <ele>35.6</ele>
        <time>2011-06-17T16:29:19Z</time>
      </trkpt>
      <trkpt lat="59.1467082033" lon="17.6512724707">
        <ele>34.6</ele>
        <time>2011-06-17T16:29:24Z</time>
      </trkpt>
      <trkpt lat="59.1465960534" lon="17.6512391107">
        <ele>33.8</ele>
        <time>2011-06-17T16:29:29Z</time>
      </trkpt>
      <trkpt lat="59.1464331931" lon="17.6512078462">
        <ele>33.2</ele>
        <time>2011-06-17T16:29:36Z</time>
      </trkpt>
      <trkpt lat="59.1464126575" lon="17.6512010569">
        <ele>33.2</ele>
        <time>2011-06-17T16:29:37Z</time>
      </trkpt>
      <trkpt lat="59.1462932992" lon="17.6511760788">
        <ele>33</ele>
        <time>2011-06-17T16:29:42Z</time>
      </trkpt>
      <trkpt lat="59.1461764555" lon="17.6511569681">
        <ele>32.8</ele>
        <time>2011-06-17T16:29:47Z</time>
      </trkpt>
      <trkpt lat="59.1460600309" lon="17.6511420483">
        <ele>32.8</ele>
        <time>2011-06-17T16:29:52Z</time>
      </trkpt>
      <trkpt lat="59.1459213943" lon="17.6511191657">
        <ele>31.8</ele>
        <time>2011-06-17T16:29:57Z</time>
      </trkpt>
      <trkpt lat="59.145810837" lon="17.6511140528">
        <ele>31.4</ele>
        <time>2011-06-17T16:30:03Z</time>
      </trkpt>
      <trkpt lat="59.1455509981" lon="17.6510346762">
        <ele>31</ele>
        <time>2011-06-17T16:30:14Z</time>
      </trkpt>
      <trkpt lat="59.1454061589" lon="17.651011626">
        <ele>30.8</ele>
        <time>2011-06-17T16:30:20Z</time>
      </trkpt>
      <trkpt lat="59.1452578831" lon="17.65098011">
        <ele>30.8</ele>
        <time>2011-06-17T16:30:26Z</time>
      </trkpt>
      <trkpt lat="59.1451416261" lon="17.6509611669">
        <ele>30.6</ele>
        <time>2011-06-17T16:30:31Z</time>
      </trkpt>
      <trkpt lat="59.1450220164" lon="17.6509406313">
        <ele>30.6</ele>
        <time>2011-06-17T16:30:36Z</time>
      </trkpt>
      <trkpt lat="59.1448801109" lon="17.6509247057">
        <ele>30.6</ele>
        <time>2011-06-17T16:30:42Z</time>
      </trkpt>
      <trkpt lat="59.144759663" lon="17.6509147312">
        <ele>30.6</ele>
        <time>2011-06-17T16:30:47Z</time>
      </trkpt>
      <trkpt lat="59.1446186794" lon="17.6508837182">
        <ele>30.6</ele>
        <time>2011-06-17T16:30:52Z</time>
      </trkpt>
      <trkpt lat="59.1445069487" lon="17.6508629311">
        <ele>30.6</ele>
        <time>2011-06-17T16:30:57Z</time>
      </trkpt>
      <trkpt lat="59.1443155061" lon="17.6508311637">
        <ele>30.6</ele>
        <time>2011-06-17T16:31:06Z</time>
      </trkpt>
      <trkpt lat="59.1442106485" lon="17.6508135617">
        <ele>30.6</ele>
        <time>2011-06-17T16:31:10Z</time>
      </trkpt>
      <trkpt lat="59.1441007618" lon="17.6507987257">
        <ele>30.6</ele>
        <time>2011-06-17T16:31:16Z</time>
      </trkpt>
      <trkpt lat="59.1439999275" lon="17.6507896733">
        <ele>30.6</ele>
        <time>2011-06-17T16:31:21Z</time>
      </trkpt>
      <trkpt lat="59.1438800664" lon="17.6508067723">
        <ele>30.6</ele>
        <time>2011-06-17T16:31:26Z</time>
      </trkpt>
      <trkpt lat="59.1437656534" lon="17.6507894218">
        <ele>30.6</ele>
        <time>2011-06-17T16:31:31Z</time>
      </trkpt>
      <trkpt lat="59.1436193893" lon="17.6507729095">
        <ele>30.6</ele>
        <time>2011-06-17T16:31:37Z</time>
      </trkpt>
      <trkpt lat="59.1434612228" lon="17.6507586602">
        <ele>30.6</ele>
        <time>2011-06-17T16:31:45Z</time>
      </trkpt>
      <trkpt lat="59.143343038" lon="17.650755056">
        <ele>30.6</ele>
        <time>2011-06-17T16:31:50Z</time>
      </trkpt>
      <trkpt lat="59.1432188183" lon="17.6507439919">
        <ele>30.6</ele>
        <time>2011-06-17T16:31:55Z</time>
      </trkpt>
      <trkpt lat="59.1430634179" lon="17.6507534634">
        <ele>30.6</ele>
        <time>2011-06-17T16:32:01Z</time>
      </trkpt>
      <trkpt lat="59.1429675289" lon="17.6507475123">
        <ele>30.6</ele>
        <time>2011-06-17T16:32:05Z</time>
      </trkpt>
      <trkpt lat="59.1428086919" lon="17.6507150743">
        <ele>29.6</ele>
        <time>2011-06-17T16:32:11Z</time>
      </trkpt>
      <trkpt lat="59.1426485138" lon="17.6506770205">
        <ele>29.2</ele>
        <time>2011-06-17T16:32:17Z</time>
      </trkpt>
      <trkpt lat="59.1424917723" lon="17.6506608435">
        <ele>28.6</ele>
        <time>2011-06-17T16:32:22Z</time>
      </trkpt>
      <trkpt lat="59.1423324324" lon="17.6506164194">
        <ele>27.6</ele>
        <time>2011-06-17T16:32:29Z</time>
      </trkpt>
      <trkpt lat="59.1422081288" lon="17.6505840653">
        <ele>27.2</ele>
        <time>2011-06-17T16:32:34Z</time>
      </trkpt>
      <trkpt lat="59.1420903631" lon="17.6505343606">
        <ele>27</ele>
        <time>2011-06-17T16:32:39Z</time>
      </trkpt>
      <trkpt lat="59.1419420873" lon="17.6504858294">
        <ele>26.8</ele>
        <time>2011-06-17T16:32:45Z</time>
      </trkpt>
      <trkpt lat="59.1418293507" lon="17.6504419082">
        <ele>26.6</ele>
        <time>2011-06-17T16:32:50Z</time>
      </trkpt>
      <trkpt lat="59.1417161951" lon="17.6503722546">
        <ele>26.6</ele>
        <time>2011-06-17T16:32:55Z</time>
      </trkpt>
      <trkpt lat="59.1416067275" lon="17.6503206221">
        <ele>26.6</ele>
        <time>2011-06-17T16:33:00Z</time>
      </trkpt>
      <trkpt lat="59.1414550151" lon="17.6502457718">
        <ele>26.6</ele>
        <time>2011-06-17T16:33:06Z</time>
      </trkpt>
      <trkpt lat="59.1413397639" lon="17.6501528165">
        <ele>26.6</ele>
        <time>2011-06-17T16:33:11Z</time>
      </trkpt>
      <trkpt lat="59.1412697751" lon="17.6500716797">
        <ele>26.6</ele>
        <time>2011-06-17T16:33:15Z</time>
      </trkpt>
      <trkpt lat="59.1411631573" lon="17.6499817419">
        <ele>26.6</ele>
        <time>2011-06-17T16:33:21Z</time>
      </trkpt>
      <trkpt lat="59.1410689448" lon="17.6498961627">
        <ele>26.6</ele>
        <time>2011-06-17T16:33:25Z</time>
      </trkpt>
      <trkpt lat="59.1409621594" lon="17.6497982621">
        <ele>26.6</ele>
        <time>2011-06-17T16:33:29Z</time>
      </trkpt>
      <trkpt lat="59.1408420467" lon="17.6497017865">
        <ele>26.6</ele>
        <time>2011-06-17T16:33:34Z</time>
      </trkpt>
      <trkpt lat="59.1406977942" lon="17.6495735434">
        <ele>26.6</ele>
        <time>2011-06-17T16:33:40Z</time>
      </trkpt>
      <trkpt lat="59.1405596605" lon="17.6494684344">
        <ele>26.6</ele>
        <time>2011-06-17T16:33:46Z</time>
      </trkpt>
      <trkpt lat="59.1404280647" lon="17.6493628224">
        <ele>26.6</ele>
        <time>2011-06-17T16:33:52Z</time>
      </trkpt>
      <trkpt lat="59.1402955468" lon="17.6492800931">
        <ele>26.6</ele>
        <time>2011-06-17T16:33:57Z</time>
      </trkpt>
      <trkpt lat="59.1401859954" lon="17.6491982019">
        <ele>26.6</ele>
        <time>2011-06-17T16:34:03Z</time>
      </trkpt>
      <trkpt lat="59.1400547349" lon="17.6490986249">
        <ele>26.6</ele>
        <time>2011-06-17T16:34:09Z</time>
      </trkpt>
      <trkpt lat="59.1399079678" lon="17.6489960305">
        <ele>26.6</ele>
        <time>2011-06-17T16:34:16Z</time>
      </trkpt>
      <trkpt lat="59.1397863464" lon="17.6489573061">
        <ele>26.6</ele>
        <time>2011-06-17T16:34:21Z</time>
      </trkpt>
      <trkpt lat="59.1396778846" lon="17.6488993033">
        <ele>26.6</ele>
        <time>2011-06-17T16:34:26Z</time>
      </trkpt>
      <trkpt lat="59.1395515694" lon="17.648842977">
        <ele>26.6</ele>
        <time>2011-06-17T16:34:32Z</time>
      </trkpt>
      <trkpt lat="59.1394163694" lon="17.6487766762">
        <ele>26.6</ele>
        <time>2011-06-17T16:34:38Z</time>
      </trkpt>
      <trkpt lat="59.1392654113" lon="17.6486968805">
        <ele>26.6</ele>
        <time>2011-06-17T16:34:45Z</time>
      </trkpt>
      <trkpt lat="59.1391381741" lon="17.6486409732">
        <ele>26.6</ele>
        <time>2011-06-17T16:34:51Z</time>
      </trkpt>
      <trkpt lat="59.1390731305" lon="17.6486168333">
        <ele>26.6</ele>
        <time>2011-06-17T16:34:54Z</time>
      </trkpt>
      <trkpt lat="59.1389647526" lon="17.6485945375">
        <ele>27.4</ele>
        <time>2011-06-17T16:34:59Z</time>
      </trkpt>
      <trkpt lat="59.1388272894" lon="17.6485376244">
        <ele>28</ele>
        <time>2011-06-17T16:35:05Z</time>
      </trkpt>
      <trkpt lat="59.1387392795" lon="17.6484781967">
        <ele>28.2</ele>
        <time>2011-06-17T16:35:10Z</time>
      </trkpt>
      <trkpt lat="59.1386384452" lon="17.6484293302">
        <ele>28.4</ele>
        <time>2011-06-17T16:35:15Z</time>
      </trkpt>
      <trkpt lat="59.1385342582" lon="17.6483792065">
        <ele>29</ele>
        <time>2011-06-17T16:35:20Z</time>
      </trkpt>
      <trkpt lat="59.1384601622" lon="17.648332184">
        <ele>29.6</ele>
        <time>2011-06-17T16:35:24Z</time>
      </trkpt>
      <trkpt lat="59.1383299075" lon="17.6482656317">
        <ele>30</ele>
        <time>2011-06-17T16:35:30Z</time>
      </trkpt>
      <trkpt lat="59.1382330127" lon="17.6482162623">
        <ele>30.4</ele>
        <time>2011-06-17T16:35:35Z</time>
      </trkpt>
      <trkpt lat="59.1381174263" lon="17.6481536495">
        <ele>30.4</ele>
        <time>2011-06-17T16:35:42Z</time>
      </trkpt>
      <trkpt lat="59.1380127364" lon="17.6481281686">
        <ele>30.6</ele>
        <time>2011-06-17T16:35:49Z</time>
      </trkpt>
      <trkpt lat="59.1379668874" lon="17.6481066271">
        <ele>30.6</ele>
        <time>2011-06-17T16:35:51Z</time>
      </trkpt>
      <trkpt lat="59.1378545699" lon="17.6480601075">
        <ele>30.6</ele>
        <time>2011-06-17T16:35:57Z</time>
      </trkpt>
      <trkpt lat="59.1377627043" lon="17.6479938067">
        <ele>30.6</ele>
        <time>2011-06-17T16:36:01Z</time>
      </trkpt>
      <trkpt lat="59.1376705034" lon="17.6479536574">
        <ele>30.8</ele>
        <time>2011-06-17T16:36:04Z</time>
      </trkpt>
      <trkpt lat="59.1376108243" lon="17.647931613">
        <ele>31.4</ele>
        <time>2011-06-17T16:36:09Z</time>
      </trkpt>
      <trkpt lat="59.1374546695" lon="17.6478358917">
        <ele>32</ele>
        <time>2011-06-17T16:36:15Z</time>
      </trkpt>
      <trkpt lat="59.1374199684" lon="17.647825079">
        <ele>32.2</ele>
        <time>2011-06-17T16:36:16Z</time>
      </trkpt>
      <trkpt lat="59.1372977603" lon="17.6477771346">
        <ele>32.4</ele>
        <time>2011-06-17T16:36:22Z</time>
      </trkpt>
      <trkpt lat="59.1371524182" lon="17.6476831735">
        <ele>33.4</ele>
        <time>2011-06-17T16:36:28Z</time>
      </trkpt>
      <trkpt lat="59.1370368318" lon="17.647609748">
        <ele>33.8</ele>
        <time>2011-06-17T16:36:32Z</time>
      </trkpt>
      <trkpt lat="59.1369180602" lon="17.647537999">
        <ele>34.6</ele>
        <time>2011-06-17T16:36:37Z</time>
      </trkpt>
      <trkpt lat="59.1367782501" lon="17.6474619751">
        <ele>35.6</ele>
        <time>2011-06-17T16:36:43Z</time>
      </trkpt>
      <trkpt lat="59.1366331595" lon="17.6473848617">
        <ele>36.2</ele>
        <time>2011-06-17T16:36:50Z</time>
      </trkpt>
      <trkpt lat="59.1364778429" lon="17.6473312175">
        <ele>36.6</ele>
        <time>2011-06-17T16:36:57Z</time>
      </trkpt>
      <trkpt lat="59.1363437325" lon="17.6472575406">
        <ele>37.2</ele>
        <time>2011-06-17T16:37:03Z</time>
      </trkpt>
      <trkpt lat="59.1362045929" lon="17.6471841152">
        <ele>38</ele>
        <time>2011-06-17T16:37:09Z</time>
      </trkpt>
      <trkpt lat="59.1360930298" lon="17.6471272021">
        <ele>38.4</ele>
        <time>2011-06-17T16:37:14Z</time>
      </trkpt>
      <trkpt lat="59.1359289122" lon="17.6470604821">
        <ele>38.6</ele>
        <time>2011-06-17T16:37:21Z</time>
      </trkpt>
      <trkpt lat="59.1357820613" lon="17.6470065865">
        <ele>39.8</ele>
        <time>2011-06-17T16:37:27Z</time>
      </trkpt>
      <trkpt lat="59.1356212965" lon="17.6469731427">
        <ele>40.4</ele>
        <time>2011-06-17T16:37:35Z</time>
      </trkpt>
      <trkpt lat="59.135482157" lon="17.6469561275">
        <ele>40.6</ele>
        <time>2011-06-17T16:37:41Z</time>
      </trkpt>
      <trkpt lat="59.1353482142" lon="17.6469520203">
        <ele>40.8</ele>
        <time>2011-06-17T16:37:47Z</time>
      </trkpt>
      <trkpt lat="59.1352420155" lon="17.6469601508">
        <ele>41.6</ele>
        <time>2011-06-17T16:37:52Z</time>
      </trkpt>
      <trkpt lat="59.1351612978" lon="17.6469638388">
        <ele>42</ele>
        <time>2011-06-17T16:37:56Z</time>
      </trkpt>
      <trkpt lat="59.1350489804" lon="17.6470133759">
        <ele>42.4</ele>
        <time>2011-06-17T16:38:02Z</time>
      </trkpt>
      <trkpt lat="59.1349571147" lon="17.647023015">
        <ele>42.6</ele>
        <time>2011-06-17T16:38:06Z</time>
      </trkpt>
      <trkpt lat="59.1349348189" lon="17.6470314808">
        <ele>42.8</ele>
        <time>2011-06-17T16:38:07Z</time>
      </trkpt>
      <trkpt lat="59.1348297937" lon="17.6470464844">
        <ele>43.8</ele>
        <time>2011-06-17T16:38:13Z</time>
      </trkpt>
      <trkpt lat="59.1347021373" lon="17.6471094324">
        <ele>44.2</ele>
        <time>2011-06-17T16:38:19Z</time>
      </trkpt>
      <trkpt lat="59.1346245209" lon="17.6471254419">
        <ele>44.4</ele>
        <time>2011-06-17T16:38:22Z</time>
      </trkpt>
      <trkpt lat="59.1345039054" lon="17.6472067463">
        <ele>45</ele>
        <time>2011-06-17T16:38:28Z</time>
      </trkpt>
      <trkpt lat="59.1343833737" lon="17.6472881345">
        <ele>46</ele>
        <time>2011-06-17T16:38:34Z</time>
      </trkpt>
      <trkpt lat="59.134292011" lon="17.6473489871">
        <ele>46.6</ele>
        <time>2011-06-17T16:38:38Z</time>
      </trkpt>
      <trkpt lat="59.134187824" lon="17.6474320518">
        <ele>47.6</ele>
        <time>2011-06-17T16:38:43Z</time>
      </trkpt>
      <trkpt lat="59.1340649453" lon="17.6475480573">
        <ele>49</ele>
        <time>2011-06-17T16:38:49Z</time>
      </trkpt>
      <trkpt lat="59.1339531308" lon="17.6476385818">
        <ele>50.2</ele>
        <time>2011-06-17T16:38:54Z</time>
      </trkpt>
      <trkpt lat="59.1338282404" lon="17.647737572">
        <ele>51.6</ele>
        <time>2011-06-17T16:39:00Z</time>
      </trkpt>
      <trkpt lat="59.1337083793" lon="17.6478334609">
        <ele>53</ele>
        <time>2011-06-17T16:39:05Z</time>
      </trkpt>
      <trkpt lat="59.1335934634" lon="17.6479211356">
        <ele>54</ele>
        <time>2011-06-17T16:39:11Z</time>
      </trkpt>
      <trkpt lat="59.1335135839" lon="17.6479507237">
        <ele>54.4</ele>
        <time>2011-06-17T16:39:14Z</time>
      </trkpt>
      <trkpt lat="59.1334253225" lon="17.6480102352">
        <ele>55.2</ele>
        <time>2011-06-17T16:39:18Z</time>
      </trkpt>
      <trkpt lat="59.1332835846" lon="17.6480862591">
        <ele>56.2</ele>
        <time>2011-06-17T16:39:24Z</time>
      </trkpt>
      <trkpt lat="59.1332123384" lon="17.6481435912">
        <ele>56.6</ele>
        <time>2011-06-17T16:39:28Z</time>
      </trkpt>
      <trkpt lat="59.1331508991" lon="17.6481780409">
        <ele>57</ele>
        <time>2011-06-17T16:39:32Z</time>
      </trkpt>
      <trkpt lat="59.133028691" lon="17.6482269073">
        <ele>57.2</ele>
        <time>2011-06-17T16:39:38Z</time>
      </trkpt>
      <trkpt lat="59.1329165412" lon="17.6482712476">
        <ele>57.4</ele>
        <time>2011-06-17T16:39:43Z</time>
      </trkpt>
      <trkpt lat="59.1327857835" lon="17.6482999975">
        <ele>57.4</ele>
        <time>2011-06-17T16:39:48Z</time>
      </trkpt>
      <trkpt lat="59.1327630686" lon="17.6483253947">
        <ele>57.4</ele>
        <time>2011-06-17T16:39:49Z</time>
      </trkpt>
      <trkpt lat="59.1327061555" lon="17.6483467685">
        <ele>57.4</ele>
        <time>2011-06-17T16:39:52Z</time>
      </trkpt>
      <trkpt lat="59.1325883898" lon="17.6483430805">
        <ele>57.4</ele>
        <time>2011-06-17T16:39:56Z</time>
      </trkpt>
      <trkpt lat="59.1323980368" lon="17.6482962256">
        <ele>57</ele>
        <time>2011-06-17T16:40:03Z</time>
      </trkpt>
      <trkpt lat="59.1322903294" lon="17.6482958065">
        <ele>56.4</ele>
        <time>2011-06-17T16:40:07Z</time>
      </trkpt>
      <trkpt lat="59.1322329134" lon="17.6482772826">
        <ele>55.8</ele>
        <time>2011-06-17T16:40:10Z</time>
      </trkpt>
      <trkpt lat="59.1321339232" lon="17.6482953036">
        <ele>54.8</ele>
        <time>2011-06-17T16:40:14Z</time>
      </trkpt>
      <trkpt lat="59.1320198455" lon="17.6482948845">
        <ele>53.8</ele>
        <time>2011-06-17T16:40:19Z</time>
      </trkpt>
      <trkpt lat="59.1319511978" lon="17.6482963933">
        <ele>53</ele>
        <time>2011-06-17T16:40:22Z</time>
      </trkpt>
      <trkpt lat="59.1318179255" lon="17.6482710799">
        <ele>52</ele>
        <time>2011-06-17T16:40:28Z</time>
      </trkpt>
      <trkpt lat="59.1316905207" lon="17.6482723372">
        <ele>50.8</ele>
        <time>2011-06-17T16:40:33Z</time>
      </trkpt>
      <trkpt lat="59.1315972301" lon="17.6482595129">
        <ele>50.2</ele>
        <time>2011-06-17T16:40:37Z</time>
      </trkpt>
      <trkpt lat="59.131476866" lon="17.6483146658">
        <ele>49.6</ele>
        <time>2011-06-17T16:40:43Z</time>
      </trkpt>
      <trkpt lat="59.1313472819" lon="17.6482903583">
        <ele>48.8</ele>
        <time>2011-06-17T16:40:47Z</time>
      </trkpt>
      <trkpt lat="59.1311872714" lon="17.6483041046">
        <ele>48</ele>
        <time>2011-06-17T16:40:53Z</time>
      </trkpt>
      <trkpt lat="59.1310693381" lon="17.6483341118">
        <ele>47.6</ele>
        <time>2011-06-17T16:40:58Z</time>
      </trkpt>
      <trkpt lat="59.1309435257" lon="17.6484045198">
        <ele>47.2</ele>
        <time>2011-06-17T16:41:04Z</time>
      </trkpt>
      <trkpt lat="59.130835064" lon="17.6484255584">
        <ele>47</ele>
        <time>2011-06-17T16:41:10Z</time>
      </trkpt>
      <trkpt lat="59.1308130196" lon="17.6484300008">
        <ele>47</ele>
        <time>2011-06-17T16:41:11Z</time>
      </trkpt>
      <trkpt lat="59.1307110957" lon="17.6484355328">
        <ele>47</ele>
        <time>2011-06-17T16:41:15Z</time>
      </trkpt>
      <trkpt lat="59.130586373" lon="17.6484158354">
        <ele>47</ele>
        <time>2011-06-17T16:41:20Z</time>
      </trkpt>
      <trkpt lat="59.1305588803" lon="17.6484049389">
        <ele>47</ele>
        <time>2011-06-17T16:41:21Z</time>
      </trkpt>
      <trkpt lat="59.1304896459" lon="17.6484246364">
        <ele>47</ele>
        <time>2011-06-17T16:41:24Z</time>
      </trkpt>
      <trkpt lat="59.1303508416" lon="17.6484349461">
        <ele>47</ele>
        <time>2011-06-17T16:41:30Z</time>
      </trkpt>
      <trkpt lat="59.1303345807" lon="17.6484395561">
        <ele>47</ele>
        <time>2011-06-17T16:41:31Z</time>
      </trkpt>
      <trkpt lat="59.1302105286" lon="17.6485369538">
        <ele>47</ele>
        <time>2011-06-17T16:41:38Z</time>
      </trkpt>
      <trkpt lat="59.130064013" lon="17.6485884187">
        <ele>47</ele>
        <time>2011-06-17T16:41:44Z</time>
      </trkpt>
      <trkpt lat="59.1299840496" lon="17.6486115527">
        <ele>47</ele>
        <time>2011-06-17T16:41:47Z</time>
      </trkpt>
      <trkpt lat="59.1298434852" lon="17.6487068549">
        <ele>47</ele>
        <time>2011-06-17T16:41:53Z</time>
      </trkpt>
      <trkpt lat="59.1296780265" lon="17.6488547116">
        <ele>47</ele>
        <time>2011-06-17T16:42:00Z</time>
      </trkpt>
      <trkpt lat="59.1295410662" lon="17.6490352578">
        <ele>47</ele>
        <time>2011-06-17T16:42:06Z</time>
      </trkpt>
      <trkpt lat="59.129393461" lon="17.6491924184">
        <ele>47</ele>
        <time>2011-06-17T16:42:13Z</time>
      </trkpt>
      <trkpt lat="59.1293507133" lon="17.6492443024">
        <ele>46.4</ele>
        <time>2011-06-17T16:42:15Z</time>
      </trkpt>
      <trkpt lat="59.1292518907" lon="17.6494283689">
        <ele>45.2</ele>
        <time>2011-06-17T16:42:21Z</time>
      </trkpt>
      <trkpt lat="59.1291451053" lon="17.649612603">
        <ele>44</ele>
        <time>2011-06-17T16:42:27Z</time>
      </trkpt>
      <trkpt lat="59.1291105718" lon="17.6496659119">
        <ele>43.4</ele>
        <time>2011-06-17T16:42:29Z</time>
      </trkpt>
      <trkpt lat="59.1290306085" lon="17.6498331308">
        <ele>42.2</ele>
        <time>2011-06-17T16:42:34Z</time>
      </trkpt>
      <trkpt lat="59.1288980069" lon="17.6500689975">
        <ele>41.4</ele>
        <time>2011-06-17T16:42:42Z</time>
      </trkpt>
      <trkpt lat="59.1288212287" lon="17.6502279183">
        <ele>40.4</ele>
        <time>2011-06-17T16:42:47Z</time>
      </trkpt>
      <trkpt lat="59.1287288601" lon="17.6504157567">
        <ele>39.6</ele>
        <time>2011-06-17T16:42:53Z</time>
      </trkpt>
      <trkpt lat="59.1287075701" lon="17.6504474403">
        <ele>39.4</ele>
        <time>2011-06-17T16:42:54Z</time>
      </trkpt>
      <trkpt lat="59.1286315463" lon="17.6506246336">
        <ele>39</ele>
        <time>2011-06-17T16:42:59Z</time>
      </trkpt>
      <trkpt lat="59.1285613898" lon="17.6507834707">
        <ele>38.8</ele>
        <time>2011-06-17T16:43:04Z</time>
      </trkpt>
      <trkpt lat="59.1284468092" lon="17.6510002266">
        <ele>38.8</ele>
        <time>2011-06-17T16:43:11Z</time>
      </trkpt>
      <trkpt lat="59.1283599727" lon="17.6512013922">
        <ele>38.6</ele>
        <time>2011-06-17T16:43:17Z</time>
      </trkpt>
      <trkpt lat="59.1282904029" lon="17.6513607321">
        <ele>38.6</ele>
        <time>2011-06-17T16:43:22Z</time>
      </trkpt>
      <trkpt lat="59.1282258623" lon="17.6514826049">
        <ele>38.6</ele>
        <time>2011-06-17T16:43:26Z</time>
      </trkpt>
      <trkpt lat="59.1281457313" lon="17.6516483151">
        <ele>38.6</ele>
        <time>2011-06-17T16:43:31Z</time>
      </trkpt>
      <trkpt lat="59.1280574699" lon="17.6518151987">
        <ele>39.2</ele>
        <time>2011-06-17T16:43:36Z</time>
      </trkpt>
      <trkpt lat="59.1279363515" lon="17.6520798991">
        <ele>40</ele>
        <time>2011-06-17T16:43:44Z</time>
      </trkpt>
      <trkpt lat="59.1278367745" lon="17.65229808">
        <ele>40.2</ele>
        <time>2011-06-17T16:43:50Z</time>
      </trkpt>
      <trkpt lat="59.1278245369" lon="17.6523413306">
        <ele>40.4</ele>
        <time>2011-06-17T16:43:51Z</time>
      </trkpt>
      <trkpt lat="59.127752704" lon="17.6524717529">
        <ele>40.4</ele>
        <time>2011-06-17T16:43:55Z</time>
      </trkpt>
      <trkpt lat="59.127636028" lon="17.6527053565">
        <ele>40.6</ele>
        <time>2011-06-17T16:44:02Z</time>
      </trkpt>
      <trkpt lat="59.1275705654" lon="17.6528569851">
        <ele>40.6</ele>
        <time>2011-06-17T16:44:06Z</time>
      </trkpt>
      <trkpt lat="59.1274813819" lon="17.6530455778">
        <ele>40.6</ele>
        <time>2011-06-17T16:44:12Z</time>
      </trkpt>
      <trkpt lat="59.1273671366" lon="17.6532970348">
        <ele>40.6</ele>
        <time>2011-06-17T16:44:19Z</time>
      </trkpt>
      <trkpt lat="59.1272656318" lon="17.6535168082">
        <ele>40.6</ele>
        <time>2011-06-17T16:44:25Z</time>
      </trkpt>
      <trkpt lat="59.1271657196" lon="17.653729457">
        <ele>41.4</ele>
        <time>2011-06-17T16:44:31Z</time>
      </trkpt>
      <trkpt lat="59.1270717585" lon="17.653913775">
        <ele>41.8</ele>
        <time>2011-06-17T16:44:36Z</time>
      </trkpt>
      <trkpt lat="59.1269356364" lon="17.6541385776">
        <ele>42.4</ele>
        <time>2011-06-17T16:44:44Z</time>
      </trkpt>
      <trkpt lat="59.1268177031" lon="17.6542949838">
        <ele>42.4</ele>
        <time>2011-06-17T16:44:50Z</time>
      </trkpt>
      <trkpt lat="59.1267163659" lon="17.6544022722">
        <ele>43.2</ele>
        <time>2011-06-17T16:44:55Z</time>
      </trkpt>
      <trkpt lat="59.1265548467" lon="17.6545392324">
        <ele>44</ele>
        <time>2011-06-17T16:45:02Z</time>
      </trkpt>
      <trkpt lat="59.1264447924" lon="17.6546196986">
        <ele>44.2</ele>
        <time>2011-06-17T16:45:07Z</time>
      </trkpt>
      <trkpt lat="59.1263649967" lon="17.6546785396">
        <ele>45</ele>
        <time>2011-06-17T16:45:11Z</time>
      </trkpt>
      <trkpt lat="59.126234239" lon="17.6547509592">
        <ele>45.8</ele>
        <time>2011-06-17T16:45:16Z</time>
      </trkpt>
      <trkpt lat="59.1260767431" lon="17.6548200261">
        <ele>46.2</ele>
        <time>2011-06-17T16:45:23Z</time>
      </trkpt>
      <trkpt lat="59.1259409564" lon="17.6548621032">
        <ele>47.4</ele>
        <time>2011-06-17T16:45:29Z</time>
      </trkpt>
      <trkpt lat="59.1257872323" lon="17.6549407254">
        <ele>48</ele>
        <time>2011-06-17T16:45:35Z</time>
      </trkpt>
      <trkpt lat="59.1256744958" lon="17.6549898433">
        <ele>48.4</ele>
        <time>2011-06-17T16:45:40Z</time>
      </trkpt>
      <trkpt lat="59.1256523675" lon="17.6549844789">
        <ele>48.4</ele>
        <time>2011-06-17T16:45:41Z</time>
      </trkpt>
      <trkpt lat="59.1254760124" lon="17.6550329263">
        <ele>48.6</ele>
        <time>2011-06-17T16:45:49Z</time>
      </trkpt>
      <trkpt lat="59.1253728312" lon="17.6550658672">
        <ele>48.6</ele>
        <time>2011-06-17T16:45:54Z</time>
      </trkpt>
      <trkpt lat="59.1252868329" lon="17.6551230317">
        <ele>48.6</ele>
        <time>2011-06-17T16:45:58Z</time>
      </trkpt>
      <trkpt lat="59.1250259043" lon="17.6551461658">
        <ele>48.8</ele>
        <time>2011-06-17T16:46:09Z</time>
      </trkpt>
      <trkpt lat="59.1248850046" lon="17.6551732393">
        <ele>48.8</ele>
        <time>2011-06-17T16:46:15Z</time>
      </trkpt>
      <trkpt lat="59.1247334598" lon="17.6551597445">
        <ele>48.8</ele>
        <time>2011-06-17T16:46:21Z</time>
      </trkpt>
      <trkpt lat="59.1245664086" lon="17.6550947009">
        <ele>48.8</ele>
        <time>2011-06-17T16:46:28Z</time>
      </trkpt>
      <trkpt lat="59.1243944958" lon="17.6550038411">
        <ele>48.8</ele>
        <time>2011-06-17T16:46:35Z</time>
      </trkpt>
      <trkpt lat="59.1242725392" lon="17.6549479338">
        <ele>48.8</ele>
        <time>2011-06-17T16:46:41Z</time>
      </trkpt>
      <trkpt lat="59.1241379259" lon="17.654838131">
        <ele>48.8</ele>
        <time>2011-06-17T16:46:47Z</time>
      </trkpt>
      <trkpt lat="59.1240173103" lon="17.6547310941">
        <ele>48.8</ele>
        <time>2011-06-17T16:46:53Z</time>
      </trkpt>
      <trkpt lat="59.1239132071" lon="17.6545908649">
        <ele>48.8</ele>
        <time>2011-06-17T16:46:58Z</time>
      </trkpt>
      <trkpt lat="59.1238117861" lon="17.6544614484">
        <ele>48.8</ele>
        <time>2011-06-17T16:47:03Z</time>
      </trkpt>
      <trkpt lat="59.1237444795" lon="17.6543657271">
        <ele>49.2</ele>
        <time>2011-06-17T16:47:06Z</time>
      </trkpt>
      <trkpt lat="59.1236294798" lon="17.6541726919">
        <ele>49.8</ele>
        <time>2011-06-17T16:47:13Z</time>
      </trkpt>
      <trkpt lat="59.1235444035" lon="17.6540226559">
        <ele>50.2</ele>
        <time>2011-06-17T16:47:18Z</time>
      </trkpt>
      <trkpt lat="59.1234461676" lon="17.6538298722">
        <ele>50.4</ele>
        <time>2011-06-17T16:47:24Z</time>
      </trkpt>
      <trkpt lat="59.1233910986" lon="17.6537004557">
        <ele>50.6</ele>
        <time>2011-06-17T16:47:27Z</time>
      </trkpt>
      <trkpt lat="59.123311722" lon="17.6535409481">
        <ele>50.2</ele>
        <time>2011-06-17T16:47:33Z</time>
      </trkpt>
      <trkpt lat="59.1232014162" lon="17.6533212585">
        <ele>49.6</ele>
        <time>2011-06-17T16:47:39Z</time>
      </trkpt>
      <trkpt lat="59.1231182677" lon="17.653170049">
        <ele>48.6</ele>
        <time>2011-06-17T16:47:44Z</time>
      </trkpt>
      <trkpt lat="59.1230176849" lon="17.6530049256">
        <ele>47.8</ele>
        <time>2011-06-17T16:47:49Z</time>
      </trkpt>
      <trkpt lat="59.1229104804" lon="17.6528149918">
        <ele>47.2</ele>
        <time>2011-06-17T16:47:55Z</time>
      </trkpt>
      <trkpt lat="59.1228058743" lon="17.6526053604">
        <ele>47</ele>
        <time>2011-06-17T16:48:01Z</time>
      </trkpt>
      <trkpt lat="59.1227087281" lon="17.6524269936">
        <ele>46.2</ele>
        <time>2011-06-17T16:48:06Z</time>
      </trkpt>
      <trkpt lat="59.1225959915" lon="17.6522236487">
        <ele>45.4</ele>
        <time>2011-06-17T16:48:12Z</time>
      </trkpt>
      <trkpt lat="59.1225223984" lon="17.652106805">
        <ele>45.2</ele>
        <time>2011-06-17T16:48:16Z</time>
      </trkpt>
      <trkpt lat="59.1224716041" lon="17.6519758797">
        <ele>45</ele>
        <time>2011-06-17T16:48:21Z</time>
      </trkpt>
      <trkpt lat="59.1224348914" lon="17.6518510733">
        <ele>44.8</ele>
        <time>2011-06-17T16:48:25Z</time>
      </trkpt>
      <trkpt lat="59.1223488093" lon="17.6517007858">
        <ele>44.8</ele>
        <time>2011-06-17T16:48:30Z</time>
      </trkpt>
      <trkpt lat="59.1223115098" lon="17.6516257678">
        <ele>44.8</ele>
        <time>2011-06-17T16:48:32Z</time>
      </trkpt>
      <trkpt lat="59.1222286129" lon="17.6513981154">
        <ele>43.8</ele>
        <time>2011-06-17T16:48:39Z</time>
      </trkpt>
      <trkpt lat="59.1221354899" lon="17.6512384402">
        <ele>43.4</ele>
        <time>2011-06-17T16:48:44Z</time>
      </trkpt>
      <trkpt lat="59.1220634894" lon="17.6511101971">
        <ele>43</ele>
        <time>2011-06-17T16:48:48Z</time>
      </trkpt>
      <trkpt lat="59.1220464742" lon="17.6510733168">
        <ele>43</ele>
        <time>2011-06-17T16:48:49Z</time>
      </trkpt>
      <trkpt lat="59.1219844481" lon="17.6509330876">
        <ele>42.8</ele>
        <time>2011-06-17T16:48:53Z</time>
      </trkpt>
      <trkpt lat="59.1218712086" lon="17.6507341013">
        <ele>42.8</ele>
        <time>2011-06-17T16:48:59Z</time>
      </trkpt>
      <trkpt lat="59.1218080091" lon="17.6506043494">
        <ele>42.6</ele>
        <time>2011-06-17T16:49:02Z</time>
      </trkpt>
      <trkpt lat="59.1217262018" lon="17.6504567442">
        <ele>42.6</ele>
        <time>2011-06-17T16:49:07Z</time>
      </trkpt>
      <trkpt lat="59.1216150578" lon="17.6502502142">
        <ele>43.6</ele>
        <time>2011-06-17T16:49:13Z</time>
      </trkpt>
      <trkpt lat="59.1215525288" lon="17.6501350469">
        <ele>44</ele>
        <time>2011-06-17T16:49:17Z</time>
      </trkpt>
      <trkpt lat="59.1214109585" lon="17.6499646428">
        <ele>44.2</ele>
        <time>2011-06-17T16:49:24Z</time>
      </trkpt>
      <trkpt lat="59.1213511117" lon="17.6498859368">
        <ele>44.4</ele>
        <time>2011-06-17T16:49:28Z</time>
      </trkpt>
      <trkpt lat="59.1213321686" lon="17.6498776387">
        <ele>44.4</ele>
        <time>2011-06-17T16:49:29Z</time>
      </trkpt>
      <trkpt lat="59.121282464" lon="17.6498280179">
        <ele>44.4</ele>
        <time>2011-06-17T16:49:32Z</time>
      </trkpt>
      <trkpt lat="59.1211309192" lon="17.6497386668">
        <ele>44.6</ele>
        <time>2011-06-17T16:49:38Z</time>
      </trkpt>
      <trkpt lat="59.1210466811" lon="17.6496767246">
        <ele>44.8</ele>
        <time>2011-06-17T16:49:42Z</time>
      </trkpt>
      <trkpt lat="59.1209077092" lon="17.6495946658">
        <ele>45.6</ele>
        <time>2011-06-17T16:49:47Z</time>
      </trkpt>
      <trkpt lat="59.1208097248" lon="17.6495466375">
        <ele>46</ele>
        <time>2011-06-17T16:49:51Z</time>
      </trkpt>
      <trkpt lat="59.1208023487" lon="17.6495506608">
        <ele>46</ele>
        <time>2011-06-17T16:49:52Z</time>
      </trkpt>
      <trkpt lat="59.1207032747" lon="17.6494870422">
        <ele>46.2</ele>
        <time>2011-06-17T16:49:55Z</time>
      </trkpt>
      <trkpt lat="59.120579474" lon="17.6494104316">
        <ele>46.4</ele>
        <time>2011-06-17T16:50:00Z</time>
      </trkpt>
      <trkpt lat="59.1204856806" lon="17.6493415324">
        <ele>46.4</ele>
        <time>2011-06-17T16:50:05Z</time>
      </trkpt>
      <trkpt lat="59.1203747042" lon="17.649269029">
        <ele>47.2</ele>
        <time>2011-06-17T16:50:10Z</time>
      </trkpt>
      <trkpt lat="59.1202245006" lon="17.6491356729">
        <ele>47.8</ele>
        <time>2011-06-17T16:50:16Z</time>
      </trkpt>
      <trkpt lat="59.1201309586" lon="17.6490469924">
        <ele>48.2</ele>
        <time>2011-06-17T16:50:22Z</time>
      </trkpt>
      <trkpt lat="59.1199993627" lon="17.6489278856">
        <ele>48.4</ele>
        <time>2011-06-17T16:50:28Z</time>
      </trkpt>
      <trkpt lat="59.1198793339" lon="17.6487708926">
        <ele>48.6</ele>
        <time>2011-06-17T16:50:33Z</time>
      </trkpt>
      <trkpt lat="59.119746397" lon="17.6485549749">
        <ele>48.6</ele>
        <time>2011-06-17T16:50:39Z</time>
      </trkpt>
      <trkpt lat="59.1196362588" lon="17.6483217066">
        <ele>48.6</ele>
        <time>2011-06-17T16:50:45Z</time>
      </trkpt>
      <trkpt lat="59.1195519369" lon="17.6481160148">
        <ele>48</ele>
        <time>2011-06-17T16:50:50Z</time>
      </trkpt>
      <trkpt lat="59.1194544554" lon="17.6478413399">
        <ele>47.4</ele>
        <time>2011-06-17T16:50:56Z</time>
      </trkpt>
      <trkpt lat="59.1193844665" lon="17.647599103">
        <ele>47</ele>
        <time>2011-06-17T16:51:02Z</time>
      </trkpt>
      <trkpt lat="59.1193065149" lon="17.6473413596">
        <ele>46.8</ele>
        <time>2011-06-17T16:51:08Z</time>
      </trkpt>
      <trkpt lat="59.1192426448" lon="17.6470650922">
        <ele>46.6</ele>
        <time>2011-06-17T16:51:14Z</time>
      </trkpt>
      <trkpt lat="59.1191654475" lon="17.646707185">
        <ele>46.6</ele>
        <time>2011-06-17T16:51:22Z</time>
      </trkpt>
      <trkpt lat="59.1191082829" lon="17.6464410597">
        <ele>46.6</ele>
        <time>2011-06-17T16:51:28Z</time>
      </trkpt>
      <trkpt lat="59.1190474303" lon="17.6461611881">
        <ele>46.6</ele>
        <time>2011-06-17T16:51:34Z</time>
      </trkpt>
      <trkpt lat="59.1189941215" lon="17.6459321946">
        <ele>45.8</ele>
        <time>2011-06-17T16:51:39Z</time>
      </trkpt>
      <trkpt lat="59.1189354482" lon="17.6457188752">
        <ele>45.4</ele>
        <time>2011-06-17T16:51:43Z</time>
      </trkpt>
      <trkpt lat="59.1188590891" lon="17.6454467149">
        <ele>45</ele>
        <time>2011-06-17T16:51:49Z</time>
      </trkpt>
      <trkpt lat="59.1187578357" lon="17.6451886362">
        <ele>44.2</ele>
        <time>2011-06-17T16:51:55Z</time>
      </trkpt>
      <trkpt lat="59.1186461888" lon="17.6449149672">
        <ele>43.2</ele>
        <time>2011-06-17T16:52:02Z</time>
      </trkpt>
      <trkpt lat="59.1185940534" lon="17.6447828684">
        <ele>43</ele>
        <time>2011-06-17T16:52:06Z</time>
      </trkpt>
      <trkpt lat="59.1184816521" lon="17.6445070201">
        <ele>42.6</ele>
        <time>2011-06-17T16:52:13Z</time>
      </trkpt>
      <trkpt lat="59.118408981" lon="17.6443412261">
        <ele>42.2</ele>
        <time>2011-06-17T16:52:18Z</time>
      </trkpt>
      <trkpt lat="59.1183125892" lon="17.6441318463">
        <ele>41.2</ele>
        <time>2011-06-17T16:52:24Z</time>
      </trkpt>
      <trkpt lat="59.1182822467" lon="17.6440849914">
        <ele>41</ele>
        <time>2011-06-17T16:52:26Z</time>
      </trkpt>
      <trkpt lat="59.1182028701" lon="17.6439040262">
        <ele>40.8</ele>
        <time>2011-06-17T16:52:31Z</time>
      </trkpt>
      <trkpt lat="59.1181005271" lon="17.6436759547">
        <ele>40.6</ele>
        <time>2011-06-17T16:52:37Z</time>
      </trkpt>
      <trkpt lat="59.1180271855" lon="17.6434996834">
        <ele>40.4</ele>
        <time>2011-06-17T16:52:42Z</time>
      </trkpt>
      <trkpt lat="59.1179392593" lon="17.643298434">
        <ele>40.4</ele>
        <time>2011-06-17T16:52:47Z</time>
      </trkpt>
      <trkpt lat="59.1178811728" lon="17.6431224979">
        <ele>40.4</ele>
        <time>2011-06-17T16:52:52Z</time>
      </trkpt>
      <trkpt lat="59.1178057357" lon="17.6429145429">
        <ele>40.4</ele>
        <time>2011-06-17T16:52:57Z</time>
      </trkpt>
      <trkpt lat="59.1177042309" lon="17.6426815261">
        <ele>40.4</ele>
        <time>2011-06-17T16:53:03Z</time>
      </trkpt>
      <trkpt lat="59.1176264468" lon="17.6424742417">
        <ele>40.4</ele>
        <time>2011-06-17T16:53:08Z</time>
      </trkpt>
      <trkpt lat="59.1175246068" lon="17.6422125588">
        <ele>39.8</ele>
        <time>2011-06-17T16:53:14Z</time>
      </trkpt>
      <trkpt lat="59.1174153906" lon="17.6419518817">
        <ele>39</ele>
        <time>2011-06-17T16:53:21Z</time>
      </trkpt>
      <trkpt lat="59.1173306496" lon="17.6417701621">
        <ele>38.6</ele>
        <time>2011-06-17T16:53:26Z</time>
      </trkpt>
      <trkpt lat="59.1172492613" lon="17.6415901189">
        <ele>38.4</ele>
        <time>2011-06-17T16:53:31Z</time>
      </trkpt>
      <trkpt lat="59.1172166557" lon="17.6415284281">
        <ele>38</ele>
        <time>2011-06-17T16:53:33Z</time>
      </trkpt>
      <trkpt lat="59.1171379497" lon="17.6413781407">
        <ele>37.4</ele>
        <time>2011-06-17T16:53:37Z</time>
      </trkpt>
      <trkpt lat="59.1170275601" lon="17.6411163739">
        <ele>36.8</ele>
        <time>2011-06-17T16:53:44Z</time>
      </trkpt>
      <trkpt lat="59.1169198527" lon="17.6408722092">
        <ele>36.6</ele>
        <time>2011-06-17T16:53:50Z</time>
      </trkpt>
      <trkpt lat="59.1168079543" lon="17.6406148848">
        <ele>35.4</ele>
        <time>2011-06-17T16:53:57Z</time>
      </trkpt>
      <trkpt lat="59.1167248059" lon="17.6404215982">
        <ele>35</ele>
        <time>2011-06-17T16:54:02Z</time>
      </trkpt>
      <trkpt lat="59.1165785417" lon="17.6401381224">
        <ele>34.6</ele>
        <time>2011-06-17T16:54:10Z</time>
      </trkpt>
      <trkpt lat="59.116495058" lon="17.640032259">
        <ele>34.4</ele>
        <time>2011-06-17T16:54:14Z</time>
      </trkpt>
      <trkpt lat="59.1164016836" lon="17.639896556">
        <ele>34.4</ele>
        <time>2011-06-17T16:54:19Z</time>
      </trkpt>
      <trkpt lat="59.1162817386" lon="17.6397488669">
        <ele>34.4</ele>
        <time>2011-06-17T16:54:26Z</time>
      </trkpt>
      <trkpt lat="59.1161544176" lon="17.639683069">
        <ele>34.2</ele>
        <time>2011-06-17T16:54:34Z</time>
      </trkpt>
      <trkpt lat="59.1160529127" lon="17.6396562469">
        <ele>34.2</ele>
        <time>2011-06-17T16:54:38Z</time>
      </trkpt>
      <trkpt lat="59.1159203949" lon="17.6396695742">
        <ele>34.2</ele>
        <time>2011-06-17T16:54:44Z</time>
      </trkpt>
      <trkpt lat="59.1158107597" lon="17.6397197817">
        <ele>34.2</ele>
        <time>2011-06-17T16:54:49Z</time>
      </trkpt>
      <trkpt lat="59.1157799143" lon="17.6397269064">
        <ele>34.2</ele>
        <time>2011-06-17T16:54:51Z</time>
      </trkpt>
      <trkpt lat="59.1157567802" lon="17.6397218772">
        <ele>34.2</ele>
        <time>2011-06-17T16:54:52Z</time>
      </trkpt>
      <trkpt lat="59.1156549401" lon="17.6397763596">
        <ele>34.8</ele>
        <time>2011-06-17T16:54:56Z</time>
      </trkpt>
      <trkpt lat="59.1155207459" lon="17.6398474381">
        <ele>35.4</ele>
        <time>2011-06-17T16:55:02Z</time>
      </trkpt>
      <trkpt lat="59.1153807682" lon="17.6399973065">
        <ele>36</ele>
        <time>2011-06-17T16:55:09Z</time>
      </trkpt>
      <trkpt lat="59.1152829514" lon="17.6401215262">
        <ele>36</ele>
        <time>2011-06-17T16:55:13Z</time>
      </trkpt>
      <trkpt lat="59.1151421355" lon="17.6402728195">
        <ele>36.2</ele>
        <time>2011-06-17T16:55:19Z</time>
      </trkpt>
      <trkpt lat="59.1149780179" lon="17.6404257054">
        <ele>36.2</ele>
        <time>2011-06-17T16:55:26Z</time>
      </trkpt>
      <trkpt lat="59.114831167" lon="17.6405764957">
        <ele>36.2</ele>
        <time>2011-06-17T16:55:33Z</time>
      </trkpt>
      <trkpt lat="59.1146734196" lon="17.6407358357">
        <ele>35.2</ele>
        <time>2011-06-17T16:55:40Z</time>
      </trkpt>
      <trkpt lat="59.1145094697" lon="17.640920908">
        <ele>34.6</ele>
        <time>2011-06-17T16:55:47Z</time>
      </trkpt>
      <trkpt lat="59.1143347909" lon="17.6410928208">
        <ele>34.4</ele>
        <time>2011-06-17T16:55:55Z</time>
      </trkpt>
      <trkpt lat="59.114202273" lon="17.6412275179">
        <ele>33.6</ele>
        <time>2011-06-17T16:56:01Z</time>
      </trkpt>
      <trkpt lat="59.1140690847" lon="17.6413844271">
        <ele>32.8</ele>
        <time>2011-06-17T16:56:07Z</time>
      </trkpt>
      <trkpt lat="59.1139387461" lon="17.6415280929">
        <ele>32.6</ele>
        <time>2011-06-17T16:56:13Z</time>
      </trkpt>
      <trkpt lat="59.1137826751" lon="17.6416927972">
        <ele>31.4</ele>
        <time>2011-06-17T16:56:20Z</time>
      </trkpt>
      <trkpt lat="59.1136481456" lon="17.6418497902">
        <ele>30.8</ele>
        <time>2011-06-17T16:56:26Z</time>
      </trkpt>
      <trkpt lat="59.1135152925" lon="17.6419845711">
        <ele>30.4</ele>
        <time>2011-06-17T16:56:32Z</time>
      </trkpt>
      <trkpt lat="59.1134064116" lon="17.6421145744">
        <ele>30.2</ele>
        <time>2011-06-17T16:56:37Z</time>
      </trkpt>
      <trkpt lat="59.1132988719" lon="17.6422329268">
        <ele>30</ele>
        <time>2011-06-17T16:56:42Z</time>
      </trkpt>
      <trkpt lat="59.1131920026" lon="17.6423823761">
        <ele>30</ele>
        <time>2011-06-17T16:56:47Z</time>
      </trkpt>
      <trkpt lat="59.1130685373" lon="17.6425241978">
        <ele>30</ele>
        <time>2011-06-17T16:56:52Z</time>
      </trkpt>
      <trkpt lat="59.112952867" lon="17.6426467412">
        <ele>30</ele>
        <time>2011-06-17T16:56:57Z</time>
      </trkpt>
      <trkpt lat="59.1128615881" lon="17.6427442227">
        <ele>30</ele>
        <time>2011-06-17T16:57:01Z</time>
      </trkpt>
      <trkpt lat="59.1127030864" lon="17.6428749804">
        <ele>30</ele>
        <time>2011-06-17T16:57:08Z</time>
      </trkpt>
      <trkpt lat="59.1125857398" lon="17.6429630741">
        <ele>30</ele>
        <time>2011-06-17T16:57:13Z</time>
      </trkpt>
      <trkpt lat="59.1124468517" lon="17.6430484019">
        <ele>30</ele>
        <time>2011-06-17T16:57:19Z</time>
      </trkpt>
      <trkpt lat="59.1123222129" lon="17.6431093383">
        <ele>30</ele>
        <time>2011-06-17T16:57:24Z</time>
      </trkpt>
      <trkpt lat="59.1121778766" lon="17.6431856136">
        <ele>30</ele>
        <time>2011-06-17T16:57:30Z</time>
      </trkpt>
      <trkpt lat="59.1120330373" lon="17.6432327199">
        <ele>30</ele>
        <time>2011-06-17T16:57:35Z</time>
      </trkpt>
      <trkpt lat="59.1118524912" lon="17.6432733721">
        <ele>30</ele>
        <time>2011-06-17T16:57:42Z</time>
      </trkpt>
      <trkpt lat="59.111698851" lon="17.6432690135">
        <ele>30</ele>
        <time>2011-06-17T16:57:48Z</time>
      </trkpt>
      <trkpt lat="59.111519646" lon="17.6432242541">
        <ele>30</ele>
        <time>2011-06-17T16:57:55Z</time>
      </trkpt>
      <trkpt lat="59.1113767346" lon="17.6431934087">
        <ele>30</ele>
        <time>2011-06-17T16:58:00Z</time>
      </trkpt>
      <trkpt lat="59.111249665" lon="17.643139094">
        <ele>29.8</ele>
        <time>2011-06-17T16:58:06Z</time>
      </trkpt>
      <trkpt lat="59.1110971144" lon="17.6430882159">
        <ele>28.8</ele>
        <time>2011-06-17T16:58:12Z</time>
      </trkpt>
      <trkpt lat="59.1109340026" lon="17.6430159639">
        <ele>28.4</ele>
        <time>2011-06-17T16:58:19Z</time>
      </trkpt>
      <trkpt lat="59.1107377823" lon="17.6429340728">
        <ele>28.2</ele>
        <time>2011-06-17T16:58:26Z</time>
      </trkpt>
      <trkpt lat="59.1106181726" lon="17.6428571269">
        <ele>28</ele>
        <time>2011-06-17T16:58:31Z</time>
      </trkpt>
      <trkpt lat="59.11049806" lon="17.6427583043">
        <ele>27.6</ele>
        <time>2011-06-17T16:58:36Z</time>
      </trkpt>
      <trkpt lat="59.110406362" lon="17.6426797659">
        <ele>27</ele>
        <time>2011-06-17T16:58:40Z</time>
      </trkpt>
      <trkpt lat="59.1102687312" lon="17.6425137205">
        <ele>26.4</ele>
        <time>2011-06-17T16:58:46Z</time>
      </trkpt>
      <trkpt lat="59.1101446791" lon="17.6423371977">
        <ele>26.2</ele>
        <time>2011-06-17T16:58:52Z</time>
      </trkpt>
      <trkpt lat="59.1100441801" lon="17.6421732477">
        <ele>26</ele>
        <time>2011-06-17T16:58:57Z</time>
      </trkpt>
      <trkpt lat="59.1099691621" lon="17.6420012511">
        <ele>26</ele>
        <time>2011-06-17T16:59:02Z</time>
      </trkpt>
      <trkpt lat="59.1098801463" lon="17.6418189448">
        <ele>26</ele>
        <time>2011-06-17T16:59:07Z</time>
      </trkpt>
      <trkpt lat="59.1098263345" lon="17.641682236">
        <ele>26</ele>
        <time>2011-06-17T16:59:11Z</time>
      </trkpt>
      <trkpt lat="59.109738576" lon="17.6414899552">
        <ele>26</ele>
        <time>2011-06-17T16:59:16Z</time>
      </trkpt>
      <trkpt lat="59.1096490573" lon="17.641300189">
        <ele>26</ele>
        <time>2011-06-17T16:59:21Z</time>
      </trkpt>
      <trkpt lat="59.1095548448" lon="17.6411126859">
        <ele>25.6</ele>
        <time>2011-06-17T16:59:26Z</time>
      </trkpt>
      <trkpt lat="59.109470942" lon="17.6409294576">
        <ele>25</ele>
        <time>2011-06-17T16:59:31Z</time>
      </trkpt>
      <trkpt lat="59.1093649109" lon="17.640704655">
        <ele>24.4</ele>
        <time>2011-06-17T16:59:37Z</time>
      </trkpt>
      <trkpt lat="59.1092663398" lon="17.6405135477">
        <ele>24.2</ele>
        <time>2011-06-17T16:59:42Z</time>
      </trkpt>
      <trkpt lat="59.1091992846" lon="17.6403739052">
        <ele>24</ele>
        <time>2011-06-17T16:59:46Z</time>
      </trkpt>
      <trkpt lat="59.1091116937" lon="17.640182295">
        <ele>24</ele>
        <time>2011-06-17T16:59:51Z</time>
      </trkpt>
      <trkpt lat="59.1089913296" lon="17.6399191871">
        <ele>24</ele>
        <time>2011-06-17T16:59:58Z</time>
      </trkpt>
      <trkpt lat="59.1088649306" lon="17.6396647965">
        <ele>23.8</ele>
        <time>2011-06-17T17:00:05Z</time>
      </trkpt>
      <trkpt lat="59.108737861" lon="17.639404287">
        <ele>23.8</ele>
        <time>2011-06-17T17:00:12Z</time>
      </trkpt>
      <trkpt lat="59.108656808" lon="17.6392239085">
        <ele>23.8</ele>
        <time>2011-06-17T17:00:17Z</time>
      </trkpt>
      <trkpt lat="59.108571145" lon="17.6390504032">
        <ele>23.8</ele>
        <time>2011-06-17T17:00:22Z</time>
      </trkpt>
      <trkpt lat="59.1084469252" lon="17.6388024666">
        <ele>23.8</ele>
        <time>2011-06-17T17:00:29Z</time>
      </trkpt>
      <trkpt lat="59.1083630224" lon="17.6386292966">
        <ele>23.8</ele>
        <time>2011-06-17T17:00:34Z</time>
      </trkpt>
      <trkpt lat="59.1082806283" lon="17.6384538634">
        <ele>23.8</ele>
        <time>2011-06-17T17:00:39Z</time>
      </trkpt>
      <trkpt lat="59.1082350308" lon="17.638347078">
        <ele>23.8</ele>
        <time>2011-06-17T17:00:42Z</time>
      </trkpt>
      <trkpt lat="59.1081850747" lon="17.6382288094">
        <ele>23.8</ele>
        <time>2011-06-17T17:00:45Z</time>
      </trkpt>
      <trkpt lat="59.1081061172" lon="17.6380273085">
        <ele>23.8</ele>
        <time>2011-06-17T17:00:50Z</time>
      </trkpt>
      <trkpt lat="59.108017269" lon="17.6377844849">
        <ele>23.8</ele>
        <time>2011-06-17T17:00:56Z</time>
      </trkpt>
      <trkpt lat="59.1079067956" lon="17.6374967342">
        <ele>23.8</ele>
        <time>2011-06-17T17:01:03Z</time>
      </trkpt>
      <trkpt lat="59.1078081406" lon="17.637218539">
        <ele>23.4</ele>
        <time>2011-06-17T17:01:10Z</time>
      </trkpt>
      <trkpt lat="59.107715353" lon="17.6370089076">
        <ele>22.6</ele>
        <time>2011-06-17T17:01:16Z</time>
      </trkpt>
      <trkpt lat="59.1076943144" lon="17.6369731169">
        <ele>22.4</ele>
        <time>2011-06-17T17:01:20Z</time>
      </trkpt>
      <trkpt lat="59.1077095695" lon="17.6369783975">
        <ele>22</ele>
        <time>2011-06-17T17:01:31Z</time>
      </trkpt>
      <trkpt lat="59.1077307757" lon="17.6369972568">
        <ele>21.8</ele>
        <time>2011-06-17T17:01:36Z</time>
      </trkpt>
      <trkpt lat="59.1077313624" lon="17.636975883">
        <ele>21.8</ele>
        <time>2011-06-17T17:01:43Z</time>
      </trkpt>
      <trkpt lat="59.1077133413" lon="17.636849903">
        <ele>21.8</ele>
        <time>2011-06-17T17:01:49Z</time>
      </trkpt>
      <trkpt lat="59.1076881956" lon="17.6367646591">
        <ele>21</ele>
        <time>2011-06-17T17:01:55Z</time>
      </trkpt>
      <trkpt lat="59.1076861002" lon="17.6367485658">
        <ele>21</ele>
        <time>2011-06-17T17:01:56Z</time>
      </trkpt>
      <trkpt lat="59.107670426" lon="17.6366668423">
        <ele>20.6</ele>
        <time>2011-06-17T17:02:00Z</time>
      </trkpt>
      <trkpt lat="59.1076295223" lon="17.6365149623">
        <ele>20.2</ele>
        <time>2011-06-17T17:02:06Z</time>
      </trkpt>
      <trkpt lat="59.1075445299" lon="17.636315976">
        <ele>20</ele>
        <time>2011-06-17T17:02:12Z</time>
      </trkpt>
      <trkpt lat="59.1074418516" lon="17.6361230246">
        <ele>19.8</ele>
        <time>2011-06-17T17:02:18Z</time>
      </trkpt>
      <trkpt lat="59.107347639" lon="17.6359757547">
        <ele>19.8</ele>
        <time>2011-06-17T17:02:23Z</time>
      </trkpt>
      <trkpt lat="59.1072447931" lon="17.6358413928">
        <ele>19.8</ele>
        <time>2011-06-17T17:02:28Z</time>
      </trkpt>
      <trkpt lat="59.1071398517" lon="17.6357350265">
        <ele>20.4</ele>
        <time>2011-06-17T17:02:33Z</time>
      </trkpt>
      <trkpt lat="59.1070005446" lon="17.6356004132">
        <ele>21</ele>
        <time>2011-06-17T17:02:40Z</time>
      </trkpt>
      <trkpt lat="59.1068607345" lon="17.6355087152">
        <ele>21.6</ele>
        <time>2011-06-17T17:02:46Z</time>
      </trkpt>
      <trkpt lat="59.1067281328" lon="17.6354616927">
        <ele>22.6</ele>
        <time>2011-06-17T17:02:52Z</time>
      </trkpt>
      <trkpt lat="59.1065961179" lon="17.6354290033">
        <ele>23.8</ele>
        <time>2011-06-17T17:02:58Z</time>
      </trkpt>
      <trkpt lat="59.1064405498" lon="17.6354195318">
        <ele>25.4</ele>
        <time>2011-06-17T17:03:05Z</time>
      </trkpt>
      <trkpt lat="59.1062448325" lon="17.6353993314">
        <ele>27.6</ele>
        <time>2011-06-17T17:03:14Z</time>
      </trkpt>
      <trkpt lat="59.1061379632" lon="17.6354157599">
        <ele>28.6</ele>
        <time>2011-06-17T17:03:19Z</time>
      </trkpt>
      <trkpt lat="59.1060524679" lon="17.6354169334">
        <ele>29.2</ele>
        <time>2011-06-17T17:03:23Z</time>
      </trkpt>
      <trkpt lat="59.1059580038" lon="17.6354484493">
        <ele>30</ele>
        <time>2011-06-17T17:03:28Z</time>
      </trkpt>
      <trkpt lat="59.1058474466" lon="17.6354920352">
        <ele>31</ele>
        <time>2011-06-17T17:03:33Z</time>
      </trkpt>
      <trkpt lat="59.1057523958" lon="17.635527323">
        <ele>31.4</ele>
        <time>2011-06-17T17:03:38Z</time>
      </trkpt>
      <trkpt lat="59.1056329538" lon="17.6355647063">
        <ele>32.8</ele>
        <time>2011-06-17T17:03:44Z</time>
      </trkpt>
      <trkpt lat="59.1054979214" lon="17.6355700707">
        <ele>33.6</ele>
        <time>2011-06-17T17:03:51Z</time>
      </trkpt>
      <trkpt lat="59.1053882861" lon="17.6355941267">
        <ele>34</ele>
        <time>2011-06-17T17:03:56Z</time>
      </trkpt>
      <trkpt lat="59.1052420219" lon="17.6355654606">
        <ele>35.2</ele>
        <time>2011-06-17T17:04:02Z</time>
      </trkpt>
      <trkpt lat="59.1050707797" lon="17.6354790433">
        <ele>36</ele>
        <time>2011-06-17T17:04:09Z</time>
      </trkpt>
      <trkpt lat="59.1049338195" lon="17.6353789634">
        <ele>37.2</ele>
        <time>2011-06-17T17:04:15Z</time>
      </trkpt>
      <trkpt lat="59.1048538562" lon="17.6353103156">
        <ele>38</ele>
        <time>2011-06-17T17:04:19Z</time>
      </trkpt>
      <trkpt lat="59.104714549" lon="17.6351799771">
        <ele>39.4</ele>
        <time>2011-06-17T17:04:25Z</time>
      </trkpt>
      <trkpt lat="59.1045607411" lon="17.6350158595">
        <ele>40.2</ele>
        <time>2011-06-17T17:04:32Z</time>
      </trkpt>
      <trkpt lat="59.1044238647" lon="17.6348724452">
        <ele>40.4</ele>
        <time>2011-06-17T17:04:38Z</time>
      </trkpt>
      <trkpt lat="59.1042874074" lon="17.6347196431">
        <ele>40.6</ele>
        <time>2011-06-17T17:04:44Z</time>
      </trkpt>
      <trkpt lat="59.1041719048" lon="17.6346068227">
        <ele>40.8</ele>
        <time>2011-06-17T17:04:49Z</time>
      </trkpt>
      <trkpt lat="59.1040415662" lon="17.6344902305">
        <ele>40.8</ele>
        <time>2011-06-17T17:04:55Z</time>
      </trkpt>
      <trkpt lat="59.103933775" lon="17.634388139">
        <ele>40.8</ele>
        <time>2011-06-17T17:05:00Z</time>
      </trkpt>
      <trkpt lat="59.1037942164" lon="17.6342706247">
        <ele>40.8</ele>
        <time>2011-06-17T17:05:07Z</time>
      </trkpt>
      <trkpt lat="59.1037083857" lon="17.6341877277">
        <ele>40.8</ele>
        <time>2011-06-17T17:05:12Z</time>
      </trkpt>
      <trkpt lat="59.1035750297" lon="17.634062586">
        <ele>40.8</ele>
        <time>2011-06-17T17:05:18Z</time>
      </trkpt>
      <trkpt lat="59.1034590242" lon="17.6339456585">
        <ele>40.8</ele>
        <time>2011-06-17T17:05:23Z</time>
      </trkpt>
      <trkpt lat="59.1032967506" lon="17.6337631845">
        <ele>40.8</ele>
        <time>2011-06-17T17:05:30Z</time>
      </trkpt>
      <trkpt lat="59.1032037953" lon="17.6336636914">
        <ele>40.4</ele>
        <time>2011-06-17T17:05:34Z</time>
      </trkpt>
      <trkpt lat="59.1031612991" lon="17.6336147411">
        <ele>40.2</ele>
        <time>2011-06-17T17:05:36Z</time>
      </trkpt>
      <trkpt lat="59.1030278592" lon="17.6334207839">
        <ele>39.4</ele>
        <time>2011-06-17T17:05:43Z</time>
      </trkpt>
      <trkpt lat="59.1029944993" lon="17.6333549022">
        <ele>39.4</ele>
        <time>2011-06-17T17:05:45Z</time>
      </trkpt>
      <trkpt lat="59.1029116023" lon="17.6331826541">
        <ele>38.4</ele>
        <time>2011-06-17T17:05:50Z</time>
      </trkpt>
      <trkpt lat="59.1028455529" lon="17.6330357194">
        <ele>38</ele>
        <time>2011-06-17T17:05:54Z</time>
      </trkpt>
      <trkpt lat="59.1027324811" lon="17.6327785627">
        <ele>36.8</ele>
        <time>2011-06-17T17:06:00Z</time>
      </trkpt>
      <trkpt lat="59.1026546132" lon="17.6325662492">
        <ele>36</ele>
        <time>2011-06-17T17:06:05Z</time>
      </trkpt>
      <trkpt lat="59.1025593949" lon="17.6322966035">
        <ele>34.6</ele>
        <time>2011-06-17T17:06:11Z</time>
      </trkpt>
      <trkpt lat="59.1024808565" lon="17.6320775844">
        <ele>33.6</ele>
        <time>2011-06-17T17:06:16Z</time>
      </trkpt>
      <trkpt lat="59.1024019828" lon="17.6318449029">
        <ele>32.4</ele>
        <time>2011-06-17T17:06:21Z</time>
      </trkpt>
      <trkpt lat="59.102324534" lon="17.6316055158">
        <ele>31.6</ele>
        <time>2011-06-17T17:06:26Z</time>
      </trkpt>
      <trkpt lat="59.1022422238" lon="17.6313662126">
        <ele>30.4</ele>
        <time>2011-06-17T17:06:31Z</time>
      </trkpt>
      <trkpt lat="59.1021880767" lon="17.6311935454">
        <ele>29.8</ele>
        <time>2011-06-17T17:06:35Z</time>
      </trkpt>
      <trkpt lat="59.1020821295" lon="17.6308921323">
        <ele>28.6</ele>
        <time>2011-06-17T17:06:42Z</time>
      </trkpt>
      <trkpt lat="59.1020660362" lon="17.6308518154">
        <ele>28.4</ele>
        <time>2011-06-17T17:06:43Z</time>
      </trkpt>
      <trkpt lat="59.1020133979" lon="17.6306338021">
        <ele>27.6</ele>
        <time>2011-06-17T17:06:48Z</time>
      </trkpt>
      <trkpt lat="59.1019993163" lon="17.6305913059">
        <ele>27.4</ele>
        <time>2011-06-17T17:06:49Z</time>
      </trkpt>
      <trkpt lat="59.1019236277" lon="17.630301376">
        <ele>26.2</ele>
        <time>2011-06-17T17:06:55Z</time>
      </trkpt>
      <trkpt lat="59.1018587518" lon="17.630029551">
        <ele>25.4</ele>
        <time>2011-06-17T17:07:01Z</time>
      </trkpt>
      <trkpt lat="59.1017751005" lon="17.6297346757">
        <ele>24.8</ele>
        <time>2011-06-17T17:07:07Z</time>
      </trkpt>
      <trkpt lat="59.1017059498" lon="17.6294605876">
        <ele>23.8</ele>
        <time>2011-06-17T17:07:13Z</time>
      </trkpt>
      <trkpt lat="59.1016472765" lon="17.6292250562">
        <ele>23.2</ele>
        <time>2011-06-17T17:07:18Z</time>
      </trkpt>
      <trkpt lat="59.1015784611" lon="17.6289869264">
        <ele>22.8</ele>
        <time>2011-06-17T17:07:23Z</time>
      </trkpt>
      <trkpt lat="59.1015657206" lon="17.6289406583">
        <ele>22.8</ele>
        <time>2011-06-17T17:07:24Z</time>
      </trkpt>
      <trkpt lat="59.1015214642" lon="17.6287591064">
        <ele>22.6</ele>
        <time>2011-06-17T17:07:28Z</time>
      </trkpt>
      <trkpt lat="59.1014615336" lon="17.6285382433">
        <ele>22.4</ele>
        <time>2011-06-17T17:07:33Z</time>
      </trkpt>
      <trkpt lat="59.1013975797" lon="17.6283038016">
        <ele>22.4</ele>
        <time>2011-06-17T17:07:38Z</time>
      </trkpt>
      <trkpt lat="59.1013127549" lon="17.6280054059">
        <ele>22.4</ele>
        <time>2011-06-17T17:07:45Z</time>
      </trkpt>
      <trkpt lat="59.1012378207" lon="17.6277838723">
        <ele>22.2</ele>
        <time>2011-06-17T17:07:50Z</time>
      </trkpt>
      <trkpt lat="59.101158947" lon="17.6275739057">
        <ele>22.2</ele>
        <time>2011-06-17T17:07:55Z</time>
      </trkpt>
      <trkpt lat="59.1010717752" lon="17.6273368656">
        <ele>21.6</ele>
        <time>2011-06-17T17:08:01Z</time>
      </trkpt>
      <trkpt lat="59.1009752158" lon="17.6271175951">
        <ele>21</ele>
        <time>2011-06-17T17:08:07Z</time>
      </trkpt>
      <trkpt lat="59.1008338131" lon="17.6268414115">
        <ele>20.6</ele>
        <time>2011-06-17T17:08:15Z</time>
      </trkpt>
      <trkpt lat="59.1007423666" lon="17.626694393">
        <ele>20.4</ele>
        <time>2011-06-17T17:08:20Z</time>
      </trkpt>
      <trkpt lat="59.1006157161" lon="17.6265089853">
        <ele>20.4</ele>
        <time>2011-06-17T17:08:26Z</time>
      </trkpt>
      <trkpt lat="59.1005194919" lon="17.6263617992">
        <ele>20.2</ele>
        <time>2011-06-17T17:08:31Z</time>
      </trkpt>
      <trkpt lat="59.100442546" lon="17.6262491464">
        <ele>20.2</ele>
        <time>2011-06-17T17:08:35Z</time>
      </trkpt>
      <trkpt lat="59.1003426338" lon="17.6261254296">
        <ele>20.2</ele>
        <time>2011-06-17T17:08:40Z</time>
      </trkpt>
      <trkpt lat="59.1002159833" lon="17.6259805065">
        <ele>20.2</ele>
        <time>2011-06-17T17:08:46Z</time>
      </trkpt>
      <trkpt lat="59.1000677913" lon="17.6258306382">
        <ele>21.4</ele>
        <time>2011-06-17T17:08:53Z</time>
      </trkpt>
      <trkpt lat="59.0999420628" lon="17.6256937617">
        <ele>21.8</ele>
        <time>2011-06-17T17:08:59Z</time>
      </trkpt>
      <trkpt lat="59.0998125624" lon="17.6255485034">
        <ele>23</ele>
        <time>2011-06-17T17:09:05Z</time>
      </trkpt>
      <trkpt lat="59.0996701539" lon="17.6253934383">
        <ele>23.8</ele>
        <time>2011-06-17T17:09:12Z</time>
      </trkpt>
      <trkpt lat="59.0995457665" lon="17.625243989">
        <ele>25</ele>
        <time>2011-06-17T17:09:18Z</time>
      </trkpt>
      <trkpt lat="59.0994170205" lon="17.6251087051">
        <ele>25.6</ele>
        <time>2011-06-17T17:09:24Z</time>
      </trkpt>
      <trkpt lat="59.0992926331" lon="17.6249569927">
        <ele>26.8</ele>
        <time>2011-06-17T17:09:30Z</time>
      </trkpt>
      <trkpt lat="59.099132455" lon="17.624804526">
        <ele>27.6</ele>
        <time>2011-06-17T17:09:37Z</time>
      </trkpt>
      <trkpt lat="59.0990026194" lon="17.6246665599">
        <ele>28.8</ele>
        <time>2011-06-17T17:09:43Z</time>
      </trkpt>
      <trkpt lat="59.0988484763" lon="17.6244979999">
        <ele>29.8</ele>
        <time>2011-06-17T17:09:50Z</time>
      </trkpt>
      <trkpt lat="59.098709672" lon="17.6243506461">
        <ele>30.6</ele>
        <time>2011-06-17T17:09:56Z</time>
      </trkpt>
      <trkpt lat="59.0985546907" lon="17.6241809126">
        <ele>31.6</ele>
        <time>2011-06-17T17:10:03Z</time>
      </trkpt>
      <trkpt lat="59.0984519286" lon="17.6240582016">
        <ele>32</ele>
        <time>2011-06-17T17:10:08Z</time>
      </trkpt>
      <trkpt lat="59.0983468196" lon="17.6239352391">
        <ele>32.6</ele>
        <time>2011-06-17T17:10:13Z</time>
      </trkpt>
      <trkpt lat="59.0982475779" lon="17.6238349916">
        <ele>33.4</ele>
        <time>2011-06-17T17:10:18Z</time>
      </trkpt>
      <trkpt lat="59.0980929318" lon="17.6236526015">
        <ele>34.2</ele>
        <time>2011-06-17T17:10:25Z</time>
      </trkpt>
      <trkpt lat="59.0979809496" lon="17.6235307286">
        <ele>34.4</ele>
        <time>2011-06-17T17:10:30Z</time>
      </trkpt>
      <trkpt lat="59.0978488509" lon="17.6233764179">
        <ele>34.6</ele>
        <time>2011-06-17T17:10:36Z</time>
      </trkpt>
      <trkpt lat="59.0977086217" lon="17.6232389547">
        <ele>34.6</ele>
        <time>2011-06-17T17:10:42Z</time>
      </trkpt>
      <trkpt lat="59.0975934544" lon="17.623118423">
        <ele>34.6</ele>
        <time>2011-06-17T17:10:47Z</time>
      </trkpt>
      <trkpt lat="59.0974927039" lon="17.6230166667">
        <ele>35.4</ele>
        <time>2011-06-17T17:10:52Z</time>
      </trkpt>
      <trkpt lat="59.0973891037" lon="17.6229224541">
        <ele>36</ele>
        <time>2011-06-17T17:10:57Z</time>
      </trkpt>
      <trkpt lat="59.0972958969" lon="17.6228278225">
        <ele>36.2</ele>
        <time>2011-06-17T17:11:01Z</time>
      </trkpt>
      <trkpt lat="59.0971628762" lon="17.6226841567">
        <ele>36.4</ele>
        <time>2011-06-17T17:11:07Z</time>
      </trkpt>
      <trkpt lat="59.0970475412" lon="17.6225472803">
        <ele>37.2</ele>
        <time>2011-06-17T17:11:12Z</time>
      </trkpt>
      <trkpt lat="59.0969179571" lon="17.6223884433">
        <ele>38</ele>
        <time>2011-06-17T17:11:18Z</time>
      </trkpt>
      <trkpt lat="59.0968155302" lon="17.6222721025">
        <ele>38.2</ele>
        <time>2011-06-17T17:11:23Z</time>
      </trkpt>
      <trkpt lat="59.0967328847" lon="17.6221663229">
        <ele>38.4</ele>
        <time>2011-06-17T17:11:27Z</time>
      </trkpt>
      <trkpt lat="59.0966175498" lon="17.6220473838">
        <ele>38.6</ele>
        <time>2011-06-17T17:11:32Z</time>
      </trkpt>
      <trkpt lat="59.0964761471" lon="17.6218996109">
        <ele>38.8</ele>
        <time>2011-06-17T17:11:38Z</time>
      </trkpt>
      <trkpt lat="59.096352095" lon="17.6217712002">
        <ele>38.8</ele>
        <time>2011-06-17T17:11:43Z</time>
      </trkpt>
      <trkpt lat="59.0962185713" lon="17.6216147101">
        <ele>39.2</ele>
        <time>2011-06-17T17:11:49Z</time>
      </trkpt>
      <trkpt lat="59.0961291365" lon="17.6215226768">
        <ele>39.8</ele>
        <time>2011-06-17T17:11:53Z</time>
      </trkpt>
      <trkpt lat="59.0959906675" lon="17.6213651809">
        <ele>40.2</ele>
        <time>2011-06-17T17:11:59Z</time>
      </trkpt>
      <trkpt lat="59.0958542939" lon="17.6212376084">
        <ele>40.6</ele>
        <time>2011-06-17T17:12:05Z</time>
      </trkpt>
      <trkpt lat="59.0956968819" lon="17.6210632649">
        <ele>40.6</ele>
        <time>2011-06-17T17:12:11Z</time>
      </trkpt>
      <trkpt lat="59.0955709857" lon="17.6209170008">
        <ele>40.8</ele>
        <time>2011-06-17T17:12:16Z</time>
      </trkpt>
      <trkpt lat="59.095411562" lon="17.6207110575">
        <ele>40.8</ele>
        <time>2011-06-17T17:12:23Z</time>
      </trkpt>
      <trkpt lat="59.0952601011" lon="17.6205514661">
        <ele>40.8</ele>
        <time>2011-06-17T17:12:29Z</time>
      </trkpt>
      <trkpt lat="59.0951358813" lon="17.6204221334">
        <ele>40.8</ele>
        <time>2011-06-17T17:12:34Z</time>
      </trkpt>
      <trkpt lat="59.0950047046" lon="17.6202832453">
        <ele>40.8</ele>
        <time>2011-06-17T17:12:39Z</time>
      </trkpt>
      <trkpt lat="59.0948914651" lon="17.6201485482">
        <ele>40.8</ele>
        <time>2011-06-17T17:12:44Z</time>
      </trkpt>
      <trkpt lat="59.0947172892" lon="17.6199590334">
        <ele>40.8</ele>
        <time>2011-06-17T17:12:51Z</time>
      </trkpt>
      <trkpt lat="59.0945466337" lon="17.61977723">
        <ele>40.8</ele>
        <time>2011-06-17T17:12:58Z</time>
      </trkpt>
      <trkpt lat="59.0944318017" lon="17.6196280322">
        <ele>40.8</ele>
        <time>2011-06-17T17:13:03Z</time>
      </trkpt>
      <trkpt lat="59.0942972722" lon="17.619474811">
        <ele>40.8</ele>
        <time>2011-06-17T17:13:09Z</time>
      </trkpt>
      <trkpt lat="59.0941784169" lon="17.6193480767">
        <ele>40.8</ele>
        <time>2011-06-17T17:13:14Z</time>
      </trkpt>
      <trkpt lat="59.0941286284" lon="17.6193000484">
        <ele>40.8</ele>
        <time>2011-06-17T17:13:16Z</time>
      </trkpt>
      <trkpt lat="59.0940160595" lon="17.6191761639">
        <ele>40.8</ele>
        <time>2011-06-17T17:13:21Z</time>
      </trkpt>
      <trkpt lat="59.0938772552" lon="17.6190151476">
        <ele>40.8</ele>
        <time>2011-06-17T17:13:27Z</time>
      </trkpt>
      <trkpt lat="59.0937812824" lon="17.6188942806">
        <ele>40.8</ele>
        <time>2011-06-17T17:13:31Z</time>
      </trkpt>
      <trkpt lat="59.0936349345" lon="17.6187315041">
        <ele>40.8</ele>
        <time>2011-06-17T17:13:37Z</time>
      </trkpt>
      <trkpt lat="59.0934617644" lon="17.6185374632">
        <ele>39.8</ele>
        <time>2011-06-17T17:13:44Z</time>
      </trkpt>
      <trkpt lat="59.0933181825" lon="17.6183872595">
        <ele>39.4</ele>
        <time>2011-06-17T17:13:50Z</time>
      </trkpt>
      <trkpt lat="59.0931694876" lon="17.6182267461">
        <ele>39.2</ele>
        <time>2011-06-17T17:13:56Z</time>
      </trkpt>
      <trkpt lat="59.0930316053" lon="17.6180711781">
        <ele>39</ele>
        <time>2011-06-17T17:14:02Z</time>
      </trkpt>
      <trkpt lat="59.0928662304" lon="17.6178997682">
        <ele>39</ele>
        <time>2011-06-17T17:14:09Z</time>
      </trkpt>
      <trkpt lat="59.092706639" lon="17.6177201441">
        <ele>38.8</ele>
        <time>2011-06-17T17:14:16Z</time>
      </trkpt>
      <trkpt lat="59.0925472153" lon="17.6175395141">
        <ele>38.4</ele>
        <time>2011-06-17T17:14:23Z</time>
      </trkpt>
      <trkpt lat="59.0924018732" lon="17.6173884723">
        <ele>37.6</ele>
        <time>2011-06-17T17:14:29Z</time>
      </trkpt>
      <trkpt lat="59.0922349057" lon="17.6172141288">
        <ele>37.2</ele>
        <time>2011-06-17T17:14:36Z</time>
      </trkpt>
      <trkpt lat="59.092069447" lon="17.6170336665">
        <ele>37</ele>
        <time>2011-06-17T17:14:43Z</time>
      </trkpt>
      <trkpt lat="59.0919005517" lon="17.6168632625">
        <ele>36.8</ele>
        <time>2011-06-17T17:14:50Z</time>
      </trkpt>
      <trkpt lat="59.0917756614" lon="17.6167335106">
        <ele>36.8</ele>
        <time>2011-06-17T17:14:55Z</time>
      </trkpt>
      <trkpt lat="59.0916059279" lon="17.6165441635">
        <ele>36.8</ele>
        <time>2011-06-17T17:15:02Z</time>
      </trkpt>
      <trkpt lat="59.0914874079" lon="17.6164210334">
        <ele>36.8</ele>
        <time>2011-06-17T17:15:07Z</time>
      </trkpt>
      <trkpt lat="59.091329912" lon="17.6162417446">
        <ele>36.8</ele>
        <time>2011-06-17T17:15:14Z</time>
      </trkpt>
      <trkpt lat="59.0911893475" lon="17.6160835781">
        <ele>36.8</ele>
        <time>2011-06-17T17:15:20Z</time>
      </trkpt>
      <trkpt lat="59.0910263195" lon="17.6158947339">
        <ele>36.8</ele>
        <time>2011-06-17T17:15:27Z</time>
      </trkpt>
      <trkpt lat="59.0908846654" lon="17.6157337176">
        <ele>36.8</ele>
        <time>2011-06-17T17:15:33Z</time>
      </trkpt>
      <trkpt lat="59.090729265" lon="17.6155615534">
        <ele>35.8</ele>
        <time>2011-06-17T17:15:40Z</time>
      </trkpt>
      <trkpt lat="59.0906155226" lon="17.6154282812">
        <ele>35.4</ele>
        <time>2011-06-17T17:15:45Z</time>
      </trkpt>
      <trkpt lat="59.0904768022" lon="17.6152697794">
        <ele>35.2</ele>
        <time>2011-06-17T17:15:51Z</time>
      </trkpt>
      <trkpt lat="59.0903570248" lon="17.6151367587">
        <ele>35</ele>
        <time>2011-06-17T17:15:56Z</time>
      </trkpt>
      <trkpt lat="59.0902255966" lon="17.6149990441">
        <ele>34.8</ele>
        <time>2011-06-17T17:16:02Z</time>
      </trkpt>
      <trkpt lat="59.0900667596" lon="17.6148024047">
        <ele>34.8</ele>
        <time>2011-06-17T17:16:09Z</time>
      </trkpt>
      <trkpt lat="59.0899034802" lon="17.6146154883">
        <ele>34.8</ele>
        <time>2011-06-17T17:16:16Z</time>
      </trkpt>
      <trkpt lat="59.0897521869" lon="17.6144367862">
        <ele>34.8</ele>
        <time>2011-06-17T17:16:23Z</time>
      </trkpt>
      <trkpt lat="59.0896671945" lon="17.6143264804">
        <ele>34.8</ele>
        <time>2011-06-17T17:16:27Z</time>
      </trkpt>
      <trkpt lat="59.0895085251" lon="17.6141529751">
        <ele>34.8</ele>
        <time>2011-06-17T17:16:34Z</time>
      </trkpt>
      <trkpt lat="59.0893532085" lon="17.6139827387">
        <ele>34.8</ele>
        <time>2011-06-17T17:16:41Z</time>
      </trkpt>
      <trkpt lat="59.089246926" lon="17.6138697507">
        <ele>34.8</ele>
        <time>2011-06-17T17:16:46Z</time>
      </trkpt>
      <trkpt lat="59.0891157493" lon="17.6137104108">
        <ele>34.8</ele>
        <time>2011-06-17T17:16:52Z</time>
      </trkpt>
      <trkpt lat="59.0889838182" lon="17.6135569382">
        <ele>34.8</ele>
        <time>2011-06-17T17:16:58Z</time>
      </trkpt>
      <trkpt lat="59.0888647952" lon="17.6133970115">
        <ele>34.8</ele>
        <time>2011-06-17T17:17:04Z</time>
      </trkpt>
      <trkpt lat="59.0888406553" lon="17.6133748833">
        <ele>34.8</ele>
        <time>2011-06-17T17:17:05Z</time>
      </trkpt>
      <trkpt lat="59.0887709179" lon="17.6133059003">
        <ele>34.8</ele>
        <time>2011-06-17T17:17:08Z</time>
      </trkpt>
      <trkpt lat="59.0886384839" lon="17.6131651682">
        <ele>33.8</ele>
        <time>2011-06-17T17:17:14Z</time>
      </trkpt>
      <trkpt lat="59.0885255797" lon="17.6130663456">
        <ele>33.4</ele>
        <time>2011-06-17T17:17:19Z</time>
      </trkpt>
      <trkpt lat="59.0883756275" lon="17.6129108613">
        <ele>33</ele>
        <time>2011-06-17T17:17:26Z</time>
      </trkpt>
      <trkpt lat="59.0882643159" lon="17.6128215103">
        <ele>32.2</ele>
        <time>2011-06-17T17:17:31Z</time>
      </trkpt>
      <trkpt lat="59.0881773956" lon="17.6127140543">
        <ele>31.8</ele>
        <time>2011-06-17T17:17:35Z</time>
      </trkpt>
      <trkpt lat="59.0880368311" lon="17.6125458296">
        <ele>31.2</ele>
        <time>2011-06-17T17:17:41Z</time>
      </trkpt>
      <trkpt lat="59.0878975239" lon="17.6123878308">
        <ele>31</ele>
        <time>2011-06-17T17:17:47Z</time>
      </trkpt>
      <trkpt lat="59.0877380164" lon="17.6122134872">
        <ele>31</ele>
        <time>2011-06-17T17:17:53Z</time>
      </trkpt>
      <trkpt lat="59.087570546" lon="17.6120435023">
        <ele>30</ele>
        <time>2011-06-17T17:17:59Z</time>
      </trkpt>
      <trkpt lat="59.0874085239" lon="17.6118671471">
        <ele>29.2</ele>
        <time>2011-06-17T17:18:05Z</time>
      </trkpt>
      <trkpt lat="59.0872982181" lon="17.6117256607">
        <ele>28.2</ele>
        <time>2011-06-17T17:18:10Z</time>
      </trkpt>
      <trkpt lat="59.0871663708" lon="17.6115844257">
        <ele>27.6</ele>
        <time>2011-06-17T17:18:15Z</time>
      </trkpt>
      <trkpt lat="59.0870222021" lon="17.6114149436">
        <ele>26.2</ele>
        <time>2011-06-17T17:18:21Z</time>
      </trkpt>
      <trkpt lat="59.0868469366" lon="17.6112253451">
        <ele>25.4</ele>
        <time>2011-06-17T17:18:28Z</time>
      </trkpt>
      <trkpt lat="59.0867167657" lon="17.6110576232">
        <ele>24</ele>
        <time>2011-06-17T17:18:34Z</time>
      </trkpt>
      <trkpt lat="59.0865771232" lon="17.6109037316">
        <ele>23.4</ele>
        <time>2011-06-17T17:18:40Z</time>
      </trkpt>
      <trkpt lat="59.0864256623" lon="17.6107068407">
        <ele>22.4</ele>
        <time>2011-06-17T17:18:47Z</time>
      </trkpt>
      <trkpt lat="59.0863798133" lon="17.6106556273">
        <ele>22</ele>
        <time>2011-06-17T17:18:49Z</time>
      </trkpt>
      <trkpt lat="59.086265568" lon="17.610534425">
        <ele>21.4</ele>
        <time>2011-06-17T17:18:54Z</time>
      </trkpt>
      <trkpt lat="59.086117376" lon="17.6103760071">
        <ele>20.8</ele>
        <time>2011-06-17T17:19:00Z</time>
      </trkpt>
      <trkpt lat="59.0858352412" lon="17.6100433295">
        <ele>20.4</ele>
        <time>2011-06-17T17:19:12Z</time>
      </trkpt>
      <trkpt lat="59.0856671003" lon="17.6098608556">
        <ele>20.4</ele>
        <time>2011-06-17T17:19:19Z</time>
      </trkpt>
      <trkpt lat="59.0855254462" lon="17.6096969056">
        <ele>19.6</ele>
        <time>2011-06-17T17:19:25Z</time>
      </trkpt>
      <trkpt lat="59.0853630888" lon="17.6095251605">
        <ele>19</ele>
        <time>2011-06-17T17:19:32Z</time>
      </trkpt>
      <trkpt lat="59.0851873204" lon="17.6093265933">
        <ele>18.6</ele>
        <time>2011-06-17T17:19:39Z</time>
      </trkpt>
      <trkpt lat="59.0850715663" lon="17.6091909741">
        <ele>18.4</ele>
        <time>2011-06-17T17:19:44Z</time>
      </trkpt>
      <trkpt lat="59.0849294931" lon="17.6090385073">
        <ele>18.4</ele>
        <time>2011-06-17T17:19:50Z</time>
      </trkpt>
      <trkpt lat="59.084836957" lon="17.6089471446">
        <ele>18.4</ele>
        <time>2011-06-17T17:19:54Z</time>
      </trkpt>
      <trkpt lat="59.0845806384" lon="17.6086717992">
        <ele>19.2</ele>
        <time>2011-06-17T17:20:05Z</time>
      </trkpt>
      <trkpt lat="59.0844339552" lon="17.6085141357">
        <ele>19.8</ele>
        <time>2011-06-17T17:20:11Z</time>
      </trkpt>
      <trkpt lat="59.0843218054" lon="17.6083806958">
        <ele>20</ele>
        <time>2011-06-17T17:20:16Z</time>
      </trkpt>
      <trkpt lat="59.0841635551" lon="17.6081571506">
        <ele>20.2</ele>
        <time>2011-06-17T17:20:24Z</time>
      </trkpt>
      <trkpt lat="59.0840327975" lon="17.6081058533">
        <ele>20.2</ele>
        <time>2011-06-17T17:20:29Z</time>
      </trkpt>
      <trkpt lat="59.0839094997" lon="17.6081323401">
        <ele>20.2</ele>
        <time>2011-06-17T17:20:34Z</time>
      </trkpt>
      <trkpt lat="59.0837746349" lon="17.6081296579">
        <ele>20.2</ele>
        <time>2011-06-17T17:20:39Z</time>
      </trkpt>
      <trkpt lat="59.0836410275" lon="17.6080832222">
        <ele>20.4</ele>
        <time>2011-06-17T17:20:44Z</time>
      </trkpt>
      <trkpt lat="59.0835035643" lon="17.6080263091">
        <ele>20.4</ele>
        <time>2011-06-17T17:20:49Z</time>
      </trkpt>
      <trkpt lat="59.0832984592" lon="17.6079500338">
        <ele>20.4</ele>
        <time>2011-06-17T17:20:56Z</time>
      </trkpt>
      <trkpt lat="59.0829710622" lon="17.6078487805">
        <ele>20.4</ele>
        <time>2011-06-17T17:21:08Z</time>
      </trkpt>
      <trkpt lat="59.0828059388" lon="17.6078462659">
        <ele>20.4</ele>
        <time>2011-06-17T17:21:14Z</time>
      </trkpt>
      <trkpt lat="59.0826141609" lon="17.6078495348">
        <ele>20.4</ele>
        <time>2011-06-17T17:21:21Z</time>
      </trkpt>
      <trkpt lat="59.0824762786" lon="17.607856408">
        <ele>20.4</ele>
        <time>2011-06-17T17:21:26Z</time>
      </trkpt>
      <trkpt lat="59.0823352113" lon="17.6078729203">
        <ele>20.4</ele>
        <time>2011-06-17T17:21:31Z</time>
      </trkpt>
      <trkpt lat="59.0821427628" lon="17.6079140755">
        <ele>20.4</ele>
        <time>2011-06-17T17:21:38Z</time>
      </trkpt>
      <trkpt lat="59.0820980035" lon="17.6079066156">
        <ele>20.4</ele>
        <time>2011-06-17T17:21:41Z</time>
      </trkpt>
      <trkpt lat="59.0822706706" lon="17.6078122354">
        <ele>20.2</ele>
        <time>2011-06-17T17:21:49Z</time>
      </trkpt>
      <trkpt lat="59.0824142526" lon="17.607792957">
        <ele>19.4</ele>
        <time>2011-06-17T17:21:54Z</time>
      </trkpt>
      <trkpt lat="59.0825981515" lon="17.6077538974">
        <ele>18.8</ele>
        <time>2011-06-17T17:22:00Z</time>
      </trkpt>
      <trkpt lat="59.082778949" lon="17.6077311824">
        <ele>18.6</ele>
        <time>2011-06-17T17:22:05Z</time>
      </trkpt>
      <trkpt lat="59.0829777677" lon="17.6077248122">
        <ele>18.4</ele>
        <time>2011-06-17T17:22:10Z</time>
      </trkpt>
      <trkpt lat="59.0831746585" lon="17.6077426656">
        <ele>18.4</ele>
        <time>2011-06-17T17:22:15Z</time>
      </trkpt>
      <trkpt lat="59.083361994" lon="17.6077833178">
        <ele>18.4</ele>
        <time>2011-06-17T17:22:20Z</time>
      </trkpt>
      <trkpt lat="59.0835494971" lon="17.6078383031">
        <ele>18.4</ele>
        <time>2011-06-17T17:22:25Z</time>
      </trkpt>
      <trkpt lat="59.0837564462" lon="17.6079019217">
        <ele>18.8</ele>
        <time>2011-06-17T17:22:31Z</time>
      </trkpt>
      <trkpt lat="59.0839542591" lon="17.6079522131">
        <ele>19.6</ele>
        <time>2011-06-17T17:22:37Z</time>
      </trkpt>
      <trkpt lat="59.0841482162" lon="17.6079063641">
        <ele>20</ele>
        <time>2011-06-17T17:22:43Z</time>
      </trkpt>
      <trkpt lat="59.0842677421" lon="17.6079681387">
        <ele>20</ele>
        <time>2011-06-17T17:22:47Z</time>
      </trkpt>
      <trkpt lat="59.0844392358" lon="17.6081894209">
        <ele>20.2</ele>
        <time>2011-06-17T17:22:53Z</time>
      </trkpt>
      <trkpt lat="59.084591032" lon="17.6083376129">
        <ele>20.2</ele>
        <time>2011-06-17T17:22:58Z</time>
      </trkpt>
      <trkpt lat="59.0846691513" lon="17.6084511038">
        <ele>20.4</ele>
        <time>2011-06-17T17:23:02Z</time>
      </trkpt>
      <trkpt lat="59.0847883419" lon="17.6085883155">
        <ele>20.4</ele>
        <time>2011-06-17T17:23:07Z</time>
      </trkpt>
      <trkpt lat="59.0849647809" lon="17.6087572108">
        <ele>20.4</ele>
        <time>2011-06-17T17:23:14Z</time>
      </trkpt>
      <trkpt lat="59.0851009868" lon="17.6088918241">
        <ele>20.4</ele>
        <time>2011-06-17T17:23:19Z</time>
      </trkpt>
      <trkpt lat="59.085283796" lon="17.6089477314">
        <ele>20.4</ele>
        <time>2011-06-17T17:23:24Z</time>
      </trkpt>
      <trkpt lat="59.0854478298" lon="17.6091071551">
        <ele>19.6</ele>
        <time>2011-06-17T17:23:29Z</time>
      </trkpt>
      <trkpt lat="59.0856077565" lon="17.6092803252">
        <ele>19</ele>
        <time>2011-06-17T17:23:34Z</time>
      </trkpt>
      <trkpt lat="59.0857691919" lon="17.609448969">
        <ele>18.8</ele>
        <time>2011-06-17T17:23:39Z</time>
      </trkpt>
      <trkpt lat="59.0859535937" lon="17.6096553314">
        <ele>18.6</ele>
        <time>2011-06-17T17:23:45Z</time>
      </trkpt>
      <trkpt lat="59.0861374926" lon="17.6098562455">
        <ele>17.8</ele>
        <time>2011-06-17T17:23:51Z</time>
      </trkpt>
      <trkpt lat="59.0861649852" lon="17.609892623">
        <ele>17.8</ele>
        <time>2011-06-17T17:23:52Z</time>
      </trkpt>
      <trkpt lat="59.0862600359" lon="17.6099958041">
        <ele>17.2</ele>
        <time>2011-06-17T17:23:56Z</time>
      </trkpt>
    </trkseg>
  </trk>
</gpx>